<?xml version="1.0" encoding="UTF-8" standalone="no" ?>
<gpx xmlns="http://www.topografix.com/GPX/1/1" xmlns:xsi="http://www.w3.org/2001/XMLSchema-instance" xsi:schemaLocation="http://www.topografix.com/GPX/1/1 http://www.topografix.com/GPX/1/1/gpx.xsd" version="1.1" creator="VisuGPX - https://www.visugpx.com">
  <metadata>
    <name>Ballade autour de fressines 79</name>
    <desc><![CDATA[Ballade autour de fressines 79]]></desc>
  </metadata>
  <trk>
    <name><![CDATA[Entraînement libre]]></name>
    <trkseg>
      <trkpt lat="46.32071" lon="-0.299">
        <ele>98.5892</ele>
        <time>2011-01-09T12:53:33Z</time>
      </trkpt>
      <trkpt lat="46.32071" lon="-0.29899">
        <ele>98.6939</ele>
        <time>2011-01-09T12:53:34Z</time>
      </trkpt>
      <trkpt lat="46.32072" lon="-0.29898">
        <ele>98.7895</ele>
        <time>2011-01-09T12:53:35Z</time>
      </trkpt>
      <trkpt lat="46.32073" lon="-0.29898">
        <ele>98.8826</ele>
        <time>2011-01-09T12:53:36Z</time>
      </trkpt>
      <trkpt lat="46.32074" lon="-0.29897">
        <ele>98.9604</ele>
        <time>2011-01-09T12:53:37Z</time>
      </trkpt>
      <trkpt lat="46.32075" lon="-0.29897">
        <ele>99.0269</ele>
        <time>2011-01-09T12:53:38Z</time>
      </trkpt>
      <trkpt lat="46.32076" lon="-0.29896">
        <ele>99.0833</ele>
        <time>2011-01-09T12:53:39Z</time>
      </trkpt>
      <trkpt lat="46.32076" lon="-0.29896">
        <ele>99.1235</ele>
        <time>2011-01-09T12:53:40Z</time>
      </trkpt>
      <trkpt lat="46.32077" lon="-0.29895">
        <ele>99.1509</ele>
        <time>2011-01-09T12:53:41Z</time>
      </trkpt>
      <trkpt lat="46.32079" lon="-0.29895">
        <ele>99.1722</ele>
        <time>2011-01-09T12:53:42Z</time>
      </trkpt>
      <trkpt lat="46.3208" lon="-0.29894">
        <ele>99.1927</ele>
        <time>2011-01-09T12:53:43Z</time>
      </trkpt>
      <trkpt lat="46.32081" lon="-0.29893">
        <ele>99.2102</ele>
        <time>2011-01-09T12:53:44Z</time>
      </trkpt>
      <trkpt lat="46.32082" lon="-0.29893">
        <ele>99.2236</ele>
        <time>2011-01-09T12:53:45Z</time>
      </trkpt>
      <trkpt lat="46.32083" lon="-0.29892">
        <ele>99.238</ele>
        <time>2011-01-09T12:53:46Z</time>
      </trkpt>
      <trkpt lat="46.32084" lon="-0.29892">
        <ele>99.252</ele>
        <time>2011-01-09T12:53:47Z</time>
      </trkpt>
      <trkpt lat="46.32084" lon="-0.29892">
        <ele>99.2619</ele>
        <time>2011-01-09T12:53:48Z</time>
      </trkpt>
      <trkpt lat="46.32085" lon="-0.29892">
        <ele>99.2656</ele>
        <time>2011-01-09T12:53:49Z</time>
      </trkpt>
      <trkpt lat="46.32086" lon="-0.29891">
        <ele>99.2662</ele>
        <time>2011-01-09T12:53:50Z</time>
      </trkpt>
      <trkpt lat="46.32087" lon="-0.29891">
        <ele>99.2572</ele>
        <time>2011-01-09T12:53:51Z</time>
      </trkpt>
      <trkpt lat="46.32087" lon="-0.2989">
        <ele>99.2383</ele>
        <time>2011-01-09T12:53:52Z</time>
      </trkpt>
      <trkpt lat="46.32088" lon="-0.29889">
        <ele>99.2095</ele>
        <time>2011-01-09T12:53:53Z</time>
      </trkpt>
      <trkpt lat="46.32089" lon="-0.29888">
        <ele>99.172</ele>
        <time>2011-01-09T12:53:54Z</time>
      </trkpt>
      <trkpt lat="46.3209" lon="-0.29887">
        <ele>99.1326</ele>
        <time>2011-01-09T12:53:55Z</time>
      </trkpt>
      <trkpt lat="46.3209" lon="-0.29886">
        <ele>99.0866</ele>
        <time>2011-01-09T12:53:56Z</time>
      </trkpt>
      <trkpt lat="46.32091" lon="-0.29885">
        <ele>99.0349</ele>
        <time>2011-01-09T12:53:57Z</time>
      </trkpt>
      <trkpt lat="46.32092" lon="-0.29884">
        <ele>98.985</ele>
        <time>2011-01-09T12:53:58Z</time>
      </trkpt>
      <trkpt lat="46.32093" lon="-0.29883">
        <ele>98.9374</ele>
        <time>2011-01-09T12:53:59Z</time>
      </trkpt>
      <trkpt lat="46.32093" lon="-0.29882">
        <ele>98.8874</ele>
        <time>2011-01-09T12:54:00Z</time>
      </trkpt>
      <trkpt lat="46.32094" lon="-0.29882">
        <ele>98.8442</ele>
        <time>2011-01-09T12:54:01Z</time>
      </trkpt>
      <trkpt lat="46.32095" lon="-0.29881">
        <ele>98.8039</ele>
        <time>2011-01-09T12:54:02Z</time>
      </trkpt>
      <trkpt lat="46.32097" lon="-0.2988">
        <ele>98.7665</ele>
        <time>2011-01-09T12:54:04Z</time>
      </trkpt>
      <trkpt lat="46.32097" lon="-0.29879">
        <ele>98.7293</ele>
        <time>2011-01-09T12:54:05Z</time>
      </trkpt>
      <trkpt lat="46.32098" lon="-0.29879">
        <ele>98.6918</ele>
        <time>2011-01-09T12:54:06Z</time>
      </trkpt>
      <trkpt lat="46.32099" lon="-0.29878">
        <ele>98.646</ele>
        <time>2011-01-09T12:54:07Z</time>
      </trkpt>
      <trkpt lat="46.321" lon="-0.29878">
        <ele>98.604</ele>
        <time>2011-01-09T12:54:08Z</time>
      </trkpt>
      <trkpt lat="46.32101" lon="-0.29878">
        <ele>98.5686</ele>
        <time>2011-01-09T12:54:09Z</time>
      </trkpt>
      <trkpt lat="46.32103" lon="-0.29877">
        <ele>98.5296</ele>
        <time>2011-01-09T12:54:10Z</time>
      </trkpt>
      <trkpt lat="46.32103" lon="-0.29876">
        <ele>98.491</ele>
        <time>2011-01-09T12:54:11Z</time>
      </trkpt>
      <trkpt lat="46.32104" lon="-0.29875">
        <ele>98.446</ele>
        <time>2011-01-09T12:54:12Z</time>
      </trkpt>
      <trkpt lat="46.32105" lon="-0.29874">
        <ele>98.4111</ele>
        <time>2011-01-09T12:54:13Z</time>
      </trkpt>
      <trkpt lat="46.32106" lon="-0.29873">
        <ele>98.3833</ele>
        <time>2011-01-09T12:54:14Z</time>
      </trkpt>
      <trkpt lat="46.32106" lon="-0.29872">
        <ele>98.3597</ele>
        <time>2011-01-09T12:54:15Z</time>
      </trkpt>
      <trkpt lat="46.32108" lon="-0.29871">
        <ele>98.3411</ele>
        <time>2011-01-09T12:54:16Z</time>
      </trkpt>
      <trkpt lat="46.32108" lon="-0.2987">
        <ele>98.3208</ele>
        <time>2011-01-09T12:54:17Z</time>
      </trkpt>
      <trkpt lat="46.32109" lon="-0.2987">
        <ele>98.3044</ele>
        <time>2011-01-09T12:54:18Z</time>
      </trkpt>
      <trkpt lat="46.3211" lon="-0.29869">
        <ele>98.2902</ele>
        <time>2011-01-09T12:54:19Z</time>
      </trkpt>
      <trkpt lat="46.32111" lon="-0.29869">
        <ele>98.2774</ele>
        <time>2011-01-09T12:54:20Z</time>
      </trkpt>
      <trkpt lat="46.32111" lon="-0.29868">
        <ele>98.266</ele>
        <time>2011-01-09T12:54:21Z</time>
      </trkpt>
      <trkpt lat="46.32112" lon="-0.29868">
        <ele>98.2565</ele>
        <time>2011-01-09T12:54:22Z</time>
      </trkpt>
      <trkpt lat="46.32113" lon="-0.29867">
        <ele>98.248</ele>
        <time>2011-01-09T12:54:23Z</time>
      </trkpt>
      <trkpt lat="46.32114" lon="-0.29866">
        <ele>98.2383</ele>
        <time>2011-01-09T12:54:24Z</time>
      </trkpt>
      <trkpt lat="46.32114" lon="-0.29865">
        <ele>98.2306</ele>
        <time>2011-01-09T12:54:25Z</time>
      </trkpt>
      <trkpt lat="46.32115" lon="-0.29864">
        <ele>98.2227</ele>
        <time>2011-01-09T12:54:26Z</time>
      </trkpt>
      <trkpt lat="46.32116" lon="-0.29864">
        <ele>98.2146</ele>
        <time>2011-01-09T12:54:27Z</time>
      </trkpt>
      <trkpt lat="46.32116" lon="-0.29863">
        <ele>98.205</ele>
        <time>2011-01-09T12:54:28Z</time>
      </trkpt>
      <trkpt lat="46.32117" lon="-0.29862">
        <ele>98.193</ele>
        <time>2011-01-09T12:54:29Z</time>
      </trkpt>
      <trkpt lat="46.32118" lon="-0.29861">
        <ele>98.1808</ele>
        <time>2011-01-09T12:54:30Z</time>
      </trkpt>
      <trkpt lat="46.32119" lon="-0.29861">
        <ele>98.1698</ele>
        <time>2011-01-09T12:54:31Z</time>
      </trkpt>
      <trkpt lat="46.3212" lon="-0.2986">
        <ele>98.1607</ele>
        <time>2011-01-09T12:54:32Z</time>
      </trkpt>
      <trkpt lat="46.32121" lon="-0.29859">
        <ele>98.1526</ele>
        <time>2011-01-09T12:54:33Z</time>
      </trkpt>
      <trkpt lat="46.32122" lon="-0.29859">
        <ele>98.1439</ele>
        <time>2011-01-09T12:54:34Z</time>
      </trkpt>
      <trkpt lat="46.32123" lon="-0.29858">
        <ele>98.1304</ele>
        <time>2011-01-09T12:54:35Z</time>
      </trkpt>
      <trkpt lat="46.32124" lon="-0.29857">
        <ele>98.112</ele>
        <time>2011-01-09T12:54:36Z</time>
      </trkpt>
      <trkpt lat="46.32125" lon="-0.29856">
        <ele>98.0943</ele>
        <time>2011-01-09T12:54:37Z</time>
      </trkpt>
      <trkpt lat="46.32126" lon="-0.29856">
        <ele>98.0755</ele>
        <time>2011-01-09T12:54:38Z</time>
      </trkpt>
      <trkpt lat="46.32127" lon="-0.29855">
        <ele>98.0572</ele>
        <time>2011-01-09T12:54:39Z</time>
      </trkpt>
      <trkpt lat="46.32128" lon="-0.29854">
        <ele>98.0395</ele>
        <time>2011-01-09T12:54:40Z</time>
      </trkpt>
      <trkpt lat="46.32129" lon="-0.29853">
        <ele>98.0251</ele>
        <time>2011-01-09T12:54:41Z</time>
      </trkpt>
      <trkpt lat="46.3213" lon="-0.29853">
        <ele>98.0131</ele>
        <time>2011-01-09T12:54:42Z</time>
      </trkpt>
      <trkpt lat="46.32131" lon="-0.29852">
        <ele>98.0037</ele>
        <time>2011-01-09T12:54:43Z</time>
      </trkpt>
      <trkpt lat="46.32132" lon="-0.29851">
        <ele>97.9964</ele>
        <time>2011-01-09T12:54:44Z</time>
      </trkpt>
      <trkpt lat="46.32133" lon="-0.2985">
        <ele>97.9895</ele>
        <time>2011-01-09T12:54:45Z</time>
      </trkpt>
      <trkpt lat="46.32134" lon="-0.2985">
        <ele>97.9827</ele>
        <time>2011-01-09T12:54:46Z</time>
      </trkpt>
      <trkpt lat="46.32135" lon="-0.29849">
        <ele>97.9752</ele>
        <time>2011-01-09T12:54:47Z</time>
      </trkpt>
      <trkpt lat="46.32136" lon="-0.29849">
        <ele>97.9657</ele>
        <time>2011-01-09T12:54:48Z</time>
      </trkpt>
      <trkpt lat="46.32137" lon="-0.29848">
        <ele>97.957</ele>
        <time>2011-01-09T12:54:49Z</time>
      </trkpt>
      <trkpt lat="46.32137" lon="-0.29848">
        <ele>97.9497</ele>
        <time>2011-01-09T12:54:50Z</time>
      </trkpt>
      <trkpt lat="46.32138" lon="-0.29847">
        <ele>97.9425</ele>
        <time>2011-01-09T12:54:51Z</time>
      </trkpt>
      <trkpt lat="46.32138" lon="-0.29847">
        <ele>97.9378</ele>
        <time>2011-01-09T12:54:52Z</time>
      </trkpt>
      <trkpt lat="46.32139" lon="-0.29846">
        <ele>97.9357</ele>
        <time>2011-01-09T12:54:53Z</time>
      </trkpt>
      <trkpt lat="46.3214" lon="-0.29846">
        <ele>97.9333</ele>
        <time>2011-01-09T12:54:54Z</time>
      </trkpt>
      <trkpt lat="46.32141" lon="-0.29845">
        <ele>97.9313</ele>
        <time>2011-01-09T12:54:55Z</time>
      </trkpt>
      <trkpt lat="46.32142" lon="-0.29844">
        <ele>97.9323</ele>
        <time>2011-01-09T12:54:56Z</time>
      </trkpt>
      <trkpt lat="46.32143" lon="-0.29843">
        <ele>97.9341</ele>
        <time>2011-01-09T12:54:57Z</time>
      </trkpt>
      <trkpt lat="46.32144" lon="-0.29842">
        <ele>97.9365</ele>
        <time>2011-01-09T12:54:58Z</time>
      </trkpt>
      <trkpt lat="46.32145" lon="-0.2984">
        <ele>97.9385</ele>
        <time>2011-01-09T12:54:59Z</time>
      </trkpt>
      <trkpt lat="46.32146" lon="-0.29839">
        <ele>97.9415</ele>
        <time>2011-01-09T12:55:00Z</time>
      </trkpt>
      <trkpt lat="46.32147" lon="-0.29838">
        <ele>97.9452</ele>
        <time>2011-01-09T12:55:01Z</time>
      </trkpt>
      <trkpt lat="46.32148" lon="-0.29836">
        <ele>97.9478</ele>
        <time>2011-01-09T12:55:02Z</time>
      </trkpt>
      <trkpt lat="46.32148" lon="-0.29835">
        <ele>97.9489</ele>
        <time>2011-01-09T12:55:03Z</time>
      </trkpt>
      <trkpt lat="46.32149" lon="-0.29834">
        <ele>97.9494</ele>
        <time>2011-01-09T12:55:04Z</time>
      </trkpt>
      <trkpt lat="46.3215" lon="-0.29832">
        <ele>97.9468</ele>
        <time>2011-01-09T12:55:05Z</time>
      </trkpt>
      <trkpt lat="46.3215" lon="-0.29831">
        <ele>97.9414</ele>
        <time>2011-01-09T12:55:06Z</time>
      </trkpt>
      <trkpt lat="46.32151" lon="-0.2983">
        <ele>97.9351</ele>
        <time>2011-01-09T12:55:07Z</time>
      </trkpt>
      <trkpt lat="46.32152" lon="-0.29829">
        <ele>97.9286</ele>
        <time>2011-01-09T12:55:08Z</time>
      </trkpt>
      <trkpt lat="46.32152" lon="-0.29828">
        <ele>97.9224</ele>
        <time>2011-01-09T12:55:09Z</time>
      </trkpt>
      <trkpt lat="46.32153" lon="-0.29828">
        <ele>97.9176</ele>
        <time>2011-01-09T12:55:10Z</time>
      </trkpt>
      <trkpt lat="46.32154" lon="-0.29827">
        <ele>97.9135</ele>
        <time>2011-01-09T12:55:11Z</time>
      </trkpt>
      <trkpt lat="46.32155" lon="-0.29826">
        <ele>97.9093</ele>
        <time>2011-01-09T12:55:12Z</time>
      </trkpt>
      <trkpt lat="46.32156" lon="-0.29825">
        <ele>97.9024</ele>
        <time>2011-01-09T12:55:13Z</time>
      </trkpt>
      <trkpt lat="46.32157" lon="-0.29824">
        <ele>97.8907</ele>
        <time>2011-01-09T12:55:14Z</time>
      </trkpt>
      <trkpt lat="46.32158" lon="-0.29822">
        <ele>97.875</ele>
        <time>2011-01-09T12:55:15Z</time>
      </trkpt>
      <trkpt lat="46.32159" lon="-0.29821">
        <ele>97.8593</ele>
        <time>2011-01-09T12:55:16Z</time>
      </trkpt>
      <trkpt lat="46.32159" lon="-0.29819">
        <ele>97.8384</ele>
        <time>2011-01-09T12:55:17Z</time>
      </trkpt>
      <trkpt lat="46.3216" lon="-0.29818">
        <ele>97.8177</ele>
        <time>2011-01-09T12:55:18Z</time>
      </trkpt>
      <trkpt lat="46.32161" lon="-0.29817">
        <ele>97.7987</ele>
        <time>2011-01-09T12:55:19Z</time>
      </trkpt>
      <trkpt lat="46.32161" lon="-0.29816">
        <ele>97.7785</ele>
        <time>2011-01-09T12:55:20Z</time>
      </trkpt>
      <trkpt lat="46.32162" lon="-0.29815">
        <ele>97.7614</ele>
        <time>2011-01-09T12:55:21Z</time>
      </trkpt>
      <trkpt lat="46.32162" lon="-0.29813">
        <ele>97.7519</ele>
        <time>2011-01-09T12:55:22Z</time>
      </trkpt>
      <trkpt lat="46.32163" lon="-0.29812">
        <ele>97.7417</ele>
        <time>2011-01-09T12:55:23Z</time>
      </trkpt>
      <trkpt lat="46.32163" lon="-0.29811">
        <ele>97.7316</ele>
        <time>2011-01-09T12:55:24Z</time>
      </trkpt>
      <trkpt lat="46.32163" lon="-0.29809">
        <ele>97.7211</ele>
        <time>2011-01-09T12:55:25Z</time>
      </trkpt>
      <trkpt lat="46.32164" lon="-0.29808">
        <ele>97.7104</ele>
        <time>2011-01-09T12:55:26Z</time>
      </trkpt>
      <trkpt lat="46.32164" lon="-0.29807">
        <ele>97.6957</ele>
        <time>2011-01-09T12:55:27Z</time>
      </trkpt>
      <trkpt lat="46.32164" lon="-0.29806">
        <ele>97.6747</ele>
        <time>2011-01-09T12:55:28Z</time>
      </trkpt>
      <trkpt lat="46.32165" lon="-0.29805">
        <ele>97.6482</ele>
        <time>2011-01-09T12:55:29Z</time>
      </trkpt>
      <trkpt lat="46.32165" lon="-0.29804">
        <ele>97.6195</ele>
        <time>2011-01-09T12:55:30Z</time>
      </trkpt>
      <trkpt lat="46.32166" lon="-0.29802">
        <ele>97.5827</ele>
        <time>2011-01-09T12:55:31Z</time>
      </trkpt>
      <trkpt lat="46.32166" lon="-0.29801">
        <ele>97.5443</ele>
        <time>2011-01-09T12:55:32Z</time>
      </trkpt>
      <trkpt lat="46.32166" lon="-0.298">
        <ele>97.5062</ele>
        <time>2011-01-09T12:55:33Z</time>
      </trkpt>
      <trkpt lat="46.32167" lon="-0.29799">
        <ele>97.4669</ele>
        <time>2011-01-09T12:55:34Z</time>
      </trkpt>
      <trkpt lat="46.32167" lon="-0.29798">
        <ele>97.4269</ele>
        <time>2011-01-09T12:55:35Z</time>
      </trkpt>
      <trkpt lat="46.32167" lon="-0.29797">
        <ele>97.3855</ele>
        <time>2011-01-09T12:55:36Z</time>
      </trkpt>
      <trkpt lat="46.32167" lon="-0.29796">
        <ele>97.3439</ele>
        <time>2011-01-09T12:55:37Z</time>
      </trkpt>
      <trkpt lat="46.32167" lon="-0.29795">
        <ele>97.3032</ele>
        <time>2011-01-09T12:55:38Z</time>
      </trkpt>
      <trkpt lat="46.32168" lon="-0.29793">
        <ele>97.2625</ele>
        <time>2011-01-09T12:55:39Z</time>
      </trkpt>
      <trkpt lat="46.32167" lon="-0.29792">
        <ele>97.2223</ele>
        <time>2011-01-09T12:55:40Z</time>
      </trkpt>
      <trkpt lat="46.32168" lon="-0.29791">
        <ele>97.1821</ele>
        <time>2011-01-09T12:55:41Z</time>
      </trkpt>
      <trkpt lat="46.32168" lon="-0.2979">
        <ele>97.1431</ele>
        <time>2011-01-09T12:55:42Z</time>
      </trkpt>
      <trkpt lat="46.32168" lon="-0.29788">
        <ele>97.1055</ele>
        <time>2011-01-09T12:55:43Z</time>
      </trkpt>
      <trkpt lat="46.32169" lon="-0.29787">
        <ele>97.0707</ele>
        <time>2011-01-09T12:55:44Z</time>
      </trkpt>
      <trkpt lat="46.32169" lon="-0.29786">
        <ele>97.0357</ele>
        <time>2011-01-09T12:55:45Z</time>
      </trkpt>
      <trkpt lat="46.32169" lon="-0.29784">
        <ele>97.0003</ele>
        <time>2011-01-09T12:55:46Z</time>
      </trkpt>
      <trkpt lat="46.3217" lon="-0.29783">
        <ele>96.9635</ele>
        <time>2011-01-09T12:55:47Z</time>
      </trkpt>
      <trkpt lat="46.3217" lon="-0.29781">
        <ele>96.9293</ele>
        <time>2011-01-09T12:55:48Z</time>
      </trkpt>
      <trkpt lat="46.32171" lon="-0.2978">
        <ele>96.897</ele>
        <time>2011-01-09T12:55:49Z</time>
      </trkpt>
      <trkpt lat="46.32171" lon="-0.29779">
        <ele>96.8655</ele>
        <time>2011-01-09T12:55:50Z</time>
      </trkpt>
      <trkpt lat="46.32172" lon="-0.29778">
        <ele>96.8165</ele>
        <time>2011-01-09T12:55:53Z</time>
      </trkpt>
      <trkpt lat="46.32173" lon="-0.29777">
        <ele>96.7856</ele>
        <time>2011-01-09T12:55:54Z</time>
      </trkpt>
      <trkpt lat="46.32174" lon="-0.29775">
        <ele>96.7561</ele>
        <time>2011-01-09T12:55:55Z</time>
      </trkpt>
      <trkpt lat="46.32174" lon="-0.29774">
        <ele>96.7168</ele>
        <time>2011-01-09T12:55:56Z</time>
      </trkpt>
      <trkpt lat="46.32175" lon="-0.29772">
        <ele>96.677</ele>
        <time>2011-01-09T12:55:57Z</time>
      </trkpt>
      <trkpt lat="46.32175" lon="-0.2977">
        <ele>96.6367</ele>
        <time>2011-01-09T12:55:58Z</time>
      </trkpt>
      <trkpt lat="46.32176" lon="-0.29768">
        <ele>96.5987</ele>
        <time>2011-01-09T12:55:59Z</time>
      </trkpt>
      <trkpt lat="46.32177" lon="-0.29767">
        <ele>96.5593</ele>
        <time>2011-01-09T12:56:00Z</time>
      </trkpt>
      <trkpt lat="46.32177" lon="-0.29765">
        <ele>96.5339</ele>
        <time>2011-01-09T12:56:01Z</time>
      </trkpt>
      <trkpt lat="46.32178" lon="-0.29764">
        <ele>96.5183</ele>
        <time>2011-01-09T12:56:02Z</time>
      </trkpt>
      <trkpt lat="46.32179" lon="-0.29763">
        <ele>96.5073</ele>
        <time>2011-01-09T12:56:03Z</time>
      </trkpt>
      <trkpt lat="46.32179" lon="-0.29762">
        <ele>96.5005</ele>
        <time>2011-01-09T12:56:04Z</time>
      </trkpt>
      <trkpt lat="46.32179" lon="-0.29761">
        <ele>96.4939</ele>
        <time>2011-01-09T12:56:05Z</time>
      </trkpt>
      <trkpt lat="46.3218" lon="-0.29759">
        <ele>96.485</ele>
        <time>2011-01-09T12:56:06Z</time>
      </trkpt>
      <trkpt lat="46.3218" lon="-0.29758">
        <ele>96.4857</ele>
        <time>2011-01-09T12:56:07Z</time>
      </trkpt>
      <trkpt lat="46.3218" lon="-0.29757">
        <ele>96.4902</ele>
        <time>2011-01-09T12:56:08Z</time>
      </trkpt>
      <trkpt lat="46.32181" lon="-0.29756">
        <ele>96.4931</ele>
        <time>2011-01-09T12:56:09Z</time>
      </trkpt>
      <trkpt lat="46.32181" lon="-0.29754">
        <ele>96.4947</ele>
        <time>2011-01-09T12:56:10Z</time>
      </trkpt>
      <trkpt lat="46.32182" lon="-0.29753">
        <ele>96.5025</ele>
        <time>2011-01-09T12:56:11Z</time>
      </trkpt>
      <trkpt lat="46.32183" lon="-0.29751">
        <ele>96.5155</ele>
        <time>2011-01-09T12:56:12Z</time>
      </trkpt>
      <trkpt lat="46.32184" lon="-0.29749">
        <ele>96.5331</ele>
        <time>2011-01-09T12:56:13Z</time>
      </trkpt>
      <trkpt lat="46.32184" lon="-0.29748">
        <ele>96.5528</ele>
        <time>2011-01-09T12:56:14Z</time>
      </trkpt>
      <trkpt lat="46.32185" lon="-0.29745">
        <ele>96.5745</ele>
        <time>2011-01-09T12:56:15Z</time>
      </trkpt>
      <trkpt lat="46.32185" lon="-0.29743">
        <ele>96.5928</ele>
        <time>2011-01-09T12:56:16Z</time>
      </trkpt>
      <trkpt lat="46.32186" lon="-0.29741">
        <ele>96.6122</ele>
        <time>2011-01-09T12:56:17Z</time>
      </trkpt>
      <trkpt lat="46.32186" lon="-0.29739">
        <ele>96.6311</ele>
        <time>2011-01-09T12:56:18Z</time>
      </trkpt>
      <trkpt lat="46.32186" lon="-0.29737">
        <ele>96.6482</ele>
        <time>2011-01-09T12:56:19Z</time>
      </trkpt>
      <trkpt lat="46.32186" lon="-0.29736">
        <ele>96.6665</ele>
        <time>2011-01-09T12:56:20Z</time>
      </trkpt>
      <trkpt lat="46.32186" lon="-0.29734">
        <ele>96.6801</ele>
        <time>2011-01-09T12:56:21Z</time>
      </trkpt>
      <trkpt lat="46.32186" lon="-0.29732">
        <ele>96.6873</ele>
        <time>2011-01-09T12:56:22Z</time>
      </trkpt>
      <trkpt lat="46.32186" lon="-0.29731">
        <ele>96.6899</ele>
        <time>2011-01-09T12:56:23Z</time>
      </trkpt>
      <trkpt lat="46.32186" lon="-0.2973">
        <ele>96.6894</ele>
        <time>2011-01-09T12:56:24Z</time>
      </trkpt>
      <trkpt lat="46.32186" lon="-0.29729">
        <ele>96.6846</ele>
        <time>2011-01-09T12:56:25Z</time>
      </trkpt>
      <trkpt lat="46.32187" lon="-0.29729">
        <ele>96.6678</ele>
        <time>2011-01-09T12:56:28Z</time>
      </trkpt>
      <trkpt lat="46.32187" lon="-0.2973">
        <ele>96.6584</ele>
        <time>2011-01-09T12:56:29Z</time>
      </trkpt>
      <trkpt lat="46.32187" lon="-0.29732">
        <ele>96.66</ele>
        <time>2011-01-09T12:56:30Z</time>
      </trkpt>
      <trkpt lat="46.32188" lon="-0.29734">
        <ele>96.6674</ele>
        <time>2011-01-09T12:56:31Z</time>
      </trkpt>
      <trkpt lat="46.32188" lon="-0.29736">
        <ele>96.6774</ele>
        <time>2011-01-09T12:56:32Z</time>
      </trkpt>
      <trkpt lat="46.32187" lon="-0.29738">
        <ele>96.6892</ele>
        <time>2011-01-09T12:56:33Z</time>
      </trkpt>
      <trkpt lat="46.32187" lon="-0.29741">
        <ele>96.7019</ele>
        <time>2011-01-09T12:56:34Z</time>
      </trkpt>
      <trkpt lat="46.32187" lon="-0.29742">
        <ele>96.7192</ele>
        <time>2011-01-09T12:56:35Z</time>
      </trkpt>
      <trkpt lat="46.32187" lon="-0.29744">
        <ele>96.7401</ele>
        <time>2011-01-09T12:56:36Z</time>
      </trkpt>
      <trkpt lat="46.32187" lon="-0.29744">
        <ele>96.7689</ele>
        <time>2011-01-09T12:56:37Z</time>
      </trkpt>
      <trkpt lat="46.32187" lon="-0.29745">
        <ele>96.8042</ele>
        <time>2011-01-09T12:56:38Z</time>
      </trkpt>
      <trkpt lat="46.32187" lon="-0.29746">
        <ele>96.8409</ele>
        <time>2011-01-09T12:56:39Z</time>
      </trkpt>
      <trkpt lat="46.32187" lon="-0.29747">
        <ele>96.877</ele>
        <time>2011-01-09T12:56:40Z</time>
      </trkpt>
      <trkpt lat="46.32187" lon="-0.29748">
        <ele>96.9109</ele>
        <time>2011-01-09T12:56:41Z</time>
      </trkpt>
      <trkpt lat="46.32187" lon="-0.29749">
        <ele>96.9328</ele>
        <time>2011-01-09T12:56:42Z</time>
      </trkpt>
      <trkpt lat="46.32185" lon="-0.29748">
        <ele>97.1774</ele>
        <time>2011-01-09T12:56:57Z</time>
      </trkpt>
      <trkpt lat="46.32185" lon="-0.29749">
        <ele>97.2562</ele>
        <time>2011-01-09T12:56:58Z</time>
      </trkpt>
      <trkpt lat="46.32186" lon="-0.2975">
        <ele>97.3344</ele>
        <time>2011-01-09T12:56:59Z</time>
      </trkpt>
      <trkpt lat="46.32186" lon="-0.29751">
        <ele>97.4114</ele>
        <time>2011-01-09T12:57:00Z</time>
      </trkpt>
      <trkpt lat="46.32187" lon="-0.29753">
        <ele>97.4869</ele>
        <time>2011-01-09T12:57:01Z</time>
      </trkpt>
      <trkpt lat="46.32187" lon="-0.29755">
        <ele>97.6202</ele>
        <time>2011-01-09T12:57:05Z</time>
      </trkpt>
      <trkpt lat="46.32187" lon="-0.29757">
        <ele>97.6777</ele>
        <time>2011-01-09T12:57:06Z</time>
      </trkpt>
      <trkpt lat="46.32188" lon="-0.29759">
        <ele>97.7353</ele>
        <time>2011-01-09T12:57:07Z</time>
      </trkpt>
      <trkpt lat="46.32188" lon="-0.2976">
        <ele>97.7929</ele>
        <time>2011-01-09T12:57:08Z</time>
      </trkpt>
      <trkpt lat="46.32189" lon="-0.29762">
        <ele>97.8494</ele>
        <time>2011-01-09T12:57:09Z</time>
      </trkpt>
      <trkpt lat="46.3219" lon="-0.29763">
        <ele>97.9057</ele>
        <time>2011-01-09T12:57:10Z</time>
      </trkpt>
      <trkpt lat="46.32191" lon="-0.29765">
        <ele>97.9609</ele>
        <time>2011-01-09T12:57:11Z</time>
      </trkpt>
      <trkpt lat="46.32192" lon="-0.29767">
        <ele>98.0127</ele>
        <time>2011-01-09T12:57:12Z</time>
      </trkpt>
      <trkpt lat="46.32193" lon="-0.29768">
        <ele>98.0545</ele>
        <time>2011-01-09T12:57:13Z</time>
      </trkpt>
      <trkpt lat="46.32193" lon="-0.2977">
        <ele>98.0964</ele>
        <time>2011-01-09T12:57:14Z</time>
      </trkpt>
      <trkpt lat="46.32194" lon="-0.29771">
        <ele>98.1345</ele>
        <time>2011-01-09T12:57:15Z</time>
      </trkpt>
      <trkpt lat="46.32195" lon="-0.29773">
        <ele>98.1718</ele>
        <time>2011-01-09T12:57:16Z</time>
      </trkpt>
      <trkpt lat="46.32196" lon="-0.29774">
        <ele>98.2075</ele>
        <time>2011-01-09T12:57:17Z</time>
      </trkpt>
      <trkpt lat="46.32196" lon="-0.29774">
        <ele>98.2421</ele>
        <time>2011-01-09T12:57:18Z</time>
      </trkpt>
      <trkpt lat="46.32197" lon="-0.29775">
        <ele>98.2722</ele>
        <time>2011-01-09T12:57:19Z</time>
      </trkpt>
      <trkpt lat="46.32198" lon="-0.29776">
        <ele>98.2994</ele>
        <time>2011-01-09T12:57:20Z</time>
      </trkpt>
      <trkpt lat="46.32199" lon="-0.29778">
        <ele>98.317</ele>
        <time>2011-01-09T12:57:21Z</time>
      </trkpt>
      <trkpt lat="46.322" lon="-0.29778">
        <ele>98.3329</ele>
        <time>2011-01-09T12:57:22Z</time>
      </trkpt>
      <trkpt lat="46.322" lon="-0.29779">
        <ele>98.3496</ele>
        <time>2011-01-09T12:57:23Z</time>
      </trkpt>
      <trkpt lat="46.32201" lon="-0.29779">
        <ele>98.3644</ele>
        <time>2011-01-09T12:57:24Z</time>
      </trkpt>
      <trkpt lat="46.32202" lon="-0.29779">
        <ele>98.3756</ele>
        <time>2011-01-09T12:57:25Z</time>
      </trkpt>
      <trkpt lat="46.32203" lon="-0.2978">
        <ele>98.3873</ele>
        <time>2011-01-09T12:57:26Z</time>
      </trkpt>
      <trkpt lat="46.32204" lon="-0.2978">
        <ele>98.4013</ele>
        <time>2011-01-09T12:57:27Z</time>
      </trkpt>
      <trkpt lat="46.32204" lon="-0.29781">
        <ele>98.4182</ele>
        <time>2011-01-09T12:57:28Z</time>
      </trkpt>
      <trkpt lat="46.32206" lon="-0.29781">
        <ele>98.4325</ele>
        <time>2011-01-09T12:57:29Z</time>
      </trkpt>
      <trkpt lat="46.32207" lon="-0.29782">
        <ele>98.4454</ele>
        <time>2011-01-09T12:57:30Z</time>
      </trkpt>
      <trkpt lat="46.32208" lon="-0.29783">
        <ele>98.4602</ele>
        <time>2011-01-09T12:57:31Z</time>
      </trkpt>
      <trkpt lat="46.32209" lon="-0.29783">
        <ele>98.4794</ele>
        <time>2011-01-09T12:57:32Z</time>
      </trkpt>
      <trkpt lat="46.3221" lon="-0.29784">
        <ele>98.4976</ele>
        <time>2011-01-09T12:57:33Z</time>
      </trkpt>
      <trkpt lat="46.32211" lon="-0.29785">
        <ele>98.5133</ele>
        <time>2011-01-09T12:57:34Z</time>
      </trkpt>
      <trkpt lat="46.32212" lon="-0.29785">
        <ele>98.534</ele>
        <time>2011-01-09T12:57:35Z</time>
      </trkpt>
      <trkpt lat="46.32213" lon="-0.29786">
        <ele>98.5587</ele>
        <time>2011-01-09T12:57:36Z</time>
      </trkpt>
      <trkpt lat="46.32214" lon="-0.29787">
        <ele>98.5723</ele>
        <time>2011-01-09T12:57:37Z</time>
      </trkpt>
      <trkpt lat="46.32214" lon="-0.29788">
        <ele>98.5802</ele>
        <time>2011-01-09T12:57:38Z</time>
      </trkpt>
      <trkpt lat="46.32215" lon="-0.29789">
        <ele>98.582</ele>
        <time>2011-01-09T12:57:39Z</time>
      </trkpt>
      <trkpt lat="46.32216" lon="-0.2979">
        <ele>98.5903</ele>
        <time>2011-01-09T12:57:40Z</time>
      </trkpt>
      <trkpt lat="46.32217" lon="-0.29791">
        <ele>98.6016</ele>
        <time>2011-01-09T12:57:41Z</time>
      </trkpt>
      <trkpt lat="46.32218" lon="-0.29793">
        <ele>98.6079</ele>
        <time>2011-01-09T12:57:42Z</time>
      </trkpt>
      <trkpt lat="46.32219" lon="-0.29794">
        <ele>98.6147</ele>
        <time>2011-01-09T12:57:43Z</time>
      </trkpt>
      <trkpt lat="46.3222" lon="-0.29795">
        <ele>98.6245</ele>
        <time>2011-01-09T12:57:44Z</time>
      </trkpt>
      <trkpt lat="46.32221" lon="-0.29797">
        <ele>98.6341</ele>
        <time>2011-01-09T12:57:45Z</time>
      </trkpt>
      <trkpt lat="46.32221" lon="-0.29798">
        <ele>98.6423</ele>
        <time>2011-01-09T12:57:46Z</time>
      </trkpt>
      <trkpt lat="46.32222" lon="-0.298">
        <ele>98.6482</ele>
        <time>2011-01-09T12:57:47Z</time>
      </trkpt>
      <trkpt lat="46.32222" lon="-0.29801">
        <ele>98.654</ele>
        <time>2011-01-09T12:57:48Z</time>
      </trkpt>
      <trkpt lat="46.32223" lon="-0.29803">
        <ele>98.6589</ele>
        <time>2011-01-09T12:57:49Z</time>
      </trkpt>
      <trkpt lat="46.32224" lon="-0.29804">
        <ele>98.6626</ele>
        <time>2011-01-09T12:57:50Z</time>
      </trkpt>
      <trkpt lat="46.32225" lon="-0.29805">
        <ele>98.6674</ele>
        <time>2011-01-09T12:57:51Z</time>
      </trkpt>
      <trkpt lat="46.32225" lon="-0.29806">
        <ele>98.68</ele>
        <time>2011-01-09T12:57:52Z</time>
      </trkpt>
      <trkpt lat="46.32226" lon="-0.29807">
        <ele>98.7001</ele>
        <time>2011-01-09T12:57:53Z</time>
      </trkpt>
      <trkpt lat="46.32227" lon="-0.29808">
        <ele>98.7208</ele>
        <time>2011-01-09T12:57:54Z</time>
      </trkpt>
      <trkpt lat="46.32227" lon="-0.29808">
        <ele>98.742</ele>
        <time>2011-01-09T12:57:55Z</time>
      </trkpt>
      <trkpt lat="46.32228" lon="-0.29809">
        <ele>98.7663</ele>
        <time>2011-01-09T12:57:56Z</time>
      </trkpt>
      <trkpt lat="46.32228" lon="-0.2981">
        <ele>98.7915</ele>
        <time>2011-01-09T12:57:57Z</time>
      </trkpt>
      <trkpt lat="46.32229" lon="-0.2981">
        <ele>98.8148</ele>
        <time>2011-01-09T12:57:58Z</time>
      </trkpt>
      <trkpt lat="46.32229" lon="-0.29811">
        <ele>98.8366</ele>
        <time>2011-01-09T12:57:59Z</time>
      </trkpt>
      <trkpt lat="46.3223" lon="-0.29812">
        <ele>98.8575</ele>
        <time>2011-01-09T12:58:00Z</time>
      </trkpt>
      <trkpt lat="46.3223" lon="-0.29813">
        <ele>98.878</ele>
        <time>2011-01-09T12:58:01Z</time>
      </trkpt>
      <trkpt lat="46.3223" lon="-0.29815">
        <ele>98.8958</ele>
        <time>2011-01-09T12:58:02Z</time>
      </trkpt>
      <trkpt lat="46.32231" lon="-0.29816">
        <ele>98.9099</ele>
        <time>2011-01-09T12:58:03Z</time>
      </trkpt>
      <trkpt lat="46.32232" lon="-0.29818">
        <ele>98.9258</ele>
        <time>2011-01-09T12:58:04Z</time>
      </trkpt>
      <trkpt lat="46.32232" lon="-0.2982">
        <ele>98.9375</ele>
        <time>2011-01-09T12:58:05Z</time>
      </trkpt>
      <trkpt lat="46.32232" lon="-0.29821">
        <ele>98.9427</ele>
        <time>2011-01-09T12:58:06Z</time>
      </trkpt>
      <trkpt lat="46.32233" lon="-0.29823">
        <ele>98.9483</ele>
        <time>2011-01-09T12:58:07Z</time>
      </trkpt>
      <trkpt lat="46.32233" lon="-0.29824">
        <ele>98.9544</ele>
        <time>2011-01-09T12:58:08Z</time>
      </trkpt>
      <trkpt lat="46.32235" lon="-0.29825">
        <ele>98.9598</ele>
        <time>2011-01-09T12:58:09Z</time>
      </trkpt>
      <trkpt lat="46.32235" lon="-0.29827">
        <ele>98.9662</ele>
        <time>2011-01-09T12:58:10Z</time>
      </trkpt>
      <trkpt lat="46.32235" lon="-0.29828">
        <ele>98.9671</ele>
        <time>2011-01-09T12:58:11Z</time>
      </trkpt>
      <trkpt lat="46.32236" lon="-0.2983">
        <ele>98.9631</ele>
        <time>2011-01-09T12:58:12Z</time>
      </trkpt>
      <trkpt lat="46.32237" lon="-0.29831">
        <ele>98.9567</ele>
        <time>2011-01-09T12:58:13Z</time>
      </trkpt>
      <trkpt lat="46.32238" lon="-0.29832">
        <ele>98.9457</ele>
        <time>2011-01-09T12:58:14Z</time>
      </trkpt>
      <trkpt lat="46.32239" lon="-0.29833">
        <ele>98.934</ele>
        <time>2011-01-09T12:58:15Z</time>
      </trkpt>
      <trkpt lat="46.3224" lon="-0.29835">
        <ele>98.9225</ele>
        <time>2011-01-09T12:58:16Z</time>
      </trkpt>
      <trkpt lat="46.32241" lon="-0.29835">
        <ele>98.9032</ele>
        <time>2011-01-09T12:58:17Z</time>
      </trkpt>
      <trkpt lat="46.32242" lon="-0.29836">
        <ele>98.8773</ele>
        <time>2011-01-09T12:58:18Z</time>
      </trkpt>
      <trkpt lat="46.32243" lon="-0.29837">
        <ele>98.854</ele>
        <time>2011-01-09T12:58:19Z</time>
      </trkpt>
      <trkpt lat="46.32243" lon="-0.29838">
        <ele>98.8294</ele>
        <time>2011-01-09T12:58:20Z</time>
      </trkpt>
      <trkpt lat="46.32245" lon="-0.29839">
        <ele>98.81</ele>
        <time>2011-01-09T12:58:21Z</time>
      </trkpt>
      <trkpt lat="46.32246" lon="-0.29839">
        <ele>98.7969</ele>
        <time>2011-01-09T12:58:22Z</time>
      </trkpt>
      <trkpt lat="46.32247" lon="-0.2984">
        <ele>98.7858</ele>
        <time>2011-01-09T12:58:23Z</time>
      </trkpt>
      <trkpt lat="46.32248" lon="-0.2984">
        <ele>98.7766</ele>
        <time>2011-01-09T12:58:24Z</time>
      </trkpt>
      <trkpt lat="46.32249" lon="-0.29841">
        <ele>98.7705</ele>
        <time>2011-01-09T12:58:25Z</time>
      </trkpt>
      <trkpt lat="46.3225" lon="-0.29841">
        <ele>98.7655</ele>
        <time>2011-01-09T12:58:26Z</time>
      </trkpt>
      <trkpt lat="46.32251" lon="-0.2984">
        <ele>98.7617</ele>
        <time>2011-01-09T12:58:27Z</time>
      </trkpt>
      <trkpt lat="46.32253" lon="-0.29839">
        <ele>98.7587</ele>
        <time>2011-01-09T12:58:28Z</time>
      </trkpt>
      <trkpt lat="46.32254" lon="-0.29839">
        <ele>98.7557</ele>
        <time>2011-01-09T12:58:29Z</time>
      </trkpt>
      <trkpt lat="46.32254" lon="-0.29839">
        <ele>98.7516</ele>
        <time>2011-01-09T12:58:30Z</time>
      </trkpt>
      <trkpt lat="46.32255" lon="-0.29838">
        <ele>98.7486</ele>
        <time>2011-01-09T12:58:31Z</time>
      </trkpt>
      <trkpt lat="46.32256" lon="-0.29838">
        <ele>98.7448</ele>
        <time>2011-01-09T12:58:32Z</time>
      </trkpt>
      <trkpt lat="46.32256" lon="-0.29837">
        <ele>98.7393</ele>
        <time>2011-01-09T12:58:33Z</time>
      </trkpt>
      <trkpt lat="46.32257" lon="-0.29836">
        <ele>98.7359</ele>
        <time>2011-01-09T12:58:34Z</time>
      </trkpt>
      <trkpt lat="46.32258" lon="-0.29835">
        <ele>98.7334</ele>
        <time>2011-01-09T12:58:35Z</time>
      </trkpt>
      <trkpt lat="46.32259" lon="-0.29834">
        <ele>98.7345</ele>
        <time>2011-01-09T12:58:36Z</time>
      </trkpt>
      <trkpt lat="46.32259" lon="-0.29834">
        <ele>98.7358</ele>
        <time>2011-01-09T12:58:37Z</time>
      </trkpt>
      <trkpt lat="46.3226" lon="-0.29833">
        <ele>98.7369</ele>
        <time>2011-01-09T12:58:38Z</time>
      </trkpt>
      <trkpt lat="46.32261" lon="-0.29832">
        <ele>98.7344</ele>
        <time>2011-01-09T12:58:39Z</time>
      </trkpt>
      <trkpt lat="46.32261" lon="-0.29831">
        <ele>98.7312</ele>
        <time>2011-01-09T12:58:40Z</time>
      </trkpt>
      <trkpt lat="46.32262" lon="-0.2983">
        <ele>98.7281</ele>
        <time>2011-01-09T12:58:41Z</time>
      </trkpt>
      <trkpt lat="46.32262" lon="-0.29829">
        <ele>98.7293</ele>
        <time>2011-01-09T12:58:42Z</time>
      </trkpt>
      <trkpt lat="46.32263" lon="-0.29828">
        <ele>98.731</ele>
        <time>2011-01-09T12:58:43Z</time>
      </trkpt>
      <trkpt lat="46.32264" lon="-0.29828">
        <ele>98.7359</ele>
        <time>2011-01-09T12:58:44Z</time>
      </trkpt>
      <trkpt lat="46.32264" lon="-0.29827">
        <ele>98.7445</ele>
        <time>2011-01-09T12:58:45Z</time>
      </trkpt>
      <trkpt lat="46.32265" lon="-0.29826">
        <ele>98.753</ele>
        <time>2011-01-09T12:58:46Z</time>
      </trkpt>
      <trkpt lat="46.32266" lon="-0.29826">
        <ele>98.7591</ele>
        <time>2011-01-09T12:58:47Z</time>
      </trkpt>
      <trkpt lat="46.32266" lon="-0.29825">
        <ele>98.7625</ele>
        <time>2011-01-09T12:58:48Z</time>
      </trkpt>
      <trkpt lat="46.32267" lon="-0.29825">
        <ele>98.7658</ele>
        <time>2011-01-09T12:58:49Z</time>
      </trkpt>
      <trkpt lat="46.32269" lon="-0.29826">
        <ele>98.79</ele>
        <time>2011-01-09T12:58:50Z</time>
      </trkpt>
      <trkpt lat="46.3227" lon="-0.29826">
        <ele>98.8274</ele>
        <time>2011-01-09T12:58:51Z</time>
      </trkpt>
      <trkpt lat="46.32272" lon="-0.29826">
        <ele>98.8723</ele>
        <time>2011-01-09T12:58:52Z</time>
      </trkpt>
      <trkpt lat="46.32274" lon="-0.29825">
        <ele>98.9107</ele>
        <time>2011-01-09T12:58:53Z</time>
      </trkpt>
      <trkpt lat="46.32275" lon="-0.29824">
        <ele>98.9456</ele>
        <time>2011-01-09T12:58:54Z</time>
      </trkpt>
      <trkpt lat="46.32276" lon="-0.29823">
        <ele>98.9713</ele>
        <time>2011-01-09T12:58:55Z</time>
      </trkpt>
      <trkpt lat="46.32277" lon="-0.29822">
        <ele>98.9968</ele>
        <time>2011-01-09T12:58:56Z</time>
      </trkpt>
      <trkpt lat="46.32277" lon="-0.29821">
        <ele>99.0211</ele>
        <time>2011-01-09T12:58:57Z</time>
      </trkpt>
      <trkpt lat="46.32277" lon="-0.2982">
        <ele>99.0448</ele>
        <time>2011-01-09T12:58:58Z</time>
      </trkpt>
      <trkpt lat="46.32278" lon="-0.29819">
        <ele>99.0655</ele>
        <time>2011-01-09T12:58:59Z</time>
      </trkpt>
      <trkpt lat="46.3228" lon="-0.29818">
        <ele>99.0793</ele>
        <time>2011-01-09T12:59:00Z</time>
      </trkpt>
      <trkpt lat="46.32281" lon="-0.29817">
        <ele>99.0943</ele>
        <time>2011-01-09T12:59:01Z</time>
      </trkpt>
      <trkpt lat="46.32282" lon="-0.29817">
        <ele>99.1081</ele>
        <time>2011-01-09T12:59:02Z</time>
      </trkpt>
      <trkpt lat="46.32283" lon="-0.29816">
        <ele>99.1219</ele>
        <time>2011-01-09T12:59:03Z</time>
      </trkpt>
      <trkpt lat="46.32284" lon="-0.29815">
        <ele>99.1395</ele>
        <time>2011-01-09T12:59:04Z</time>
      </trkpt>
      <trkpt lat="46.32285" lon="-0.29815">
        <ele>99.1532</ele>
        <time>2011-01-09T12:59:05Z</time>
      </trkpt>
      <trkpt lat="46.32286" lon="-0.29814">
        <ele>99.1616</ele>
        <time>2011-01-09T12:59:06Z</time>
      </trkpt>
      <trkpt lat="46.32287" lon="-0.29814">
        <ele>99.1731</ele>
        <time>2011-01-09T12:59:07Z</time>
      </trkpt>
      <trkpt lat="46.32288" lon="-0.29813">
        <ele>99.1841</ele>
        <time>2011-01-09T12:59:08Z</time>
      </trkpt>
      <trkpt lat="46.32289" lon="-0.29813">
        <ele>99.1949</ele>
        <time>2011-01-09T12:59:09Z</time>
      </trkpt>
      <trkpt lat="46.3229" lon="-0.29813">
        <ele>99.2042</ele>
        <time>2011-01-09T12:59:10Z</time>
      </trkpt>
      <trkpt lat="46.32291" lon="-0.29812">
        <ele>99.2203</ele>
        <time>2011-01-09T12:59:11Z</time>
      </trkpt>
      <trkpt lat="46.32292" lon="-0.29812">
        <ele>99.2357</ele>
        <time>2011-01-09T12:59:12Z</time>
      </trkpt>
      <trkpt lat="46.32293" lon="-0.29812">
        <ele>99.246</ele>
        <time>2011-01-09T12:59:13Z</time>
      </trkpt>
      <trkpt lat="46.32294" lon="-0.29811">
        <ele>99.2617</ele>
        <time>2011-01-09T12:59:14Z</time>
      </trkpt>
      <trkpt lat="46.32295" lon="-0.29811">
        <ele>99.2745</ele>
        <time>2011-01-09T12:59:15Z</time>
      </trkpt>
      <trkpt lat="46.32296" lon="-0.2981">
        <ele>99.2827</ele>
        <time>2011-01-09T12:59:16Z</time>
      </trkpt>
      <trkpt lat="46.32298" lon="-0.29809">
        <ele>99.293</ele>
        <time>2011-01-09T12:59:17Z</time>
      </trkpt>
      <trkpt lat="46.32299" lon="-0.29808">
        <ele>99.2995</ele>
        <time>2011-01-09T12:59:18Z</time>
      </trkpt>
      <trkpt lat="46.32299" lon="-0.29807">
        <ele>99.3022</ele>
        <time>2011-01-09T12:59:19Z</time>
      </trkpt>
      <trkpt lat="46.32301" lon="-0.29807">
        <ele>99.3025</ele>
        <time>2011-01-09T12:59:20Z</time>
      </trkpt>
      <trkpt lat="46.32301" lon="-0.29807">
        <ele>99.2974</ele>
        <time>2011-01-09T12:59:21Z</time>
      </trkpt>
      <trkpt lat="46.32302" lon="-0.29805">
        <ele>99.2915</ele>
        <time>2011-01-09T12:59:22Z</time>
      </trkpt>
      <trkpt lat="46.32302" lon="-0.29804">
        <ele>99.2779</ele>
        <time>2011-01-09T12:59:23Z</time>
      </trkpt>
      <trkpt lat="46.32303" lon="-0.29803">
        <ele>99.2634</ele>
        <time>2011-01-09T12:59:24Z</time>
      </trkpt>
      <trkpt lat="46.32304" lon="-0.29803">
        <ele>99.244</ele>
        <time>2011-01-09T12:59:25Z</time>
      </trkpt>
      <trkpt lat="46.32304" lon="-0.29802">
        <ele>99.2079</ele>
        <time>2011-01-09T12:59:26Z</time>
      </trkpt>
      <trkpt lat="46.32305" lon="-0.29802">
        <ele>99.1546</ele>
        <time>2011-01-09T12:59:27Z</time>
      </trkpt>
      <trkpt lat="46.32306" lon="-0.29802">
        <ele>99.0889</ele>
        <time>2011-01-09T12:59:28Z</time>
      </trkpt>
      <trkpt lat="46.32307" lon="-0.29801">
        <ele>99.0129</ele>
        <time>2011-01-09T12:59:29Z</time>
      </trkpt>
      <trkpt lat="46.32308" lon="-0.298">
        <ele>98.929</ele>
        <time>2011-01-09T12:59:30Z</time>
      </trkpt>
      <trkpt lat="46.32309" lon="-0.29799">
        <ele>98.8504</ele>
        <time>2011-01-09T12:59:31Z</time>
      </trkpt>
      <trkpt lat="46.3231" lon="-0.29798">
        <ele>98.7791</ele>
        <time>2011-01-09T12:59:32Z</time>
      </trkpt>
      <trkpt lat="46.32311" lon="-0.29797">
        <ele>98.714</ele>
        <time>2011-01-09T12:59:33Z</time>
      </trkpt>
      <trkpt lat="46.32311" lon="-0.29797">
        <ele>98.6552</ele>
        <time>2011-01-09T12:59:34Z</time>
      </trkpt>
      <trkpt lat="46.32314" lon="-0.29796">
        <ele>98.451</ele>
        <time>2011-01-09T12:59:42Z</time>
      </trkpt>
      <trkpt lat="46.32313" lon="-0.29797">
        <ele>98.2556</ele>
        <time>2011-01-09T12:59:55Z</time>
      </trkpt>
      <trkpt lat="46.32314" lon="-0.29797">
        <ele>98.203</ele>
        <time>2011-01-09T12:59:56Z</time>
      </trkpt>
      <trkpt lat="46.32315" lon="-0.29797">
        <ele>98.1514</ele>
        <time>2011-01-09T12:59:57Z</time>
      </trkpt>
      <trkpt lat="46.32316" lon="-0.29797">
        <ele>98.0971</ele>
        <time>2011-01-09T12:59:58Z</time>
      </trkpt>
      <trkpt lat="46.32317" lon="-0.29796">
        <ele>98.0382</ele>
        <time>2011-01-09T12:59:59Z</time>
      </trkpt>
      <trkpt lat="46.32318" lon="-0.29796">
        <ele>97.9785</ele>
        <time>2011-01-09T13:00:00Z</time>
      </trkpt>
      <trkpt lat="46.32319" lon="-0.29796">
        <ele>97.9115</ele>
        <time>2011-01-09T13:00:01Z</time>
      </trkpt>
      <trkpt lat="46.32321" lon="-0.29795">
        <ele>97.8421</ele>
        <time>2011-01-09T13:00:02Z</time>
      </trkpt>
      <trkpt lat="46.32322" lon="-0.29795">
        <ele>97.7773</ele>
        <time>2011-01-09T13:00:03Z</time>
      </trkpt>
      <trkpt lat="46.32323" lon="-0.29794">
        <ele>97.7145</ele>
        <time>2011-01-09T13:00:04Z</time>
      </trkpt>
      <trkpt lat="46.32324" lon="-0.29794">
        <ele>97.6597</ele>
        <time>2011-01-09T13:00:05Z</time>
      </trkpt>
      <trkpt lat="46.32324" lon="-0.29794">
        <ele>97.6034</ele>
        <time>2011-01-09T13:00:06Z</time>
      </trkpt>
      <trkpt lat="46.32325" lon="-0.29793">
        <ele>97.5442</ele>
        <time>2011-01-09T13:00:07Z</time>
      </trkpt>
      <trkpt lat="46.32326" lon="-0.29793">
        <ele>97.4801</ele>
        <time>2011-01-09T13:00:08Z</time>
      </trkpt>
      <trkpt lat="46.32327" lon="-0.29792">
        <ele>97.4022</ele>
        <time>2011-01-09T13:00:09Z</time>
      </trkpt>
      <trkpt lat="46.32327" lon="-0.29791">
        <ele>97.3198</ele>
        <time>2011-01-09T13:00:10Z</time>
      </trkpt>
      <trkpt lat="46.32328" lon="-0.2979">
        <ele>97.2312</ele>
        <time>2011-01-09T13:00:11Z</time>
      </trkpt>
      <trkpt lat="46.32329" lon="-0.29789">
        <ele>97.1447</ele>
        <time>2011-01-09T13:00:12Z</time>
      </trkpt>
      <trkpt lat="46.3233" lon="-0.29788">
        <ele>97.059</ele>
        <time>2011-01-09T13:00:13Z</time>
      </trkpt>
      <trkpt lat="46.32331" lon="-0.29787">
        <ele>96.9771</ele>
        <time>2011-01-09T13:00:14Z</time>
      </trkpt>
      <trkpt lat="46.32332" lon="-0.29786">
        <ele>96.8962</ele>
        <time>2011-01-09T13:00:15Z</time>
      </trkpt>
      <trkpt lat="46.32332" lon="-0.29785">
        <ele>96.8165</ele>
        <time>2011-01-09T13:00:16Z</time>
      </trkpt>
      <trkpt lat="46.32333" lon="-0.29784">
        <ele>96.7384</ele>
        <time>2011-01-09T13:00:17Z</time>
      </trkpt>
      <trkpt lat="46.32334" lon="-0.29783">
        <ele>96.6576</ele>
        <time>2011-01-09T13:00:18Z</time>
      </trkpt>
      <trkpt lat="46.32336" lon="-0.29782">
        <ele>96.5161</ele>
        <time>2011-01-09T13:00:27Z</time>
      </trkpt>
      <trkpt lat="46.32336" lon="-0.29782">
        <ele>96.4725</ele>
        <time>2011-01-09T13:00:28Z</time>
      </trkpt>
      <trkpt lat="46.32338" lon="-0.29782">
        <ele>96.4106</ele>
        <time>2011-01-09T13:00:43Z</time>
      </trkpt>
      <trkpt lat="46.32338" lon="-0.29782">
        <ele>96.4144</ele>
        <time>2011-01-09T13:00:44Z</time>
      </trkpt>
      <trkpt lat="46.32339" lon="-0.29783">
        <ele>96.4216</ele>
        <time>2011-01-09T13:00:45Z</time>
      </trkpt>
      <trkpt lat="46.3234" lon="-0.29783">
        <ele>96.4276</ele>
        <time>2011-01-09T13:00:46Z</time>
      </trkpt>
      <trkpt lat="46.32341" lon="-0.29784">
        <ele>96.4311</ele>
        <time>2011-01-09T13:00:47Z</time>
      </trkpt>
      <trkpt lat="46.32342" lon="-0.29785">
        <ele>96.4333</ele>
        <time>2011-01-09T13:00:48Z</time>
      </trkpt>
      <trkpt lat="46.32343" lon="-0.29786">
        <ele>96.441</ele>
        <time>2011-01-09T13:00:49Z</time>
      </trkpt>
      <trkpt lat="46.32344" lon="-0.29787">
        <ele>96.4488</ele>
        <time>2011-01-09T13:00:50Z</time>
      </trkpt>
      <trkpt lat="46.32348" lon="-0.2979">
        <ele>96.4861</ele>
        <time>2011-01-09T13:01:03Z</time>
      </trkpt>
      <trkpt lat="46.32349" lon="-0.29791">
        <ele>96.5294</ele>
        <time>2011-01-09T13:01:06Z</time>
      </trkpt>
      <trkpt lat="46.32349" lon="-0.29791">
        <ele>96.567</ele>
        <time>2011-01-09T13:01:07Z</time>
      </trkpt>
      <trkpt lat="46.32349" lon="-0.29792">
        <ele>96.6018</ele>
        <time>2011-01-09T13:01:08Z</time>
      </trkpt>
      <trkpt lat="46.3235" lon="-0.29792">
        <ele>96.6336</ele>
        <time>2011-01-09T13:01:09Z</time>
      </trkpt>
      <trkpt lat="46.32351" lon="-0.29793">
        <ele>96.6635</ele>
        <time>2011-01-09T13:01:10Z</time>
      </trkpt>
      <trkpt lat="46.32351" lon="-0.29794">
        <ele>96.6897</ele>
        <time>2011-01-09T13:01:11Z</time>
      </trkpt>
      <trkpt lat="46.32352" lon="-0.29794">
        <ele>96.7144</ele>
        <time>2011-01-09T13:01:12Z</time>
      </trkpt>
      <trkpt lat="46.32353" lon="-0.29795">
        <ele>96.7435</ele>
        <time>2011-01-09T13:01:13Z</time>
      </trkpt>
      <trkpt lat="46.32353" lon="-0.29796">
        <ele>96.7798</ele>
        <time>2011-01-09T13:01:14Z</time>
      </trkpt>
      <trkpt lat="46.32354" lon="-0.29797">
        <ele>96.8216</ele>
        <time>2011-01-09T13:01:15Z</time>
      </trkpt>
      <trkpt lat="46.32354" lon="-0.29797">
        <ele>96.8611</ele>
        <time>2011-01-09T13:01:16Z</time>
      </trkpt>
      <trkpt lat="46.32355" lon="-0.29799">
        <ele>96.9002</ele>
        <time>2011-01-09T13:01:17Z</time>
      </trkpt>
      <trkpt lat="46.32356" lon="-0.298">
        <ele>96.9426</ele>
        <time>2011-01-09T13:01:18Z</time>
      </trkpt>
      <trkpt lat="46.32356" lon="-0.29801">
        <ele>96.9849</ele>
        <time>2011-01-09T13:01:19Z</time>
      </trkpt>
      <trkpt lat="46.32357" lon="-0.29802">
        <ele>97.0267</ele>
        <time>2011-01-09T13:01:20Z</time>
      </trkpt>
      <trkpt lat="46.32357" lon="-0.29803">
        <ele>97.069</ele>
        <time>2011-01-09T13:01:21Z</time>
      </trkpt>
      <trkpt lat="46.32358" lon="-0.29804">
        <ele>97.1075</ele>
        <time>2011-01-09T13:01:22Z</time>
      </trkpt>
      <trkpt lat="46.32359" lon="-0.29806">
        <ele>97.1419</ele>
        <time>2011-01-09T13:01:23Z</time>
      </trkpt>
      <trkpt lat="46.32359" lon="-0.29807">
        <ele>97.1796</ele>
        <time>2011-01-09T13:01:24Z</time>
      </trkpt>
      <trkpt lat="46.3236" lon="-0.29809">
        <ele>97.2181</ele>
        <time>2011-01-09T13:01:25Z</time>
      </trkpt>
      <trkpt lat="46.32361" lon="-0.2981">
        <ele>97.2546</ele>
        <time>2011-01-09T13:01:26Z</time>
      </trkpt>
      <trkpt lat="46.32361" lon="-0.29811">
        <ele>97.2901</ele>
        <time>2011-01-09T13:01:27Z</time>
      </trkpt>
      <trkpt lat="46.32362" lon="-0.29813">
        <ele>97.3248</ele>
        <time>2011-01-09T13:01:28Z</time>
      </trkpt>
      <trkpt lat="46.32362" lon="-0.29814">
        <ele>97.3583</ele>
        <time>2011-01-09T13:01:29Z</time>
      </trkpt>
      <trkpt lat="46.32363" lon="-0.29814">
        <ele>97.3906</ele>
        <time>2011-01-09T13:01:30Z</time>
      </trkpt>
      <trkpt lat="46.32364" lon="-0.29815">
        <ele>97.4216</ele>
        <time>2011-01-09T13:01:31Z</time>
      </trkpt>
      <trkpt lat="46.32364" lon="-0.29816">
        <ele>97.452</ele>
        <time>2011-01-09T13:01:32Z</time>
      </trkpt>
      <trkpt lat="46.32365" lon="-0.29817">
        <ele>97.4823</ele>
        <time>2011-01-09T13:01:33Z</time>
      </trkpt>
      <trkpt lat="46.32366" lon="-0.29818">
        <ele>97.5108</ele>
        <time>2011-01-09T13:01:34Z</time>
      </trkpt>
      <trkpt lat="46.32366" lon="-0.29819">
        <ele>97.535</ele>
        <time>2011-01-09T13:01:35Z</time>
      </trkpt>
      <trkpt lat="46.32367" lon="-0.2982">
        <ele>97.561</ele>
        <time>2011-01-09T13:01:36Z</time>
      </trkpt>
      <trkpt lat="46.32368" lon="-0.29821">
        <ele>97.5878</ele>
        <time>2011-01-09T13:01:37Z</time>
      </trkpt>
      <trkpt lat="46.32368" lon="-0.29821">
        <ele>97.6089</ele>
        <time>2011-01-09T13:01:38Z</time>
      </trkpt>
      <trkpt lat="46.32369" lon="-0.29822">
        <ele>97.6266</ele>
        <time>2011-01-09T13:01:39Z</time>
      </trkpt>
      <trkpt lat="46.3237" lon="-0.29822">
        <ele>97.6419</ele>
        <time>2011-01-09T13:01:40Z</time>
      </trkpt>
      <trkpt lat="46.3237" lon="-0.29822">
        <ele>97.6549</ele>
        <time>2011-01-09T13:01:41Z</time>
      </trkpt>
      <trkpt lat="46.32371" lon="-0.29823">
        <ele>97.662</ele>
        <time>2011-01-09T13:01:42Z</time>
      </trkpt>
      <trkpt lat="46.32372" lon="-0.29824">
        <ele>97.6672</ele>
        <time>2011-01-09T13:01:43Z</time>
      </trkpt>
      <trkpt lat="46.32372" lon="-0.29825">
        <ele>97.6641</ele>
        <time>2011-01-09T13:01:44Z</time>
      </trkpt>
      <trkpt lat="46.32373" lon="-0.29826">
        <ele>97.6547</ele>
        <time>2011-01-09T13:01:45Z</time>
      </trkpt>
      <trkpt lat="46.32374" lon="-0.29826">
        <ele>97.6384</ele>
        <time>2011-01-09T13:01:46Z</time>
      </trkpt>
      <trkpt lat="46.32375" lon="-0.29827">
        <ele>97.621</ele>
        <time>2011-01-09T13:01:47Z</time>
      </trkpt>
      <trkpt lat="46.32375" lon="-0.29828">
        <ele>97.6031</ele>
        <time>2011-01-09T13:01:48Z</time>
      </trkpt>
      <trkpt lat="46.32376" lon="-0.29829">
        <ele>97.5852</ele>
        <time>2011-01-09T13:01:49Z</time>
      </trkpt>
      <trkpt lat="46.32377" lon="-0.2983">
        <ele>97.5614</ele>
        <time>2011-01-09T13:01:50Z</time>
      </trkpt>
      <trkpt lat="46.32378" lon="-0.29831">
        <ele>97.5312</ele>
        <time>2011-01-09T13:01:51Z</time>
      </trkpt>
      <trkpt lat="46.32379" lon="-0.29832">
        <ele>97.4955</ele>
        <time>2011-01-09T13:01:52Z</time>
      </trkpt>
      <trkpt lat="46.3238" lon="-0.29833">
        <ele>97.4622</ele>
        <time>2011-01-09T13:01:53Z</time>
      </trkpt>
      <trkpt lat="46.3238" lon="-0.29834">
        <ele>97.423</ele>
        <time>2011-01-09T13:01:54Z</time>
      </trkpt>
      <trkpt lat="46.32381" lon="-0.29835">
        <ele>97.3777</ele>
        <time>2011-01-09T13:01:55Z</time>
      </trkpt>
      <trkpt lat="46.32381" lon="-0.29836">
        <ele>97.3277</ele>
        <time>2011-01-09T13:01:56Z</time>
      </trkpt>
      <trkpt lat="46.32382" lon="-0.29837">
        <ele>97.2764</ele>
        <time>2011-01-09T13:01:57Z</time>
      </trkpt>
      <trkpt lat="46.32382" lon="-0.29838">
        <ele>97.2147</ele>
        <time>2011-01-09T13:01:58Z</time>
      </trkpt>
      <trkpt lat="46.32383" lon="-0.29839">
        <ele>97.1484</ele>
        <time>2011-01-09T13:01:59Z</time>
      </trkpt>
      <trkpt lat="46.32383" lon="-0.29841">
        <ele>97.0782</ele>
        <time>2011-01-09T13:02:00Z</time>
      </trkpt>
      <trkpt lat="46.32384" lon="-0.29842">
        <ele>97.0082</ele>
        <time>2011-01-09T13:02:01Z</time>
      </trkpt>
      <trkpt lat="46.32384" lon="-0.29843">
        <ele>96.9398</ele>
        <time>2011-01-09T13:02:02Z</time>
      </trkpt>
      <trkpt lat="46.32385" lon="-0.29844">
        <ele>96.8702</ele>
        <time>2011-01-09T13:02:03Z</time>
      </trkpt>
      <trkpt lat="46.32386" lon="-0.29846">
        <ele>96.8007</ele>
        <time>2011-01-09T13:02:04Z</time>
      </trkpt>
      <trkpt lat="46.32386" lon="-0.29847">
        <ele>96.7324</ele>
        <time>2011-01-09T13:02:05Z</time>
      </trkpt>
      <trkpt lat="46.32388" lon="-0.29848">
        <ele>96.6672</ele>
        <time>2011-01-09T13:02:06Z</time>
      </trkpt>
      <trkpt lat="46.32388" lon="-0.29849">
        <ele>96.5928</ele>
        <time>2011-01-09T13:02:07Z</time>
      </trkpt>
      <trkpt lat="46.32389" lon="-0.29851">
        <ele>96.5158</ele>
        <time>2011-01-09T13:02:08Z</time>
      </trkpt>
      <trkpt lat="46.3239" lon="-0.29852">
        <ele>96.4404</ele>
        <time>2011-01-09T13:02:09Z</time>
      </trkpt>
      <trkpt lat="46.3239" lon="-0.29854">
        <ele>96.3654</ele>
        <time>2011-01-09T13:02:10Z</time>
      </trkpt>
      <trkpt lat="46.32391" lon="-0.29855">
        <ele>96.2864</ele>
        <time>2011-01-09T13:02:11Z</time>
      </trkpt>
      <trkpt lat="46.32392" lon="-0.29857">
        <ele>96.2092</ele>
        <time>2011-01-09T13:02:12Z</time>
      </trkpt>
      <trkpt lat="46.32392" lon="-0.29858">
        <ele>96.1323</ele>
        <time>2011-01-09T13:02:13Z</time>
      </trkpt>
      <trkpt lat="46.32393" lon="-0.2986">
        <ele>96.0552</ele>
        <time>2011-01-09T13:02:14Z</time>
      </trkpt>
      <trkpt lat="46.32393" lon="-0.29861">
        <ele>95.9783</ele>
        <time>2011-01-09T13:02:15Z</time>
      </trkpt>
      <trkpt lat="46.32393" lon="-0.29863">
        <ele>95.9019</ele>
        <time>2011-01-09T13:02:16Z</time>
      </trkpt>
      <trkpt lat="46.32394" lon="-0.29864">
        <ele>95.8244</ele>
        <time>2011-01-09T13:02:17Z</time>
      </trkpt>
      <trkpt lat="46.32394" lon="-0.29866">
        <ele>95.7476</ele>
        <time>2011-01-09T13:02:18Z</time>
      </trkpt>
      <trkpt lat="46.32394" lon="-0.29867">
        <ele>95.6631</ele>
        <time>2011-01-09T13:02:19Z</time>
      </trkpt>
      <trkpt lat="46.32395" lon="-0.29869">
        <ele>95.5746</ele>
        <time>2011-01-09T13:02:20Z</time>
      </trkpt>
      <trkpt lat="46.32395" lon="-0.2987">
        <ele>95.4928</ele>
        <time>2011-01-09T13:02:21Z</time>
      </trkpt>
      <trkpt lat="46.32395" lon="-0.29871">
        <ele>95.3887</ele>
        <time>2011-01-09T13:02:22Z</time>
      </trkpt>
      <trkpt lat="46.32396" lon="-0.29873">
        <ele>95.2729</ele>
        <time>2011-01-09T13:02:23Z</time>
      </trkpt>
      <trkpt lat="46.32396" lon="-0.29874">
        <ele>95.1429</ele>
        <time>2011-01-09T13:02:24Z</time>
      </trkpt>
      <trkpt lat="46.32397" lon="-0.29874">
        <ele>95.0218</ele>
        <time>2011-01-09T13:02:25Z</time>
      </trkpt>
      <trkpt lat="46.32397" lon="-0.29874">
        <ele>94.904</ele>
        <time>2011-01-09T13:02:26Z</time>
      </trkpt>
      <trkpt lat="46.32398" lon="-0.29875">
        <ele>94.7987</ele>
        <time>2011-01-09T13:02:27Z</time>
      </trkpt>
      <trkpt lat="46.32398" lon="-0.29876">
        <ele>94.6752</ele>
        <time>2011-01-09T13:02:28Z</time>
      </trkpt>
      <trkpt lat="46.32398" lon="-0.29877">
        <ele>94.552</ele>
        <time>2011-01-09T13:02:29Z</time>
      </trkpt>
      <trkpt lat="46.32399" lon="-0.29878">
        <ele>94.4354</ele>
        <time>2011-01-09T13:02:30Z</time>
      </trkpt>
      <trkpt lat="46.32399" lon="-0.29878">
        <ele>94.3218</ele>
        <time>2011-01-09T13:02:31Z</time>
      </trkpt>
      <trkpt lat="46.32399" lon="-0.29879">
        <ele>94.2189</ele>
        <time>2011-01-09T13:02:32Z</time>
      </trkpt>
      <trkpt lat="46.324" lon="-0.29881">
        <ele>94.1099</ele>
        <time>2011-01-09T13:02:33Z</time>
      </trkpt>
      <trkpt lat="46.32401" lon="-0.29882">
        <ele>93.995</ele>
        <time>2011-01-09T13:02:34Z</time>
      </trkpt>
      <trkpt lat="46.32401" lon="-0.29883">
        <ele>93.8714</ele>
        <time>2011-01-09T13:02:35Z</time>
      </trkpt>
      <trkpt lat="46.32402" lon="-0.29884">
        <ele>93.7468</ele>
        <time>2011-01-09T13:02:36Z</time>
      </trkpt>
      <trkpt lat="46.32403" lon="-0.29885">
        <ele>93.6358</ele>
        <time>2011-01-09T13:02:37Z</time>
      </trkpt>
      <trkpt lat="46.32404" lon="-0.29887">
        <ele>93.5332</ele>
        <time>2011-01-09T13:02:38Z</time>
      </trkpt>
      <trkpt lat="46.32405" lon="-0.29888">
        <ele>93.4284</ele>
        <time>2011-01-09T13:02:39Z</time>
      </trkpt>
      <trkpt lat="46.32406" lon="-0.2989">
        <ele>93.3339</ele>
        <time>2011-01-09T13:02:40Z</time>
      </trkpt>
      <trkpt lat="46.32406" lon="-0.29892">
        <ele>93.2481</ele>
        <time>2011-01-09T13:02:41Z</time>
      </trkpt>
      <trkpt lat="46.32407" lon="-0.29894">
        <ele>93.1744</ele>
        <time>2011-01-09T13:02:42Z</time>
      </trkpt>
      <trkpt lat="46.32408" lon="-0.29895">
        <ele>93.1094</ele>
        <time>2011-01-09T13:02:43Z</time>
      </trkpt>
      <trkpt lat="46.32409" lon="-0.29897">
        <ele>93.0441</ele>
        <time>2011-01-09T13:02:44Z</time>
      </trkpt>
      <trkpt lat="46.3241" lon="-0.29898">
        <ele>92.9808</ele>
        <time>2011-01-09T13:02:45Z</time>
      </trkpt>
      <trkpt lat="46.32412" lon="-0.29899">
        <ele>92.9158</ele>
        <time>2011-01-09T13:02:46Z</time>
      </trkpt>
      <trkpt lat="46.32412" lon="-0.29901">
        <ele>92.857</ele>
        <time>2011-01-09T13:02:47Z</time>
      </trkpt>
      <trkpt lat="46.32417" lon="-0.29904">
        <ele>92.6014</ele>
        <time>2011-01-09T13:02:55Z</time>
      </trkpt>
      <trkpt lat="46.32422" lon="-0.29902">
        <ele>92.4257</ele>
        <time>2011-01-09T13:03:03Z</time>
      </trkpt>
      <trkpt lat="46.32427" lon="-0.29899">
        <ele>92.4295</ele>
        <time>2011-01-09T13:03:06Z</time>
      </trkpt>
      <trkpt lat="46.32432" lon="-0.29897">
        <ele>92.4403</ele>
        <time>2011-01-09T13:03:09Z</time>
      </trkpt>
      <trkpt lat="46.32429" lon="-0.29903">
        <ele>92.7635</ele>
        <time>2011-01-09T13:03:34Z</time>
      </trkpt>
      <trkpt lat="46.32425" lon="-0.29908">
        <ele>92.7937</ele>
        <time>2011-01-09T13:03:37Z</time>
      </trkpt>
      <trkpt lat="46.32425" lon="-0.29909">
        <ele>92.8025</ele>
        <time>2011-01-09T13:03:38Z</time>
      </trkpt>
      <trkpt lat="46.32424" lon="-0.2991">
        <ele>92.8131</ele>
        <time>2011-01-09T13:03:39Z</time>
      </trkpt>
      <trkpt lat="46.32423" lon="-0.29911">
        <ele>92.8225</ele>
        <time>2011-01-09T13:03:40Z</time>
      </trkpt>
      <trkpt lat="46.32423" lon="-0.29913">
        <ele>92.832</ele>
        <time>2011-01-09T13:03:41Z</time>
      </trkpt>
      <trkpt lat="46.32423" lon="-0.29914">
        <ele>92.8239</ele>
        <time>2011-01-09T13:03:42Z</time>
      </trkpt>
      <trkpt lat="46.32422" lon="-0.29915">
        <ele>92.805</ele>
        <time>2011-01-09T13:03:43Z</time>
      </trkpt>
      <trkpt lat="46.32422" lon="-0.29917">
        <ele>92.7807</ele>
        <time>2011-01-09T13:03:44Z</time>
      </trkpt>
      <trkpt lat="46.32422" lon="-0.29918">
        <ele>92.7574</ele>
        <time>2011-01-09T13:03:45Z</time>
      </trkpt>
      <trkpt lat="46.32422" lon="-0.29919">
        <ele>92.7212</ele>
        <time>2011-01-09T13:03:46Z</time>
      </trkpt>
      <trkpt lat="46.32422" lon="-0.29922">
        <ele>92.6312</ele>
        <time>2011-01-09T13:03:48Z</time>
      </trkpt>
      <trkpt lat="46.32422" lon="-0.29923">
        <ele>92.5814</ele>
        <time>2011-01-09T13:03:49Z</time>
      </trkpt>
      <trkpt lat="46.32422" lon="-0.29924">
        <ele>92.5312</ele>
        <time>2011-01-09T13:03:50Z</time>
      </trkpt>
      <trkpt lat="46.32422" lon="-0.29926">
        <ele>92.4842</ele>
        <time>2011-01-09T13:03:51Z</time>
      </trkpt>
      <trkpt lat="46.32422" lon="-0.29928">
        <ele>92.4361</ele>
        <time>2011-01-09T13:03:52Z</time>
      </trkpt>
      <trkpt lat="46.3242" lon="-0.29935">
        <ele>92.2811</ele>
        <time>2011-01-09T13:03:56Z</time>
      </trkpt>
      <trkpt lat="46.3242" lon="-0.29936">
        <ele>92.2124</ele>
        <time>2011-01-09T13:03:57Z</time>
      </trkpt>
      <trkpt lat="46.3242" lon="-0.29937">
        <ele>92.1413</ele>
        <time>2011-01-09T13:03:58Z</time>
      </trkpt>
      <trkpt lat="46.3242" lon="-0.29939">
        <ele>92.0688</ele>
        <time>2011-01-09T13:03:59Z</time>
      </trkpt>
      <trkpt lat="46.32421" lon="-0.29941">
        <ele>91.9951</ele>
        <time>2011-01-09T13:04:00Z</time>
      </trkpt>
      <trkpt lat="46.32422" lon="-0.29943">
        <ele>91.929</ele>
        <time>2011-01-09T13:04:01Z</time>
      </trkpt>
      <trkpt lat="46.32422" lon="-0.29945">
        <ele>91.8646</ele>
        <time>2011-01-09T13:04:02Z</time>
      </trkpt>
      <trkpt lat="46.32422" lon="-0.29948">
        <ele>91.8052</ele>
        <time>2011-01-09T13:04:03Z</time>
      </trkpt>
      <trkpt lat="46.32422" lon="-0.2995">
        <ele>91.7428</ele>
        <time>2011-01-09T13:04:04Z</time>
      </trkpt>
      <trkpt lat="46.32423" lon="-0.29951">
        <ele>91.6747</ele>
        <time>2011-01-09T13:04:05Z</time>
      </trkpt>
      <trkpt lat="46.32423" lon="-0.29953">
        <ele>91.604</ele>
        <time>2011-01-09T13:04:06Z</time>
      </trkpt>
      <trkpt lat="46.32423" lon="-0.29955">
        <ele>91.5418</ele>
        <time>2011-01-09T13:04:07Z</time>
      </trkpt>
      <trkpt lat="46.32423" lon="-0.29957">
        <ele>91.4851</ele>
        <time>2011-01-09T13:04:08Z</time>
      </trkpt>
      <trkpt lat="46.32423" lon="-0.29959">
        <ele>91.4304</ele>
        <time>2011-01-09T13:04:09Z</time>
      </trkpt>
      <trkpt lat="46.32423" lon="-0.29961">
        <ele>91.3694</ele>
        <time>2011-01-09T13:04:10Z</time>
      </trkpt>
      <trkpt lat="46.32424" lon="-0.29963">
        <ele>91.3098</ele>
        <time>2011-01-09T13:04:11Z</time>
      </trkpt>
      <trkpt lat="46.32424" lon="-0.29965">
        <ele>91.25</ele>
        <time>2011-01-09T13:04:12Z</time>
      </trkpt>
      <trkpt lat="46.32424" lon="-0.29966">
        <ele>91.1902</ele>
        <time>2011-01-09T13:04:13Z</time>
      </trkpt>
      <trkpt lat="46.32424" lon="-0.29967">
        <ele>91.1325</ele>
        <time>2011-01-09T13:04:14Z</time>
      </trkpt>
      <trkpt lat="46.32424" lon="-0.29969">
        <ele>91.0761</ele>
        <time>2011-01-09T13:04:15Z</time>
      </trkpt>
      <trkpt lat="46.32425" lon="-0.2997">
        <ele>91.0217</ele>
        <time>2011-01-09T13:04:16Z</time>
      </trkpt>
      <trkpt lat="46.32425" lon="-0.29971">
        <ele>90.9635</ele>
        <time>2011-01-09T13:04:17Z</time>
      </trkpt>
      <trkpt lat="46.32425" lon="-0.29973">
        <ele>90.8987</ele>
        <time>2011-01-09T13:04:18Z</time>
      </trkpt>
      <trkpt lat="46.32426" lon="-0.29975">
        <ele>90.8268</ele>
        <time>2011-01-09T13:04:19Z</time>
      </trkpt>
      <trkpt lat="46.32426" lon="-0.29977">
        <ele>90.7517</ele>
        <time>2011-01-09T13:04:20Z</time>
      </trkpt>
      <trkpt lat="46.32427" lon="-0.29979">
        <ele>90.6793</ele>
        <time>2011-01-09T13:04:21Z</time>
      </trkpt>
      <trkpt lat="46.32427" lon="-0.29981">
        <ele>90.606</ele>
        <time>2011-01-09T13:04:22Z</time>
      </trkpt>
      <trkpt lat="46.32427" lon="-0.29983">
        <ele>90.5355</ele>
        <time>2011-01-09T13:04:23Z</time>
      </trkpt>
      <trkpt lat="46.32427" lon="-0.29985">
        <ele>90.4658</ele>
        <time>2011-01-09T13:04:24Z</time>
      </trkpt>
      <trkpt lat="46.32428" lon="-0.29987">
        <ele>90.4056</ele>
        <time>2011-01-09T13:04:25Z</time>
      </trkpt>
      <trkpt lat="46.32428" lon="-0.29988">
        <ele>90.358</ele>
        <time>2011-01-09T13:04:26Z</time>
      </trkpt>
      <trkpt lat="46.32429" lon="-0.2999">
        <ele>90.3173</ele>
        <time>2011-01-09T13:04:27Z</time>
      </trkpt>
      <trkpt lat="46.32429" lon="-0.29991">
        <ele>90.2654</ele>
        <time>2011-01-09T13:04:28Z</time>
      </trkpt>
      <trkpt lat="46.32429" lon="-0.29992">
        <ele>90.2056</ele>
        <time>2011-01-09T13:04:29Z</time>
      </trkpt>
      <trkpt lat="46.32429" lon="-0.29993">
        <ele>90.1412</ele>
        <time>2011-01-09T13:04:30Z</time>
      </trkpt>
      <trkpt lat="46.32429" lon="-0.29994">
        <ele>90.0741</ele>
        <time>2011-01-09T13:04:31Z</time>
      </trkpt>
      <trkpt lat="46.32429" lon="-0.29996">
        <ele>90.0073</ele>
        <time>2011-01-09T13:04:32Z</time>
      </trkpt>
      <trkpt lat="46.32429" lon="-0.29998">
        <ele>89.946</ele>
        <time>2011-01-09T13:04:33Z</time>
      </trkpt>
      <trkpt lat="46.32429" lon="-0.29999">
        <ele>89.8863</ele>
        <time>2011-01-09T13:04:34Z</time>
      </trkpt>
      <trkpt lat="46.32429" lon="-0.30001">
        <ele>89.8288</ele>
        <time>2011-01-09T13:04:35Z</time>
      </trkpt>
      <trkpt lat="46.3243" lon="-0.30002">
        <ele>89.7722</ele>
        <time>2011-01-09T13:04:36Z</time>
      </trkpt>
      <trkpt lat="46.3243" lon="-0.30004">
        <ele>89.7199</ele>
        <time>2011-01-09T13:04:37Z</time>
      </trkpt>
      <trkpt lat="46.3243" lon="-0.30005">
        <ele>89.6752</ele>
        <time>2011-01-09T13:04:38Z</time>
      </trkpt>
      <trkpt lat="46.32431" lon="-0.30006">
        <ele>89.6343</ele>
        <time>2011-01-09T13:04:39Z</time>
      </trkpt>
      <trkpt lat="46.32431" lon="-0.30007">
        <ele>89.5961</ele>
        <time>2011-01-09T13:04:40Z</time>
      </trkpt>
      <trkpt lat="46.32431" lon="-0.30009">
        <ele>89.5569</ele>
        <time>2011-01-09T13:04:41Z</time>
      </trkpt>
      <trkpt lat="46.32431" lon="-0.30011">
        <ele>89.5168</ele>
        <time>2011-01-09T13:04:42Z</time>
      </trkpt>
      <trkpt lat="46.32431" lon="-0.30012">
        <ele>89.4756</ele>
        <time>2011-01-09T13:04:43Z</time>
      </trkpt>
      <trkpt lat="46.32432" lon="-0.30013">
        <ele>89.4319</ele>
        <time>2011-01-09T13:04:44Z</time>
      </trkpt>
      <trkpt lat="46.32433" lon="-0.30015">
        <ele>89.3834</ele>
        <time>2011-01-09T13:04:45Z</time>
      </trkpt>
      <trkpt lat="46.32433" lon="-0.30016">
        <ele>89.3268</ele>
        <time>2011-01-09T13:04:46Z</time>
      </trkpt>
      <trkpt lat="46.32434" lon="-0.30017">
        <ele>89.2703</ele>
        <time>2011-01-09T13:04:47Z</time>
      </trkpt>
      <trkpt lat="46.32435" lon="-0.30018">
        <ele>89.1976</ele>
        <time>2011-01-09T13:04:48Z</time>
      </trkpt>
      <trkpt lat="46.32435" lon="-0.30019">
        <ele>89.1084</ele>
        <time>2011-01-09T13:04:49Z</time>
      </trkpt>
      <trkpt lat="46.32436" lon="-0.30021">
        <ele>89.0083</ele>
        <time>2011-01-09T13:04:50Z</time>
      </trkpt>
      <trkpt lat="46.32436" lon="-0.30023">
        <ele>88.8953</ele>
        <time>2011-01-09T13:04:51Z</time>
      </trkpt>
      <trkpt lat="46.32436" lon="-0.30025">
        <ele>88.7863</ele>
        <time>2011-01-09T13:04:52Z</time>
      </trkpt>
      <trkpt lat="46.32436" lon="-0.30026">
        <ele>88.6784</ele>
        <time>2011-01-09T13:04:53Z</time>
      </trkpt>
      <trkpt lat="46.32436" lon="-0.30028">
        <ele>88.5712</ele>
        <time>2011-01-09T13:04:54Z</time>
      </trkpt>
      <trkpt lat="46.32437" lon="-0.3003">
        <ele>88.462</ele>
        <time>2011-01-09T13:04:55Z</time>
      </trkpt>
      <trkpt lat="46.32437" lon="-0.30031">
        <ele>88.3537</ele>
        <time>2011-01-09T13:04:56Z</time>
      </trkpt>
      <trkpt lat="46.32438" lon="-0.30032">
        <ele>88.2457</ele>
        <time>2011-01-09T13:04:57Z</time>
      </trkpt>
      <trkpt lat="46.32438" lon="-0.30034">
        <ele>88.1446</ele>
        <time>2011-01-09T13:04:58Z</time>
      </trkpt>
      <trkpt lat="46.32438" lon="-0.30035">
        <ele>88.0474</ele>
        <time>2011-01-09T13:04:59Z</time>
      </trkpt>
      <trkpt lat="46.32438" lon="-0.30036">
        <ele>87.9275</ele>
        <time>2011-01-09T13:05:00Z</time>
      </trkpt>
      <trkpt lat="46.32438" lon="-0.30038">
        <ele>87.8059</ele>
        <time>2011-01-09T13:05:01Z</time>
      </trkpt>
      <trkpt lat="46.32439" lon="-0.30039">
        <ele>87.7048</ele>
        <time>2011-01-09T13:05:02Z</time>
      </trkpt>
      <trkpt lat="46.3244" lon="-0.3004">
        <ele>87.6029</ele>
        <time>2011-01-09T13:05:03Z</time>
      </trkpt>
      <trkpt lat="46.32441" lon="-0.30041">
        <ele>87.4969</ele>
        <time>2011-01-09T13:05:04Z</time>
      </trkpt>
      <trkpt lat="46.32442" lon="-0.30042">
        <ele>87.3669</ele>
        <time>2011-01-09T13:05:05Z</time>
      </trkpt>
      <trkpt lat="46.32443" lon="-0.30043">
        <ele>87.2529</ele>
        <time>2011-01-09T13:05:06Z</time>
      </trkpt>
      <trkpt lat="46.32444" lon="-0.30044">
        <ele>87.1387</ele>
        <time>2011-01-09T13:05:07Z</time>
      </trkpt>
      <trkpt lat="46.32444" lon="-0.30045">
        <ele>87.021</ele>
        <time>2011-01-09T13:05:08Z</time>
      </trkpt>
      <trkpt lat="46.32445" lon="-0.30047">
        <ele>86.9028</ele>
        <time>2011-01-09T13:05:09Z</time>
      </trkpt>
      <trkpt lat="46.32446" lon="-0.30048">
        <ele>86.7936</ele>
        <time>2011-01-09T13:05:10Z</time>
      </trkpt>
      <trkpt lat="46.32446" lon="-0.30049">
        <ele>86.6589</ele>
        <time>2011-01-09T13:05:11Z</time>
      </trkpt>
      <trkpt lat="46.3245" lon="-0.30047">
        <ele>86.4626</ele>
        <time>2011-01-09T13:05:16Z</time>
      </trkpt>
      <trkpt lat="46.32451" lon="-0.30048">
        <ele>86.3933</ele>
        <time>2011-01-09T13:05:17Z</time>
      </trkpt>
      <trkpt lat="46.32452" lon="-0.3005">
        <ele>86.3239</ele>
        <time>2011-01-09T13:05:18Z</time>
      </trkpt>
      <trkpt lat="46.32453" lon="-0.30052">
        <ele>86.242</ele>
        <time>2011-01-09T13:05:19Z</time>
      </trkpt>
      <trkpt lat="46.32454" lon="-0.30054">
        <ele>86.1654</ele>
        <time>2011-01-09T13:05:20Z</time>
      </trkpt>
      <trkpt lat="46.32455" lon="-0.30055">
        <ele>86.074</ele>
        <time>2011-01-09T13:05:21Z</time>
      </trkpt>
      <trkpt lat="46.32456" lon="-0.30056">
        <ele>85.9822</ele>
        <time>2011-01-09T13:05:22Z</time>
      </trkpt>
      <trkpt lat="46.32457" lon="-0.30058">
        <ele>85.8863</ele>
        <time>2011-01-09T13:05:23Z</time>
      </trkpt>
      <trkpt lat="46.32458" lon="-0.30059">
        <ele>85.7859</ele>
        <time>2011-01-09T13:05:24Z</time>
      </trkpt>
      <trkpt lat="46.32459" lon="-0.3006">
        <ele>85.6875</ele>
        <time>2011-01-09T13:05:25Z</time>
      </trkpt>
      <trkpt lat="46.32459" lon="-0.30062">
        <ele>85.5949</ele>
        <time>2011-01-09T13:05:26Z</time>
      </trkpt>
      <trkpt lat="46.3246" lon="-0.30063">
        <ele>85.5126</ele>
        <time>2011-01-09T13:05:27Z</time>
      </trkpt>
      <trkpt lat="46.3246" lon="-0.30065">
        <ele>85.4358</ele>
        <time>2011-01-09T13:05:28Z</time>
      </trkpt>
      <trkpt lat="46.3246" lon="-0.30066">
        <ele>85.3607</ele>
        <time>2011-01-09T13:05:29Z</time>
      </trkpt>
      <trkpt lat="46.3246" lon="-0.30068">
        <ele>85.2806</ele>
        <time>2011-01-09T13:05:30Z</time>
      </trkpt>
      <trkpt lat="46.32461" lon="-0.30069">
        <ele>85.1988</ele>
        <time>2011-01-09T13:05:31Z</time>
      </trkpt>
      <trkpt lat="46.3246" lon="-0.30072">
        <ele>84.9833</ele>
        <time>2011-01-09T13:05:34Z</time>
      </trkpt>
      <trkpt lat="46.3246" lon="-0.30074">
        <ele>84.8698</ele>
        <time>2011-01-09T13:05:35Z</time>
      </trkpt>
      <trkpt lat="46.32459" lon="-0.30075">
        <ele>84.754</ele>
        <time>2011-01-09T13:05:36Z</time>
      </trkpt>
      <trkpt lat="46.32459" lon="-0.30077">
        <ele>84.6416</ele>
        <time>2011-01-09T13:05:37Z</time>
      </trkpt>
      <trkpt lat="46.32459" lon="-0.30079">
        <ele>84.5307</ele>
        <time>2011-01-09T13:05:38Z</time>
      </trkpt>
      <trkpt lat="46.3246" lon="-0.30081">
        <ele>84.4257</ele>
        <time>2011-01-09T13:05:39Z</time>
      </trkpt>
      <trkpt lat="46.3246" lon="-0.30083">
        <ele>84.3248</ele>
        <time>2011-01-09T13:05:40Z</time>
      </trkpt>
      <trkpt lat="46.3246" lon="-0.30084">
        <ele>84.2332</ele>
        <time>2011-01-09T13:05:41Z</time>
      </trkpt>
      <trkpt lat="46.3246" lon="-0.30086">
        <ele>84.1527</ele>
        <time>2011-01-09T13:05:42Z</time>
      </trkpt>
      <trkpt lat="46.3246" lon="-0.30088">
        <ele>84.0792</ele>
        <time>2011-01-09T13:05:43Z</time>
      </trkpt>
      <trkpt lat="46.32461" lon="-0.3009">
        <ele>84.0147</ele>
        <time>2011-01-09T13:05:44Z</time>
      </trkpt>
      <trkpt lat="46.32461" lon="-0.30092">
        <ele>83.9576</ele>
        <time>2011-01-09T13:05:45Z</time>
      </trkpt>
      <trkpt lat="46.32462" lon="-0.30093">
        <ele>83.9088</ele>
        <time>2011-01-09T13:05:46Z</time>
      </trkpt>
      <trkpt lat="46.32462" lon="-0.30095">
        <ele>83.865</ele>
        <time>2011-01-09T13:05:47Z</time>
      </trkpt>
      <trkpt lat="46.32463" lon="-0.30097">
        <ele>83.8207</ele>
        <time>2011-01-09T13:05:48Z</time>
      </trkpt>
      <trkpt lat="46.32464" lon="-0.30098">
        <ele>83.7756</ele>
        <time>2011-01-09T13:05:49Z</time>
      </trkpt>
      <trkpt lat="46.32464" lon="-0.30099">
        <ele>83.7335</ele>
        <time>2011-01-09T13:05:50Z</time>
      </trkpt>
      <trkpt lat="46.32465" lon="-0.301">
        <ele>83.6915</ele>
        <time>2011-01-09T13:05:51Z</time>
      </trkpt>
      <trkpt lat="46.32465" lon="-0.30102">
        <ele>83.6507</ele>
        <time>2011-01-09T13:05:52Z</time>
      </trkpt>
      <trkpt lat="46.32465" lon="-0.30104">
        <ele>83.6106</ele>
        <time>2011-01-09T13:05:53Z</time>
      </trkpt>
      <trkpt lat="46.32466" lon="-0.30105">
        <ele>83.5734</ele>
        <time>2011-01-09T13:05:54Z</time>
      </trkpt>
      <trkpt lat="46.32467" lon="-0.30106">
        <ele>83.538</ele>
        <time>2011-01-09T13:05:55Z</time>
      </trkpt>
      <trkpt lat="46.32468" lon="-0.30108">
        <ele>83.5057</ele>
        <time>2011-01-09T13:05:56Z</time>
      </trkpt>
      <trkpt lat="46.32468" lon="-0.30109">
        <ele>83.4751</ele>
        <time>2011-01-09T13:05:57Z</time>
      </trkpt>
      <trkpt lat="46.32469" lon="-0.30111">
        <ele>83.447</ele>
        <time>2011-01-09T13:05:58Z</time>
      </trkpt>
      <trkpt lat="46.3247" lon="-0.30112">
        <ele>83.4194</ele>
        <time>2011-01-09T13:05:59Z</time>
      </trkpt>
      <trkpt lat="46.32471" lon="-0.30114">
        <ele>83.3914</ele>
        <time>2011-01-09T13:06:00Z</time>
      </trkpt>
      <trkpt lat="46.32471" lon="-0.30115">
        <ele>83.3616</ele>
        <time>2011-01-09T13:06:01Z</time>
      </trkpt>
      <trkpt lat="46.32472" lon="-0.30116">
        <ele>83.3322</ele>
        <time>2011-01-09T13:06:02Z</time>
      </trkpt>
      <trkpt lat="46.32473" lon="-0.30117">
        <ele>83.3009</ele>
        <time>2011-01-09T13:06:03Z</time>
      </trkpt>
      <trkpt lat="46.32473" lon="-0.30119">
        <ele>83.27</ele>
        <time>2011-01-09T13:06:04Z</time>
      </trkpt>
      <trkpt lat="46.32473" lon="-0.3012">
        <ele>83.2376</ele>
        <time>2011-01-09T13:06:05Z</time>
      </trkpt>
      <trkpt lat="46.32474" lon="-0.30121">
        <ele>83.2073</ele>
        <time>2011-01-09T13:06:06Z</time>
      </trkpt>
      <trkpt lat="46.32475" lon="-0.30123">
        <ele>83.171</ele>
        <time>2011-01-09T13:06:07Z</time>
      </trkpt>
      <trkpt lat="46.32475" lon="-0.30124">
        <ele>83.1382</ele>
        <time>2011-01-09T13:06:08Z</time>
      </trkpt>
      <trkpt lat="46.32475" lon="-0.30126">
        <ele>83.1079</ele>
        <time>2011-01-09T13:06:09Z</time>
      </trkpt>
      <trkpt lat="46.32475" lon="-0.30128">
        <ele>83.0808</ele>
        <time>2011-01-09T13:06:10Z</time>
      </trkpt>
      <trkpt lat="46.32475" lon="-0.30129">
        <ele>83.0483</ele>
        <time>2011-01-09T13:06:11Z</time>
      </trkpt>
      <trkpt lat="46.32476" lon="-0.30131">
        <ele>83.0104</ele>
        <time>2011-01-09T13:06:12Z</time>
      </trkpt>
      <trkpt lat="46.32476" lon="-0.30132">
        <ele>82.9696</ele>
        <time>2011-01-09T13:06:13Z</time>
      </trkpt>
      <trkpt lat="46.32476" lon="-0.30134">
        <ele>82.9241</ele>
        <time>2011-01-09T13:06:14Z</time>
      </trkpt>
      <trkpt lat="46.32476" lon="-0.30135">
        <ele>82.8749</ele>
        <time>2011-01-09T13:06:15Z</time>
      </trkpt>
      <trkpt lat="46.32476" lon="-0.30136">
        <ele>82.8218</ele>
        <time>2011-01-09T13:06:16Z</time>
      </trkpt>
      <trkpt lat="46.32476" lon="-0.30138">
        <ele>82.7629</ele>
        <time>2011-01-09T13:06:17Z</time>
      </trkpt>
      <trkpt lat="46.32476" lon="-0.30139">
        <ele>82.702</ele>
        <time>2011-01-09T13:06:18Z</time>
      </trkpt>
      <trkpt lat="46.32475" lon="-0.3014">
        <ele>82.6408</ele>
        <time>2011-01-09T13:06:19Z</time>
      </trkpt>
      <trkpt lat="46.32475" lon="-0.30141">
        <ele>82.57</ele>
        <time>2011-01-09T13:06:20Z</time>
      </trkpt>
      <trkpt lat="46.32475" lon="-0.30143">
        <ele>82.4939</ele>
        <time>2011-01-09T13:06:21Z</time>
      </trkpt>
      <trkpt lat="46.32476" lon="-0.30144">
        <ele>82.4201</ele>
        <time>2011-01-09T13:06:22Z</time>
      </trkpt>
      <trkpt lat="46.32476" lon="-0.30146">
        <ele>82.3484</ele>
        <time>2011-01-09T13:06:23Z</time>
      </trkpt>
      <trkpt lat="46.32476" lon="-0.30147">
        <ele>82.2782</ele>
        <time>2011-01-09T13:06:24Z</time>
      </trkpt>
      <trkpt lat="46.32476" lon="-0.30147">
        <ele>82.2092</ele>
        <time>2011-01-09T13:06:25Z</time>
      </trkpt>
      <trkpt lat="46.32476" lon="-0.30147">
        <ele>82.1407</ele>
        <time>2011-01-09T13:06:26Z</time>
      </trkpt>
      <trkpt lat="46.32476" lon="-0.30149">
        <ele>82.0507</ele>
        <time>2011-01-09T13:06:29Z</time>
      </trkpt>
      <trkpt lat="46.32477" lon="-0.30151">
        <ele>81.9766</ele>
        <time>2011-01-09T13:06:30Z</time>
      </trkpt>
      <trkpt lat="46.32477" lon="-0.30152">
        <ele>81.9055</ele>
        <time>2011-01-09T13:06:31Z</time>
      </trkpt>
      <trkpt lat="46.32478" lon="-0.30154">
        <ele>81.8362</ele>
        <time>2011-01-09T13:06:32Z</time>
      </trkpt>
      <trkpt lat="46.32478" lon="-0.30155">
        <ele>81.7686</ele>
        <time>2011-01-09T13:06:33Z</time>
      </trkpt>
      <trkpt lat="46.32479" lon="-0.30157">
        <ele>81.6949</ele>
        <time>2011-01-09T13:06:34Z</time>
      </trkpt>
      <trkpt lat="46.3248" lon="-0.30159">
        <ele>81.6091</ele>
        <time>2011-01-09T13:06:35Z</time>
      </trkpt>
      <trkpt lat="46.3248" lon="-0.3016">
        <ele>81.5253</ele>
        <time>2011-01-09T13:06:36Z</time>
      </trkpt>
      <trkpt lat="46.3248" lon="-0.30162">
        <ele>81.4452</ele>
        <time>2011-01-09T13:06:37Z</time>
      </trkpt>
      <trkpt lat="46.32481" lon="-0.30163">
        <ele>81.3446</ele>
        <time>2011-01-09T13:06:38Z</time>
      </trkpt>
      <trkpt lat="46.32481" lon="-0.30165">
        <ele>81.2461</ele>
        <time>2011-01-09T13:06:39Z</time>
      </trkpt>
      <trkpt lat="46.32481" lon="-0.30167">
        <ele>81.1245</ele>
        <time>2011-01-09T13:06:40Z</time>
      </trkpt>
      <trkpt lat="46.32481" lon="-0.30169">
        <ele>80.9877</ele>
        <time>2011-01-09T13:06:41Z</time>
      </trkpt>
      <trkpt lat="46.32481" lon="-0.30171">
        <ele>80.8367</ele>
        <time>2011-01-09T13:06:42Z</time>
      </trkpt>
      <trkpt lat="46.32482" lon="-0.30172">
        <ele>80.6896</ele>
        <time>2011-01-09T13:06:43Z</time>
      </trkpt>
      <trkpt lat="46.32482" lon="-0.30174">
        <ele>80.5336</ele>
        <time>2011-01-09T13:06:44Z</time>
      </trkpt>
      <trkpt lat="46.32483" lon="-0.30175">
        <ele>80.3704</ele>
        <time>2011-01-09T13:06:45Z</time>
      </trkpt>
      <trkpt lat="46.32483" lon="-0.30177">
        <ele>80.2102</ele>
        <time>2011-01-09T13:06:46Z</time>
      </trkpt>
      <trkpt lat="46.32483" lon="-0.30178">
        <ele>80.0509</ele>
        <time>2011-01-09T13:06:47Z</time>
      </trkpt>
      <trkpt lat="46.32484" lon="-0.30179">
        <ele>79.895</ele>
        <time>2011-01-09T13:06:48Z</time>
      </trkpt>
      <trkpt lat="46.32484" lon="-0.30181">
        <ele>79.7439</ele>
        <time>2011-01-09T13:06:49Z</time>
      </trkpt>
      <trkpt lat="46.32484" lon="-0.30182">
        <ele>79.5987</ele>
        <time>2011-01-09T13:06:50Z</time>
      </trkpt>
      <trkpt lat="46.32484" lon="-0.30184">
        <ele>79.4553</ele>
        <time>2011-01-09T13:06:51Z</time>
      </trkpt>
      <trkpt lat="46.32485" lon="-0.30186">
        <ele>79.3269</ele>
        <time>2011-01-09T13:06:52Z</time>
      </trkpt>
      <trkpt lat="46.32485" lon="-0.30188">
        <ele>79.2063</ele>
        <time>2011-01-09T13:06:53Z</time>
      </trkpt>
      <trkpt lat="46.32485" lon="-0.30189">
        <ele>79.087</ele>
        <time>2011-01-09T13:06:54Z</time>
      </trkpt>
      <trkpt lat="46.32485" lon="-0.30191">
        <ele>78.9691</ele>
        <time>2011-01-09T13:06:55Z</time>
      </trkpt>
      <trkpt lat="46.32486" lon="-0.30193">
        <ele>78.856</ele>
        <time>2011-01-09T13:06:56Z</time>
      </trkpt>
      <trkpt lat="46.32486" lon="-0.30194">
        <ele>78.7418</ele>
        <time>2011-01-09T13:06:57Z</time>
      </trkpt>
      <trkpt lat="46.32486" lon="-0.30196">
        <ele>78.6318</ele>
        <time>2011-01-09T13:06:58Z</time>
      </trkpt>
      <trkpt lat="46.32486" lon="-0.30197">
        <ele>78.5228</ele>
        <time>2011-01-09T13:06:59Z</time>
      </trkpt>
      <trkpt lat="46.32487" lon="-0.30199">
        <ele>78.4181</ele>
        <time>2011-01-09T13:07:00Z</time>
      </trkpt>
      <trkpt lat="46.32488" lon="-0.30201">
        <ele>78.3175</ele>
        <time>2011-01-09T13:07:01Z</time>
      </trkpt>
      <trkpt lat="46.32488" lon="-0.30203">
        <ele>78.2225</ele>
        <time>2011-01-09T13:07:02Z</time>
      </trkpt>
      <trkpt lat="46.32489" lon="-0.30205">
        <ele>78.1338</ele>
        <time>2011-01-09T13:07:03Z</time>
      </trkpt>
      <trkpt lat="46.32489" lon="-0.30207">
        <ele>78.0505</ele>
        <time>2011-01-09T13:07:04Z</time>
      </trkpt>
      <trkpt lat="46.32489" lon="-0.30209">
        <ele>77.9713</ele>
        <time>2011-01-09T13:07:05Z</time>
      </trkpt>
      <trkpt lat="46.3249" lon="-0.30211">
        <ele>77.8885</ele>
        <time>2011-01-09T13:07:06Z</time>
      </trkpt>
      <trkpt lat="46.3249" lon="-0.30212">
        <ele>77.8083</ele>
        <time>2011-01-09T13:07:07Z</time>
      </trkpt>
      <trkpt lat="46.32491" lon="-0.30214">
        <ele>77.7219</ele>
        <time>2011-01-09T13:07:08Z</time>
      </trkpt>
      <trkpt lat="46.32491" lon="-0.30215">
        <ele>77.6346</ele>
        <time>2011-01-09T13:07:09Z</time>
      </trkpt>
      <trkpt lat="46.32491" lon="-0.30217">
        <ele>77.5493</ele>
        <time>2011-01-09T13:07:10Z</time>
      </trkpt>
      <trkpt lat="46.32492" lon="-0.30218">
        <ele>77.4682</ele>
        <time>2011-01-09T13:07:11Z</time>
      </trkpt>
      <trkpt lat="46.32492" lon="-0.30219">
        <ele>77.39</ele>
        <time>2011-01-09T13:07:12Z</time>
      </trkpt>
      <trkpt lat="46.32493" lon="-0.30221">
        <ele>77.3172</ele>
        <time>2011-01-09T13:07:13Z</time>
      </trkpt>
      <trkpt lat="46.32493" lon="-0.30222">
        <ele>77.2487</ele>
        <time>2011-01-09T13:07:14Z</time>
      </trkpt>
      <trkpt lat="46.32494" lon="-0.30224">
        <ele>77.1812</ele>
        <time>2011-01-09T13:07:15Z</time>
      </trkpt>
      <trkpt lat="46.32494" lon="-0.30226">
        <ele>77.114</ele>
        <time>2011-01-09T13:07:16Z</time>
      </trkpt>
      <trkpt lat="46.32494" lon="-0.30228">
        <ele>77.0485</ele>
        <time>2011-01-09T13:07:17Z</time>
      </trkpt>
      <trkpt lat="46.32494" lon="-0.3023">
        <ele>76.9833</ele>
        <time>2011-01-09T13:07:18Z</time>
      </trkpt>
      <trkpt lat="46.32494" lon="-0.30232">
        <ele>76.9132</ele>
        <time>2011-01-09T13:07:19Z</time>
      </trkpt>
      <trkpt lat="46.32494" lon="-0.30235">
        <ele>76.8469</ele>
        <time>2011-01-09T13:07:20Z</time>
      </trkpt>
      <trkpt lat="46.32494" lon="-0.30236">
        <ele>76.7833</ele>
        <time>2011-01-09T13:07:21Z</time>
      </trkpt>
      <trkpt lat="46.32494" lon="-0.30238">
        <ele>76.7222</ele>
        <time>2011-01-09T13:07:22Z</time>
      </trkpt>
      <trkpt lat="46.32495" lon="-0.30239">
        <ele>76.6632</ele>
        <time>2011-01-09T13:07:23Z</time>
      </trkpt>
      <trkpt lat="46.32495" lon="-0.30241">
        <ele>76.5801</ele>
        <time>2011-01-09T13:07:28Z</time>
      </trkpt>
      <trkpt lat="46.32495" lon="-0.30242">
        <ele>76.51</ele>
        <time>2011-01-09T13:07:29Z</time>
      </trkpt>
      <trkpt lat="46.32495" lon="-0.30243">
        <ele>76.4422</ele>
        <time>2011-01-09T13:07:30Z</time>
      </trkpt>
      <trkpt lat="46.32496" lon="-0.30244">
        <ele>76.376</ele>
        <time>2011-01-09T13:07:31Z</time>
      </trkpt>
      <trkpt lat="46.32496" lon="-0.30245">
        <ele>76.3118</ele>
        <time>2011-01-09T13:07:32Z</time>
      </trkpt>
      <trkpt lat="46.32496" lon="-0.30246">
        <ele>76.249</ele>
        <time>2011-01-09T13:07:33Z</time>
      </trkpt>
      <trkpt lat="46.32496" lon="-0.30247">
        <ele>76.1861</ele>
        <time>2011-01-09T13:07:34Z</time>
      </trkpt>
      <trkpt lat="46.32496" lon="-0.30248">
        <ele>76.1229</ele>
        <time>2011-01-09T13:07:35Z</time>
      </trkpt>
      <trkpt lat="46.32497" lon="-0.30249">
        <ele>76.0598</ele>
        <time>2011-01-09T13:07:36Z</time>
      </trkpt>
      <trkpt lat="46.32497" lon="-0.30251">
        <ele>75.9975</ele>
        <time>2011-01-09T13:07:37Z</time>
      </trkpt>
      <trkpt lat="46.32497" lon="-0.30252">
        <ele>75.936</ele>
        <time>2011-01-09T13:07:38Z</time>
      </trkpt>
      <trkpt lat="46.32498" lon="-0.30253">
        <ele>75.8756</ele>
        <time>2011-01-09T13:07:39Z</time>
      </trkpt>
      <trkpt lat="46.32499" lon="-0.30255">
        <ele>75.8167</ele>
        <time>2011-01-09T13:07:40Z</time>
      </trkpt>
      <trkpt lat="46.32499" lon="-0.30256">
        <ele>75.7588</ele>
        <time>2011-01-09T13:07:41Z</time>
      </trkpt>
      <trkpt lat="46.32499" lon="-0.30257">
        <ele>75.7024</ele>
        <time>2011-01-09T13:07:42Z</time>
      </trkpt>
      <trkpt lat="46.325" lon="-0.30259">
        <ele>75.6462</ele>
        <time>2011-01-09T13:07:43Z</time>
      </trkpt>
      <trkpt lat="46.32501" lon="-0.3026">
        <ele>75.5885</ele>
        <time>2011-01-09T13:07:44Z</time>
      </trkpt>
      <trkpt lat="46.32501" lon="-0.30262">
        <ele>75.5309</ele>
        <time>2011-01-09T13:07:45Z</time>
      </trkpt>
      <trkpt lat="46.32501" lon="-0.30263">
        <ele>75.4642</ele>
        <time>2011-01-09T13:07:46Z</time>
      </trkpt>
      <trkpt lat="46.32502" lon="-0.30264">
        <ele>75.3933</ele>
        <time>2011-01-09T13:07:47Z</time>
      </trkpt>
      <trkpt lat="46.32502" lon="-0.30266">
        <ele>75.3137</ele>
        <time>2011-01-09T13:07:48Z</time>
      </trkpt>
      <trkpt lat="46.32503" lon="-0.30267">
        <ele>75.2382</ele>
        <time>2011-01-09T13:07:49Z</time>
      </trkpt>
      <trkpt lat="46.32504" lon="-0.30269">
        <ele>75.1629</ele>
        <time>2011-01-09T13:07:50Z</time>
      </trkpt>
      <trkpt lat="46.32504" lon="-0.3027">
        <ele>75.0777</ele>
        <time>2011-01-09T13:07:51Z</time>
      </trkpt>
      <trkpt lat="46.32505" lon="-0.30271">
        <ele>74.9795</ele>
        <time>2011-01-09T13:07:52Z</time>
      </trkpt>
      <trkpt lat="46.32505" lon="-0.30273">
        <ele>74.8819</ele>
        <time>2011-01-09T13:07:53Z</time>
      </trkpt>
      <trkpt lat="46.32507" lon="-0.30276">
        <ele>74.7819</ele>
        <time>2011-01-09T13:07:54Z</time>
      </trkpt>
      <trkpt lat="46.32508" lon="-0.30278">
        <ele>74.6867</ele>
        <time>2011-01-09T13:07:55Z</time>
      </trkpt>
      <trkpt lat="46.3251" lon="-0.3028">
        <ele>74.5846</ele>
        <time>2011-01-09T13:07:56Z</time>
      </trkpt>
      <trkpt lat="46.32512" lon="-0.30282">
        <ele>74.4714</ele>
        <time>2011-01-09T13:07:57Z</time>
      </trkpt>
      <trkpt lat="46.32513" lon="-0.30284">
        <ele>74.3569</ele>
        <time>2011-01-09T13:07:58Z</time>
      </trkpt>
      <trkpt lat="46.32513" lon="-0.30286">
        <ele>74.2393</ele>
        <time>2011-01-09T13:07:59Z</time>
      </trkpt>
      <trkpt lat="46.32514" lon="-0.30288">
        <ele>74.1243</ele>
        <time>2011-01-09T13:08:00Z</time>
      </trkpt>
      <trkpt lat="46.32515" lon="-0.30289">
        <ele>74.0088</ele>
        <time>2011-01-09T13:08:01Z</time>
      </trkpt>
      <trkpt lat="46.32515" lon="-0.3029">
        <ele>73.8964</ele>
        <time>2011-01-09T13:08:02Z</time>
      </trkpt>
      <trkpt lat="46.32516" lon="-0.30292">
        <ele>73.7972</ele>
        <time>2011-01-09T13:08:03Z</time>
      </trkpt>
      <trkpt lat="46.32517" lon="-0.30293">
        <ele>73.701</ele>
        <time>2011-01-09T13:08:04Z</time>
      </trkpt>
      <trkpt lat="46.32517" lon="-0.30294">
        <ele>73.6172</ele>
        <time>2011-01-09T13:08:05Z</time>
      </trkpt>
      <trkpt lat="46.32518" lon="-0.30296">
        <ele>73.5418</ele>
        <time>2011-01-09T13:08:06Z</time>
      </trkpt>
      <trkpt lat="46.32518" lon="-0.30298">
        <ele>73.4764</ele>
        <time>2011-01-09T13:08:07Z</time>
      </trkpt>
      <trkpt lat="46.32518" lon="-0.303">
        <ele>73.4155</ele>
        <time>2011-01-09T13:08:08Z</time>
      </trkpt>
      <trkpt lat="46.32519" lon="-0.30302">
        <ele>73.3728</ele>
        <time>2011-01-09T13:08:09Z</time>
      </trkpt>
      <trkpt lat="46.3252" lon="-0.30304">
        <ele>73.338</ele>
        <time>2011-01-09T13:08:10Z</time>
      </trkpt>
      <trkpt lat="46.32521" lon="-0.30305">
        <ele>73.3114</ele>
        <time>2011-01-09T13:08:11Z</time>
      </trkpt>
      <trkpt lat="46.32521" lon="-0.30306">
        <ele>73.2899</ele>
        <time>2011-01-09T13:08:12Z</time>
      </trkpt>
      <trkpt lat="46.32522" lon="-0.30308">
        <ele>73.2733</ele>
        <time>2011-01-09T13:08:13Z</time>
      </trkpt>
      <trkpt lat="46.32522" lon="-0.30309">
        <ele>73.2569</ele>
        <time>2011-01-09T13:08:14Z</time>
      </trkpt>
      <trkpt lat="46.32523" lon="-0.3031">
        <ele>73.2444</ele>
        <time>2011-01-09T13:08:15Z</time>
      </trkpt>
      <trkpt lat="46.32523" lon="-0.30312">
        <ele>73.2352</ele>
        <time>2011-01-09T13:08:16Z</time>
      </trkpt>
      <trkpt lat="46.32525" lon="-0.30313">
        <ele>73.2313</ele>
        <time>2011-01-09T13:08:17Z</time>
      </trkpt>
      <trkpt lat="46.32525" lon="-0.30315">
        <ele>73.2277</ele>
        <time>2011-01-09T13:08:18Z</time>
      </trkpt>
      <trkpt lat="46.32526" lon="-0.30316">
        <ele>73.2246</ele>
        <time>2011-01-09T13:08:19Z</time>
      </trkpt>
      <trkpt lat="46.32526" lon="-0.30318">
        <ele>73.2202</ele>
        <time>2011-01-09T13:08:20Z</time>
      </trkpt>
      <trkpt lat="46.32528" lon="-0.30319">
        <ele>73.2183</ele>
        <time>2011-01-09T13:08:21Z</time>
      </trkpt>
      <trkpt lat="46.32528" lon="-0.3032">
        <ele>73.2185</ele>
        <time>2011-01-09T13:08:22Z</time>
      </trkpt>
      <trkpt lat="46.32529" lon="-0.30322">
        <ele>73.2194</ele>
        <time>2011-01-09T13:08:23Z</time>
      </trkpt>
      <trkpt lat="46.3253" lon="-0.30323">
        <ele>73.2195</ele>
        <time>2011-01-09T13:08:24Z</time>
      </trkpt>
      <trkpt lat="46.32531" lon="-0.30324">
        <ele>73.2204</ele>
        <time>2011-01-09T13:08:25Z</time>
      </trkpt>
      <trkpt lat="46.32532" lon="-0.30325">
        <ele>73.2233</ele>
        <time>2011-01-09T13:08:26Z</time>
      </trkpt>
      <trkpt lat="46.32533" lon="-0.30326">
        <ele>73.229</ele>
        <time>2011-01-09T13:08:27Z</time>
      </trkpt>
      <trkpt lat="46.32534" lon="-0.30327">
        <ele>73.238</ele>
        <time>2011-01-09T13:08:28Z</time>
      </trkpt>
      <trkpt lat="46.32535" lon="-0.30328">
        <ele>73.2493</ele>
        <time>2011-01-09T13:08:29Z</time>
      </trkpt>
      <trkpt lat="46.32536" lon="-0.30329">
        <ele>73.2691</ele>
        <time>2011-01-09T13:08:30Z</time>
      </trkpt>
      <trkpt lat="46.32537" lon="-0.3033">
        <ele>73.2957</ele>
        <time>2011-01-09T13:08:31Z</time>
      </trkpt>
      <trkpt lat="46.32538" lon="-0.30331">
        <ele>73.3252</ele>
        <time>2011-01-09T13:08:32Z</time>
      </trkpt>
      <trkpt lat="46.32539" lon="-0.30332">
        <ele>73.3562</ele>
        <time>2011-01-09T13:08:33Z</time>
      </trkpt>
      <trkpt lat="46.32539" lon="-0.30333">
        <ele>73.3865</ele>
        <time>2011-01-09T13:08:34Z</time>
      </trkpt>
      <trkpt lat="46.32541" lon="-0.30335">
        <ele>73.4151</ele>
        <time>2011-01-09T13:08:35Z</time>
      </trkpt>
      <trkpt lat="46.32541" lon="-0.30336">
        <ele>73.4418</ele>
        <time>2011-01-09T13:08:36Z</time>
      </trkpt>
      <trkpt lat="46.32542" lon="-0.30337">
        <ele>73.4677</ele>
        <time>2011-01-09T13:08:37Z</time>
      </trkpt>
      <trkpt lat="46.32543" lon="-0.30338">
        <ele>73.4932</ele>
        <time>2011-01-09T13:08:38Z</time>
      </trkpt>
      <trkpt lat="46.32544" lon="-0.30339">
        <ele>73.5094</ele>
        <time>2011-01-09T13:08:39Z</time>
      </trkpt>
      <trkpt lat="46.32545" lon="-0.3034">
        <ele>73.5184</ele>
        <time>2011-01-09T13:08:40Z</time>
      </trkpt>
      <trkpt lat="46.32546" lon="-0.30341">
        <ele>73.5237</ele>
        <time>2011-01-09T13:08:41Z</time>
      </trkpt>
      <trkpt lat="46.32547" lon="-0.30341">
        <ele>73.5279</ele>
        <time>2011-01-09T13:08:42Z</time>
      </trkpt>
      <trkpt lat="46.32548" lon="-0.30342">
        <ele>73.5325</ele>
        <time>2011-01-09T13:08:43Z</time>
      </trkpt>
      <trkpt lat="46.32549" lon="-0.30342">
        <ele>73.5358</ele>
        <time>2011-01-09T13:08:44Z</time>
      </trkpt>
      <trkpt lat="46.3255" lon="-0.30344">
        <ele>73.5964</ele>
        <time>2011-01-09T13:08:48Z</time>
      </trkpt>
      <trkpt lat="46.3255" lon="-0.30344">
        <ele>73.6208</ele>
        <time>2011-01-09T13:08:49Z</time>
      </trkpt>
      <trkpt lat="46.32551" lon="-0.30345">
        <ele>73.6405</ele>
        <time>2011-01-09T13:08:50Z</time>
      </trkpt>
      <trkpt lat="46.32552" lon="-0.30346">
        <ele>73.6604</ele>
        <time>2011-01-09T13:08:51Z</time>
      </trkpt>
      <trkpt lat="46.32552" lon="-0.30347">
        <ele>73.6719</ele>
        <time>2011-01-09T13:08:52Z</time>
      </trkpt>
      <trkpt lat="46.32554" lon="-0.30348">
        <ele>73.6761</ele>
        <time>2011-01-09T13:08:53Z</time>
      </trkpt>
      <trkpt lat="46.32554" lon="-0.30349">
        <ele>73.6841</ele>
        <time>2011-01-09T13:08:54Z</time>
      </trkpt>
      <trkpt lat="46.32554" lon="-0.30349">
        <ele>73.7005</ele>
        <time>2011-01-09T13:08:55Z</time>
      </trkpt>
      <trkpt lat="46.32555" lon="-0.30349">
        <ele>73.7293</ele>
        <time>2011-01-09T13:08:57Z</time>
      </trkpt>
      <trkpt lat="46.32555" lon="-0.30349">
        <ele>73.7598</ele>
        <time>2011-01-09T13:08:58Z</time>
      </trkpt>
      <trkpt lat="46.32555" lon="-0.3035">
        <ele>73.7964</ele>
        <time>2011-01-09T13:08:59Z</time>
      </trkpt>
      <trkpt lat="46.32556" lon="-0.30351">
        <ele>73.8412</ele>
        <time>2011-01-09T13:09:00Z</time>
      </trkpt>
      <trkpt lat="46.32557" lon="-0.30352">
        <ele>73.8944</ele>
        <time>2011-01-09T13:09:01Z</time>
      </trkpt>
      <trkpt lat="46.32558" lon="-0.30353">
        <ele>73.9554</ele>
        <time>2011-01-09T13:09:02Z</time>
      </trkpt>
      <trkpt lat="46.32559" lon="-0.30355">
        <ele>74.0207</ele>
        <time>2011-01-09T13:09:03Z</time>
      </trkpt>
      <trkpt lat="46.3256" lon="-0.30356">
        <ele>74.0832</ele>
        <time>2011-01-09T13:09:04Z</time>
      </trkpt>
      <trkpt lat="46.32561" lon="-0.30357">
        <ele>74.1467</ele>
        <time>2011-01-09T13:09:05Z</time>
      </trkpt>
      <trkpt lat="46.32562" lon="-0.30358">
        <ele>74.2141</ele>
        <time>2011-01-09T13:09:06Z</time>
      </trkpt>
      <trkpt lat="46.32562" lon="-0.30359">
        <ele>74.2856</ele>
        <time>2011-01-09T13:09:07Z</time>
      </trkpt>
      <trkpt lat="46.32563" lon="-0.3036">
        <ele>74.3557</ele>
        <time>2011-01-09T13:09:08Z</time>
      </trkpt>
      <trkpt lat="46.32564" lon="-0.3036">
        <ele>74.563</ele>
        <time>2011-01-09T13:09:12Z</time>
      </trkpt>
      <trkpt lat="46.32565" lon="-0.30361">
        <ele>74.6282</ele>
        <time>2011-01-09T13:09:13Z</time>
      </trkpt>
      <trkpt lat="46.32566" lon="-0.30361">
        <ele>74.7141</ele>
        <time>2011-01-09T13:09:14Z</time>
      </trkpt>
      <trkpt lat="46.32568" lon="-0.30362">
        <ele>74.8001</ele>
        <time>2011-01-09T13:09:15Z</time>
      </trkpt>
      <trkpt lat="46.32569" lon="-0.30361">
        <ele>74.8814</ele>
        <time>2011-01-09T13:09:16Z</time>
      </trkpt>
      <trkpt lat="46.32571" lon="-0.30361">
        <ele>74.9603</ele>
        <time>2011-01-09T13:09:17Z</time>
      </trkpt>
      <trkpt lat="46.32573" lon="-0.30361">
        <ele>75.0326</ele>
        <time>2011-01-09T13:09:18Z</time>
      </trkpt>
      <trkpt lat="46.32574" lon="-0.30363">
        <ele>75.1053</ele>
        <time>2011-01-09T13:09:19Z</time>
      </trkpt>
      <trkpt lat="46.32576" lon="-0.30364">
        <ele>75.1744</ele>
        <time>2011-01-09T13:09:20Z</time>
      </trkpt>
      <trkpt lat="46.32578" lon="-0.30366">
        <ele>75.2364</ele>
        <time>2011-01-09T13:09:21Z</time>
      </trkpt>
      <trkpt lat="46.32579" lon="-0.30368">
        <ele>75.2986</ele>
        <time>2011-01-09T13:09:22Z</time>
      </trkpt>
      <trkpt lat="46.32581" lon="-0.30369">
        <ele>75.3598</ele>
        <time>2011-01-09T13:09:23Z</time>
      </trkpt>
      <trkpt lat="46.32582" lon="-0.30371">
        <ele>75.4219</ele>
        <time>2011-01-09T13:09:24Z</time>
      </trkpt>
      <trkpt lat="46.32583" lon="-0.30371">
        <ele>75.4828</ele>
        <time>2011-01-09T13:09:25Z</time>
      </trkpt>
      <trkpt lat="46.32584" lon="-0.30372">
        <ele>75.5407</ele>
        <time>2011-01-09T13:09:26Z</time>
      </trkpt>
      <trkpt lat="46.32586" lon="-0.30373">
        <ele>75.5931</ele>
        <time>2011-01-09T13:09:27Z</time>
      </trkpt>
      <trkpt lat="46.32587" lon="-0.30375">
        <ele>75.6403</ele>
        <time>2011-01-09T13:09:28Z</time>
      </trkpt>
      <trkpt lat="46.32588" lon="-0.30376">
        <ele>75.6878</ele>
        <time>2011-01-09T13:09:29Z</time>
      </trkpt>
      <trkpt lat="46.3259" lon="-0.30377">
        <ele>75.7349</ele>
        <time>2011-01-09T13:09:30Z</time>
      </trkpt>
      <trkpt lat="46.32591" lon="-0.30378">
        <ele>75.7831</ele>
        <time>2011-01-09T13:09:31Z</time>
      </trkpt>
      <trkpt lat="46.32592" lon="-0.30379">
        <ele>75.83</ele>
        <time>2011-01-09T13:09:32Z</time>
      </trkpt>
      <trkpt lat="46.32594" lon="-0.3038">
        <ele>75.8773</ele>
        <time>2011-01-09T13:09:33Z</time>
      </trkpt>
      <trkpt lat="46.32595" lon="-0.30381">
        <ele>75.9241</ele>
        <time>2011-01-09T13:09:34Z</time>
      </trkpt>
      <trkpt lat="46.32597" lon="-0.30381">
        <ele>75.966</ele>
        <time>2011-01-09T13:09:35Z</time>
      </trkpt>
      <trkpt lat="46.32598" lon="-0.30382">
        <ele>76.0088</ele>
        <time>2011-01-09T13:09:36Z</time>
      </trkpt>
      <trkpt lat="46.32599" lon="-0.30383">
        <ele>76.0522</ele>
        <time>2011-01-09T13:09:37Z</time>
      </trkpt>
      <trkpt lat="46.326" lon="-0.30383">
        <ele>76.0941</ele>
        <time>2011-01-09T13:09:38Z</time>
      </trkpt>
      <trkpt lat="46.32602" lon="-0.30382">
        <ele>76.137</ele>
        <time>2011-01-09T13:09:39Z</time>
      </trkpt>
      <trkpt lat="46.32604" lon="-0.30382">
        <ele>76.1789</ele>
        <time>2011-01-09T13:09:40Z</time>
      </trkpt>
      <trkpt lat="46.32605" lon="-0.30381">
        <ele>76.221</ele>
        <time>2011-01-09T13:09:41Z</time>
      </trkpt>
      <trkpt lat="46.32606" lon="-0.3038">
        <ele>76.2644</ele>
        <time>2011-01-09T13:09:42Z</time>
      </trkpt>
      <trkpt lat="46.32607" lon="-0.30378">
        <ele>76.304</ele>
        <time>2011-01-09T13:09:43Z</time>
      </trkpt>
      <trkpt lat="46.32608" lon="-0.30378">
        <ele>76.3387</ele>
        <time>2011-01-09T13:09:44Z</time>
      </trkpt>
      <trkpt lat="46.32609" lon="-0.30376">
        <ele>76.3754</ele>
        <time>2011-01-09T13:09:45Z</time>
      </trkpt>
      <trkpt lat="46.3261" lon="-0.30375">
        <ele>76.4168</ele>
        <time>2011-01-09T13:09:46Z</time>
      </trkpt>
      <trkpt lat="46.32611" lon="-0.30374">
        <ele>76.4574</ele>
        <time>2011-01-09T13:09:47Z</time>
      </trkpt>
      <trkpt lat="46.32611" lon="-0.30374">
        <ele>76.4973</ele>
        <time>2011-01-09T13:09:48Z</time>
      </trkpt>
      <trkpt lat="46.32612" lon="-0.30373">
        <ele>76.5491</ele>
        <time>2011-01-09T13:09:53Z</time>
      </trkpt>
      <trkpt lat="46.32613" lon="-0.30373">
        <ele>76.5805</ele>
        <time>2011-01-09T13:09:54Z</time>
      </trkpt>
      <trkpt lat="46.32614" lon="-0.30373">
        <ele>76.6199</ele>
        <time>2011-01-09T13:09:55Z</time>
      </trkpt>
      <trkpt lat="46.32615" lon="-0.30372">
        <ele>76.6612</ele>
        <time>2011-01-09T13:09:56Z</time>
      </trkpt>
      <trkpt lat="46.32616" lon="-0.30371">
        <ele>76.7023</ele>
        <time>2011-01-09T13:09:57Z</time>
      </trkpt>
      <trkpt lat="46.32617" lon="-0.30371">
        <ele>76.7445</ele>
        <time>2011-01-09T13:09:58Z</time>
      </trkpt>
      <trkpt lat="46.32618" lon="-0.3037">
        <ele>76.7876</ele>
        <time>2011-01-09T13:09:59Z</time>
      </trkpt>
      <trkpt lat="46.3262" lon="-0.30369">
        <ele>76.8352</ele>
        <time>2011-01-09T13:10:00Z</time>
      </trkpt>
      <trkpt lat="46.3262" lon="-0.30369">
        <ele>76.8851</ele>
        <time>2011-01-09T13:10:01Z</time>
      </trkpt>
      <trkpt lat="46.32621" lon="-0.30368">
        <ele>76.9344</ele>
        <time>2011-01-09T13:10:02Z</time>
      </trkpt>
      <trkpt lat="46.32622" lon="-0.30367">
        <ele>76.9819</ele>
        <time>2011-01-09T13:10:03Z</time>
      </trkpt>
      <trkpt lat="46.32623" lon="-0.30366">
        <ele>77.0275</ele>
        <time>2011-01-09T13:10:04Z</time>
      </trkpt>
      <trkpt lat="46.32624" lon="-0.30366">
        <ele>77.074</ele>
        <time>2011-01-09T13:10:05Z</time>
      </trkpt>
      <trkpt lat="46.32625" lon="-0.30366">
        <ele>77.1171</ele>
        <time>2011-01-09T13:10:06Z</time>
      </trkpt>
      <trkpt lat="46.32626" lon="-0.30366">
        <ele>77.1592</ele>
        <time>2011-01-09T13:10:07Z</time>
      </trkpt>
      <trkpt lat="46.32628" lon="-0.30366">
        <ele>77.1996</ele>
        <time>2011-01-09T13:10:08Z</time>
      </trkpt>
      <trkpt lat="46.32629" lon="-0.30366">
        <ele>77.2391</ele>
        <time>2011-01-09T13:10:09Z</time>
      </trkpt>
      <trkpt lat="46.3263" lon="-0.30366">
        <ele>77.2791</ele>
        <time>2011-01-09T13:10:10Z</time>
      </trkpt>
      <trkpt lat="46.32631" lon="-0.30365">
        <ele>77.3207</ele>
        <time>2011-01-09T13:10:11Z</time>
      </trkpt>
      <trkpt lat="46.32632" lon="-0.30365">
        <ele>77.3756</ele>
        <time>2011-01-09T13:10:14Z</time>
      </trkpt>
      <trkpt lat="46.32633" lon="-0.30364">
        <ele>77.4191</ele>
        <time>2011-01-09T13:10:15Z</time>
      </trkpt>
      <trkpt lat="46.32634" lon="-0.30364">
        <ele>77.4614</ele>
        <time>2011-01-09T13:10:16Z</time>
      </trkpt>
      <trkpt lat="46.32636" lon="-0.30364">
        <ele>77.5029</ele>
        <time>2011-01-09T13:10:17Z</time>
      </trkpt>
      <trkpt lat="46.32637" lon="-0.30364">
        <ele>77.5424</ele>
        <time>2011-01-09T13:10:18Z</time>
      </trkpt>
      <trkpt lat="46.32638" lon="-0.30364">
        <ele>77.5815</ele>
        <time>2011-01-09T13:10:19Z</time>
      </trkpt>
      <trkpt lat="46.32639" lon="-0.30364">
        <ele>77.6223</ele>
        <time>2011-01-09T13:10:20Z</time>
      </trkpt>
      <trkpt lat="46.32641" lon="-0.30363">
        <ele>77.6688</ele>
        <time>2011-01-09T13:10:21Z</time>
      </trkpt>
      <trkpt lat="46.32642" lon="-0.30363">
        <ele>77.7216</ele>
        <time>2011-01-09T13:10:22Z</time>
      </trkpt>
      <trkpt lat="46.32643" lon="-0.30363">
        <ele>77.7794</ele>
        <time>2011-01-09T13:10:23Z</time>
      </trkpt>
      <trkpt lat="46.32644" lon="-0.30364">
        <ele>77.8418</ele>
        <time>2011-01-09T13:10:24Z</time>
      </trkpt>
      <trkpt lat="46.32645" lon="-0.30364">
        <ele>77.9065</ele>
        <time>2011-01-09T13:10:25Z</time>
      </trkpt>
      <trkpt lat="46.32647" lon="-0.30364">
        <ele>77.9727</ele>
        <time>2011-01-09T13:10:26Z</time>
      </trkpt>
      <trkpt lat="46.32648" lon="-0.30365">
        <ele>78.0395</ele>
        <time>2011-01-09T13:10:27Z</time>
      </trkpt>
      <trkpt lat="46.32649" lon="-0.30365">
        <ele>78.107</ele>
        <time>2011-01-09T13:10:28Z</time>
      </trkpt>
      <trkpt lat="46.3265" lon="-0.30365">
        <ele>78.175</ele>
        <time>2011-01-09T13:10:29Z</time>
      </trkpt>
      <trkpt lat="46.32651" lon="-0.30365">
        <ele>78.2429</ele>
        <time>2011-01-09T13:10:30Z</time>
      </trkpt>
      <trkpt lat="46.32652" lon="-0.30365">
        <ele>78.3143</ele>
        <time>2011-01-09T13:10:31Z</time>
      </trkpt>
      <trkpt lat="46.32653" lon="-0.30364">
        <ele>78.386</ele>
        <time>2011-01-09T13:10:32Z</time>
      </trkpt>
      <trkpt lat="46.32655" lon="-0.30364">
        <ele>78.4585</ele>
        <time>2011-01-09T13:10:33Z</time>
      </trkpt>
      <trkpt lat="46.32656" lon="-0.30364">
        <ele>78.5297</ele>
        <time>2011-01-09T13:10:34Z</time>
      </trkpt>
      <trkpt lat="46.32657" lon="-0.30364">
        <ele>78.601</ele>
        <time>2011-01-09T13:10:35Z</time>
      </trkpt>
      <trkpt lat="46.32658" lon="-0.30364">
        <ele>78.6719</ele>
        <time>2011-01-09T13:10:36Z</time>
      </trkpt>
      <trkpt lat="46.32658" lon="-0.30365">
        <ele>78.7427</ele>
        <time>2011-01-09T13:10:37Z</time>
      </trkpt>
      <trkpt lat="46.3266" lon="-0.30365">
        <ele>78.8131</ele>
        <time>2011-01-09T13:10:38Z</time>
      </trkpt>
      <trkpt lat="46.32661" lon="-0.30366">
        <ele>78.8823</ele>
        <time>2011-01-09T13:10:39Z</time>
      </trkpt>
      <trkpt lat="46.32661" lon="-0.30366">
        <ele>78.9512</ele>
        <time>2011-01-09T13:10:40Z</time>
      </trkpt>
      <trkpt lat="46.32662" lon="-0.30366">
        <ele>79.0186</ele>
        <time>2011-01-09T13:10:41Z</time>
      </trkpt>
      <trkpt lat="46.32663" lon="-0.30367">
        <ele>79.0876</ele>
        <time>2011-01-09T13:10:42Z</time>
      </trkpt>
      <trkpt lat="46.32665" lon="-0.30367">
        <ele>79.1572</ele>
        <time>2011-01-09T13:10:43Z</time>
      </trkpt>
      <trkpt lat="46.32666" lon="-0.30367">
        <ele>79.2245</ele>
        <time>2011-01-09T13:10:44Z</time>
      </trkpt>
      <trkpt lat="46.32668" lon="-0.30367">
        <ele>79.2918</ele>
        <time>2011-01-09T13:10:45Z</time>
      </trkpt>
      <trkpt lat="46.32669" lon="-0.30367">
        <ele>79.3578</ele>
        <time>2011-01-09T13:10:46Z</time>
      </trkpt>
      <trkpt lat="46.3267" lon="-0.30367">
        <ele>79.4375</ele>
        <time>2011-01-09T13:10:50Z</time>
      </trkpt>
      <trkpt lat="46.32671" lon="-0.30367">
        <ele>79.5009</ele>
        <time>2011-01-09T13:10:51Z</time>
      </trkpt>
      <trkpt lat="46.32672" lon="-0.30367">
        <ele>79.567</ele>
        <time>2011-01-09T13:10:52Z</time>
      </trkpt>
      <trkpt lat="46.32673" lon="-0.30368">
        <ele>79.634</ele>
        <time>2011-01-09T13:10:53Z</time>
      </trkpt>
      <trkpt lat="46.32674" lon="-0.30369">
        <ele>79.6986</ele>
        <time>2011-01-09T13:10:54Z</time>
      </trkpt>
      <trkpt lat="46.32674" lon="-0.3037">
        <ele>79.7619</ele>
        <time>2011-01-09T13:10:55Z</time>
      </trkpt>
      <trkpt lat="46.32676" lon="-0.3037">
        <ele>79.8255</ele>
        <time>2011-01-09T13:10:56Z</time>
      </trkpt>
      <trkpt lat="46.32676" lon="-0.30371">
        <ele>79.8878</ele>
        <time>2011-01-09T13:10:57Z</time>
      </trkpt>
      <trkpt lat="46.32677" lon="-0.30371">
        <ele>79.9473</ele>
        <time>2011-01-09T13:10:58Z</time>
      </trkpt>
      <trkpt lat="46.32678" lon="-0.30372">
        <ele>80.0049</ele>
        <time>2011-01-09T13:10:59Z</time>
      </trkpt>
      <trkpt lat="46.32679" lon="-0.30372">
        <ele>80.061</ele>
        <time>2011-01-09T13:11:00Z</time>
      </trkpt>
      <trkpt lat="46.3268" lon="-0.30372">
        <ele>80.1135</ele>
        <time>2011-01-09T13:11:01Z</time>
      </trkpt>
      <trkpt lat="46.32681" lon="-0.30373">
        <ele>80.1615</ele>
        <time>2011-01-09T13:11:02Z</time>
      </trkpt>
      <trkpt lat="46.32682" lon="-0.30373">
        <ele>80.2074</ele>
        <time>2011-01-09T13:11:03Z</time>
      </trkpt>
      <trkpt lat="46.32683" lon="-0.30374">
        <ele>80.2517</ele>
        <time>2011-01-09T13:11:04Z</time>
      </trkpt>
      <trkpt lat="46.32684" lon="-0.30375">
        <ele>80.2896</ele>
        <time>2011-01-09T13:11:05Z</time>
      </trkpt>
      <trkpt lat="46.32685" lon="-0.30376">
        <ele>80.3251</ele>
        <time>2011-01-09T13:11:06Z</time>
      </trkpt>
      <trkpt lat="46.32686" lon="-0.30377">
        <ele>80.3533</ele>
        <time>2011-01-09T13:11:07Z</time>
      </trkpt>
      <trkpt lat="46.32687" lon="-0.30378">
        <ele>80.3771</ele>
        <time>2011-01-09T13:11:08Z</time>
      </trkpt>
      <trkpt lat="46.32688" lon="-0.30378">
        <ele>80.3997</ele>
        <time>2011-01-09T13:11:09Z</time>
      </trkpt>
      <trkpt lat="46.32689" lon="-0.30378">
        <ele>80.4206</ele>
        <time>2011-01-09T13:11:10Z</time>
      </trkpt>
      <trkpt lat="46.3269" lon="-0.30379">
        <ele>80.4396</ele>
        <time>2011-01-09T13:11:11Z</time>
      </trkpt>
      <trkpt lat="46.32691" lon="-0.30379">
        <ele>80.4538</ele>
        <time>2011-01-09T13:11:12Z</time>
      </trkpt>
      <trkpt lat="46.32692" lon="-0.3038">
        <ele>80.466</ele>
        <time>2011-01-09T13:11:13Z</time>
      </trkpt>
      <trkpt lat="46.32693" lon="-0.3038">
        <ele>80.4769</ele>
        <time>2011-01-09T13:11:14Z</time>
      </trkpt>
      <trkpt lat="46.32694" lon="-0.30381">
        <ele>80.485</ele>
        <time>2011-01-09T13:11:15Z</time>
      </trkpt>
      <trkpt lat="46.32694" lon="-0.30381">
        <ele>80.4909</ele>
        <time>2011-01-09T13:11:16Z</time>
      </trkpt>
      <trkpt lat="46.32695" lon="-0.30381">
        <ele>80.4953</ele>
        <time>2011-01-09T13:11:17Z</time>
      </trkpt>
      <trkpt lat="46.32696" lon="-0.30382">
        <ele>80.4929</ele>
        <time>2011-01-09T13:11:18Z</time>
      </trkpt>
      <trkpt lat="46.32697" lon="-0.30382">
        <ele>80.4901</ele>
        <time>2011-01-09T13:11:19Z</time>
      </trkpt>
      <trkpt lat="46.32697" lon="-0.30383">
        <ele>80.4893</ele>
        <time>2011-01-09T13:11:20Z</time>
      </trkpt>
      <trkpt lat="46.32698" lon="-0.30383">
        <ele>80.4915</ele>
        <time>2011-01-09T13:11:21Z</time>
      </trkpt>
      <trkpt lat="46.32699" lon="-0.30384">
        <ele>80.4913</ele>
        <time>2011-01-09T13:11:22Z</time>
      </trkpt>
      <trkpt lat="46.327" lon="-0.30385">
        <ele>80.4933</ele>
        <time>2011-01-09T13:11:23Z</time>
      </trkpt>
      <trkpt lat="46.32701" lon="-0.30386">
        <ele>80.4937</ele>
        <time>2011-01-09T13:11:24Z</time>
      </trkpt>
      <trkpt lat="46.32703" lon="-0.30388">
        <ele>80.4956</ele>
        <time>2011-01-09T13:11:25Z</time>
      </trkpt>
      <trkpt lat="46.32704" lon="-0.30389">
        <ele>80.5014</ele>
        <time>2011-01-09T13:11:26Z</time>
      </trkpt>
      <trkpt lat="46.32705" lon="-0.3039">
        <ele>80.5084</ele>
        <time>2011-01-09T13:11:27Z</time>
      </trkpt>
      <trkpt lat="46.32707" lon="-0.30391">
        <ele>80.5171</ele>
        <time>2011-01-09T13:11:28Z</time>
      </trkpt>
      <trkpt lat="46.32707" lon="-0.30392">
        <ele>80.522</ele>
        <time>2011-01-09T13:11:29Z</time>
      </trkpt>
      <trkpt lat="46.32708" lon="-0.30393">
        <ele>80.5233</ele>
        <time>2011-01-09T13:11:30Z</time>
      </trkpt>
      <trkpt lat="46.32709" lon="-0.30394">
        <ele>80.5232</ele>
        <time>2011-01-09T13:11:31Z</time>
      </trkpt>
      <trkpt lat="46.3271" lon="-0.30394">
        <ele>80.5242</ele>
        <time>2011-01-09T13:11:32Z</time>
      </trkpt>
      <trkpt lat="46.32712" lon="-0.30395">
        <ele>80.5349</ele>
        <time>2011-01-09T13:11:33Z</time>
      </trkpt>
      <trkpt lat="46.32713" lon="-0.30395">
        <ele>80.5523</ele>
        <time>2011-01-09T13:11:34Z</time>
      </trkpt>
      <trkpt lat="46.32714" lon="-0.30396">
        <ele>80.5761</ele>
        <time>2011-01-09T13:11:35Z</time>
      </trkpt>
      <trkpt lat="46.32716" lon="-0.30396">
        <ele>80.61</ele>
        <time>2011-01-09T13:11:36Z</time>
      </trkpt>
      <trkpt lat="46.32717" lon="-0.30396">
        <ele>80.6476</ele>
        <time>2011-01-09T13:11:37Z</time>
      </trkpt>
      <trkpt lat="46.32718" lon="-0.30397">
        <ele>80.6897</ele>
        <time>2011-01-09T13:11:38Z</time>
      </trkpt>
      <trkpt lat="46.32719" lon="-0.30397">
        <ele>80.7395</ele>
        <time>2011-01-09T13:11:39Z</time>
      </trkpt>
      <trkpt lat="46.3272" lon="-0.30397">
        <ele>80.7955</ele>
        <time>2011-01-09T13:11:40Z</time>
      </trkpt>
      <trkpt lat="46.32721" lon="-0.30397">
        <ele>80.855</ele>
        <time>2011-01-09T13:11:41Z</time>
      </trkpt>
      <trkpt lat="46.32723" lon="-0.30398">
        <ele>80.9182</ele>
        <time>2011-01-09T13:11:42Z</time>
      </trkpt>
      <trkpt lat="46.32724" lon="-0.30399">
        <ele>80.9822</ele>
        <time>2011-01-09T13:11:43Z</time>
      </trkpt>
      <trkpt lat="46.32725" lon="-0.304">
        <ele>81.1316</ele>
        <time>2011-01-09T13:11:46Z</time>
      </trkpt>
      <trkpt lat="46.32726" lon="-0.304">
        <ele>81.2107</ele>
        <time>2011-01-09T13:11:47Z</time>
      </trkpt>
      <trkpt lat="46.32727" lon="-0.30401">
        <ele>81.2941</ele>
        <time>2011-01-09T13:11:48Z</time>
      </trkpt>
      <trkpt lat="46.32728" lon="-0.30402">
        <ele>81.3791</ele>
        <time>2011-01-09T13:11:49Z</time>
      </trkpt>
      <trkpt lat="46.32729" lon="-0.30403">
        <ele>81.4666</ele>
        <time>2011-01-09T13:11:50Z</time>
      </trkpt>
      <trkpt lat="46.32731" lon="-0.30404">
        <ele>81.5533</ele>
        <time>2011-01-09T13:11:51Z</time>
      </trkpt>
      <trkpt lat="46.32732" lon="-0.30405">
        <ele>81.6421</ele>
        <time>2011-01-09T13:11:52Z</time>
      </trkpt>
      <trkpt lat="46.32733" lon="-0.30405">
        <ele>81.7315</ele>
        <time>2011-01-09T13:11:53Z</time>
      </trkpt>
      <trkpt lat="46.32734" lon="-0.30406">
        <ele>81.8206</ele>
        <time>2011-01-09T13:11:54Z</time>
      </trkpt>
      <trkpt lat="46.32735" lon="-0.30406">
        <ele>81.9078</ele>
        <time>2011-01-09T13:11:55Z</time>
      </trkpt>
      <trkpt lat="46.32736" lon="-0.30407">
        <ele>81.9961</ele>
        <time>2011-01-09T13:11:56Z</time>
      </trkpt>
      <trkpt lat="46.32737" lon="-0.30408">
        <ele>82.0827</ele>
        <time>2011-01-09T13:11:57Z</time>
      </trkpt>
      <trkpt lat="46.32738" lon="-0.3041">
        <ele>82.1691</ele>
        <time>2011-01-09T13:11:58Z</time>
      </trkpt>
      <trkpt lat="46.32739" lon="-0.30411">
        <ele>82.2552</ele>
        <time>2011-01-09T13:11:59Z</time>
      </trkpt>
      <trkpt lat="46.3274" lon="-0.30412">
        <ele>82.3397</ele>
        <time>2011-01-09T13:12:00Z</time>
      </trkpt>
      <trkpt lat="46.32741" lon="-0.30412">
        <ele>82.4239</ele>
        <time>2011-01-09T13:12:01Z</time>
      </trkpt>
      <trkpt lat="46.32741" lon="-0.30414">
        <ele>82.509</ele>
        <time>2011-01-09T13:12:02Z</time>
      </trkpt>
      <trkpt lat="46.32742" lon="-0.30415">
        <ele>82.5919</ele>
        <time>2011-01-09T13:12:03Z</time>
      </trkpt>
      <trkpt lat="46.32743" lon="-0.30416">
        <ele>82.6753</ele>
        <time>2011-01-09T13:12:04Z</time>
      </trkpt>
      <trkpt lat="46.32744" lon="-0.30416">
        <ele>82.7572</ele>
        <time>2011-01-09T13:12:05Z</time>
      </trkpt>
      <trkpt lat="46.32744" lon="-0.30417">
        <ele>82.8358</ele>
        <time>2011-01-09T13:12:06Z</time>
      </trkpt>
      <trkpt lat="46.32745" lon="-0.30418">
        <ele>82.9152</ele>
        <time>2011-01-09T13:12:07Z</time>
      </trkpt>
      <trkpt lat="46.32746" lon="-0.30419">
        <ele>82.9938</ele>
        <time>2011-01-09T13:12:08Z</time>
      </trkpt>
      <trkpt lat="46.32747" lon="-0.3042">
        <ele>83.0732</ele>
        <time>2011-01-09T13:12:09Z</time>
      </trkpt>
      <trkpt lat="46.32748" lon="-0.3042">
        <ele>83.1506</ele>
        <time>2011-01-09T13:12:10Z</time>
      </trkpt>
      <trkpt lat="46.3275" lon="-0.30421">
        <ele>83.2238</ele>
        <time>2011-01-09T13:12:11Z</time>
      </trkpt>
      <trkpt lat="46.3275" lon="-0.30421">
        <ele>83.2922</ele>
        <time>2011-01-09T13:12:12Z</time>
      </trkpt>
      <trkpt lat="46.32752" lon="-0.30422">
        <ele>83.3557</ele>
        <time>2011-01-09T13:12:13Z</time>
      </trkpt>
      <trkpt lat="46.32752" lon="-0.30423">
        <ele>83.4169</ele>
        <time>2011-01-09T13:12:14Z</time>
      </trkpt>
      <trkpt lat="46.32753" lon="-0.30424">
        <ele>83.4761</ele>
        <time>2011-01-09T13:12:15Z</time>
      </trkpt>
      <trkpt lat="46.32755" lon="-0.30424">
        <ele>83.5324</ele>
        <time>2011-01-09T13:12:16Z</time>
      </trkpt>
      <trkpt lat="46.32755" lon="-0.30425">
        <ele>83.5878</ele>
        <time>2011-01-09T13:12:17Z</time>
      </trkpt>
      <trkpt lat="46.32756" lon="-0.30425">
        <ele>83.6421</ele>
        <time>2011-01-09T13:12:18Z</time>
      </trkpt>
      <trkpt lat="46.32757" lon="-0.30425">
        <ele>83.6946</ele>
        <time>2011-01-09T13:12:19Z</time>
      </trkpt>
      <trkpt lat="46.32757" lon="-0.30426">
        <ele>83.7464</ele>
        <time>2011-01-09T13:12:20Z</time>
      </trkpt>
      <trkpt lat="46.32758" lon="-0.30427">
        <ele>83.7954</ele>
        <time>2011-01-09T13:12:21Z</time>
      </trkpt>
      <trkpt lat="46.32759" lon="-0.30427">
        <ele>83.8394</ele>
        <time>2011-01-09T13:12:22Z</time>
      </trkpt>
      <trkpt lat="46.3276" lon="-0.30428">
        <ele>83.8818</ele>
        <time>2011-01-09T13:12:23Z</time>
      </trkpt>
      <trkpt lat="46.3276" lon="-0.30428">
        <ele>83.9226</ele>
        <time>2011-01-09T13:12:24Z</time>
      </trkpt>
      <trkpt lat="46.32761" lon="-0.30428">
        <ele>83.96</ele>
        <time>2011-01-09T13:12:25Z</time>
      </trkpt>
      <trkpt lat="46.32762" lon="-0.30429">
        <ele>83.9938</ele>
        <time>2011-01-09T13:12:26Z</time>
      </trkpt>
      <trkpt lat="46.32763" lon="-0.3043">
        <ele>84.0257</ele>
        <time>2011-01-09T13:12:27Z</time>
      </trkpt>
      <trkpt lat="46.32764" lon="-0.30431">
        <ele>84.0547</ele>
        <time>2011-01-09T13:12:28Z</time>
      </trkpt>
      <trkpt lat="46.32764" lon="-0.30432">
        <ele>84.0806</ele>
        <time>2011-01-09T13:12:29Z</time>
      </trkpt>
      <trkpt lat="46.32766" lon="-0.30433">
        <ele>84.1039</ele>
        <time>2011-01-09T13:12:30Z</time>
      </trkpt>
      <trkpt lat="46.32767" lon="-0.30434">
        <ele>84.1222</ele>
        <time>2011-01-09T13:12:31Z</time>
      </trkpt>
      <trkpt lat="46.32768" lon="-0.30435">
        <ele>84.1406</ele>
        <time>2011-01-09T13:12:32Z</time>
      </trkpt>
      <trkpt lat="46.32768" lon="-0.30435">
        <ele>84.1588</ele>
        <time>2011-01-09T13:12:33Z</time>
      </trkpt>
      <trkpt lat="46.32769" lon="-0.30436">
        <ele>84.1767</ele>
        <time>2011-01-09T13:12:34Z</time>
      </trkpt>
      <trkpt lat="46.3277" lon="-0.30437">
        <ele>84.1947</ele>
        <time>2011-01-09T13:12:35Z</time>
      </trkpt>
      <trkpt lat="46.32771" lon="-0.30437">
        <ele>84.2142</ele>
        <time>2011-01-09T13:12:36Z</time>
      </trkpt>
      <trkpt lat="46.32772" lon="-0.30438">
        <ele>84.2343</ele>
        <time>2011-01-09T13:12:37Z</time>
      </trkpt>
      <trkpt lat="46.32772" lon="-0.30439">
        <ele>84.2515</ele>
        <time>2011-01-09T13:12:38Z</time>
      </trkpt>
      <trkpt lat="46.32773" lon="-0.3044">
        <ele>84.2667</ele>
        <time>2011-01-09T13:12:39Z</time>
      </trkpt>
      <trkpt lat="46.32774" lon="-0.30441">
        <ele>84.282</ele>
        <time>2011-01-09T13:12:40Z</time>
      </trkpt>
      <trkpt lat="46.32775" lon="-0.30442">
        <ele>84.2998</ele>
        <time>2011-01-09T13:12:41Z</time>
      </trkpt>
      <trkpt lat="46.32776" lon="-0.30443">
        <ele>84.3173</ele>
        <time>2011-01-09T13:12:42Z</time>
      </trkpt>
      <trkpt lat="46.32777" lon="-0.30444">
        <ele>84.3354</ele>
        <time>2011-01-09T13:12:43Z</time>
      </trkpt>
      <trkpt lat="46.32778" lon="-0.30444">
        <ele>84.3527</ele>
        <time>2011-01-09T13:12:44Z</time>
      </trkpt>
      <trkpt lat="46.32778" lon="-0.30445">
        <ele>84.3752</ele>
        <time>2011-01-09T13:12:45Z</time>
      </trkpt>
      <trkpt lat="46.32779" lon="-0.30445">
        <ele>84.3978</ele>
        <time>2011-01-09T13:12:46Z</time>
      </trkpt>
      <trkpt lat="46.3278" lon="-0.30445">
        <ele>84.4216</ele>
        <time>2011-01-09T13:12:47Z</time>
      </trkpt>
      <trkpt lat="46.32781" lon="-0.30446">
        <ele>84.4437</ele>
        <time>2011-01-09T13:12:48Z</time>
      </trkpt>
      <trkpt lat="46.32782" lon="-0.30448">
        <ele>84.4649</ele>
        <time>2011-01-09T13:12:49Z</time>
      </trkpt>
      <trkpt lat="46.32782" lon="-0.30449">
        <ele>84.4855</ele>
        <time>2011-01-09T13:12:50Z</time>
      </trkpt>
      <trkpt lat="46.32784" lon="-0.3045">
        <ele>84.5064</ele>
        <time>2011-01-09T13:12:51Z</time>
      </trkpt>
      <trkpt lat="46.32784" lon="-0.30451">
        <ele>84.5287</ele>
        <time>2011-01-09T13:12:52Z</time>
      </trkpt>
      <trkpt lat="46.32785" lon="-0.30451">
        <ele>84.5504</ele>
        <time>2011-01-09T13:12:53Z</time>
      </trkpt>
      <trkpt lat="46.32786" lon="-0.30452">
        <ele>84.569</ele>
        <time>2011-01-09T13:12:54Z</time>
      </trkpt>
      <trkpt lat="46.32787" lon="-0.30452">
        <ele>84.5851</ele>
        <time>2011-01-09T13:12:55Z</time>
      </trkpt>
      <trkpt lat="46.32788" lon="-0.30453">
        <ele>84.5997</ele>
        <time>2011-01-09T13:12:56Z</time>
      </trkpt>
      <trkpt lat="46.32789" lon="-0.30454">
        <ele>84.6082</ele>
        <time>2011-01-09T13:12:57Z</time>
      </trkpt>
      <trkpt lat="46.32791" lon="-0.30455">
        <ele>84.6146</ele>
        <time>2011-01-09T13:12:58Z</time>
      </trkpt>
      <trkpt lat="46.32792" lon="-0.30456">
        <ele>84.6171</ele>
        <time>2011-01-09T13:12:59Z</time>
      </trkpt>
      <trkpt lat="46.32793" lon="-0.30458">
        <ele>84.6203</ele>
        <time>2011-01-09T13:13:00Z</time>
      </trkpt>
      <trkpt lat="46.32794" lon="-0.30458">
        <ele>84.6236</ele>
        <time>2011-01-09T13:13:01Z</time>
      </trkpt>
      <trkpt lat="46.32795" lon="-0.30459">
        <ele>84.6257</ele>
        <time>2011-01-09T13:13:02Z</time>
      </trkpt>
      <trkpt lat="46.32795" lon="-0.3046">
        <ele>84.6275</ele>
        <time>2011-01-09T13:13:03Z</time>
      </trkpt>
      <trkpt lat="46.32796" lon="-0.30461">
        <ele>84.6265</ele>
        <time>2011-01-09T13:13:04Z</time>
      </trkpt>
      <trkpt lat="46.32797" lon="-0.30462">
        <ele>84.6229</ele>
        <time>2011-01-09T13:13:05Z</time>
      </trkpt>
      <trkpt lat="46.32798" lon="-0.30463">
        <ele>84.6169</ele>
        <time>2011-01-09T13:13:06Z</time>
      </trkpt>
      <trkpt lat="46.32798" lon="-0.30464">
        <ele>84.6073</ele>
        <time>2011-01-09T13:13:07Z</time>
      </trkpt>
      <trkpt lat="46.32799" lon="-0.30466">
        <ele>84.5974</ele>
        <time>2011-01-09T13:13:08Z</time>
      </trkpt>
      <trkpt lat="46.32799" lon="-0.30467">
        <ele>84.5866</ele>
        <time>2011-01-09T13:13:09Z</time>
      </trkpt>
      <trkpt lat="46.328" lon="-0.30468">
        <ele>84.5731</ele>
        <time>2011-01-09T13:13:10Z</time>
      </trkpt>
      <trkpt lat="46.328" lon="-0.30469">
        <ele>84.558</ele>
        <time>2011-01-09T13:13:11Z</time>
      </trkpt>
      <trkpt lat="46.32801" lon="-0.3047">
        <ele>84.5448</ele>
        <time>2011-01-09T13:13:12Z</time>
      </trkpt>
      <trkpt lat="46.32802" lon="-0.3047">
        <ele>84.5316</ele>
        <time>2011-01-09T13:13:13Z</time>
      </trkpt>
      <trkpt lat="46.32804" lon="-0.30472">
        <ele>84.4867</ele>
        <time>2011-01-09T13:13:16Z</time>
      </trkpt>
      <trkpt lat="46.32805" lon="-0.30473">
        <ele>84.468</ele>
        <time>2011-01-09T13:13:17Z</time>
      </trkpt>
      <trkpt lat="46.32806" lon="-0.30474">
        <ele>84.4541</ele>
        <time>2011-01-09T13:13:18Z</time>
      </trkpt>
      <trkpt lat="46.32807" lon="-0.30474">
        <ele>84.4477</ele>
        <time>2011-01-09T13:13:19Z</time>
      </trkpt>
      <trkpt lat="46.32808" lon="-0.30475">
        <ele>84.4463</ele>
        <time>2011-01-09T13:13:20Z</time>
      </trkpt>
      <trkpt lat="46.32809" lon="-0.30475">
        <ele>84.4554</ele>
        <time>2011-01-09T13:13:21Z</time>
      </trkpt>
      <trkpt lat="46.3281" lon="-0.30474">
        <ele>84.4725</ele>
        <time>2011-01-09T13:13:22Z</time>
      </trkpt>
      <trkpt lat="46.32811" lon="-0.30474">
        <ele>84.4885</ele>
        <time>2011-01-09T13:13:23Z</time>
      </trkpt>
      <trkpt lat="46.32813" lon="-0.30475">
        <ele>84.5025</ele>
        <time>2011-01-09T13:13:24Z</time>
      </trkpt>
      <trkpt lat="46.32813" lon="-0.30476">
        <ele>84.5164</ele>
        <time>2011-01-09T13:13:25Z</time>
      </trkpt>
      <trkpt lat="46.32814" lon="-0.30476">
        <ele>84.5285</ele>
        <time>2011-01-09T13:13:26Z</time>
      </trkpt>
      <trkpt lat="46.32815" lon="-0.30477">
        <ele>84.5385</ele>
        <time>2011-01-09T13:13:27Z</time>
      </trkpt>
      <trkpt lat="46.32816" lon="-0.30477">
        <ele>84.549</ele>
        <time>2011-01-09T13:13:28Z</time>
      </trkpt>
      <trkpt lat="46.32816" lon="-0.30478">
        <ele>84.5632</ele>
        <time>2011-01-09T13:13:29Z</time>
      </trkpt>
      <trkpt lat="46.32818" lon="-0.30478">
        <ele>84.5821</ele>
        <time>2011-01-09T13:13:30Z</time>
      </trkpt>
      <trkpt lat="46.32818" lon="-0.30479">
        <ele>84.6048</ele>
        <time>2011-01-09T13:13:31Z</time>
      </trkpt>
      <trkpt lat="46.32819" lon="-0.3048">
        <ele>84.632</ele>
        <time>2011-01-09T13:13:32Z</time>
      </trkpt>
      <trkpt lat="46.32821" lon="-0.3048">
        <ele>84.6637</ele>
        <time>2011-01-09T13:13:33Z</time>
      </trkpt>
      <trkpt lat="46.32822" lon="-0.30481">
        <ele>84.699</ele>
        <time>2011-01-09T13:13:34Z</time>
      </trkpt>
      <trkpt lat="46.32823" lon="-0.30482">
        <ele>84.7383</ele>
        <time>2011-01-09T13:13:35Z</time>
      </trkpt>
      <trkpt lat="46.32824" lon="-0.30483">
        <ele>84.7814</ele>
        <time>2011-01-09T13:13:36Z</time>
      </trkpt>
      <trkpt lat="46.32826" lon="-0.30483">
        <ele>84.8254</ele>
        <time>2011-01-09T13:13:37Z</time>
      </trkpt>
      <trkpt lat="46.32827" lon="-0.30484">
        <ele>84.8707</ele>
        <time>2011-01-09T13:13:38Z</time>
      </trkpt>
      <trkpt lat="46.32828" lon="-0.30484">
        <ele>84.9165</ele>
        <time>2011-01-09T13:13:39Z</time>
      </trkpt>
      <trkpt lat="46.32829" lon="-0.30485">
        <ele>84.9628</ele>
        <time>2011-01-09T13:13:40Z</time>
      </trkpt>
      <trkpt lat="46.3283" lon="-0.30485">
        <ele>85.0055</ele>
        <time>2011-01-09T13:13:41Z</time>
      </trkpt>
      <trkpt lat="46.32831" lon="-0.30485">
        <ele>85.0423</ele>
        <time>2011-01-09T13:13:42Z</time>
      </trkpt>
      <trkpt lat="46.32832" lon="-0.30486">
        <ele>85.0813</ele>
        <time>2011-01-09T13:13:43Z</time>
      </trkpt>
      <trkpt lat="46.32834" lon="-0.30486">
        <ele>85.1174</ele>
        <time>2011-01-09T13:13:44Z</time>
      </trkpt>
      <trkpt lat="46.32835" lon="-0.30487">
        <ele>85.1532</ele>
        <time>2011-01-09T13:13:45Z</time>
      </trkpt>
      <trkpt lat="46.32835" lon="-0.30488">
        <ele>85.1943</ele>
        <time>2011-01-09T13:13:46Z</time>
      </trkpt>
      <trkpt lat="46.32836" lon="-0.3049">
        <ele>85.239</ele>
        <time>2011-01-09T13:13:47Z</time>
      </trkpt>
      <trkpt lat="46.32837" lon="-0.30491">
        <ele>85.2885</ele>
        <time>2011-01-09T13:13:48Z</time>
      </trkpt>
      <trkpt lat="46.32838" lon="-0.30492">
        <ele>85.3368</ele>
        <time>2011-01-09T13:13:49Z</time>
      </trkpt>
      <trkpt lat="46.32838" lon="-0.30492">
        <ele>85.3936</ele>
        <time>2011-01-09T13:13:50Z</time>
      </trkpt>
      <trkpt lat="46.32841" lon="-0.30492">
        <ele>85.4964</ele>
        <time>2011-01-09T13:13:55Z</time>
      </trkpt>
      <trkpt lat="46.32842" lon="-0.30493">
        <ele>85.5795</ele>
        <time>2011-01-09T13:13:56Z</time>
      </trkpt>
      <trkpt lat="46.32842" lon="-0.30494">
        <ele>85.6662</ele>
        <time>2011-01-09T13:13:57Z</time>
      </trkpt>
      <trkpt lat="46.32843" lon="-0.30495">
        <ele>85.7595</ele>
        <time>2011-01-09T13:13:58Z</time>
      </trkpt>
      <trkpt lat="46.32843" lon="-0.30496">
        <ele>85.8586</ele>
        <time>2011-01-09T13:13:59Z</time>
      </trkpt>
      <trkpt lat="46.32844" lon="-0.30496">
        <ele>85.9621</ele>
        <time>2011-01-09T13:14:00Z</time>
      </trkpt>
      <trkpt lat="46.32845" lon="-0.30497">
        <ele>86.0603</ele>
        <time>2011-01-09T13:14:01Z</time>
      </trkpt>
      <trkpt lat="46.32846" lon="-0.30498">
        <ele>86.1614</ele>
        <time>2011-01-09T13:14:02Z</time>
      </trkpt>
      <trkpt lat="46.32847" lon="-0.30498">
        <ele>86.2666</ele>
        <time>2011-01-09T13:14:03Z</time>
      </trkpt>
      <trkpt lat="46.32848" lon="-0.30499">
        <ele>86.3742</ele>
        <time>2011-01-09T13:14:04Z</time>
      </trkpt>
      <trkpt lat="46.32849" lon="-0.305">
        <ele>86.484</ele>
        <time>2011-01-09T13:14:05Z</time>
      </trkpt>
      <trkpt lat="46.3285" lon="-0.30501">
        <ele>86.5978</ele>
        <time>2011-01-09T13:14:06Z</time>
      </trkpt>
      <trkpt lat="46.32851" lon="-0.30502">
        <ele>86.7101</ele>
        <time>2011-01-09T13:14:07Z</time>
      </trkpt>
      <trkpt lat="46.32852" lon="-0.30503">
        <ele>86.8241</ele>
        <time>2011-01-09T13:14:08Z</time>
      </trkpt>
      <trkpt lat="46.32854" lon="-0.30503">
        <ele>86.937</ele>
        <time>2011-01-09T13:14:09Z</time>
      </trkpt>
      <trkpt lat="46.32855" lon="-0.30504">
        <ele>87.0493</ele>
        <time>2011-01-09T13:14:10Z</time>
      </trkpt>
      <trkpt lat="46.32856" lon="-0.30506">
        <ele>87.1621</ele>
        <time>2011-01-09T13:14:11Z</time>
      </trkpt>
      <trkpt lat="46.32857" lon="-0.30507">
        <ele>87.2769</ele>
        <time>2011-01-09T13:14:12Z</time>
      </trkpt>
      <trkpt lat="46.32858" lon="-0.30507">
        <ele>87.3945</ele>
        <time>2011-01-09T13:14:13Z</time>
      </trkpt>
      <trkpt lat="46.32859" lon="-0.30508">
        <ele>87.5126</ele>
        <time>2011-01-09T13:14:14Z</time>
      </trkpt>
      <trkpt lat="46.3286" lon="-0.30509">
        <ele>87.6298</ele>
        <time>2011-01-09T13:14:15Z</time>
      </trkpt>
      <trkpt lat="46.32861" lon="-0.3051">
        <ele>87.748</ele>
        <time>2011-01-09T13:14:16Z</time>
      </trkpt>
      <trkpt lat="46.32862" lon="-0.3051">
        <ele>87.8674</ele>
        <time>2011-01-09T13:14:17Z</time>
      </trkpt>
      <trkpt lat="46.32863" lon="-0.30511">
        <ele>87.9845</ele>
        <time>2011-01-09T13:14:18Z</time>
      </trkpt>
      <trkpt lat="46.32864" lon="-0.30512">
        <ele>88.0997</ele>
        <time>2011-01-09T13:14:19Z</time>
      </trkpt>
      <trkpt lat="46.32865" lon="-0.30513">
        <ele>88.2132</ele>
        <time>2011-01-09T13:14:20Z</time>
      </trkpt>
      <trkpt lat="46.32866" lon="-0.30514">
        <ele>88.3249</ele>
        <time>2011-01-09T13:14:21Z</time>
      </trkpt>
      <trkpt lat="46.32866" lon="-0.30516">
        <ele>88.4336</ele>
        <time>2011-01-09T13:14:22Z</time>
      </trkpt>
      <trkpt lat="46.32867" lon="-0.30517">
        <ele>88.5394</ele>
        <time>2011-01-09T13:14:23Z</time>
      </trkpt>
      <trkpt lat="46.32867" lon="-0.30518">
        <ele>88.6424</ele>
        <time>2011-01-09T13:14:24Z</time>
      </trkpt>
      <trkpt lat="46.32868" lon="-0.30519">
        <ele>88.7434</ele>
        <time>2011-01-09T13:14:25Z</time>
      </trkpt>
      <trkpt lat="46.32869" lon="-0.3052">
        <ele>88.8424</ele>
        <time>2011-01-09T13:14:26Z</time>
      </trkpt>
      <trkpt lat="46.3287" lon="-0.30521">
        <ele>88.9395</ele>
        <time>2011-01-09T13:14:27Z</time>
      </trkpt>
      <trkpt lat="46.32871" lon="-0.30522">
        <ele>89.0332</ele>
        <time>2011-01-09T13:14:28Z</time>
      </trkpt>
      <trkpt lat="46.32872" lon="-0.30523">
        <ele>89.1223</ele>
        <time>2011-01-09T13:14:29Z</time>
      </trkpt>
      <trkpt lat="46.32874" lon="-0.30524">
        <ele>89.2077</ele>
        <time>2011-01-09T13:14:30Z</time>
      </trkpt>
      <trkpt lat="46.32875" lon="-0.30524">
        <ele>89.2927</ele>
        <time>2011-01-09T13:14:31Z</time>
      </trkpt>
      <trkpt lat="46.32876" lon="-0.30524">
        <ele>89.3744</ele>
        <time>2011-01-09T13:14:32Z</time>
      </trkpt>
      <trkpt lat="46.32877" lon="-0.30524">
        <ele>89.4545</ele>
        <time>2011-01-09T13:14:33Z</time>
      </trkpt>
      <trkpt lat="46.32877" lon="-0.30524">
        <ele>89.5331</ele>
        <time>2011-01-09T13:14:34Z</time>
      </trkpt>
      <trkpt lat="46.32878" lon="-0.30524">
        <ele>89.6096</ele>
        <time>2011-01-09T13:14:35Z</time>
      </trkpt>
      <trkpt lat="46.32879" lon="-0.30525">
        <ele>89.6822</ele>
        <time>2011-01-09T13:14:36Z</time>
      </trkpt>
      <trkpt lat="46.3288" lon="-0.30525">
        <ele>89.7507</ele>
        <time>2011-01-09T13:14:37Z</time>
      </trkpt>
      <trkpt lat="46.3288" lon="-0.30526">
        <ele>89.8174</ele>
        <time>2011-01-09T13:14:38Z</time>
      </trkpt>
      <trkpt lat="46.32881" lon="-0.30527">
        <ele>89.8825</ele>
        <time>2011-01-09T13:14:39Z</time>
      </trkpt>
      <trkpt lat="46.32882" lon="-0.30528">
        <ele>89.939</ele>
        <time>2011-01-09T13:14:40Z</time>
      </trkpt>
      <trkpt lat="46.32883" lon="-0.30529">
        <ele>89.985</ele>
        <time>2011-01-09T13:14:41Z</time>
      </trkpt>
      <trkpt lat="46.32884" lon="-0.30529">
        <ele>90.0223</ele>
        <time>2011-01-09T13:14:42Z</time>
      </trkpt>
      <trkpt lat="46.32885" lon="-0.3053">
        <ele>90.0566</ele>
        <time>2011-01-09T13:14:43Z</time>
      </trkpt>
      <trkpt lat="46.32885" lon="-0.30531">
        <ele>90.0893</ele>
        <time>2011-01-09T13:14:44Z</time>
      </trkpt>
      <trkpt lat="46.32886" lon="-0.30531">
        <ele>90.121</ele>
        <time>2011-01-09T13:14:45Z</time>
      </trkpt>
      <trkpt lat="46.32887" lon="-0.30532">
        <ele>90.1493</ele>
        <time>2011-01-09T13:14:46Z</time>
      </trkpt>
      <trkpt lat="46.32887" lon="-0.30533">
        <ele>90.1755</ele>
        <time>2011-01-09T13:14:47Z</time>
      </trkpt>
      <trkpt lat="46.32888" lon="-0.30534">
        <ele>90.2012</ele>
        <time>2011-01-09T13:14:48Z</time>
      </trkpt>
      <trkpt lat="46.32889" lon="-0.30535">
        <ele>90.2227</ele>
        <time>2011-01-09T13:14:49Z</time>
      </trkpt>
      <trkpt lat="46.3289" lon="-0.30536">
        <ele>90.2434</ele>
        <time>2011-01-09T13:14:50Z</time>
      </trkpt>
      <trkpt lat="46.32891" lon="-0.30537">
        <ele>90.2604</ele>
        <time>2011-01-09T13:14:51Z</time>
      </trkpt>
      <trkpt lat="46.32892" lon="-0.30538">
        <ele>90.2658</ele>
        <time>2011-01-09T13:14:52Z</time>
      </trkpt>
      <trkpt lat="46.32893" lon="-0.30538">
        <ele>90.2696</ele>
        <time>2011-01-09T13:14:53Z</time>
      </trkpt>
      <trkpt lat="46.32895" lon="-0.30539">
        <ele>90.2695</ele>
        <time>2011-01-09T13:14:54Z</time>
      </trkpt>
      <trkpt lat="46.32896" lon="-0.3054">
        <ele>90.2669</ele>
        <time>2011-01-09T13:14:55Z</time>
      </trkpt>
      <trkpt lat="46.32896" lon="-0.30541">
        <ele>90.2616</ele>
        <time>2011-01-09T13:14:56Z</time>
      </trkpt>
      <trkpt lat="46.32897" lon="-0.30542">
        <ele>90.2549</ele>
        <time>2011-01-09T13:14:57Z</time>
      </trkpt>
      <trkpt lat="46.32898" lon="-0.30542">
        <ele>90.247</ele>
        <time>2011-01-09T13:14:58Z</time>
      </trkpt>
      <trkpt lat="46.32899" lon="-0.30542">
        <ele>90.24</ele>
        <time>2011-01-09T13:14:59Z</time>
      </trkpt>
      <trkpt lat="46.329" lon="-0.30542">
        <ele>90.2348</ele>
        <time>2011-01-09T13:15:00Z</time>
      </trkpt>
      <trkpt lat="46.329" lon="-0.30542">
        <ele>90.2251</ele>
        <time>2011-01-09T13:15:01Z</time>
      </trkpt>
      <trkpt lat="46.32901" lon="-0.30543">
        <ele>90.2088</ele>
        <time>2011-01-09T13:15:02Z</time>
      </trkpt>
      <trkpt lat="46.32902" lon="-0.30543">
        <ele>90.1942</ele>
        <time>2011-01-09T13:15:03Z</time>
      </trkpt>
      <trkpt lat="46.32903" lon="-0.30543">
        <ele>90.181</ele>
        <time>2011-01-09T13:15:04Z</time>
      </trkpt>
      <trkpt lat="46.32904" lon="-0.30544">
        <ele>90.1596</ele>
        <time>2011-01-09T13:15:05Z</time>
      </trkpt>
      <trkpt lat="46.32905" lon="-0.30545">
        <ele>90.1423</ele>
        <time>2011-01-09T13:15:06Z</time>
      </trkpt>
      <trkpt lat="46.32906" lon="-0.30547">
        <ele>90.1304</ele>
        <time>2011-01-09T13:15:07Z</time>
      </trkpt>
      <trkpt lat="46.32908" lon="-0.30548">
        <ele>90.1134</ele>
        <time>2011-01-09T13:15:08Z</time>
      </trkpt>
      <trkpt lat="46.32909" lon="-0.30549">
        <ele>90.0958</ele>
        <time>2011-01-09T13:15:09Z</time>
      </trkpt>
      <trkpt lat="46.3291" lon="-0.3055">
        <ele>90.0725</ele>
        <time>2011-01-09T13:15:10Z</time>
      </trkpt>
      <trkpt lat="46.32911" lon="-0.30551">
        <ele>90.0532</ele>
        <time>2011-01-09T13:15:11Z</time>
      </trkpt>
      <trkpt lat="46.32912" lon="-0.30552">
        <ele>90.0321</ele>
        <time>2011-01-09T13:15:12Z</time>
      </trkpt>
      <trkpt lat="46.32913" lon="-0.30553">
        <ele>90.0113</ele>
        <time>2011-01-09T13:15:13Z</time>
      </trkpt>
      <trkpt lat="46.32915" lon="-0.30553">
        <ele>89.9933</ele>
        <time>2011-01-09T13:15:14Z</time>
      </trkpt>
      <trkpt lat="46.32916" lon="-0.30554">
        <ele>89.9842</ele>
        <time>2011-01-09T13:15:15Z</time>
      </trkpt>
      <trkpt lat="46.32917" lon="-0.30555">
        <ele>89.9817</ele>
        <time>2011-01-09T13:15:16Z</time>
      </trkpt>
      <trkpt lat="46.32918" lon="-0.30556">
        <ele>89.9841</ele>
        <time>2011-01-09T13:15:17Z</time>
      </trkpt>
      <trkpt lat="46.3292" lon="-0.30557">
        <ele>89.9876</ele>
        <time>2011-01-09T13:15:18Z</time>
      </trkpt>
      <trkpt lat="46.32921" lon="-0.30557">
        <ele>89.9927</ele>
        <time>2011-01-09T13:15:19Z</time>
      </trkpt>
      <trkpt lat="46.32922" lon="-0.30557">
        <ele>90.0013</ele>
        <time>2011-01-09T13:15:20Z</time>
      </trkpt>
      <trkpt lat="46.32924" lon="-0.30557">
        <ele>90.0165</ele>
        <time>2011-01-09T13:15:21Z</time>
      </trkpt>
      <trkpt lat="46.32925" lon="-0.30558">
        <ele>90.0283</ele>
        <time>2011-01-09T13:15:22Z</time>
      </trkpt>
      <trkpt lat="46.32926" lon="-0.30559">
        <ele>90.0447</ele>
        <time>2011-01-09T13:15:23Z</time>
      </trkpt>
      <trkpt lat="46.32927" lon="-0.3056">
        <ele>90.0697</ele>
        <time>2011-01-09T13:15:24Z</time>
      </trkpt>
      <trkpt lat="46.32928" lon="-0.3056">
        <ele>90.1009</ele>
        <time>2011-01-09T13:15:25Z</time>
      </trkpt>
      <trkpt lat="46.32929" lon="-0.30561">
        <ele>90.1384</ele>
        <time>2011-01-09T13:15:26Z</time>
      </trkpt>
      <trkpt lat="46.3293" lon="-0.30562">
        <ele>90.1809</ele>
        <time>2011-01-09T13:15:27Z</time>
      </trkpt>
      <trkpt lat="46.32931" lon="-0.30562">
        <ele>90.2255</ele>
        <time>2011-01-09T13:15:28Z</time>
      </trkpt>
      <trkpt lat="46.32932" lon="-0.30562">
        <ele>90.2727</ele>
        <time>2011-01-09T13:15:29Z</time>
      </trkpt>
      <trkpt lat="46.32933" lon="-0.30563">
        <ele>90.3194</ele>
        <time>2011-01-09T13:15:30Z</time>
      </trkpt>
      <trkpt lat="46.32934" lon="-0.30562">
        <ele>90.3663</ele>
        <time>2011-01-09T13:15:31Z</time>
      </trkpt>
      <trkpt lat="46.32935" lon="-0.30562">
        <ele>90.4098</ele>
        <time>2011-01-09T13:15:32Z</time>
      </trkpt>
      <trkpt lat="46.32937" lon="-0.30563">
        <ele>90.449</ele>
        <time>2011-01-09T13:15:33Z</time>
      </trkpt>
      <trkpt lat="46.32938" lon="-0.30563">
        <ele>90.4886</ele>
        <time>2011-01-09T13:15:34Z</time>
      </trkpt>
      <trkpt lat="46.32939" lon="-0.30563">
        <ele>90.5278</ele>
        <time>2011-01-09T13:15:35Z</time>
      </trkpt>
      <trkpt lat="46.3294" lon="-0.30563">
        <ele>90.568</ele>
        <time>2011-01-09T13:15:36Z</time>
      </trkpt>
      <trkpt lat="46.32941" lon="-0.30563">
        <ele>90.6048</ele>
        <time>2011-01-09T13:15:37Z</time>
      </trkpt>
      <trkpt lat="46.32943" lon="-0.30564">
        <ele>90.6396</ele>
        <time>2011-01-09T13:15:38Z</time>
      </trkpt>
      <trkpt lat="46.32944" lon="-0.30564">
        <ele>90.6763</ele>
        <time>2011-01-09T13:15:39Z</time>
      </trkpt>
      <trkpt lat="46.32945" lon="-0.30564">
        <ele>90.7145</ele>
        <time>2011-01-09T13:15:40Z</time>
      </trkpt>
      <trkpt lat="46.32946" lon="-0.30564">
        <ele>90.7503</ele>
        <time>2011-01-09T13:15:41Z</time>
      </trkpt>
      <trkpt lat="46.32948" lon="-0.30564">
        <ele>90.7866</ele>
        <time>2011-01-09T13:15:42Z</time>
      </trkpt>
      <trkpt lat="46.32948" lon="-0.30565">
        <ele>90.8219</ele>
        <time>2011-01-09T13:15:43Z</time>
      </trkpt>
      <trkpt lat="46.32949" lon="-0.30565">
        <ele>90.8563</ele>
        <time>2011-01-09T13:15:44Z</time>
      </trkpt>
      <trkpt lat="46.32951" lon="-0.30565">
        <ele>90.8901</ele>
        <time>2011-01-09T13:15:45Z</time>
      </trkpt>
      <trkpt lat="46.32952" lon="-0.30566">
        <ele>90.924</ele>
        <time>2011-01-09T13:15:46Z</time>
      </trkpt>
      <trkpt lat="46.32953" lon="-0.30566">
        <ele>90.9525</ele>
        <time>2011-01-09T13:15:47Z</time>
      </trkpt>
      <trkpt lat="46.32954" lon="-0.30566">
        <ele>90.9751</ele>
        <time>2011-01-09T13:15:48Z</time>
      </trkpt>
      <trkpt lat="46.32955" lon="-0.30567">
        <ele>90.9945</ele>
        <time>2011-01-09T13:15:49Z</time>
      </trkpt>
      <trkpt lat="46.32956" lon="-0.30567">
        <ele>91.0094</ele>
        <time>2011-01-09T13:15:50Z</time>
      </trkpt>
      <trkpt lat="46.32958" lon="-0.30567">
        <ele>91.0239</ele>
        <time>2011-01-09T13:15:51Z</time>
      </trkpt>
      <trkpt lat="46.32959" lon="-0.30568">
        <ele>91.0381</ele>
        <time>2011-01-09T13:15:52Z</time>
      </trkpt>
      <trkpt lat="46.3296" lon="-0.30569">
        <ele>91.0521</ele>
        <time>2011-01-09T13:15:53Z</time>
      </trkpt>
      <trkpt lat="46.32961" lon="-0.30569">
        <ele>91.0619</ele>
        <time>2011-01-09T13:15:54Z</time>
      </trkpt>
      <trkpt lat="46.32963" lon="-0.30569">
        <ele>91.0698</ele>
        <time>2011-01-09T13:15:55Z</time>
      </trkpt>
      <trkpt lat="46.32964" lon="-0.30569">
        <ele>91.075</ele>
        <time>2011-01-09T13:15:56Z</time>
      </trkpt>
      <trkpt lat="46.32965" lon="-0.30569">
        <ele>91.0792</ele>
        <time>2011-01-09T13:15:57Z</time>
      </trkpt>
      <trkpt lat="46.32966" lon="-0.30569">
        <ele>91.0789</ele>
        <time>2011-01-09T13:15:58Z</time>
      </trkpt>
      <trkpt lat="46.32968" lon="-0.30569">
        <ele>91.0785</ele>
        <time>2011-01-09T13:15:59Z</time>
      </trkpt>
      <trkpt lat="46.32969" lon="-0.30569">
        <ele>91.0741</ele>
        <time>2011-01-09T13:16:00Z</time>
      </trkpt>
      <trkpt lat="46.3297" lon="-0.30569">
        <ele>91.0654</ele>
        <time>2011-01-09T13:16:01Z</time>
      </trkpt>
      <trkpt lat="46.32971" lon="-0.30569">
        <ele>91.0531</ele>
        <time>2011-01-09T13:16:02Z</time>
      </trkpt>
      <trkpt lat="46.32972" lon="-0.30568">
        <ele>91.0367</ele>
        <time>2011-01-09T13:16:03Z</time>
      </trkpt>
      <trkpt lat="46.32973" lon="-0.30568">
        <ele>91.019</ele>
        <time>2011-01-09T13:16:04Z</time>
      </trkpt>
      <trkpt lat="46.32974" lon="-0.30568">
        <ele>91.0014</ele>
        <time>2011-01-09T13:16:05Z</time>
      </trkpt>
      <trkpt lat="46.32975" lon="-0.30568">
        <ele>90.9851</ele>
        <time>2011-01-09T13:16:06Z</time>
      </trkpt>
      <trkpt lat="46.32977" lon="-0.30568">
        <ele>90.9692</ele>
        <time>2011-01-09T13:16:07Z</time>
      </trkpt>
      <trkpt lat="46.32978" lon="-0.30567">
        <ele>90.9528</ele>
        <time>2011-01-09T13:16:08Z</time>
      </trkpt>
      <trkpt lat="46.32979" lon="-0.30567">
        <ele>90.9404</ele>
        <time>2011-01-09T13:16:09Z</time>
      </trkpt>
      <trkpt lat="46.32981" lon="-0.30567">
        <ele>90.9312</ele>
        <time>2011-01-09T13:16:10Z</time>
      </trkpt>
      <trkpt lat="46.32982" lon="-0.30567">
        <ele>90.9254</ele>
        <time>2011-01-09T13:16:11Z</time>
      </trkpt>
      <trkpt lat="46.32984" lon="-0.30567">
        <ele>90.923</ele>
        <time>2011-01-09T13:16:12Z</time>
      </trkpt>
      <trkpt lat="46.32985" lon="-0.30567">
        <ele>90.9249</ele>
        <time>2011-01-09T13:16:13Z</time>
      </trkpt>
      <trkpt lat="46.32987" lon="-0.30567">
        <ele>90.9307</ele>
        <time>2011-01-09T13:16:14Z</time>
      </trkpt>
      <trkpt lat="46.32988" lon="-0.30567">
        <ele>90.9409</ele>
        <time>2011-01-09T13:16:15Z</time>
      </trkpt>
      <trkpt lat="46.3299" lon="-0.30567">
        <ele>90.955</ele>
        <time>2011-01-09T13:16:16Z</time>
      </trkpt>
      <trkpt lat="46.32991" lon="-0.30567">
        <ele>90.9729</ele>
        <time>2011-01-09T13:16:17Z</time>
      </trkpt>
      <trkpt lat="46.32992" lon="-0.30567">
        <ele>90.9929</ele>
        <time>2011-01-09T13:16:18Z</time>
      </trkpt>
      <trkpt lat="46.32993" lon="-0.30567">
        <ele>91.0125</ele>
        <time>2011-01-09T13:16:19Z</time>
      </trkpt>
      <trkpt lat="46.32994" lon="-0.30566">
        <ele>91.0323</ele>
        <time>2011-01-09T13:16:20Z</time>
      </trkpt>
      <trkpt lat="46.32995" lon="-0.30566">
        <ele>91.0526</ele>
        <time>2011-01-09T13:16:21Z</time>
      </trkpt>
      <trkpt lat="46.32996" lon="-0.30566">
        <ele>91.0709</ele>
        <time>2011-01-09T13:16:22Z</time>
      </trkpt>
      <trkpt lat="46.32998" lon="-0.30565">
        <ele>91.087</ele>
        <time>2011-01-09T13:16:23Z</time>
      </trkpt>
      <trkpt lat="46.32999" lon="-0.30565">
        <ele>91.1029</ele>
        <time>2011-01-09T13:16:24Z</time>
      </trkpt>
      <trkpt lat="46.33001" lon="-0.30565">
        <ele>91.1183</ele>
        <time>2011-01-09T13:16:25Z</time>
      </trkpt>
      <trkpt lat="46.33002" lon="-0.30565">
        <ele>91.1332</ele>
        <time>2011-01-09T13:16:26Z</time>
      </trkpt>
      <trkpt lat="46.33003" lon="-0.30565">
        <ele>91.1512</ele>
        <time>2011-01-09T13:16:27Z</time>
      </trkpt>
      <trkpt lat="46.33004" lon="-0.30565">
        <ele>91.1727</ele>
        <time>2011-01-09T13:16:28Z</time>
      </trkpt>
      <trkpt lat="46.33005" lon="-0.30565">
        <ele>91.1933</ele>
        <time>2011-01-09T13:16:29Z</time>
      </trkpt>
      <trkpt lat="46.33006" lon="-0.30565">
        <ele>91.2149</ele>
        <time>2011-01-09T13:16:30Z</time>
      </trkpt>
      <trkpt lat="46.33007" lon="-0.30564">
        <ele>91.2348</ele>
        <time>2011-01-09T13:16:31Z</time>
      </trkpt>
      <trkpt lat="46.33008" lon="-0.30564">
        <ele>91.2495</ele>
        <time>2011-01-09T13:16:32Z</time>
      </trkpt>
      <trkpt lat="46.33009" lon="-0.30563">
        <ele>91.2619</ele>
        <time>2011-01-09T13:16:33Z</time>
      </trkpt>
      <trkpt lat="46.33011" lon="-0.30563">
        <ele>91.2746</ele>
        <time>2011-01-09T13:16:34Z</time>
      </trkpt>
      <trkpt lat="46.33012" lon="-0.30563">
        <ele>91.2867</ele>
        <time>2011-01-09T13:16:35Z</time>
      </trkpt>
      <trkpt lat="46.33013" lon="-0.30563">
        <ele>91.2963</ele>
        <time>2011-01-09T13:16:36Z</time>
      </trkpt>
      <trkpt lat="46.33014" lon="-0.30562">
        <ele>91.306</ele>
        <time>2011-01-09T13:16:37Z</time>
      </trkpt>
      <trkpt lat="46.33016" lon="-0.30563">
        <ele>91.3143</ele>
        <time>2011-01-09T13:16:38Z</time>
      </trkpt>
      <trkpt lat="46.33017" lon="-0.30563">
        <ele>91.3234</ele>
        <time>2011-01-09T13:16:39Z</time>
      </trkpt>
      <trkpt lat="46.33018" lon="-0.30563">
        <ele>91.3354</ele>
        <time>2011-01-09T13:16:40Z</time>
      </trkpt>
      <trkpt lat="46.33019" lon="-0.30563">
        <ele>91.3496</ele>
        <time>2011-01-09T13:16:41Z</time>
      </trkpt>
      <trkpt lat="46.3302" lon="-0.30564">
        <ele>91.3649</ele>
        <time>2011-01-09T13:16:42Z</time>
      </trkpt>
      <trkpt lat="46.3302" lon="-0.30565">
        <ele>91.3806</ele>
        <time>2011-01-09T13:16:43Z</time>
      </trkpt>
      <trkpt lat="46.33022" lon="-0.30565">
        <ele>91.3958</ele>
        <time>2011-01-09T13:16:44Z</time>
      </trkpt>
      <trkpt lat="46.33022" lon="-0.30565">
        <ele>91.4091</ele>
        <time>2011-01-09T13:16:45Z</time>
      </trkpt>
      <trkpt lat="46.33023" lon="-0.30566">
        <ele>91.4208</ele>
        <time>2011-01-09T13:16:46Z</time>
      </trkpt>
      <trkpt lat="46.33024" lon="-0.30566">
        <ele>91.4314</ele>
        <time>2011-01-09T13:16:47Z</time>
      </trkpt>
      <trkpt lat="46.33025" lon="-0.30566">
        <ele>91.4415</ele>
        <time>2011-01-09T13:16:48Z</time>
      </trkpt>
      <trkpt lat="46.33026" lon="-0.30565">
        <ele>91.4511</ele>
        <time>2011-01-09T13:16:49Z</time>
      </trkpt>
      <trkpt lat="46.33027" lon="-0.30565">
        <ele>91.462</ele>
        <time>2011-01-09T13:16:50Z</time>
      </trkpt>
      <trkpt lat="46.33028" lon="-0.30565">
        <ele>91.4746</ele>
        <time>2011-01-09T13:16:51Z</time>
      </trkpt>
      <trkpt lat="46.33029" lon="-0.30565">
        <ele>91.4876</ele>
        <time>2011-01-09T13:16:52Z</time>
      </trkpt>
      <trkpt lat="46.3303" lon="-0.30564">
        <ele>91.4992</ele>
        <time>2011-01-09T13:16:53Z</time>
      </trkpt>
      <trkpt lat="46.33032" lon="-0.30564">
        <ele>91.5106</ele>
        <time>2011-01-09T13:16:54Z</time>
      </trkpt>
      <trkpt lat="46.33033" lon="-0.30564">
        <ele>91.5206</ele>
        <time>2011-01-09T13:16:55Z</time>
      </trkpt>
      <trkpt lat="46.33033" lon="-0.30564">
        <ele>91.5304</ele>
        <time>2011-01-09T13:16:56Z</time>
      </trkpt>
      <trkpt lat="46.33035" lon="-0.30563">
        <ele>91.5389</ele>
        <time>2011-01-09T13:16:57Z</time>
      </trkpt>
      <trkpt lat="46.33036" lon="-0.30563">
        <ele>91.5439</ele>
        <time>2011-01-09T13:16:58Z</time>
      </trkpt>
      <trkpt lat="46.33037" lon="-0.30563">
        <ele>91.5479</ele>
        <time>2011-01-09T13:16:59Z</time>
      </trkpt>
      <trkpt lat="46.33038" lon="-0.30563">
        <ele>91.5503</ele>
        <time>2011-01-09T13:17:00Z</time>
      </trkpt>
      <trkpt lat="46.33039" lon="-0.30563">
        <ele>91.5487</ele>
        <time>2011-01-09T13:17:01Z</time>
      </trkpt>
      <trkpt lat="46.3304" lon="-0.30563">
        <ele>91.5449</ele>
        <time>2011-01-09T13:17:02Z</time>
      </trkpt>
      <trkpt lat="46.33041" lon="-0.30563">
        <ele>91.5409</ele>
        <time>2011-01-09T13:17:03Z</time>
      </trkpt>
      <trkpt lat="46.33041" lon="-0.30562">
        <ele>91.5374</ele>
        <time>2011-01-09T13:17:04Z</time>
      </trkpt>
      <trkpt lat="46.33043" lon="-0.30562">
        <ele>91.5302</ele>
        <time>2011-01-09T13:17:05Z</time>
      </trkpt>
      <trkpt lat="46.33044" lon="-0.30562">
        <ele>91.5176</ele>
        <time>2011-01-09T13:17:06Z</time>
      </trkpt>
      <trkpt lat="46.33045" lon="-0.30562">
        <ele>91.5038</ele>
        <time>2011-01-09T13:17:07Z</time>
      </trkpt>
      <trkpt lat="46.33046" lon="-0.30561">
        <ele>91.4904</ele>
        <time>2011-01-09T13:17:08Z</time>
      </trkpt>
      <trkpt lat="46.33047" lon="-0.30561">
        <ele>91.477</ele>
        <time>2011-01-09T13:17:09Z</time>
      </trkpt>
      <trkpt lat="46.33048" lon="-0.30561">
        <ele>91.4637</ele>
        <time>2011-01-09T13:17:10Z</time>
      </trkpt>
      <trkpt lat="46.33049" lon="-0.3056">
        <ele>91.4506</ele>
        <time>2011-01-09T13:17:11Z</time>
      </trkpt>
      <trkpt lat="46.3305" lon="-0.3056">
        <ele>91.4358</ele>
        <time>2011-01-09T13:17:12Z</time>
      </trkpt>
      <trkpt lat="46.33051" lon="-0.3056">
        <ele>91.42</ele>
        <time>2011-01-09T13:17:13Z</time>
      </trkpt>
      <trkpt lat="46.33052" lon="-0.30559">
        <ele>91.4031</ele>
        <time>2011-01-09T13:17:14Z</time>
      </trkpt>
      <trkpt lat="46.33053" lon="-0.30559">
        <ele>91.3835</ele>
        <time>2011-01-09T13:17:15Z</time>
      </trkpt>
      <trkpt lat="46.33054" lon="-0.30559">
        <ele>91.3629</ele>
        <time>2011-01-09T13:17:16Z</time>
      </trkpt>
      <trkpt lat="46.33055" lon="-0.30559">
        <ele>91.3397</ele>
        <time>2011-01-09T13:17:17Z</time>
      </trkpt>
      <trkpt lat="46.33056" lon="-0.30559">
        <ele>91.311</ele>
        <time>2011-01-09T13:17:18Z</time>
      </trkpt>
      <trkpt lat="46.33056" lon="-0.30558">
        <ele>91.2774</ele>
        <time>2011-01-09T13:17:19Z</time>
      </trkpt>
      <trkpt lat="46.33057" lon="-0.30558">
        <ele>91.2443</ele>
        <time>2011-01-09T13:17:20Z</time>
      </trkpt>
      <trkpt lat="46.33059" lon="-0.30558">
        <ele>91.209</ele>
        <time>2011-01-09T13:17:21Z</time>
      </trkpt>
      <trkpt lat="46.3306" lon="-0.30558">
        <ele>91.1693</ele>
        <time>2011-01-09T13:17:22Z</time>
      </trkpt>
      <trkpt lat="46.33061" lon="-0.30558">
        <ele>91.1267</ele>
        <time>2011-01-09T13:17:23Z</time>
      </trkpt>
      <trkpt lat="46.33062" lon="-0.30558">
        <ele>91.0814</ele>
        <time>2011-01-09T13:17:24Z</time>
      </trkpt>
      <trkpt lat="46.33063" lon="-0.30558">
        <ele>91.0357</ele>
        <time>2011-01-09T13:17:25Z</time>
      </trkpt>
      <trkpt lat="46.33064" lon="-0.30557">
        <ele>90.9913</ele>
        <time>2011-01-09T13:17:26Z</time>
      </trkpt>
      <trkpt lat="46.33065" lon="-0.30557">
        <ele>90.9501</ele>
        <time>2011-01-09T13:17:27Z</time>
      </trkpt>
      <trkpt lat="46.33067" lon="-0.30557">
        <ele>90.9111</ele>
        <time>2011-01-09T13:17:28Z</time>
      </trkpt>
      <trkpt lat="46.33067" lon="-0.30556">
        <ele>90.8764</ele>
        <time>2011-01-09T13:17:29Z</time>
      </trkpt>
      <trkpt lat="46.33068" lon="-0.30556">
        <ele>90.8468</ele>
        <time>2011-01-09T13:17:30Z</time>
      </trkpt>
      <trkpt lat="46.33069" lon="-0.30555">
        <ele>90.8182</ele>
        <time>2011-01-09T13:17:31Z</time>
      </trkpt>
      <trkpt lat="46.3307" lon="-0.30554">
        <ele>90.7878</ele>
        <time>2011-01-09T13:17:33Z</time>
      </trkpt>
      <trkpt lat="46.3307" lon="-0.30554">
        <ele>90.7611</ele>
        <time>2011-01-09T13:17:34Z</time>
      </trkpt>
      <trkpt lat="46.3307" lon="-0.30554">
        <ele>90.7122</ele>
        <time>2011-01-09T13:17:38Z</time>
      </trkpt>
      <trkpt lat="46.33071" lon="-0.30554">
        <ele>90.6749</ele>
        <time>2011-01-09T13:17:39Z</time>
      </trkpt>
      <trkpt lat="46.33072" lon="-0.30554">
        <ele>90.6395</ele>
        <time>2011-01-09T13:17:40Z</time>
      </trkpt>
      <trkpt lat="46.33072" lon="-0.30555">
        <ele>90.6053</ele>
        <time>2011-01-09T13:17:41Z</time>
      </trkpt>
      <trkpt lat="46.33072" lon="-0.30555">
        <ele>90.5672</ele>
        <time>2011-01-09T13:17:42Z</time>
      </trkpt>
      <trkpt lat="46.33073" lon="-0.30556">
        <ele>90.4278</ele>
        <time>2011-01-09T13:17:49Z</time>
      </trkpt>
      <trkpt lat="46.33075" lon="-0.30555">
        <ele>90.3942</ele>
        <time>2011-01-09T13:17:50Z</time>
      </trkpt>
      <trkpt lat="46.33076" lon="-0.30554">
        <ele>90.3611</ele>
        <time>2011-01-09T13:17:51Z</time>
      </trkpt>
      <trkpt lat="46.33077" lon="-0.30554">
        <ele>90.3315</ele>
        <time>2011-01-09T13:17:52Z</time>
      </trkpt>
      <trkpt lat="46.33078" lon="-0.30553">
        <ele>90.2906</ele>
        <time>2011-01-09T13:17:53Z</time>
      </trkpt>
      <trkpt lat="46.33079" lon="-0.30552">
        <ele>90.2406</ele>
        <time>2011-01-09T13:17:54Z</time>
      </trkpt>
      <trkpt lat="46.3308" lon="-0.3055">
        <ele>90.2406</ele>
        <time>2011-01-09T13:17:55Z</time>
      </trkpt>
      <trkpt lat="46.33081" lon="-0.30551">
        <ele>90.2173</ele>
        <time>2011-01-09T13:17:56Z</time>
      </trkpt>
      <trkpt lat="46.33082" lon="-0.30551">
        <ele>90.1878</ele>
        <time>2011-01-09T13:17:57Z</time>
      </trkpt>
      <trkpt lat="46.33083" lon="-0.30551">
        <ele>90.1603</ele>
        <time>2011-01-09T13:17:58Z</time>
      </trkpt>
      <trkpt lat="46.33084" lon="-0.30551">
        <ele>90.1313</ele>
        <time>2011-01-09T13:17:59Z</time>
      </trkpt>
      <trkpt lat="46.33085" lon="-0.30551">
        <ele>90.1097</ele>
        <time>2011-01-09T13:18:00Z</time>
      </trkpt>
      <trkpt lat="46.33085" lon="-0.30551">
        <ele>90.1116</ele>
        <time>2011-01-09T13:18:01Z</time>
      </trkpt>
      <trkpt lat="46.33086" lon="-0.30551">
        <ele>90.1342</ele>
        <time>2011-01-09T13:18:02Z</time>
      </trkpt>
      <trkpt lat="46.33088" lon="-0.30551">
        <ele>90.1718</ele>
        <time>2011-01-09T13:18:03Z</time>
      </trkpt>
      <trkpt lat="46.33088" lon="-0.30551">
        <ele>90.2147</ele>
        <time>2011-01-09T13:18:04Z</time>
      </trkpt>
      <trkpt lat="46.33089" lon="-0.30551">
        <ele>90.2586</ele>
        <time>2011-01-09T13:18:05Z</time>
      </trkpt>
      <trkpt lat="46.33091" lon="-0.30551">
        <ele>90.3078</ele>
        <time>2011-01-09T13:18:06Z</time>
      </trkpt>
      <trkpt lat="46.33094" lon="-0.30553">
        <ele>90.4522</ele>
        <time>2011-01-09T13:18:10Z</time>
      </trkpt>
      <trkpt lat="46.33095" lon="-0.30553">
        <ele>90.5179</ele>
        <time>2011-01-09T13:18:11Z</time>
      </trkpt>
      <trkpt lat="46.33096" lon="-0.30552">
        <ele>90.5831</ele>
        <time>2011-01-09T13:18:12Z</time>
      </trkpt>
      <trkpt lat="46.33096" lon="-0.30552">
        <ele>90.7142</ele>
        <time>2011-01-09T13:18:19Z</time>
      </trkpt>
      <trkpt lat="46.33097" lon="-0.30552">
        <ele>90.7657</ele>
        <time>2011-01-09T13:18:20Z</time>
      </trkpt>
      <trkpt lat="46.33098" lon="-0.30552">
        <ele>90.8182</ele>
        <time>2011-01-09T13:18:21Z</time>
      </trkpt>
      <trkpt lat="46.33098" lon="-0.30552">
        <ele>90.8704</ele>
        <time>2011-01-09T13:18:22Z</time>
      </trkpt>
      <trkpt lat="46.33099" lon="-0.30552">
        <ele>90.9221</ele>
        <time>2011-01-09T13:18:23Z</time>
      </trkpt>
      <trkpt lat="46.331" lon="-0.30551">
        <ele>90.9727</ele>
        <time>2011-01-09T13:18:24Z</time>
      </trkpt>
      <trkpt lat="46.33101" lon="-0.30551">
        <ele>91.0219</ele>
        <time>2011-01-09T13:18:25Z</time>
      </trkpt>
      <trkpt lat="46.33102" lon="-0.3055">
        <ele>91.0704</ele>
        <time>2011-01-09T13:18:26Z</time>
      </trkpt>
      <trkpt lat="46.33103" lon="-0.3055">
        <ele>91.1192</ele>
        <time>2011-01-09T13:18:27Z</time>
      </trkpt>
      <trkpt lat="46.33104" lon="-0.3055">
        <ele>91.1684</ele>
        <time>2011-01-09T13:18:28Z</time>
      </trkpt>
      <trkpt lat="46.33105" lon="-0.3055">
        <ele>91.2166</ele>
        <time>2011-01-09T13:18:29Z</time>
      </trkpt>
      <trkpt lat="46.33106" lon="-0.3055">
        <ele>91.2611</ele>
        <time>2011-01-09T13:18:30Z</time>
      </trkpt>
      <trkpt lat="46.33107" lon="-0.3055">
        <ele>91.3036</ele>
        <time>2011-01-09T13:18:31Z</time>
      </trkpt>
      <trkpt lat="46.33108" lon="-0.30549">
        <ele>91.3431</ele>
        <time>2011-01-09T13:18:32Z</time>
      </trkpt>
      <trkpt lat="46.33109" lon="-0.30549">
        <ele>91.3823</ele>
        <time>2011-01-09T13:18:33Z</time>
      </trkpt>
      <trkpt lat="46.3311" lon="-0.30549">
        <ele>91.4216</ele>
        <time>2011-01-09T13:18:34Z</time>
      </trkpt>
      <trkpt lat="46.33111" lon="-0.30549">
        <ele>91.4594</ele>
        <time>2011-01-09T13:18:35Z</time>
      </trkpt>
      <trkpt lat="46.33112" lon="-0.30548">
        <ele>91.4947</ele>
        <time>2011-01-09T13:18:36Z</time>
      </trkpt>
      <trkpt lat="46.33113" lon="-0.30548">
        <ele>91.5293</ele>
        <time>2011-01-09T13:18:37Z</time>
      </trkpt>
      <trkpt lat="46.33114" lon="-0.30547">
        <ele>91.5634</ele>
        <time>2011-01-09T13:18:38Z</time>
      </trkpt>
      <trkpt lat="46.33115" lon="-0.30547">
        <ele>91.597</ele>
        <time>2011-01-09T13:18:39Z</time>
      </trkpt>
      <trkpt lat="46.33117" lon="-0.30547">
        <ele>91.63</ele>
        <time>2011-01-09T13:18:40Z</time>
      </trkpt>
      <trkpt lat="46.33118" lon="-0.30547">
        <ele>91.6619</ele>
        <time>2011-01-09T13:18:41Z</time>
      </trkpt>
      <trkpt lat="46.33118" lon="-0.30546">
        <ele>91.6902</ele>
        <time>2011-01-09T13:18:42Z</time>
      </trkpt>
      <trkpt lat="46.3312" lon="-0.30546">
        <ele>91.7209</ele>
        <time>2011-01-09T13:18:44Z</time>
      </trkpt>
      <trkpt lat="46.33121" lon="-0.30546">
        <ele>91.7535</ele>
        <time>2011-01-09T13:18:46Z</time>
      </trkpt>
      <trkpt lat="46.33122" lon="-0.30546">
        <ele>91.7842</ele>
        <time>2011-01-09T13:18:47Z</time>
      </trkpt>
      <trkpt lat="46.33123" lon="-0.30546">
        <ele>91.8145</ele>
        <time>2011-01-09T13:18:48Z</time>
      </trkpt>
      <trkpt lat="46.33124" lon="-0.30546">
        <ele>91.8448</ele>
        <time>2011-01-09T13:18:49Z</time>
      </trkpt>
      <trkpt lat="46.33125" lon="-0.30545">
        <ele>91.8704</ele>
        <time>2011-01-09T13:18:50Z</time>
      </trkpt>
      <trkpt lat="46.33126" lon="-0.30545">
        <ele>91.8938</ele>
        <time>2011-01-09T13:18:51Z</time>
      </trkpt>
      <trkpt lat="46.33126" lon="-0.30544">
        <ele>91.9164</ele>
        <time>2011-01-09T13:18:52Z</time>
      </trkpt>
      <trkpt lat="46.33127" lon="-0.30544">
        <ele>91.9364</ele>
        <time>2011-01-09T13:18:53Z</time>
      </trkpt>
      <trkpt lat="46.33128" lon="-0.30543">
        <ele>91.9566</ele>
        <time>2011-01-09T13:18:54Z</time>
      </trkpt>
      <trkpt lat="46.3313" lon="-0.30543">
        <ele>91.9753</ele>
        <time>2011-01-09T13:18:55Z</time>
      </trkpt>
      <trkpt lat="46.3313" lon="-0.30543">
        <ele>91.9937</ele>
        <time>2011-01-09T13:18:56Z</time>
      </trkpt>
      <trkpt lat="46.33131" lon="-0.30543">
        <ele>92.0048</ele>
        <time>2011-01-09T13:18:57Z</time>
      </trkpt>
      <trkpt lat="46.33133" lon="-0.30543">
        <ele>92.017</ele>
        <time>2011-01-09T13:18:58Z</time>
      </trkpt>
      <trkpt lat="46.33134" lon="-0.30543">
        <ele>92.0214</ele>
        <time>2011-01-09T13:18:59Z</time>
      </trkpt>
      <trkpt lat="46.33135" lon="-0.30544">
        <ele>92.0275</ele>
        <time>2011-01-09T13:19:00Z</time>
      </trkpt>
      <trkpt lat="46.33136" lon="-0.30544">
        <ele>92.0387</ele>
        <time>2011-01-09T13:19:01Z</time>
      </trkpt>
      <trkpt lat="46.33137" lon="-0.30544">
        <ele>92.0497</ele>
        <time>2011-01-09T13:19:02Z</time>
      </trkpt>
      <trkpt lat="46.33138" lon="-0.30543">
        <ele>92.0591</ele>
        <time>2011-01-09T13:19:03Z</time>
      </trkpt>
      <trkpt lat="46.33138" lon="-0.30543">
        <ele>92.067</ele>
        <time>2011-01-09T13:19:04Z</time>
      </trkpt>
      <trkpt lat="46.33139" lon="-0.30543">
        <ele>92.0763</ele>
        <time>2011-01-09T13:19:05Z</time>
      </trkpt>
      <trkpt lat="46.3314" lon="-0.30543">
        <ele>92.0852</ele>
        <time>2011-01-09T13:19:06Z</time>
      </trkpt>
      <trkpt lat="46.33141" lon="-0.30542">
        <ele>92.0954</ele>
        <time>2011-01-09T13:19:07Z</time>
      </trkpt>
      <trkpt lat="46.33143" lon="-0.30542">
        <ele>92.1049</ele>
        <time>2011-01-09T13:19:08Z</time>
      </trkpt>
      <trkpt lat="46.33143" lon="-0.30542">
        <ele>92.1143</ele>
        <time>2011-01-09T13:19:09Z</time>
      </trkpt>
      <trkpt lat="46.33144" lon="-0.30542">
        <ele>92.1258</ele>
        <time>2011-01-09T13:19:10Z</time>
      </trkpt>
      <trkpt lat="46.33146" lon="-0.30542">
        <ele>92.1352</ele>
        <time>2011-01-09T13:19:11Z</time>
      </trkpt>
      <trkpt lat="46.33147" lon="-0.30541">
        <ele>92.1413</ele>
        <time>2011-01-09T13:19:12Z</time>
      </trkpt>
      <trkpt lat="46.33148" lon="-0.30541">
        <ele>92.1508</ele>
        <time>2011-01-09T13:19:13Z</time>
      </trkpt>
      <trkpt lat="46.33149" lon="-0.30541">
        <ele>92.1617</ele>
        <time>2011-01-09T13:19:14Z</time>
      </trkpt>
      <trkpt lat="46.33151" lon="-0.30542">
        <ele>92.1745</ele>
        <time>2011-01-09T13:19:15Z</time>
      </trkpt>
      <trkpt lat="46.33152" lon="-0.30542">
        <ele>92.1879</ele>
        <time>2011-01-09T13:19:16Z</time>
      </trkpt>
      <trkpt lat="46.33153" lon="-0.30542">
        <ele>92.2021</ele>
        <time>2011-01-09T13:19:17Z</time>
      </trkpt>
      <trkpt lat="46.33154" lon="-0.30541">
        <ele>92.2182</ele>
        <time>2011-01-09T13:19:18Z</time>
      </trkpt>
      <trkpt lat="46.33156" lon="-0.30541">
        <ele>92.2356</ele>
        <time>2011-01-09T13:19:19Z</time>
      </trkpt>
      <trkpt lat="46.33157" lon="-0.3054">
        <ele>92.2532</ele>
        <time>2011-01-09T13:19:20Z</time>
      </trkpt>
      <trkpt lat="46.33159" lon="-0.3054">
        <ele>92.2714</ele>
        <time>2011-01-09T13:19:21Z</time>
      </trkpt>
      <trkpt lat="46.3316" lon="-0.3054">
        <ele>92.29</ele>
        <time>2011-01-09T13:19:22Z</time>
      </trkpt>
      <trkpt lat="46.33162" lon="-0.30539">
        <ele>92.3082</ele>
        <time>2011-01-09T13:19:23Z</time>
      </trkpt>
      <trkpt lat="46.33163" lon="-0.30539">
        <ele>92.3278</ele>
        <time>2011-01-09T13:19:24Z</time>
      </trkpt>
      <trkpt lat="46.33164" lon="-0.30539">
        <ele>92.3473</ele>
        <time>2011-01-09T13:19:25Z</time>
      </trkpt>
      <trkpt lat="46.33165" lon="-0.30538">
        <ele>92.3705</ele>
        <time>2011-01-09T13:19:26Z</time>
      </trkpt>
      <trkpt lat="46.33167" lon="-0.30538">
        <ele>92.3921</ele>
        <time>2011-01-09T13:19:27Z</time>
      </trkpt>
      <trkpt lat="46.33167" lon="-0.30538">
        <ele>92.414</ele>
        <time>2011-01-09T13:19:28Z</time>
      </trkpt>
      <trkpt lat="46.33168" lon="-0.30538">
        <ele>92.4355</ele>
        <time>2011-01-09T13:19:29Z</time>
      </trkpt>
      <trkpt lat="46.33169" lon="-0.30538">
        <ele>92.4577</ele>
        <time>2011-01-09T13:19:30Z</time>
      </trkpt>
      <trkpt lat="46.3317" lon="-0.30538">
        <ele>92.4822</ele>
        <time>2011-01-09T13:19:31Z</time>
      </trkpt>
      <trkpt lat="46.3317" lon="-0.30538">
        <ele>92.5073</ele>
        <time>2011-01-09T13:19:32Z</time>
      </trkpt>
      <trkpt lat="46.33172" lon="-0.30537">
        <ele>92.5322</ele>
        <time>2011-01-09T13:19:33Z</time>
      </trkpt>
      <trkpt lat="46.33173" lon="-0.30537">
        <ele>92.5574</ele>
        <time>2011-01-09T13:19:34Z</time>
      </trkpt>
      <trkpt lat="46.33174" lon="-0.30536">
        <ele>92.5832</ele>
        <time>2011-01-09T13:19:35Z</time>
      </trkpt>
      <trkpt lat="46.33175" lon="-0.30534">
        <ele>92.6112</ele>
        <time>2011-01-09T13:19:36Z</time>
      </trkpt>
      <trkpt lat="46.33176" lon="-0.30533">
        <ele>92.6412</ele>
        <time>2011-01-09T13:19:37Z</time>
      </trkpt>
      <trkpt lat="46.33177" lon="-0.30533">
        <ele>92.6729</ele>
        <time>2011-01-09T13:19:38Z</time>
      </trkpt>
      <trkpt lat="46.33178" lon="-0.30532">
        <ele>92.7054</ele>
        <time>2011-01-09T13:19:39Z</time>
      </trkpt>
      <trkpt lat="46.33178" lon="-0.30532">
        <ele>92.7379</ele>
        <time>2011-01-09T13:19:40Z</time>
      </trkpt>
      <trkpt lat="46.33179" lon="-0.30531">
        <ele>92.7696</ele>
        <time>2011-01-09T13:19:41Z</time>
      </trkpt>
      <trkpt lat="46.3318" lon="-0.30531">
        <ele>92.8001</ele>
        <time>2011-01-09T13:19:42Z</time>
      </trkpt>
      <trkpt lat="46.33181" lon="-0.30531">
        <ele>92.8295</ele>
        <time>2011-01-09T13:19:43Z</time>
      </trkpt>
      <trkpt lat="46.33182" lon="-0.3053">
        <ele>92.8564</ele>
        <time>2011-01-09T13:19:44Z</time>
      </trkpt>
      <trkpt lat="46.33183" lon="-0.3053">
        <ele>92.883</ele>
        <time>2011-01-09T13:19:45Z</time>
      </trkpt>
      <trkpt lat="46.33185" lon="-0.3053">
        <ele>92.9068</ele>
        <time>2011-01-09T13:19:46Z</time>
      </trkpt>
      <trkpt lat="46.33186" lon="-0.3053">
        <ele>92.9305</ele>
        <time>2011-01-09T13:19:47Z</time>
      </trkpt>
      <trkpt lat="46.33188" lon="-0.3053">
        <ele>92.9538</ele>
        <time>2011-01-09T13:19:48Z</time>
      </trkpt>
      <trkpt lat="46.33189" lon="-0.3053">
        <ele>92.9783</ele>
        <time>2011-01-09T13:19:49Z</time>
      </trkpt>
      <trkpt lat="46.3319" lon="-0.30531">
        <ele>93.0034</ele>
        <time>2011-01-09T13:19:50Z</time>
      </trkpt>
      <trkpt lat="46.33191" lon="-0.3053">
        <ele>93.0287</ele>
        <time>2011-01-09T13:19:51Z</time>
      </trkpt>
      <trkpt lat="46.33192" lon="-0.3053">
        <ele>93.05</ele>
        <time>2011-01-09T13:19:52Z</time>
      </trkpt>
      <trkpt lat="46.33193" lon="-0.3053">
        <ele>93.0697</ele>
        <time>2011-01-09T13:19:53Z</time>
      </trkpt>
      <trkpt lat="46.33194" lon="-0.3053">
        <ele>93.0879</ele>
        <time>2011-01-09T13:19:54Z</time>
      </trkpt>
      <trkpt lat="46.33196" lon="-0.3053">
        <ele>93.1054</ele>
        <time>2011-01-09T13:19:55Z</time>
      </trkpt>
      <trkpt lat="46.33197" lon="-0.3053">
        <ele>93.1231</ele>
        <time>2011-01-09T13:19:56Z</time>
      </trkpt>
      <trkpt lat="46.33198" lon="-0.3053">
        <ele>93.1392</ele>
        <time>2011-01-09T13:19:57Z</time>
      </trkpt>
      <trkpt lat="46.33199" lon="-0.3053">
        <ele>93.1554</ele>
        <time>2011-01-09T13:19:58Z</time>
      </trkpt>
      <trkpt lat="46.33201" lon="-0.3053">
        <ele>93.1701</ele>
        <time>2011-01-09T13:19:59Z</time>
      </trkpt>
      <trkpt lat="46.33202" lon="-0.3053">
        <ele>93.1806</ele>
        <time>2011-01-09T13:20:00Z</time>
      </trkpt>
      <trkpt lat="46.33204" lon="-0.3053">
        <ele>93.1872</ele>
        <time>2011-01-09T13:20:01Z</time>
      </trkpt>
      <trkpt lat="46.33205" lon="-0.3053">
        <ele>93.193</ele>
        <time>2011-01-09T13:20:02Z</time>
      </trkpt>
      <trkpt lat="46.33206" lon="-0.30529">
        <ele>93.197</ele>
        <time>2011-01-09T13:20:03Z</time>
      </trkpt>
      <trkpt lat="46.33207" lon="-0.30529">
        <ele>93.2005</ele>
        <time>2011-01-09T13:20:04Z</time>
      </trkpt>
      <trkpt lat="46.33209" lon="-0.30528">
        <ele>93.2054</ele>
        <time>2011-01-09T13:20:05Z</time>
      </trkpt>
      <trkpt lat="46.3321" lon="-0.30528">
        <ele>93.2105</ele>
        <time>2011-01-09T13:20:06Z</time>
      </trkpt>
      <trkpt lat="46.33211" lon="-0.30527">
        <ele>93.2122</ele>
        <time>2011-01-09T13:20:07Z</time>
      </trkpt>
      <trkpt lat="46.33212" lon="-0.30527">
        <ele>93.214</ele>
        <time>2011-01-09T13:20:08Z</time>
      </trkpt>
      <trkpt lat="46.33212" lon="-0.30526">
        <ele>93.216</ele>
        <time>2011-01-09T13:20:09Z</time>
      </trkpt>
      <trkpt lat="46.33213" lon="-0.30526">
        <ele>93.2209</ele>
        <time>2011-01-09T13:20:10Z</time>
      </trkpt>
      <trkpt lat="46.33214" lon="-0.30525">
        <ele>93.2266</ele>
        <time>2011-01-09T13:20:11Z</time>
      </trkpt>
      <trkpt lat="46.33215" lon="-0.30525">
        <ele>93.2364</ele>
        <time>2011-01-09T13:20:12Z</time>
      </trkpt>
      <trkpt lat="46.33215" lon="-0.30524">
        <ele>93.2525</ele>
        <time>2011-01-09T13:20:13Z</time>
      </trkpt>
      <trkpt lat="46.33216" lon="-0.30523">
        <ele>93.2738</ele>
        <time>2011-01-09T13:20:14Z</time>
      </trkpt>
      <trkpt lat="46.33217" lon="-0.30523">
        <ele>93.2968</ele>
        <time>2011-01-09T13:20:15Z</time>
      </trkpt>
      <trkpt lat="46.33218" lon="-0.30523">
        <ele>93.3201</ele>
        <time>2011-01-09T13:20:16Z</time>
      </trkpt>
      <trkpt lat="46.33218" lon="-0.30522">
        <ele>93.3439</ele>
        <time>2011-01-09T13:20:17Z</time>
      </trkpt>
      <trkpt lat="46.33219" lon="-0.30522">
        <ele>93.3662</ele>
        <time>2011-01-09T13:20:18Z</time>
      </trkpt>
      <trkpt lat="46.3322" lon="-0.30522">
        <ele>93.3907</ele>
        <time>2011-01-09T13:20:19Z</time>
      </trkpt>
      <trkpt lat="46.3322" lon="-0.30522">
        <ele>93.4169</ele>
        <time>2011-01-09T13:20:20Z</time>
      </trkpt>
      <trkpt lat="46.33221" lon="-0.30522">
        <ele>93.4461</ele>
        <time>2011-01-09T13:20:21Z</time>
      </trkpt>
      <trkpt lat="46.33221" lon="-0.30522">
        <ele>93.4709</ele>
        <time>2011-01-09T13:20:22Z</time>
      </trkpt>
      <trkpt lat="46.33222" lon="-0.30521">
        <ele>93.5043</ele>
        <time>2011-01-09T13:20:23Z</time>
      </trkpt>
      <trkpt lat="46.33223" lon="-0.3052">
        <ele>93.5298</ele>
        <time>2011-01-09T13:20:24Z</time>
      </trkpt>
      <trkpt lat="46.33225" lon="-0.3052">
        <ele>93.5538</ele>
        <time>2011-01-09T13:20:25Z</time>
      </trkpt>
      <trkpt lat="46.33225" lon="-0.30519">
        <ele>93.5764</ele>
        <time>2011-01-09T13:20:26Z</time>
      </trkpt>
      <trkpt lat="46.33226" lon="-0.30519">
        <ele>93.5967</ele>
        <time>2011-01-09T13:20:27Z</time>
      </trkpt>
      <trkpt lat="46.33227" lon="-0.30518">
        <ele>93.615</ele>
        <time>2011-01-09T13:20:28Z</time>
      </trkpt>
      <trkpt lat="46.33228" lon="-0.30517">
        <ele>93.6305</ele>
        <time>2011-01-09T13:20:29Z</time>
      </trkpt>
      <trkpt lat="46.33228" lon="-0.30516">
        <ele>93.6479</ele>
        <time>2011-01-09T13:20:30Z</time>
      </trkpt>
      <trkpt lat="46.33229" lon="-0.30516">
        <ele>93.6707</ele>
        <time>2011-01-09T13:20:31Z</time>
      </trkpt>
      <trkpt lat="46.3323" lon="-0.30516">
        <ele>93.6901</ele>
        <time>2011-01-09T13:20:32Z</time>
      </trkpt>
      <trkpt lat="46.33231" lon="-0.30515">
        <ele>93.7158</ele>
        <time>2011-01-09T13:20:33Z</time>
      </trkpt>
      <trkpt lat="46.33233" lon="-0.30514">
        <ele>93.7526</ele>
        <time>2011-01-09T13:20:34Z</time>
      </trkpt>
      <trkpt lat="46.33234" lon="-0.30514">
        <ele>93.801</ele>
        <time>2011-01-09T13:20:35Z</time>
      </trkpt>
      <trkpt lat="46.33235" lon="-0.30514">
        <ele>93.852</ele>
        <time>2011-01-09T13:20:36Z</time>
      </trkpt>
      <trkpt lat="46.33236" lon="-0.30514">
        <ele>93.9076</ele>
        <time>2011-01-09T13:20:37Z</time>
      </trkpt>
      <trkpt lat="46.33238" lon="-0.30514">
        <ele>93.963</ele>
        <time>2011-01-09T13:20:38Z</time>
      </trkpt>
      <trkpt lat="46.33238" lon="-0.30514">
        <ele>94.018</ele>
        <time>2011-01-09T13:20:39Z</time>
      </trkpt>
      <trkpt lat="46.33239" lon="-0.30513">
        <ele>94.0689</ele>
        <time>2011-01-09T13:20:40Z</time>
      </trkpt>
      <trkpt lat="46.33241" lon="-0.30513">
        <ele>94.1148</ele>
        <time>2011-01-09T13:20:41Z</time>
      </trkpt>
      <trkpt lat="46.33242" lon="-0.30513">
        <ele>94.1562</ele>
        <time>2011-01-09T13:20:42Z</time>
      </trkpt>
      <trkpt lat="46.33243" lon="-0.30513">
        <ele>94.1967</ele>
        <time>2011-01-09T13:20:43Z</time>
      </trkpt>
      <trkpt lat="46.33244" lon="-0.30512">
        <ele>94.2381</ele>
        <time>2011-01-09T13:20:44Z</time>
      </trkpt>
      <trkpt lat="46.33245" lon="-0.30511">
        <ele>94.2829</ele>
        <time>2011-01-09T13:20:45Z</time>
      </trkpt>
      <trkpt lat="46.33246" lon="-0.30509">
        <ele>94.332</ele>
        <time>2011-01-09T13:20:46Z</time>
      </trkpt>
      <trkpt lat="46.33246" lon="-0.30508">
        <ele>94.3827</ele>
        <time>2011-01-09T13:20:47Z</time>
      </trkpt>
      <trkpt lat="46.33247" lon="-0.30507">
        <ele>94.4373</ele>
        <time>2011-01-09T13:20:48Z</time>
      </trkpt>
      <trkpt lat="46.33248" lon="-0.30505">
        <ele>94.4953</ele>
        <time>2011-01-09T13:20:49Z</time>
      </trkpt>
      <trkpt lat="46.33248" lon="-0.30504">
        <ele>94.5564</ele>
        <time>2011-01-09T13:20:50Z</time>
      </trkpt>
      <trkpt lat="46.33249" lon="-0.30502">
        <ele>94.6195</ele>
        <time>2011-01-09T13:20:51Z</time>
      </trkpt>
      <trkpt lat="46.33249" lon="-0.30502">
        <ele>94.6829</ele>
        <time>2011-01-09T13:20:52Z</time>
      </trkpt>
      <trkpt lat="46.33248" lon="-0.30501">
        <ele>94.8137</ele>
        <time>2011-01-09T13:20:55Z</time>
      </trkpt>
      <trkpt lat="46.33248" lon="-0.305">
        <ele>94.8689</ele>
        <time>2011-01-09T13:20:56Z</time>
      </trkpt>
      <trkpt lat="46.33248" lon="-0.30498">
        <ele>94.9229</ele>
        <time>2011-01-09T13:20:57Z</time>
      </trkpt>
      <trkpt lat="46.33248" lon="-0.30497">
        <ele>94.976</ele>
        <time>2011-01-09T13:20:58Z</time>
      </trkpt>
      <trkpt lat="46.33248" lon="-0.30496">
        <ele>95.0275</ele>
        <time>2011-01-09T13:20:59Z</time>
      </trkpt>
      <trkpt lat="46.33247" lon="-0.30494">
        <ele>95.0796</ele>
        <time>2011-01-09T13:21:00Z</time>
      </trkpt>
      <trkpt lat="46.33247" lon="-0.30492">
        <ele>95.1307</ele>
        <time>2011-01-09T13:21:01Z</time>
      </trkpt>
      <trkpt lat="46.33247" lon="-0.3049">
        <ele>95.178</ele>
        <time>2011-01-09T13:21:02Z</time>
      </trkpt>
      <trkpt lat="46.33247" lon="-0.30489">
        <ele>95.2234</ele>
        <time>2011-01-09T13:21:03Z</time>
      </trkpt>
      <trkpt lat="46.33246" lon="-0.30487">
        <ele>95.2659</ele>
        <time>2011-01-09T13:21:04Z</time>
      </trkpt>
      <trkpt lat="46.33246" lon="-0.30486">
        <ele>95.3079</ele>
        <time>2011-01-09T13:21:05Z</time>
      </trkpt>
      <trkpt lat="46.33246" lon="-0.30485">
        <ele>95.3481</ele>
        <time>2011-01-09T13:21:06Z</time>
      </trkpt>
      <trkpt lat="46.33245" lon="-0.30484">
        <ele>95.3894</ele>
        <time>2011-01-09T13:21:07Z</time>
      </trkpt>
      <trkpt lat="46.33245" lon="-0.30483">
        <ele>95.4262</ele>
        <time>2011-01-09T13:21:08Z</time>
      </trkpt>
      <trkpt lat="46.33244" lon="-0.30482">
        <ele>95.4627</ele>
        <time>2011-01-09T13:21:09Z</time>
      </trkpt>
      <trkpt lat="46.33244" lon="-0.30481">
        <ele>95.4998</ele>
        <time>2011-01-09T13:21:10Z</time>
      </trkpt>
      <trkpt lat="46.33244" lon="-0.3048">
        <ele>95.5386</ele>
        <time>2011-01-09T13:21:11Z</time>
      </trkpt>
      <trkpt lat="46.33243" lon="-0.30479">
        <ele>95.5788</ele>
        <time>2011-01-09T13:21:12Z</time>
      </trkpt>
      <trkpt lat="46.33243" lon="-0.30478">
        <ele>95.6183</ele>
        <time>2011-01-09T13:21:13Z</time>
      </trkpt>
      <trkpt lat="46.33242" lon="-0.30477">
        <ele>95.656</ele>
        <time>2011-01-09T13:21:14Z</time>
      </trkpt>
      <trkpt lat="46.33242" lon="-0.30475">
        <ele>95.6916</ele>
        <time>2011-01-09T13:21:15Z</time>
      </trkpt>
      <trkpt lat="46.33242" lon="-0.30474">
        <ele>95.7273</ele>
        <time>2011-01-09T13:21:16Z</time>
      </trkpt>
      <trkpt lat="46.33242" lon="-0.30472">
        <ele>95.7611</ele>
        <time>2011-01-09T13:21:17Z</time>
      </trkpt>
      <trkpt lat="46.33242" lon="-0.3047">
        <ele>95.7934</ele>
        <time>2011-01-09T13:21:18Z</time>
      </trkpt>
      <trkpt lat="46.33242" lon="-0.30468">
        <ele>95.8241</ele>
        <time>2011-01-09T13:21:19Z</time>
      </trkpt>
      <trkpt lat="46.33241" lon="-0.30467">
        <ele>95.8529</ele>
        <time>2011-01-09T13:21:20Z</time>
      </trkpt>
      <trkpt lat="46.33241" lon="-0.30465">
        <ele>95.8808</ele>
        <time>2011-01-09T13:21:21Z</time>
      </trkpt>
      <trkpt lat="46.33241" lon="-0.30463">
        <ele>95.9081</ele>
        <time>2011-01-09T13:21:22Z</time>
      </trkpt>
      <trkpt lat="46.33241" lon="-0.30461">
        <ele>95.9335</ele>
        <time>2011-01-09T13:21:23Z</time>
      </trkpt>
      <trkpt lat="46.33241" lon="-0.3046">
        <ele>95.9583</ele>
        <time>2011-01-09T13:21:24Z</time>
      </trkpt>
      <trkpt lat="46.33241" lon="-0.30458">
        <ele>95.9822</ele>
        <time>2011-01-09T13:21:25Z</time>
      </trkpt>
      <trkpt lat="46.33241" lon="-0.30457">
        <ele>96.0022</ele>
        <time>2011-01-09T13:21:26Z</time>
      </trkpt>
      <trkpt lat="46.33241" lon="-0.30455">
        <ele>96.016</ele>
        <time>2011-01-09T13:21:27Z</time>
      </trkpt>
      <trkpt lat="46.3324" lon="-0.30454">
        <ele>96.0278</ele>
        <time>2011-01-09T13:21:28Z</time>
      </trkpt>
      <trkpt lat="46.3324" lon="-0.30452">
        <ele>96.0395</ele>
        <time>2011-01-09T13:21:29Z</time>
      </trkpt>
      <trkpt lat="46.33239" lon="-0.30451">
        <ele>96.049</ele>
        <time>2011-01-09T13:21:30Z</time>
      </trkpt>
      <trkpt lat="46.33239" lon="-0.3045">
        <ele>96.0598</ele>
        <time>2011-01-09T13:21:31Z</time>
      </trkpt>
      <trkpt lat="46.33239" lon="-0.3045">
        <ele>96.0703</ele>
        <time>2011-01-09T13:21:32Z</time>
      </trkpt>
      <trkpt lat="46.33238" lon="-0.30449">
        <ele>96.0806</ele>
        <time>2011-01-09T13:21:33Z</time>
      </trkpt>
      <trkpt lat="46.33238" lon="-0.30448">
        <ele>96.0911</ele>
        <time>2011-01-09T13:21:34Z</time>
      </trkpt>
      <trkpt lat="46.33238" lon="-0.30447">
        <ele>96.1031</ele>
        <time>2011-01-09T13:21:35Z</time>
      </trkpt>
      <trkpt lat="46.33238" lon="-0.30446">
        <ele>96.116</ele>
        <time>2011-01-09T13:21:36Z</time>
      </trkpt>
      <trkpt lat="46.33238" lon="-0.30446">
        <ele>96.126</ele>
        <time>2011-01-09T13:21:37Z</time>
      </trkpt>
      <trkpt lat="46.33238" lon="-0.30446">
        <ele>96.1319</ele>
        <time>2011-01-09T13:21:38Z</time>
      </trkpt>
      <trkpt lat="46.33238" lon="-0.30445">
        <ele>96.1367</ele>
        <time>2011-01-09T13:21:41Z</time>
      </trkpt>
      <trkpt lat="46.33238" lon="-0.30443">
        <ele>96.1405</ele>
        <time>2011-01-09T13:21:42Z</time>
      </trkpt>
      <trkpt lat="46.33238" lon="-0.30442">
        <ele>96.142</ele>
        <time>2011-01-09T13:21:43Z</time>
      </trkpt>
      <trkpt lat="46.33238" lon="-0.3044">
        <ele>96.1413</ele>
        <time>2011-01-09T13:21:44Z</time>
      </trkpt>
      <trkpt lat="46.33237" lon="-0.30438">
        <ele>96.1412</ele>
        <time>2011-01-09T13:21:45Z</time>
      </trkpt>
      <trkpt lat="46.33236" lon="-0.30436">
        <ele>96.1374</ele>
        <time>2011-01-09T13:21:46Z</time>
      </trkpt>
      <trkpt lat="46.33236" lon="-0.30434">
        <ele>96.1315</ele>
        <time>2011-01-09T13:21:47Z</time>
      </trkpt>
      <trkpt lat="46.33236" lon="-0.30432">
        <ele>96.1246</ele>
        <time>2011-01-09T13:21:48Z</time>
      </trkpt>
      <trkpt lat="46.33236" lon="-0.3043">
        <ele>96.1158</ele>
        <time>2011-01-09T13:21:49Z</time>
      </trkpt>
      <trkpt lat="46.33235" lon="-0.30429">
        <ele>96.1062</ele>
        <time>2011-01-09T13:21:50Z</time>
      </trkpt>
      <trkpt lat="46.33235" lon="-0.30427">
        <ele>96.0952</ele>
        <time>2011-01-09T13:21:51Z</time>
      </trkpt>
      <trkpt lat="46.33235" lon="-0.30426">
        <ele>96.0828</ele>
        <time>2011-01-09T13:21:52Z</time>
      </trkpt>
      <trkpt lat="46.33234" lon="-0.30425">
        <ele>96.0713</ele>
        <time>2011-01-09T13:21:53Z</time>
      </trkpt>
      <trkpt lat="46.33234" lon="-0.30422">
        <ele>96.0639</ele>
        <time>2011-01-09T13:21:54Z</time>
      </trkpt>
      <trkpt lat="46.33234" lon="-0.3042">
        <ele>96.0542</ele>
        <time>2011-01-09T13:21:55Z</time>
      </trkpt>
      <trkpt lat="46.33234" lon="-0.30419">
        <ele>96.0418</ele>
        <time>2011-01-09T13:21:56Z</time>
      </trkpt>
      <trkpt lat="46.33234" lon="-0.30417">
        <ele>96.0278</ele>
        <time>2011-01-09T13:21:57Z</time>
      </trkpt>
      <trkpt lat="46.33234" lon="-0.30414">
        <ele>96.013</ele>
        <time>2011-01-09T13:21:58Z</time>
      </trkpt>
      <trkpt lat="46.33234" lon="-0.30412">
        <ele>95.998</ele>
        <time>2011-01-09T13:21:59Z</time>
      </trkpt>
      <trkpt lat="46.33234" lon="-0.30409">
        <ele>95.9841</ele>
        <time>2011-01-09T13:22:00Z</time>
      </trkpt>
      <trkpt lat="46.33234" lon="-0.30407">
        <ele>95.9686</ele>
        <time>2011-01-09T13:22:01Z</time>
      </trkpt>
      <trkpt lat="46.33233" lon="-0.30405">
        <ele>95.953</ele>
        <time>2011-01-09T13:22:02Z</time>
      </trkpt>
      <trkpt lat="46.33233" lon="-0.30403">
        <ele>95.9376</ele>
        <time>2011-01-09T13:22:03Z</time>
      </trkpt>
      <trkpt lat="46.33233" lon="-0.30402">
        <ele>95.9209</ele>
        <time>2011-01-09T13:22:04Z</time>
      </trkpt>
      <trkpt lat="46.33232" lon="-0.30401">
        <ele>95.9033</ele>
        <time>2011-01-09T13:22:05Z</time>
      </trkpt>
      <trkpt lat="46.33232" lon="-0.304">
        <ele>95.8865</ele>
        <time>2011-01-09T13:22:06Z</time>
      </trkpt>
      <trkpt lat="46.33231" lon="-0.30399">
        <ele>95.8694</ele>
        <time>2011-01-09T13:22:07Z</time>
      </trkpt>
      <trkpt lat="46.33231" lon="-0.30398">
        <ele>95.8548</ele>
        <time>2011-01-09T13:22:08Z</time>
      </trkpt>
      <trkpt lat="46.33231" lon="-0.30397">
        <ele>95.8395</ele>
        <time>2011-01-09T13:22:09Z</time>
      </trkpt>
      <trkpt lat="46.33231" lon="-0.30396">
        <ele>95.8256</ele>
        <time>2011-01-09T13:22:10Z</time>
      </trkpt>
      <trkpt lat="46.3323" lon="-0.30395">
        <ele>95.8125</ele>
        <time>2011-01-09T13:22:11Z</time>
      </trkpt>
      <trkpt lat="46.3323" lon="-0.30393">
        <ele>95.7988</ele>
        <time>2011-01-09T13:22:12Z</time>
      </trkpt>
      <trkpt lat="46.3323" lon="-0.30393">
        <ele>95.778</ele>
        <time>2011-01-09T13:22:13Z</time>
      </trkpt>
      <trkpt lat="46.3323" lon="-0.30392">
        <ele>95.7541</ele>
        <time>2011-01-09T13:22:14Z</time>
      </trkpt>
      <trkpt lat="46.3323" lon="-0.30391">
        <ele>95.7305</ele>
        <time>2011-01-09T13:22:15Z</time>
      </trkpt>
      <trkpt lat="46.3323" lon="-0.30389">
        <ele>95.7059</ele>
        <time>2011-01-09T13:22:16Z</time>
      </trkpt>
      <trkpt lat="46.3323" lon="-0.30388">
        <ele>95.6832</ele>
        <time>2011-01-09T13:22:17Z</time>
      </trkpt>
      <trkpt lat="46.33229" lon="-0.30387">
        <ele>95.6581</ele>
        <time>2011-01-09T13:22:18Z</time>
      </trkpt>
      <trkpt lat="46.33229" lon="-0.30385">
        <ele>95.6373</ele>
        <time>2011-01-09T13:22:19Z</time>
      </trkpt>
      <trkpt lat="46.33229" lon="-0.30384">
        <ele>95.6169</ele>
        <time>2011-01-09T13:22:20Z</time>
      </trkpt>
      <trkpt lat="46.33229" lon="-0.30382">
        <ele>95.5963</ele>
        <time>2011-01-09T13:22:21Z</time>
      </trkpt>
      <trkpt lat="46.33228" lon="-0.3038">
        <ele>95.5796</ele>
        <time>2011-01-09T13:22:22Z</time>
      </trkpt>
      <trkpt lat="46.33227" lon="-0.30379">
        <ele>95.5627</ele>
        <time>2011-01-09T13:22:23Z</time>
      </trkpt>
      <trkpt lat="46.33227" lon="-0.30377">
        <ele>95.5453</ele>
        <time>2011-01-09T13:22:24Z</time>
      </trkpt>
      <trkpt lat="46.33227" lon="-0.30375">
        <ele>95.5256</ele>
        <time>2011-01-09T13:22:25Z</time>
      </trkpt>
      <trkpt lat="46.33226" lon="-0.30373">
        <ele>95.5027</ele>
        <time>2011-01-09T13:22:26Z</time>
      </trkpt>
      <trkpt lat="46.33226" lon="-0.30371">
        <ele>95.4777</ele>
        <time>2011-01-09T13:22:27Z</time>
      </trkpt>
      <trkpt lat="46.33226" lon="-0.30369">
        <ele>95.4586</ele>
        <time>2011-01-09T13:22:28Z</time>
      </trkpt>
      <trkpt lat="46.33226" lon="-0.30367">
        <ele>95.4434</ele>
        <time>2011-01-09T13:22:29Z</time>
      </trkpt>
      <trkpt lat="46.33226" lon="-0.30365">
        <ele>95.4312</ele>
        <time>2011-01-09T13:22:30Z</time>
      </trkpt>
      <trkpt lat="46.33226" lon="-0.30363">
        <ele>95.4296</ele>
        <time>2011-01-09T13:22:31Z</time>
      </trkpt>
      <trkpt lat="46.33226" lon="-0.30362">
        <ele>95.433</ele>
        <time>2011-01-09T13:22:32Z</time>
      </trkpt>
      <trkpt lat="46.33225" lon="-0.3036">
        <ele>95.4418</ele>
        <time>2011-01-09T13:22:33Z</time>
      </trkpt>
      <trkpt lat="46.33225" lon="-0.30358">
        <ele>95.4568</ele>
        <time>2011-01-09T13:22:34Z</time>
      </trkpt>
      <trkpt lat="46.33225" lon="-0.30356">
        <ele>95.473</ele>
        <time>2011-01-09T13:22:35Z</time>
      </trkpt>
      <trkpt lat="46.33224" lon="-0.30355">
        <ele>95.4882</ele>
        <time>2011-01-09T13:22:36Z</time>
      </trkpt>
      <trkpt lat="46.33223" lon="-0.30353">
        <ele>95.5022</ele>
        <time>2011-01-09T13:22:37Z</time>
      </trkpt>
      <trkpt lat="46.33223" lon="-0.3035">
        <ele>95.517</ele>
        <time>2011-01-09T13:22:38Z</time>
      </trkpt>
      <trkpt lat="46.33223" lon="-0.30348">
        <ele>95.5312</ele>
        <time>2011-01-09T13:22:39Z</time>
      </trkpt>
      <trkpt lat="46.33222" lon="-0.30345">
        <ele>95.5452</ele>
        <time>2011-01-09T13:22:40Z</time>
      </trkpt>
      <trkpt lat="46.33222" lon="-0.30343">
        <ele>95.5596</ele>
        <time>2011-01-09T13:22:41Z</time>
      </trkpt>
      <trkpt lat="46.33221" lon="-0.30342">
        <ele>95.573</ele>
        <time>2011-01-09T13:22:42Z</time>
      </trkpt>
      <trkpt lat="46.33221" lon="-0.3034">
        <ele>95.5842</ele>
        <time>2011-01-09T13:22:43Z</time>
      </trkpt>
      <trkpt lat="46.3322" lon="-0.30338">
        <ele>95.594</ele>
        <time>2011-01-09T13:22:44Z</time>
      </trkpt>
      <trkpt lat="46.3322" lon="-0.30337">
        <ele>95.6022</ele>
        <time>2011-01-09T13:22:45Z</time>
      </trkpt>
      <trkpt lat="46.3322" lon="-0.30336">
        <ele>95.6101</ele>
        <time>2011-01-09T13:22:46Z</time>
      </trkpt>
      <trkpt lat="46.3322" lon="-0.30334">
        <ele>95.6194</ele>
        <time>2011-01-09T13:22:47Z</time>
      </trkpt>
      <trkpt lat="46.3322" lon="-0.30333">
        <ele>95.629</ele>
        <time>2011-01-09T13:22:48Z</time>
      </trkpt>
      <trkpt lat="46.33219" lon="-0.30331">
        <ele>95.6386</ele>
        <time>2011-01-09T13:22:49Z</time>
      </trkpt>
      <trkpt lat="46.33219" lon="-0.3033">
        <ele>95.6485</ele>
        <time>2011-01-09T13:22:50Z</time>
      </trkpt>
      <trkpt lat="46.33218" lon="-0.30328">
        <ele>95.659</ele>
        <time>2011-01-09T13:22:51Z</time>
      </trkpt>
      <trkpt lat="46.33218" lon="-0.30326">
        <ele>95.6695</ele>
        <time>2011-01-09T13:22:52Z</time>
      </trkpt>
      <trkpt lat="46.33218" lon="-0.30324">
        <ele>95.679</ele>
        <time>2011-01-09T13:22:53Z</time>
      </trkpt>
      <trkpt lat="46.33217" lon="-0.30322">
        <ele>95.6902</ele>
        <time>2011-01-09T13:22:54Z</time>
      </trkpt>
      <trkpt lat="46.33217" lon="-0.30321">
        <ele>95.7009</ele>
        <time>2011-01-09T13:22:55Z</time>
      </trkpt>
      <trkpt lat="46.33217" lon="-0.30319">
        <ele>95.7153</ele>
        <time>2011-01-09T13:22:56Z</time>
      </trkpt>
      <trkpt lat="46.33217" lon="-0.30318">
        <ele>95.7339</ele>
        <time>2011-01-09T13:22:57Z</time>
      </trkpt>
      <trkpt lat="46.33216" lon="-0.30316">
        <ele>95.7572</ele>
        <time>2011-01-09T13:22:58Z</time>
      </trkpt>
      <trkpt lat="46.33216" lon="-0.30315">
        <ele>95.7832</ele>
        <time>2011-01-09T13:22:59Z</time>
      </trkpt>
      <trkpt lat="46.33216" lon="-0.30313">
        <ele>95.8111</ele>
        <time>2011-01-09T13:23:00Z</time>
      </trkpt>
      <trkpt lat="46.33216" lon="-0.30312">
        <ele>95.8416</ele>
        <time>2011-01-09T13:23:01Z</time>
      </trkpt>
      <trkpt lat="46.33215" lon="-0.3031">
        <ele>95.876</ele>
        <time>2011-01-09T13:23:02Z</time>
      </trkpt>
      <trkpt lat="46.33215" lon="-0.30309">
        <ele>95.9133</ele>
        <time>2011-01-09T13:23:03Z</time>
      </trkpt>
      <trkpt lat="46.33215" lon="-0.30307">
        <ele>95.9541</ele>
        <time>2011-01-09T13:23:04Z</time>
      </trkpt>
      <trkpt lat="46.33215" lon="-0.30306">
        <ele>95.9988</ele>
        <time>2011-01-09T13:23:05Z</time>
      </trkpt>
      <trkpt lat="46.33215" lon="-0.30304">
        <ele>96.0461</ele>
        <time>2011-01-09T13:23:06Z</time>
      </trkpt>
      <trkpt lat="46.33214" lon="-0.30302">
        <ele>96.0957</ele>
        <time>2011-01-09T13:23:07Z</time>
      </trkpt>
      <trkpt lat="46.33214" lon="-0.30301">
        <ele>96.148</ele>
        <time>2011-01-09T13:23:08Z</time>
      </trkpt>
      <trkpt lat="46.33214" lon="-0.303">
        <ele>96.2031</ele>
        <time>2011-01-09T13:23:09Z</time>
      </trkpt>
      <trkpt lat="46.33214" lon="-0.30298">
        <ele>96.2582</ele>
        <time>2011-01-09T13:23:10Z</time>
      </trkpt>
      <trkpt lat="46.33214" lon="-0.30297">
        <ele>96.3114</ele>
        <time>2011-01-09T13:23:11Z</time>
      </trkpt>
      <trkpt lat="46.33214" lon="-0.30295">
        <ele>96.3634</ele>
        <time>2011-01-09T13:23:12Z</time>
      </trkpt>
      <trkpt lat="46.33214" lon="-0.30294">
        <ele>96.4145</ele>
        <time>2011-01-09T13:23:13Z</time>
      </trkpt>
      <trkpt lat="46.33213" lon="-0.30293">
        <ele>96.4646</ele>
        <time>2011-01-09T13:23:14Z</time>
      </trkpt>
      <trkpt lat="46.33213" lon="-0.30291">
        <ele>96.5131</ele>
        <time>2011-01-09T13:23:15Z</time>
      </trkpt>
      <trkpt lat="46.33213" lon="-0.3029">
        <ele>96.5596</ele>
        <time>2011-01-09T13:23:16Z</time>
      </trkpt>
      <trkpt lat="46.33212" lon="-0.30289">
        <ele>96.6055</ele>
        <time>2011-01-09T13:23:17Z</time>
      </trkpt>
      <trkpt lat="46.33212" lon="-0.30288">
        <ele>96.6509</ele>
        <time>2011-01-09T13:23:18Z</time>
      </trkpt>
      <trkpt lat="46.33212" lon="-0.30288">
        <ele>96.6953</ele>
        <time>2011-01-09T13:23:19Z</time>
      </trkpt>
      <trkpt lat="46.33211" lon="-0.30287">
        <ele>96.738</ele>
        <time>2011-01-09T13:23:20Z</time>
      </trkpt>
      <trkpt lat="46.33211" lon="-0.30286">
        <ele>96.7785</ele>
        <time>2011-01-09T13:23:21Z</time>
      </trkpt>
      <trkpt lat="46.33211" lon="-0.30285">
        <ele>96.8148</ele>
        <time>2011-01-09T13:23:22Z</time>
      </trkpt>
      <trkpt lat="46.33211" lon="-0.30283">
        <ele>96.8486</ele>
        <time>2011-01-09T13:23:23Z</time>
      </trkpt>
      <trkpt lat="46.33211" lon="-0.30282">
        <ele>96.8803</ele>
        <time>2011-01-09T13:23:24Z</time>
      </trkpt>
      <trkpt lat="46.33211" lon="-0.3028">
        <ele>96.9083</ele>
        <time>2011-01-09T13:23:25Z</time>
      </trkpt>
      <trkpt lat="46.33211" lon="-0.30278">
        <ele>96.9346</ele>
        <time>2011-01-09T13:23:26Z</time>
      </trkpt>
      <trkpt lat="46.33211" lon="-0.30277">
        <ele>96.9581</ele>
        <time>2011-01-09T13:23:27Z</time>
      </trkpt>
      <trkpt lat="46.3321" lon="-0.30276">
        <ele>96.9804</ele>
        <time>2011-01-09T13:23:28Z</time>
      </trkpt>
      <trkpt lat="46.3321" lon="-0.30275">
        <ele>97.0022</ele>
        <time>2011-01-09T13:23:30Z</time>
      </trkpt>
      <trkpt lat="46.3321" lon="-0.30273">
        <ele>97.0197</ele>
        <time>2011-01-09T13:23:31Z</time>
      </trkpt>
      <trkpt lat="46.33209" lon="-0.30271">
        <ele>97.0378</ele>
        <time>2011-01-09T13:23:32Z</time>
      </trkpt>
      <trkpt lat="46.33209" lon="-0.30268">
        <ele>97.0531</ele>
        <time>2011-01-09T13:23:33Z</time>
      </trkpt>
      <trkpt lat="46.33209" lon="-0.30267">
        <ele>97.0676</ele>
        <time>2011-01-09T13:23:34Z</time>
      </trkpt>
      <trkpt lat="46.33209" lon="-0.30265">
        <ele>97.0818</ele>
        <time>2011-01-09T13:23:35Z</time>
      </trkpt>
      <trkpt lat="46.33209" lon="-0.30263">
        <ele>97.0947</ele>
        <time>2011-01-09T13:23:36Z</time>
      </trkpt>
      <trkpt lat="46.33209" lon="-0.30262">
        <ele>97.1051</ele>
        <time>2011-01-09T13:23:37Z</time>
      </trkpt>
      <trkpt lat="46.33209" lon="-0.3026">
        <ele>97.1147</ele>
        <time>2011-01-09T13:23:38Z</time>
      </trkpt>
      <trkpt lat="46.33209" lon="-0.30259">
        <ele>97.1238</ele>
        <time>2011-01-09T13:23:39Z</time>
      </trkpt>
      <trkpt lat="46.33209" lon="-0.30257">
        <ele>97.1324</ele>
        <time>2011-01-09T13:23:40Z</time>
      </trkpt>
      <trkpt lat="46.33209" lon="-0.30256">
        <ele>97.1407</ele>
        <time>2011-01-09T13:23:41Z</time>
      </trkpt>
      <trkpt lat="46.33209" lon="-0.30254">
        <ele>97.1485</ele>
        <time>2011-01-09T13:23:42Z</time>
      </trkpt>
      <trkpt lat="46.33209" lon="-0.30253">
        <ele>97.1583</ele>
        <time>2011-01-09T13:23:43Z</time>
      </trkpt>
      <trkpt lat="46.33209" lon="-0.30251">
        <ele>97.1702</ele>
        <time>2011-01-09T13:23:44Z</time>
      </trkpt>
      <trkpt lat="46.33209" lon="-0.30249">
        <ele>97.1836</ele>
        <time>2011-01-09T13:23:45Z</time>
      </trkpt>
      <trkpt lat="46.33209" lon="-0.30247">
        <ele>97.198</ele>
        <time>2011-01-09T13:23:46Z</time>
      </trkpt>
      <trkpt lat="46.33209" lon="-0.30245">
        <ele>97.2126</ele>
        <time>2011-01-09T13:23:47Z</time>
      </trkpt>
      <trkpt lat="46.33209" lon="-0.30243">
        <ele>97.2266</ele>
        <time>2011-01-09T13:23:48Z</time>
      </trkpt>
      <trkpt lat="46.33209" lon="-0.30242">
        <ele>97.2417</ele>
        <time>2011-01-09T13:23:49Z</time>
      </trkpt>
      <trkpt lat="46.33207" lon="-0.3024">
        <ele>97.2572</ele>
        <time>2011-01-09T13:23:50Z</time>
      </trkpt>
      <trkpt lat="46.33207" lon="-0.30239">
        <ele>97.2753</ele>
        <time>2011-01-09T13:23:51Z</time>
      </trkpt>
      <trkpt lat="46.33205" lon="-0.30239">
        <ele>97.2948</ele>
        <time>2011-01-09T13:23:52Z</time>
      </trkpt>
      <trkpt lat="46.33205" lon="-0.30239">
        <ele>97.3147</ele>
        <time>2011-01-09T13:23:53Z</time>
      </trkpt>
      <trkpt lat="46.33205" lon="-0.30236">
        <ele>97.3542</ele>
        <time>2011-01-09T13:23:57Z</time>
      </trkpt>
      <trkpt lat="46.33205" lon="-0.30235">
        <ele>97.371</ele>
        <time>2011-01-09T13:23:58Z</time>
      </trkpt>
      <trkpt lat="46.33206" lon="-0.30233">
        <ele>97.3902</ele>
        <time>2011-01-09T13:23:59Z</time>
      </trkpt>
      <trkpt lat="46.33206" lon="-0.30232">
        <ele>97.4122</ele>
        <time>2011-01-09T13:24:00Z</time>
      </trkpt>
      <trkpt lat="46.33207" lon="-0.30231">
        <ele>97.4352</ele>
        <time>2011-01-09T13:24:01Z</time>
      </trkpt>
      <trkpt lat="46.33207" lon="-0.3023">
        <ele>97.4587</ele>
        <time>2011-01-09T13:24:02Z</time>
      </trkpt>
      <trkpt lat="46.33207" lon="-0.30229">
        <ele>97.4812</ele>
        <time>2011-01-09T13:24:03Z</time>
      </trkpt>
      <trkpt lat="46.33207" lon="-0.30227">
        <ele>97.5047</ele>
        <time>2011-01-09T13:24:04Z</time>
      </trkpt>
      <trkpt lat="46.33208" lon="-0.30226">
        <ele>97.5275</ele>
        <time>2011-01-09T13:24:05Z</time>
      </trkpt>
      <trkpt lat="46.33208" lon="-0.30225">
        <ele>97.5509</ele>
        <time>2011-01-09T13:24:06Z</time>
      </trkpt>
      <trkpt lat="46.33208" lon="-0.30224">
        <ele>97.5736</ele>
        <time>2011-01-09T13:24:07Z</time>
      </trkpt>
      <trkpt lat="46.33209" lon="-0.30222">
        <ele>97.5952</ele>
        <time>2011-01-09T13:24:08Z</time>
      </trkpt>
      <trkpt lat="46.33209" lon="-0.30221">
        <ele>97.6162</ele>
        <time>2011-01-09T13:24:09Z</time>
      </trkpt>
      <trkpt lat="46.33208" lon="-0.30219">
        <ele>97.6368</ele>
        <time>2011-01-09T13:24:10Z</time>
      </trkpt>
      <trkpt lat="46.33208" lon="-0.30218">
        <ele>97.657</ele>
        <time>2011-01-09T13:24:11Z</time>
      </trkpt>
      <trkpt lat="46.33208" lon="-0.30216">
        <ele>97.676</ele>
        <time>2011-01-09T13:24:12Z</time>
      </trkpt>
      <trkpt lat="46.33208" lon="-0.30215">
        <ele>97.695</ele>
        <time>2011-01-09T13:24:13Z</time>
      </trkpt>
      <trkpt lat="46.33208" lon="-0.30213">
        <ele>97.714</ele>
        <time>2011-01-09T13:24:14Z</time>
      </trkpt>
      <trkpt lat="46.33208" lon="-0.30211">
        <ele>97.7337</ele>
        <time>2011-01-09T13:24:15Z</time>
      </trkpt>
      <trkpt lat="46.33209" lon="-0.3021">
        <ele>97.7538</ele>
        <time>2011-01-09T13:24:16Z</time>
      </trkpt>
      <trkpt lat="46.33209" lon="-0.30208">
        <ele>97.7714</ele>
        <time>2011-01-09T13:24:17Z</time>
      </trkpt>
      <trkpt lat="46.33209" lon="-0.30206">
        <ele>97.7881</ele>
        <time>2011-01-09T13:24:18Z</time>
      </trkpt>
      <trkpt lat="46.33209" lon="-0.30204">
        <ele>97.8032</ele>
        <time>2011-01-09T13:24:19Z</time>
      </trkpt>
      <trkpt lat="46.33209" lon="-0.30202">
        <ele>97.8167</ele>
        <time>2011-01-09T13:24:20Z</time>
      </trkpt>
      <trkpt lat="46.33209" lon="-0.302">
        <ele>97.8297</ele>
        <time>2011-01-09T13:24:21Z</time>
      </trkpt>
      <trkpt lat="46.33209" lon="-0.30198">
        <ele>97.8428</ele>
        <time>2011-01-09T13:24:22Z</time>
      </trkpt>
      <trkpt lat="46.33209" lon="-0.30197">
        <ele>97.8568</ele>
        <time>2011-01-09T13:24:23Z</time>
      </trkpt>
      <trkpt lat="46.33209" lon="-0.30195">
        <ele>97.8707</ele>
        <time>2011-01-09T13:24:24Z</time>
      </trkpt>
      <trkpt lat="46.3321" lon="-0.30193">
        <ele>97.8812</ele>
        <time>2011-01-09T13:24:25Z</time>
      </trkpt>
      <trkpt lat="46.3321" lon="-0.30192">
        <ele>97.8898</ele>
        <time>2011-01-09T13:24:26Z</time>
      </trkpt>
      <trkpt lat="46.3321" lon="-0.3019">
        <ele>97.8976</ele>
        <time>2011-01-09T13:24:27Z</time>
      </trkpt>
      <trkpt lat="46.3321" lon="-0.30188">
        <ele>97.9075</ele>
        <time>2011-01-09T13:24:28Z</time>
      </trkpt>
      <trkpt lat="46.3321" lon="-0.30186">
        <ele>97.9163</ele>
        <time>2011-01-09T13:24:29Z</time>
      </trkpt>
      <trkpt lat="46.3321" lon="-0.30185">
        <ele>97.9241</ele>
        <time>2011-01-09T13:24:30Z</time>
      </trkpt>
      <trkpt lat="46.3321" lon="-0.30183">
        <ele>97.931</ele>
        <time>2011-01-09T13:24:31Z</time>
      </trkpt>
      <trkpt lat="46.33211" lon="-0.30181">
        <ele>97.9374</ele>
        <time>2011-01-09T13:24:32Z</time>
      </trkpt>
      <trkpt lat="46.3321" lon="-0.30179">
        <ele>97.9444</ele>
        <time>2011-01-09T13:24:33Z</time>
      </trkpt>
      <trkpt lat="46.3321" lon="-0.30178">
        <ele>97.9505</ele>
        <time>2011-01-09T13:24:34Z</time>
      </trkpt>
      <trkpt lat="46.3321" lon="-0.30176">
        <ele>97.9593</ele>
        <time>2011-01-09T13:24:35Z</time>
      </trkpt>
      <trkpt lat="46.33211" lon="-0.30174">
        <ele>97.969</ele>
        <time>2011-01-09T13:24:36Z</time>
      </trkpt>
      <trkpt lat="46.33211" lon="-0.30172">
        <ele>97.9797</ele>
        <time>2011-01-09T13:24:37Z</time>
      </trkpt>
      <trkpt lat="46.3321" lon="-0.3017">
        <ele>97.9917</ele>
        <time>2011-01-09T13:24:38Z</time>
      </trkpt>
      <trkpt lat="46.3321" lon="-0.30169">
        <ele>98.005</ele>
        <time>2011-01-09T13:24:39Z</time>
      </trkpt>
      <trkpt lat="46.3321" lon="-0.30168">
        <ele>98.0192</ele>
        <time>2011-01-09T13:24:41Z</time>
      </trkpt>
      <trkpt lat="46.3321" lon="-0.30167">
        <ele>98.0331</ele>
        <time>2011-01-09T13:24:42Z</time>
      </trkpt>
      <trkpt lat="46.3321" lon="-0.30167">
        <ele>98.0479</ele>
        <time>2011-01-09T13:24:43Z</time>
      </trkpt>
      <trkpt lat="46.3321" lon="-0.30165">
        <ele>98.0625</ele>
        <time>2011-01-09T13:24:44Z</time>
      </trkpt>
      <trkpt lat="46.3321" lon="-0.30164">
        <ele>98.0768</ele>
        <time>2011-01-09T13:24:45Z</time>
      </trkpt>
      <trkpt lat="46.3321" lon="-0.30162">
        <ele>98.0923</ele>
        <time>2011-01-09T13:24:46Z</time>
      </trkpt>
      <trkpt lat="46.3321" lon="-0.30161">
        <ele>98.1078</ele>
        <time>2011-01-09T13:24:47Z</time>
      </trkpt>
      <trkpt lat="46.3321" lon="-0.30159">
        <ele>98.1234</ele>
        <time>2011-01-09T13:24:48Z</time>
      </trkpt>
      <trkpt lat="46.3321" lon="-0.30157">
        <ele>98.1406</ele>
        <time>2011-01-09T13:24:49Z</time>
      </trkpt>
      <trkpt lat="46.33211" lon="-0.30156">
        <ele>98.1573</ele>
        <time>2011-01-09T13:24:50Z</time>
      </trkpt>
      <trkpt lat="46.33211" lon="-0.30154">
        <ele>98.1728</ele>
        <time>2011-01-09T13:24:51Z</time>
      </trkpt>
      <trkpt lat="46.33211" lon="-0.30153">
        <ele>98.1861</ele>
        <time>2011-01-09T13:24:52Z</time>
      </trkpt>
      <trkpt lat="46.33211" lon="-0.30152">
        <ele>98.1969</ele>
        <time>2011-01-09T13:24:53Z</time>
      </trkpt>
      <trkpt lat="46.3321" lon="-0.30151">
        <ele>98.2058</ele>
        <time>2011-01-09T13:24:54Z</time>
      </trkpt>
      <trkpt lat="46.3321" lon="-0.3015">
        <ele>98.2137</ele>
        <time>2011-01-09T13:24:55Z</time>
      </trkpt>
      <trkpt lat="46.3321" lon="-0.30148">
        <ele>98.2207</ele>
        <time>2011-01-09T13:24:56Z</time>
      </trkpt>
      <trkpt lat="46.3321" lon="-0.30146">
        <ele>98.2259</ele>
        <time>2011-01-09T13:24:57Z</time>
      </trkpt>
      <trkpt lat="46.3321" lon="-0.30144">
        <ele>98.232</ele>
        <time>2011-01-09T13:24:58Z</time>
      </trkpt>
      <trkpt lat="46.3321" lon="-0.30143">
        <ele>98.2396</ele>
        <time>2011-01-09T13:24:59Z</time>
      </trkpt>
      <trkpt lat="46.3321" lon="-0.30141">
        <ele>98.2488</ele>
        <time>2011-01-09T13:25:00Z</time>
      </trkpt>
      <trkpt lat="46.33211" lon="-0.3014">
        <ele>98.2611</ele>
        <time>2011-01-09T13:25:01Z</time>
      </trkpt>
      <trkpt lat="46.33211" lon="-0.30137">
        <ele>98.2756</ele>
        <time>2011-01-09T13:25:02Z</time>
      </trkpt>
      <trkpt lat="46.33212" lon="-0.30135">
        <ele>98.2911</ele>
        <time>2011-01-09T13:25:03Z</time>
      </trkpt>
      <trkpt lat="46.33212" lon="-0.30133">
        <ele>98.3083</ele>
        <time>2011-01-09T13:25:04Z</time>
      </trkpt>
      <trkpt lat="46.33212" lon="-0.30131">
        <ele>98.325</ele>
        <time>2011-01-09T13:25:05Z</time>
      </trkpt>
      <trkpt lat="46.33212" lon="-0.30129">
        <ele>98.34</ele>
        <time>2011-01-09T13:25:06Z</time>
      </trkpt>
      <trkpt lat="46.33213" lon="-0.30127">
        <ele>98.3536</ele>
        <time>2011-01-09T13:25:07Z</time>
      </trkpt>
      <trkpt lat="46.33212" lon="-0.30126">
        <ele>98.3656</ele>
        <time>2011-01-09T13:25:08Z</time>
      </trkpt>
      <trkpt lat="46.33212" lon="-0.30125">
        <ele>98.3754</ele>
        <time>2011-01-09T13:25:09Z</time>
      </trkpt>
      <trkpt lat="46.33213" lon="-0.30123">
        <ele>98.3843</ele>
        <time>2011-01-09T13:25:10Z</time>
      </trkpt>
      <trkpt lat="46.33213" lon="-0.30122">
        <ele>98.3936</ele>
        <time>2011-01-09T13:25:11Z</time>
      </trkpt>
      <trkpt lat="46.33213" lon="-0.30121">
        <ele>98.4018</ele>
        <time>2011-01-09T13:25:12Z</time>
      </trkpt>
      <trkpt lat="46.33213" lon="-0.30119">
        <ele>98.4064</ele>
        <time>2011-01-09T13:25:13Z</time>
      </trkpt>
      <trkpt lat="46.33213" lon="-0.30118">
        <ele>98.4107</ele>
        <time>2011-01-09T13:25:14Z</time>
      </trkpt>
      <trkpt lat="46.33214" lon="-0.30116">
        <ele>98.411</ele>
        <time>2011-01-09T13:25:15Z</time>
      </trkpt>
      <trkpt lat="46.33214" lon="-0.30115">
        <ele>98.4084</ele>
        <time>2011-01-09T13:25:16Z</time>
      </trkpt>
      <trkpt lat="46.33213" lon="-0.30114">
        <ele>98.4064</ele>
        <time>2011-01-09T13:25:17Z</time>
      </trkpt>
      <trkpt lat="46.33213" lon="-0.30112">
        <ele>98.3987</ele>
        <time>2011-01-09T13:25:18Z</time>
      </trkpt>
      <trkpt lat="46.33213" lon="-0.30111">
        <ele>98.392</ele>
        <time>2011-01-09T13:25:19Z</time>
      </trkpt>
      <trkpt lat="46.33213" lon="-0.30109">
        <ele>98.3872</ele>
        <time>2011-01-09T13:25:20Z</time>
      </trkpt>
      <trkpt lat="46.33213" lon="-0.30107">
        <ele>98.3786</ele>
        <time>2011-01-09T13:25:21Z</time>
      </trkpt>
      <trkpt lat="46.33213" lon="-0.30106">
        <ele>98.3688</ele>
        <time>2011-01-09T13:25:22Z</time>
      </trkpt>
      <trkpt lat="46.33213" lon="-0.30104">
        <ele>98.3602</ele>
        <time>2011-01-09T13:25:23Z</time>
      </trkpt>
      <trkpt lat="46.33214" lon="-0.30103">
        <ele>98.3541</ele>
        <time>2011-01-09T13:25:24Z</time>
      </trkpt>
      <trkpt lat="46.33214" lon="-0.30101">
        <ele>98.3475</ele>
        <time>2011-01-09T13:25:25Z</time>
      </trkpt>
      <trkpt lat="46.33214" lon="-0.301">
        <ele>98.3413</ele>
        <time>2011-01-09T13:25:26Z</time>
      </trkpt>
      <trkpt lat="46.33214" lon="-0.30098">
        <ele>98.3324</ele>
        <time>2011-01-09T13:25:27Z</time>
      </trkpt>
      <trkpt lat="46.33214" lon="-0.30096">
        <ele>98.3222</ele>
        <time>2011-01-09T13:25:28Z</time>
      </trkpt>
      <trkpt lat="46.33214" lon="-0.30095">
        <ele>98.3143</ele>
        <time>2011-01-09T13:25:29Z</time>
      </trkpt>
      <trkpt lat="46.33214" lon="-0.30093">
        <ele>98.3081</ele>
        <time>2011-01-09T13:25:30Z</time>
      </trkpt>
      <trkpt lat="46.33214" lon="-0.30092">
        <ele>98.3037</ele>
        <time>2011-01-09T13:25:31Z</time>
      </trkpt>
      <trkpt lat="46.33215" lon="-0.3009">
        <ele>98.2997</ele>
        <time>2011-01-09T13:25:32Z</time>
      </trkpt>
      <trkpt lat="46.33214" lon="-0.30089">
        <ele>98.2971</ele>
        <time>2011-01-09T13:25:33Z</time>
      </trkpt>
      <trkpt lat="46.33215" lon="-0.30087">
        <ele>98.2954</ele>
        <time>2011-01-09T13:25:34Z</time>
      </trkpt>
      <trkpt lat="46.33215" lon="-0.30086">
        <ele>98.2926</ele>
        <time>2011-01-09T13:25:35Z</time>
      </trkpt>
      <trkpt lat="46.33215" lon="-0.30084">
        <ele>98.2893</ele>
        <time>2011-01-09T13:25:36Z</time>
      </trkpt>
      <trkpt lat="46.33215" lon="-0.30082">
        <ele>98.2855</ele>
        <time>2011-01-09T13:25:37Z</time>
      </trkpt>
      <trkpt lat="46.33215" lon="-0.30081">
        <ele>98.281</ele>
        <time>2011-01-09T13:25:38Z</time>
      </trkpt>
      <trkpt lat="46.33215" lon="-0.30079">
        <ele>98.2777</ele>
        <time>2011-01-09T13:25:39Z</time>
      </trkpt>
      <trkpt lat="46.33216" lon="-0.30077">
        <ele>98.2746</ele>
        <time>2011-01-09T13:25:40Z</time>
      </trkpt>
      <trkpt lat="46.33216" lon="-0.30076">
        <ele>98.2712</ele>
        <time>2011-01-09T13:25:41Z</time>
      </trkpt>
      <trkpt lat="46.33216" lon="-0.30074">
        <ele>98.2672</ele>
        <time>2011-01-09T13:25:42Z</time>
      </trkpt>
      <trkpt lat="46.33216" lon="-0.30073">
        <ele>98.2621</ele>
        <time>2011-01-09T13:25:43Z</time>
      </trkpt>
      <trkpt lat="46.33216" lon="-0.30071">
        <ele>98.2564</ele>
        <time>2011-01-09T13:25:44Z</time>
      </trkpt>
      <trkpt lat="46.33216" lon="-0.3007">
        <ele>98.2508</ele>
        <time>2011-01-09T13:25:45Z</time>
      </trkpt>
      <trkpt lat="46.33216" lon="-0.30068">
        <ele>98.2443</ele>
        <time>2011-01-09T13:25:46Z</time>
      </trkpt>
      <trkpt lat="46.33215" lon="-0.30067">
        <ele>98.2391</ele>
        <time>2011-01-09T13:25:47Z</time>
      </trkpt>
      <trkpt lat="46.33215" lon="-0.30065">
        <ele>98.2358</ele>
        <time>2011-01-09T13:25:48Z</time>
      </trkpt>
      <trkpt lat="46.33215" lon="-0.30064">
        <ele>98.2354</ele>
        <time>2011-01-09T13:25:49Z</time>
      </trkpt>
      <trkpt lat="46.33215" lon="-0.30063">
        <ele>98.2363</ele>
        <time>2011-01-09T13:25:50Z</time>
      </trkpt>
      <trkpt lat="46.33215" lon="-0.30061">
        <ele>98.2382</ele>
        <time>2011-01-09T13:25:51Z</time>
      </trkpt>
      <trkpt lat="46.33215" lon="-0.30059">
        <ele>98.2408</ele>
        <time>2011-01-09T13:25:52Z</time>
      </trkpt>
      <trkpt lat="46.33215" lon="-0.30058">
        <ele>98.2427</ele>
        <time>2011-01-09T13:25:53Z</time>
      </trkpt>
      <trkpt lat="46.33215" lon="-0.30056">
        <ele>98.2446</ele>
        <time>2011-01-09T13:25:54Z</time>
      </trkpt>
      <trkpt lat="46.33215" lon="-0.30055">
        <ele>98.2461</ele>
        <time>2011-01-09T13:25:55Z</time>
      </trkpt>
      <trkpt lat="46.33215" lon="-0.30053">
        <ele>98.2482</ele>
        <time>2011-01-09T13:25:56Z</time>
      </trkpt>
      <trkpt lat="46.33215" lon="-0.30052">
        <ele>98.2511</ele>
        <time>2011-01-09T13:25:57Z</time>
      </trkpt>
      <trkpt lat="46.33215" lon="-0.3005">
        <ele>98.2545</ele>
        <time>2011-01-09T13:25:58Z</time>
      </trkpt>
      <trkpt lat="46.33215" lon="-0.30048">
        <ele>98.2592</ele>
        <time>2011-01-09T13:25:59Z</time>
      </trkpt>
      <trkpt lat="46.33215" lon="-0.30047">
        <ele>98.2642</ele>
        <time>2011-01-09T13:26:00Z</time>
      </trkpt>
      <trkpt lat="46.33214" lon="-0.30046">
        <ele>98.2691</ele>
        <time>2011-01-09T13:26:01Z</time>
      </trkpt>
      <trkpt lat="46.33214" lon="-0.30045">
        <ele>98.2756</ele>
        <time>2011-01-09T13:26:02Z</time>
      </trkpt>
      <trkpt lat="46.33214" lon="-0.30044">
        <ele>98.2818</ele>
        <time>2011-01-09T13:26:03Z</time>
      </trkpt>
      <trkpt lat="46.33215" lon="-0.30044">
        <ele>98.2893</ele>
        <time>2011-01-09T13:26:04Z</time>
      </trkpt>
      <trkpt lat="46.33215" lon="-0.30049">
        <ele>98.2168</ele>
        <time>2011-01-09T13:26:27Z</time>
      </trkpt>
      <trkpt lat="46.33215" lon="-0.30049">
        <ele>98.3256</ele>
        <time>2011-01-09T13:26:28Z</time>
      </trkpt>
      <trkpt lat="46.33215" lon="-0.30049">
        <ele>98.3256</ele>
        <time>2011-01-09T13:26:29Z</time>
      </trkpt>
      <trkpt lat="46.33215" lon="-0.30047">
        <ele>98.4244</ele>
        <time>2011-01-09T13:26:30Z</time>
      </trkpt>
      <trkpt lat="46.33215" lon="-0.30046">
        <ele>98.5196</ele>
        <time>2011-01-09T13:26:31Z</time>
      </trkpt>
      <trkpt lat="46.33215" lon="-0.30046">
        <ele>98.6077</ele>
        <time>2011-01-09T13:26:32Z</time>
      </trkpt>
      <trkpt lat="46.33215" lon="-0.30045">
        <ele>98.6677</ele>
        <time>2011-01-09T13:26:33Z</time>
      </trkpt>
      <trkpt lat="46.33215" lon="-0.30044">
        <ele>98.7049</ele>
        <time>2011-01-09T13:26:34Z</time>
      </trkpt>
      <trkpt lat="46.33215" lon="-0.30043">
        <ele>98.7365</ele>
        <time>2011-01-09T13:26:35Z</time>
      </trkpt>
      <trkpt lat="46.33215" lon="-0.30038">
        <ele>98.8855</ele>
        <time>2011-01-09T13:26:48Z</time>
      </trkpt>
      <trkpt lat="46.33215" lon="-0.30035">
        <ele>98.9501</ele>
        <time>2011-01-09T13:26:50Z</time>
      </trkpt>
      <trkpt lat="46.33215" lon="-0.30033">
        <ele>98.9854</ele>
        <time>2011-01-09T13:26:51Z</time>
      </trkpt>
      <trkpt lat="46.33214" lon="-0.3003">
        <ele>99.0247</ele>
        <time>2011-01-09T13:26:52Z</time>
      </trkpt>
      <trkpt lat="46.33214" lon="-0.30028">
        <ele>99.0591</ele>
        <time>2011-01-09T13:26:53Z</time>
      </trkpt>
      <trkpt lat="46.33215" lon="-0.30026">
        <ele>99.0896</ele>
        <time>2011-01-09T13:26:54Z</time>
      </trkpt>
      <trkpt lat="46.33215" lon="-0.30024">
        <ele>99.1179</ele>
        <time>2011-01-09T13:26:55Z</time>
      </trkpt>
      <trkpt lat="46.33215" lon="-0.30021">
        <ele>99.148</ele>
        <time>2011-01-09T13:26:56Z</time>
      </trkpt>
      <trkpt lat="46.33215" lon="-0.30019">
        <ele>99.1846</ele>
        <time>2011-01-09T13:26:57Z</time>
      </trkpt>
      <trkpt lat="46.33215" lon="-0.30016">
        <ele>99.2267</ele>
        <time>2011-01-09T13:26:58Z</time>
      </trkpt>
      <trkpt lat="46.33215" lon="-0.30014">
        <ele>99.2649</ele>
        <time>2011-01-09T13:26:59Z</time>
      </trkpt>
      <trkpt lat="46.33215" lon="-0.30011">
        <ele>99.306</ele>
        <time>2011-01-09T13:27:00Z</time>
      </trkpt>
      <trkpt lat="46.33215" lon="-0.30009">
        <ele>99.3422</ele>
        <time>2011-01-09T13:27:01Z</time>
      </trkpt>
      <trkpt lat="46.33215" lon="-0.30007">
        <ele>99.3784</ele>
        <time>2011-01-09T13:27:02Z</time>
      </trkpt>
      <trkpt lat="46.33215" lon="-0.30005">
        <ele>99.4128</ele>
        <time>2011-01-09T13:27:03Z</time>
      </trkpt>
      <trkpt lat="46.33216" lon="-0.30003">
        <ele>99.4468</ele>
        <time>2011-01-09T13:27:04Z</time>
      </trkpt>
      <trkpt lat="46.33217" lon="-0.30002">
        <ele>99.4541</ele>
        <time>2011-01-09T13:27:05Z</time>
      </trkpt>
      <trkpt lat="46.33217" lon="-0.3">
        <ele>99.4598</ele>
        <time>2011-01-09T13:27:06Z</time>
      </trkpt>
      <trkpt lat="46.33217" lon="-0.29998">
        <ele>99.4642</ele>
        <time>2011-01-09T13:27:07Z</time>
      </trkpt>
      <trkpt lat="46.33217" lon="-0.29996">
        <ele>99.4659</ele>
        <time>2011-01-09T13:27:08Z</time>
      </trkpt>
      <trkpt lat="46.33217" lon="-0.29994">
        <ele>99.4676</ele>
        <time>2011-01-09T13:27:09Z</time>
      </trkpt>
      <trkpt lat="46.33217" lon="-0.29992">
        <ele>99.4675</ele>
        <time>2011-01-09T13:27:10Z</time>
      </trkpt>
      <trkpt lat="46.33217" lon="-0.2999">
        <ele>99.4647</ele>
        <time>2011-01-09T13:27:11Z</time>
      </trkpt>
      <trkpt lat="46.33217" lon="-0.29988">
        <ele>99.4539</ele>
        <time>2011-01-09T13:27:12Z</time>
      </trkpt>
      <trkpt lat="46.33217" lon="-0.29986">
        <ele>99.4473</ele>
        <time>2011-01-09T13:27:13Z</time>
      </trkpt>
      <trkpt lat="46.33217" lon="-0.29984">
        <ele>99.4424</ele>
        <time>2011-01-09T13:27:14Z</time>
      </trkpt>
      <trkpt lat="46.33217" lon="-0.29983">
        <ele>99.4352</ele>
        <time>2011-01-09T13:27:15Z</time>
      </trkpt>
      <trkpt lat="46.33217" lon="-0.29981">
        <ele>99.4276</ele>
        <time>2011-01-09T13:27:16Z</time>
      </trkpt>
      <trkpt lat="46.33217" lon="-0.2998">
        <ele>99.4242</ele>
        <time>2011-01-09T13:27:17Z</time>
      </trkpt>
      <trkpt lat="46.33217" lon="-0.29978">
        <ele>99.4271</ele>
        <time>2011-01-09T13:27:18Z</time>
      </trkpt>
      <trkpt lat="46.33217" lon="-0.29977">
        <ele>99.4333</ele>
        <time>2011-01-09T13:27:19Z</time>
      </trkpt>
      <trkpt lat="46.33217" lon="-0.29976">
        <ele>99.4404</ele>
        <time>2011-01-09T13:27:20Z</time>
      </trkpt>
      <trkpt lat="46.33217" lon="-0.29974">
        <ele>99.453</ele>
        <time>2011-01-09T13:27:21Z</time>
      </trkpt>
      <trkpt lat="46.33217" lon="-0.29972">
        <ele>99.4669</ele>
        <time>2011-01-09T13:27:22Z</time>
      </trkpt>
      <trkpt lat="46.33218" lon="-0.29971">
        <ele>99.4861</ele>
        <time>2011-01-09T13:27:23Z</time>
      </trkpt>
      <trkpt lat="46.33218" lon="-0.29969">
        <ele>99.5107</ele>
        <time>2011-01-09T13:27:24Z</time>
      </trkpt>
      <trkpt lat="46.33218" lon="-0.29967">
        <ele>99.5338</ele>
        <time>2011-01-09T13:27:25Z</time>
      </trkpt>
      <trkpt lat="46.33218" lon="-0.29965">
        <ele>99.5592</ele>
        <time>2011-01-09T13:27:26Z</time>
      </trkpt>
      <trkpt lat="46.33218" lon="-0.29963">
        <ele>99.5904</ele>
        <time>2011-01-09T13:27:27Z</time>
      </trkpt>
      <trkpt lat="46.33218" lon="-0.29961">
        <ele>99.6222</ele>
        <time>2011-01-09T13:27:28Z</time>
      </trkpt>
      <trkpt lat="46.33217" lon="-0.29959">
        <ele>99.6555</ele>
        <time>2011-01-09T13:27:29Z</time>
      </trkpt>
      <trkpt lat="46.33217" lon="-0.29957">
        <ele>99.6919</ele>
        <time>2011-01-09T13:27:30Z</time>
      </trkpt>
      <trkpt lat="46.33217" lon="-0.29955">
        <ele>99.7289</ele>
        <time>2011-01-09T13:27:31Z</time>
      </trkpt>
      <trkpt lat="46.33217" lon="-0.29953">
        <ele>99.7655</ele>
        <time>2011-01-09T13:27:32Z</time>
      </trkpt>
      <trkpt lat="46.33217" lon="-0.29951">
        <ele>99.8072</ele>
        <time>2011-01-09T13:27:33Z</time>
      </trkpt>
      <trkpt lat="46.33217" lon="-0.29949">
        <ele>99.8494</ele>
        <time>2011-01-09T13:27:34Z</time>
      </trkpt>
      <trkpt lat="46.33218" lon="-0.29947">
        <ele>99.8916</ele>
        <time>2011-01-09T13:27:35Z</time>
      </trkpt>
      <trkpt lat="46.33218" lon="-0.29946">
        <ele>99.937</ele>
        <time>2011-01-09T13:27:36Z</time>
      </trkpt>
      <trkpt lat="46.33218" lon="-0.29945">
        <ele>99.9822</ele>
        <time>2011-01-09T13:27:37Z</time>
      </trkpt>
      <trkpt lat="46.33218" lon="-0.29943">
        <ele>100.027</ele>
        <time>2011-01-09T13:27:38Z</time>
      </trkpt>
      <trkpt lat="46.33219" lon="-0.29942">
        <ele>100.0693</ele>
        <time>2011-01-09T13:27:39Z</time>
      </trkpt>
      <trkpt lat="46.33219" lon="-0.29941">
        <ele>100.1118</ele>
        <time>2011-01-09T13:27:40Z</time>
      </trkpt>
      <trkpt lat="46.33219" lon="-0.29939">
        <ele>100.1555</ele>
        <time>2011-01-09T13:27:41Z</time>
      </trkpt>
      <trkpt lat="46.33218" lon="-0.29938">
        <ele>100.1996</ele>
        <time>2011-01-09T13:27:42Z</time>
      </trkpt>
      <trkpt lat="46.33218" lon="-0.29936">
        <ele>100.2431</ele>
        <time>2011-01-09T13:27:43Z</time>
      </trkpt>
      <trkpt lat="46.33218" lon="-0.29935">
        <ele>100.2855</ele>
        <time>2011-01-09T13:27:44Z</time>
      </trkpt>
      <trkpt lat="46.33218" lon="-0.29934">
        <ele>100.3255</ele>
        <time>2011-01-09T13:27:45Z</time>
      </trkpt>
      <trkpt lat="46.33218" lon="-0.29933">
        <ele>100.3629</ele>
        <time>2011-01-09T13:27:46Z</time>
      </trkpt>
      <trkpt lat="46.33218" lon="-0.29931">
        <ele>100.3981</ele>
        <time>2011-01-09T13:27:47Z</time>
      </trkpt>
      <trkpt lat="46.33218" lon="-0.2993">
        <ele>100.431</ele>
        <time>2011-01-09T13:27:48Z</time>
      </trkpt>
      <trkpt lat="46.33217" lon="-0.29929">
        <ele>100.489</ele>
        <time>2011-01-09T13:27:51Z</time>
      </trkpt>
      <trkpt lat="46.33217" lon="-0.2993">
        <ele>100.5138</ele>
        <time>2011-01-09T13:27:52Z</time>
      </trkpt>
      <trkpt lat="46.33216" lon="-0.29931">
        <ele>100.5371</ele>
        <time>2011-01-09T13:27:53Z</time>
      </trkpt>
      <trkpt lat="46.33215" lon="-0.29932">
        <ele>100.5588</ele>
        <time>2011-01-09T13:27:54Z</time>
      </trkpt>
      <trkpt lat="46.33215" lon="-0.29933">
        <ele>100.5775</ele>
        <time>2011-01-09T13:27:55Z</time>
      </trkpt>
      <trkpt lat="46.33213" lon="-0.29935">
        <ele>100.5976</ele>
        <time>2011-01-09T13:27:56Z</time>
      </trkpt>
      <trkpt lat="46.33213" lon="-0.29936">
        <ele>100.6185</ele>
        <time>2011-01-09T13:27:57Z</time>
      </trkpt>
      <trkpt lat="46.33212" lon="-0.29938">
        <ele>100.6393</ele>
        <time>2011-01-09T13:27:58Z</time>
      </trkpt>
      <trkpt lat="46.33212" lon="-0.29938">
        <ele>100.6614</ele>
        <time>2011-01-09T13:27:59Z</time>
      </trkpt>
      <trkpt lat="46.33212" lon="-0.29939">
        <ele>100.6837</ele>
        <time>2011-01-09T13:28:00Z</time>
      </trkpt>
      <trkpt lat="46.33212" lon="-0.2994">
        <ele>100.7309</ele>
        <time>2011-01-09T13:28:03Z</time>
      </trkpt>
      <trkpt lat="46.33212" lon="-0.29939">
        <ele>100.7528</ele>
        <time>2011-01-09T13:28:04Z</time>
      </trkpt>
      <trkpt lat="46.33213" lon="-0.29938">
        <ele>100.7731</ele>
        <time>2011-01-09T13:28:05Z</time>
      </trkpt>
      <trkpt lat="46.33214" lon="-0.29937">
        <ele>100.7928</ele>
        <time>2011-01-09T13:28:06Z</time>
      </trkpt>
      <trkpt lat="46.33215" lon="-0.29935">
        <ele>100.814</ele>
        <time>2011-01-09T13:28:07Z</time>
      </trkpt>
      <trkpt lat="46.33217" lon="-0.29934">
        <ele>100.8359</ele>
        <time>2011-01-09T13:28:08Z</time>
      </trkpt>
      <trkpt lat="46.33217" lon="-0.29932">
        <ele>100.8583</ele>
        <time>2011-01-09T13:28:09Z</time>
      </trkpt>
      <trkpt lat="46.33218" lon="-0.2993">
        <ele>100.8798</ele>
        <time>2011-01-09T13:28:10Z</time>
      </trkpt>
      <trkpt lat="46.33218" lon="-0.29928">
        <ele>100.8994</ele>
        <time>2011-01-09T13:28:11Z</time>
      </trkpt>
      <trkpt lat="46.33219" lon="-0.29926">
        <ele>100.9184</ele>
        <time>2011-01-09T13:28:12Z</time>
      </trkpt>
      <trkpt lat="46.33219" lon="-0.29924">
        <ele>100.9364</ele>
        <time>2011-01-09T13:28:13Z</time>
      </trkpt>
      <trkpt lat="46.33219" lon="-0.29922">
        <ele>100.955</ele>
        <time>2011-01-09T13:28:14Z</time>
      </trkpt>
      <trkpt lat="46.33219" lon="-0.2992">
        <ele>100.9728</ele>
        <time>2011-01-09T13:28:15Z</time>
      </trkpt>
      <trkpt lat="46.33219" lon="-0.29918">
        <ele>100.9906</ele>
        <time>2011-01-09T13:28:16Z</time>
      </trkpt>
      <trkpt lat="46.33219" lon="-0.29917">
        <ele>101.005</ele>
        <time>2011-01-09T13:28:17Z</time>
      </trkpt>
      <trkpt lat="46.33219" lon="-0.29915">
        <ele>101.0164</ele>
        <time>2011-01-09T13:28:18Z</time>
      </trkpt>
      <trkpt lat="46.33219" lon="-0.29913">
        <ele>101.0275</ele>
        <time>2011-01-09T13:28:19Z</time>
      </trkpt>
      <trkpt lat="46.33219" lon="-0.29911">
        <ele>101.0368</ele>
        <time>2011-01-09T13:28:20Z</time>
      </trkpt>
      <trkpt lat="46.33219" lon="-0.2991">
        <ele>101.0447</ele>
        <time>2011-01-09T13:28:21Z</time>
      </trkpt>
      <trkpt lat="46.33219" lon="-0.29908">
        <ele>101.0489</ele>
        <time>2011-01-09T13:28:22Z</time>
      </trkpt>
      <trkpt lat="46.33218" lon="-0.29906">
        <ele>101.0516</ele>
        <time>2011-01-09T13:28:23Z</time>
      </trkpt>
      <trkpt lat="46.33218" lon="-0.29904">
        <ele>101.0525</ele>
        <time>2011-01-09T13:28:24Z</time>
      </trkpt>
      <trkpt lat="46.33218" lon="-0.29902">
        <ele>101.052</ele>
        <time>2011-01-09T13:28:25Z</time>
      </trkpt>
      <trkpt lat="46.33218" lon="-0.29901">
        <ele>101.0513</ele>
        <time>2011-01-09T13:28:26Z</time>
      </trkpt>
      <trkpt lat="46.33218" lon="-0.29899">
        <ele>101.0504</ele>
        <time>2011-01-09T13:28:27Z</time>
      </trkpt>
      <trkpt lat="46.33218" lon="-0.29897">
        <ele>101.0487</ele>
        <time>2011-01-09T13:28:28Z</time>
      </trkpt>
      <trkpt lat="46.33218" lon="-0.29896">
        <ele>101.0481</ele>
        <time>2011-01-09T13:28:29Z</time>
      </trkpt>
      <trkpt lat="46.33218" lon="-0.29894">
        <ele>101.0475</ele>
        <time>2011-01-09T13:28:30Z</time>
      </trkpt>
      <trkpt lat="46.33218" lon="-0.29892">
        <ele>101.0453</ele>
        <time>2011-01-09T13:28:31Z</time>
      </trkpt>
      <trkpt lat="46.33218" lon="-0.29891">
        <ele>101.0463</ele>
        <time>2011-01-09T13:28:32Z</time>
      </trkpt>
      <trkpt lat="46.33218" lon="-0.29889">
        <ele>101.0512</ele>
        <time>2011-01-09T13:28:33Z</time>
      </trkpt>
      <trkpt lat="46.33217" lon="-0.29888">
        <ele>101.0596</ele>
        <time>2011-01-09T13:28:34Z</time>
      </trkpt>
      <trkpt lat="46.33217" lon="-0.29887">
        <ele>101.07</ele>
        <time>2011-01-09T13:28:35Z</time>
      </trkpt>
      <trkpt lat="46.33217" lon="-0.29887">
        <ele>101.0822</ele>
        <time>2011-01-09T13:28:36Z</time>
      </trkpt>
      <trkpt lat="46.33217" lon="-0.29886">
        <ele>101.0953</ele>
        <time>2011-01-09T13:28:37Z</time>
      </trkpt>
      <trkpt lat="46.33217" lon="-0.29886">
        <ele>101.108</ele>
        <time>2011-01-09T13:28:38Z</time>
      </trkpt>
      <trkpt lat="46.33217" lon="-0.29886">
        <ele>101.1233</ele>
        <time>2011-01-09T13:28:39Z</time>
      </trkpt>
      <trkpt lat="46.33217" lon="-0.29885">
        <ele>101.1599</ele>
        <time>2011-01-09T13:28:42Z</time>
      </trkpt>
      <trkpt lat="46.33217" lon="-0.29884">
        <ele>101.1756</ele>
        <time>2011-01-09T13:28:43Z</time>
      </trkpt>
      <trkpt lat="46.33217" lon="-0.29883">
        <ele>101.1917</ele>
        <time>2011-01-09T13:28:44Z</time>
      </trkpt>
      <trkpt lat="46.33217" lon="-0.29882">
        <ele>101.2084</ele>
        <time>2011-01-09T13:28:45Z</time>
      </trkpt>
      <trkpt lat="46.33217" lon="-0.29881">
        <ele>101.2254</ele>
        <time>2011-01-09T13:28:46Z</time>
      </trkpt>
      <trkpt lat="46.33217" lon="-0.29879">
        <ele>101.2405</ele>
        <time>2011-01-09T13:28:47Z</time>
      </trkpt>
      <trkpt lat="46.33217" lon="-0.29877">
        <ele>101.255</ele>
        <time>2011-01-09T13:28:48Z</time>
      </trkpt>
      <trkpt lat="46.33217" lon="-0.29876">
        <ele>101.266</ele>
        <time>2011-01-09T13:28:49Z</time>
      </trkpt>
      <trkpt lat="46.33217" lon="-0.29874">
        <ele>101.2727</ele>
        <time>2011-01-09T13:28:50Z</time>
      </trkpt>
      <trkpt lat="46.33217" lon="-0.29872">
        <ele>101.2773</ele>
        <time>2011-01-09T13:28:51Z</time>
      </trkpt>
      <trkpt lat="46.33218" lon="-0.29871">
        <ele>101.2812</ele>
        <time>2011-01-09T13:28:52Z</time>
      </trkpt>
      <trkpt lat="46.33218" lon="-0.29869">
        <ele>101.2823</ele>
        <time>2011-01-09T13:28:53Z</time>
      </trkpt>
      <trkpt lat="46.33218" lon="-0.29867">
        <ele>101.2813</ele>
        <time>2011-01-09T13:28:54Z</time>
      </trkpt>
      <trkpt lat="46.33217" lon="-0.29865">
        <ele>101.2802</ele>
        <time>2011-01-09T13:28:55Z</time>
      </trkpt>
      <trkpt lat="46.33217" lon="-0.29864">
        <ele>101.2784</ele>
        <time>2011-01-09T13:28:56Z</time>
      </trkpt>
      <trkpt lat="46.33217" lon="-0.29862">
        <ele>101.2782</ele>
        <time>2011-01-09T13:28:57Z</time>
      </trkpt>
      <trkpt lat="46.33217" lon="-0.2986">
        <ele>101.2785</ele>
        <time>2011-01-09T13:28:58Z</time>
      </trkpt>
      <trkpt lat="46.33217" lon="-0.29859">
        <ele>101.2799</ele>
        <time>2011-01-09T13:28:59Z</time>
      </trkpt>
      <trkpt lat="46.33217" lon="-0.29857">
        <ele>101.2814</ele>
        <time>2011-01-09T13:29:00Z</time>
      </trkpt>
      <trkpt lat="46.33217" lon="-0.29855">
        <ele>101.2804</ele>
        <time>2011-01-09T13:29:01Z</time>
      </trkpt>
      <trkpt lat="46.33217" lon="-0.29853">
        <ele>101.2767</ele>
        <time>2011-01-09T13:29:02Z</time>
      </trkpt>
      <trkpt lat="46.33216" lon="-0.29852">
        <ele>101.2719</ele>
        <time>2011-01-09T13:29:03Z</time>
      </trkpt>
      <trkpt lat="46.33216" lon="-0.2985">
        <ele>101.2652</ele>
        <time>2011-01-09T13:29:04Z</time>
      </trkpt>
      <trkpt lat="46.33217" lon="-0.29848">
        <ele>101.2565</ele>
        <time>2011-01-09T13:29:05Z</time>
      </trkpt>
      <trkpt lat="46.33217" lon="-0.29847">
        <ele>101.2453</ele>
        <time>2011-01-09T13:29:06Z</time>
      </trkpt>
      <trkpt lat="46.33217" lon="-0.29845">
        <ele>101.2321</ele>
        <time>2011-01-09T13:29:07Z</time>
      </trkpt>
      <trkpt lat="46.33217" lon="-0.29843">
        <ele>101.2188</ele>
        <time>2011-01-09T13:29:08Z</time>
      </trkpt>
      <trkpt lat="46.33217" lon="-0.29842">
        <ele>101.2057</ele>
        <time>2011-01-09T13:29:09Z</time>
      </trkpt>
      <trkpt lat="46.33217" lon="-0.2984">
        <ele>101.1927</ele>
        <time>2011-01-09T13:29:10Z</time>
      </trkpt>
      <trkpt lat="46.33217" lon="-0.29838">
        <ele>101.1792</ele>
        <time>2011-01-09T13:29:11Z</time>
      </trkpt>
      <trkpt lat="46.33217" lon="-0.29837">
        <ele>101.1641</ele>
        <time>2011-01-09T13:29:12Z</time>
      </trkpt>
      <trkpt lat="46.33216" lon="-0.29835">
        <ele>101.1487</ele>
        <time>2011-01-09T13:29:13Z</time>
      </trkpt>
      <trkpt lat="46.33216" lon="-0.29833">
        <ele>101.1344</ele>
        <time>2011-01-09T13:29:14Z</time>
      </trkpt>
      <trkpt lat="46.33216" lon="-0.29831">
        <ele>101.1201</ele>
        <time>2011-01-09T13:29:15Z</time>
      </trkpt>
      <trkpt lat="46.33216" lon="-0.29829">
        <ele>101.1067</ele>
        <time>2011-01-09T13:29:16Z</time>
      </trkpt>
      <trkpt lat="46.33216" lon="-0.29827">
        <ele>101.0951</ele>
        <time>2011-01-09T13:29:17Z</time>
      </trkpt>
      <trkpt lat="46.33216" lon="-0.29825">
        <ele>101.0834</ele>
        <time>2011-01-09T13:29:18Z</time>
      </trkpt>
      <trkpt lat="46.33217" lon="-0.29823">
        <ele>101.0703</ele>
        <time>2011-01-09T13:29:19Z</time>
      </trkpt>
      <trkpt lat="46.33217" lon="-0.29822">
        <ele>101.0579</ele>
        <time>2011-01-09T13:29:20Z</time>
      </trkpt>
      <trkpt lat="46.33217" lon="-0.2982">
        <ele>101.0474</ele>
        <time>2011-01-09T13:29:21Z</time>
      </trkpt>
      <trkpt lat="46.33217" lon="-0.29819">
        <ele>101.039</ele>
        <time>2011-01-09T13:29:22Z</time>
      </trkpt>
      <trkpt lat="46.33217" lon="-0.29817">
        <ele>101.0302</ele>
        <time>2011-01-09T13:29:23Z</time>
      </trkpt>
      <trkpt lat="46.33217" lon="-0.29816">
        <ele>101.0191</ele>
        <time>2011-01-09T13:29:24Z</time>
      </trkpt>
      <trkpt lat="46.33218" lon="-0.29814">
        <ele>101.0072</ele>
        <time>2011-01-09T13:29:25Z</time>
      </trkpt>
      <trkpt lat="46.33218" lon="-0.29812">
        <ele>100.9961</ele>
        <time>2011-01-09T13:29:26Z</time>
      </trkpt>
      <trkpt lat="46.33218" lon="-0.29811">
        <ele>100.9869</ele>
        <time>2011-01-09T13:29:27Z</time>
      </trkpt>
      <trkpt lat="46.33217" lon="-0.29811">
        <ele>100.9629</ele>
        <time>2011-01-09T13:29:30Z</time>
      </trkpt>
      <trkpt lat="46.33216" lon="-0.29812">
        <ele>100.95</ele>
        <time>2011-01-09T13:29:31Z</time>
      </trkpt>
      <trkpt lat="46.33216" lon="-0.29812">
        <ele>100.9372</ele>
        <time>2011-01-09T13:29:32Z</time>
      </trkpt>
      <trkpt lat="46.33214" lon="-0.29809">
        <ele>100.8816</ele>
        <time>2011-01-09T13:29:47Z</time>
      </trkpt>
      <trkpt lat="46.33214" lon="-0.29808">
        <ele>100.8705</ele>
        <time>2011-01-09T13:29:48Z</time>
      </trkpt>
      <trkpt lat="46.33214" lon="-0.29806">
        <ele>100.8586</ele>
        <time>2011-01-09T13:29:49Z</time>
      </trkpt>
      <trkpt lat="46.33214" lon="-0.29804">
        <ele>100.8455</ele>
        <time>2011-01-09T13:29:50Z</time>
      </trkpt>
      <trkpt lat="46.33215" lon="-0.29802">
        <ele>100.8321</ele>
        <time>2011-01-09T13:29:51Z</time>
      </trkpt>
      <trkpt lat="46.33215" lon="-0.29801">
        <ele>100.8198</ele>
        <time>2011-01-09T13:29:52Z</time>
      </trkpt>
      <trkpt lat="46.33215" lon="-0.29799">
        <ele>100.8072</ele>
        <time>2011-01-09T13:29:53Z</time>
      </trkpt>
      <trkpt lat="46.33215" lon="-0.29798">
        <ele>100.7943</ele>
        <time>2011-01-09T13:29:54Z</time>
      </trkpt>
      <trkpt lat="46.33215" lon="-0.29797">
        <ele>100.7815</ele>
        <time>2011-01-09T13:29:55Z</time>
      </trkpt>
      <trkpt lat="46.33215" lon="-0.29795">
        <ele>100.7694</ele>
        <time>2011-01-09T13:29:56Z</time>
      </trkpt>
      <trkpt lat="46.33215" lon="-0.29794">
        <ele>100.7573</ele>
        <time>2011-01-09T13:29:57Z</time>
      </trkpt>
      <trkpt lat="46.33215" lon="-0.29793">
        <ele>100.7437</ele>
        <time>2011-01-09T13:29:58Z</time>
      </trkpt>
      <trkpt lat="46.33215" lon="-0.29791">
        <ele>100.7263</ele>
        <time>2011-01-09T13:29:59Z</time>
      </trkpt>
      <trkpt lat="46.33215" lon="-0.2979">
        <ele>100.7055</ele>
        <time>2011-01-09T13:30:00Z</time>
      </trkpt>
      <trkpt lat="46.33215" lon="-0.29788">
        <ele>100.6848</ele>
        <time>2011-01-09T13:30:01Z</time>
      </trkpt>
      <trkpt lat="46.33215" lon="-0.29787">
        <ele>100.6615</ele>
        <time>2011-01-09T13:30:02Z</time>
      </trkpt>
      <trkpt lat="46.33215" lon="-0.29785">
        <ele>100.6366</ele>
        <time>2011-01-09T13:30:03Z</time>
      </trkpt>
      <trkpt lat="46.33215" lon="-0.29784">
        <ele>100.6098</ele>
        <time>2011-01-09T13:30:04Z</time>
      </trkpt>
      <trkpt lat="46.33216" lon="-0.29782">
        <ele>100.584</ele>
        <time>2011-01-09T13:30:05Z</time>
      </trkpt>
      <trkpt lat="46.33215" lon="-0.29781">
        <ele>100.5569</ele>
        <time>2011-01-09T13:30:06Z</time>
      </trkpt>
      <trkpt lat="46.33215" lon="-0.29779">
        <ele>100.5288</ele>
        <time>2011-01-09T13:30:07Z</time>
      </trkpt>
      <trkpt lat="46.33215" lon="-0.29777">
        <ele>100.5014</ele>
        <time>2011-01-09T13:30:08Z</time>
      </trkpt>
      <trkpt lat="46.33215" lon="-0.29776">
        <ele>100.4738</ele>
        <time>2011-01-09T13:30:09Z</time>
      </trkpt>
      <trkpt lat="46.33215" lon="-0.29774">
        <ele>100.4461</ele>
        <time>2011-01-09T13:30:10Z</time>
      </trkpt>
      <trkpt lat="46.33215" lon="-0.29773">
        <ele>100.4174</ele>
        <time>2011-01-09T13:30:11Z</time>
      </trkpt>
      <trkpt lat="46.33215" lon="-0.29771">
        <ele>100.3884</ele>
        <time>2011-01-09T13:30:12Z</time>
      </trkpt>
      <trkpt lat="46.33215" lon="-0.29769">
        <ele>100.3584</ele>
        <time>2011-01-09T13:30:13Z</time>
      </trkpt>
      <trkpt lat="46.33215" lon="-0.29768">
        <ele>100.328</ele>
        <time>2011-01-09T13:30:14Z</time>
      </trkpt>
      <trkpt lat="46.33215" lon="-0.29766">
        <ele>100.298</ele>
        <time>2011-01-09T13:30:15Z</time>
      </trkpt>
      <trkpt lat="46.33215" lon="-0.29765">
        <ele>100.2643</ele>
        <time>2011-01-09T13:30:16Z</time>
      </trkpt>
      <trkpt lat="46.33215" lon="-0.29763">
        <ele>100.2295</ele>
        <time>2011-01-09T13:30:17Z</time>
      </trkpt>
      <trkpt lat="46.33214" lon="-0.29762">
        <ele>100.1926</ele>
        <time>2011-01-09T13:30:18Z</time>
      </trkpt>
      <trkpt lat="46.33214" lon="-0.2976">
        <ele>100.154</ele>
        <time>2011-01-09T13:30:19Z</time>
      </trkpt>
      <trkpt lat="46.33214" lon="-0.29758">
        <ele>100.1156</ele>
        <time>2011-01-09T13:30:20Z</time>
      </trkpt>
      <trkpt lat="46.33214" lon="-0.29757">
        <ele>100.0781</ele>
        <time>2011-01-09T13:30:21Z</time>
      </trkpt>
      <trkpt lat="46.33214" lon="-0.29755">
        <ele>100.0416</ele>
        <time>2011-01-09T13:30:22Z</time>
      </trkpt>
      <trkpt lat="46.33213" lon="-0.29753">
        <ele>100.0061</ele>
        <time>2011-01-09T13:30:23Z</time>
      </trkpt>
      <trkpt lat="46.33213" lon="-0.29752">
        <ele>99.9708</ele>
        <time>2011-01-09T13:30:24Z</time>
      </trkpt>
      <trkpt lat="46.33213" lon="-0.2975">
        <ele>99.9351</ele>
        <time>2011-01-09T13:30:25Z</time>
      </trkpt>
      <trkpt lat="46.33213" lon="-0.29749">
        <ele>99.9006</ele>
        <time>2011-01-09T13:30:26Z</time>
      </trkpt>
      <trkpt lat="46.33213" lon="-0.29747">
        <ele>99.8663</ele>
        <time>2011-01-09T13:30:27Z</time>
      </trkpt>
      <trkpt lat="46.33213" lon="-0.29746">
        <ele>99.833</ele>
        <time>2011-01-09T13:30:28Z</time>
      </trkpt>
      <trkpt lat="46.33213" lon="-0.29744">
        <ele>99.8009</ele>
        <time>2011-01-09T13:30:29Z</time>
      </trkpt>
      <trkpt lat="46.33213" lon="-0.29743">
        <ele>99.7698</ele>
        <time>2011-01-09T13:30:30Z</time>
      </trkpt>
      <trkpt lat="46.33213" lon="-0.29741">
        <ele>99.7406</ele>
        <time>2011-01-09T13:30:31Z</time>
      </trkpt>
      <trkpt lat="46.33213" lon="-0.2974">
        <ele>99.7118</ele>
        <time>2011-01-09T13:30:32Z</time>
      </trkpt>
      <trkpt lat="46.33213" lon="-0.2974">
        <ele>99.6817</ele>
        <time>2011-01-09T13:30:33Z</time>
      </trkpt>
      <trkpt lat="46.33213" lon="-0.2974">
        <ele>99.6539</ele>
        <time>2011-01-09T13:30:34Z</time>
      </trkpt>
      <trkpt lat="46.33213" lon="-0.2974">
        <ele>99.6227</ele>
        <time>2011-01-09T13:30:38Z</time>
      </trkpt>
      <trkpt lat="46.33213" lon="-0.29738">
        <ele>99.597</ele>
        <time>2011-01-09T13:30:39Z</time>
      </trkpt>
      <trkpt lat="46.33213" lon="-0.29737">
        <ele>99.5699</ele>
        <time>2011-01-09T13:30:40Z</time>
      </trkpt>
      <trkpt lat="46.33213" lon="-0.29736">
        <ele>99.545</ele>
        <time>2011-01-09T13:30:41Z</time>
      </trkpt>
      <trkpt lat="46.33213" lon="-0.29734">
        <ele>99.5225</ele>
        <time>2011-01-09T13:30:42Z</time>
      </trkpt>
      <trkpt lat="46.33212" lon="-0.29733">
        <ele>99.5019</ele>
        <time>2011-01-09T13:30:43Z</time>
      </trkpt>
      <trkpt lat="46.33212" lon="-0.29731">
        <ele>99.4801</ele>
        <time>2011-01-09T13:30:44Z</time>
      </trkpt>
      <trkpt lat="46.33211" lon="-0.2973">
        <ele>99.4559</ele>
        <time>2011-01-09T13:30:45Z</time>
      </trkpt>
      <trkpt lat="46.3321" lon="-0.29728">
        <ele>99.4269</ele>
        <time>2011-01-09T13:30:46Z</time>
      </trkpt>
      <trkpt lat="46.3321" lon="-0.29727">
        <ele>99.3951</ele>
        <time>2011-01-09T13:30:47Z</time>
      </trkpt>
      <trkpt lat="46.3321" lon="-0.29725">
        <ele>99.3637</ele>
        <time>2011-01-09T13:30:48Z</time>
      </trkpt>
      <trkpt lat="46.33209" lon="-0.29724">
        <ele>99.3356</ele>
        <time>2011-01-09T13:30:49Z</time>
      </trkpt>
      <trkpt lat="46.33209" lon="-0.29722">
        <ele>99.3111</ele>
        <time>2011-01-09T13:30:50Z</time>
      </trkpt>
      <trkpt lat="46.33209" lon="-0.29721">
        <ele>99.2892</ele>
        <time>2011-01-09T13:30:51Z</time>
      </trkpt>
      <trkpt lat="46.3321" lon="-0.29719">
        <ele>99.2688</ele>
        <time>2011-01-09T13:30:52Z</time>
      </trkpt>
      <trkpt lat="46.3321" lon="-0.29718">
        <ele>99.2487</ele>
        <time>2011-01-09T13:30:53Z</time>
      </trkpt>
      <trkpt lat="46.33209" lon="-0.29716">
        <ele>99.2277</ele>
        <time>2011-01-09T13:30:54Z</time>
      </trkpt>
      <trkpt lat="46.33209" lon="-0.29714">
        <ele>99.2072</ele>
        <time>2011-01-09T13:30:55Z</time>
      </trkpt>
      <trkpt lat="46.33209" lon="-0.29713">
        <ele>99.1814</ele>
        <time>2011-01-09T13:30:56Z</time>
      </trkpt>
      <trkpt lat="46.33208" lon="-0.2971">
        <ele>99.1518</ele>
        <time>2011-01-09T13:30:57Z</time>
      </trkpt>
      <trkpt lat="46.33208" lon="-0.29708">
        <ele>99.1179</ele>
        <time>2011-01-09T13:30:58Z</time>
      </trkpt>
      <trkpt lat="46.33207" lon="-0.29706">
        <ele>99.0819</ele>
        <time>2011-01-09T13:30:59Z</time>
      </trkpt>
      <trkpt lat="46.33207" lon="-0.29704">
        <ele>99.0461</ele>
        <time>2011-01-09T13:31:00Z</time>
      </trkpt>
      <trkpt lat="46.33207" lon="-0.29702">
        <ele>99.0105</ele>
        <time>2011-01-09T13:31:01Z</time>
      </trkpt>
      <trkpt lat="46.33206" lon="-0.297">
        <ele>98.9785</ele>
        <time>2011-01-09T13:31:02Z</time>
      </trkpt>
      <trkpt lat="46.33207" lon="-0.29698">
        <ele>98.952</ele>
        <time>2011-01-09T13:31:03Z</time>
      </trkpt>
      <trkpt lat="46.33207" lon="-0.29697">
        <ele>98.9242</ele>
        <time>2011-01-09T13:31:04Z</time>
      </trkpt>
      <trkpt lat="46.33207" lon="-0.29696">
        <ele>98.9002</ele>
        <time>2011-01-09T13:31:05Z</time>
      </trkpt>
      <trkpt lat="46.33208" lon="-0.29695">
        <ele>98.878</ele>
        <time>2011-01-09T13:31:06Z</time>
      </trkpt>
      <trkpt lat="46.33209" lon="-0.29694">
        <ele>98.8576</ele>
        <time>2011-01-09T13:31:07Z</time>
      </trkpt>
      <trkpt lat="46.33209" lon="-0.29694">
        <ele>98.8406</ele>
        <time>2011-01-09T13:31:08Z</time>
      </trkpt>
      <trkpt lat="46.33209" lon="-0.29693">
        <ele>98.823</ele>
        <time>2011-01-09T13:31:10Z</time>
      </trkpt>
      <trkpt lat="46.3321" lon="-0.29692">
        <ele>98.8043</ele>
        <time>2011-01-09T13:31:11Z</time>
      </trkpt>
      <trkpt lat="46.3321" lon="-0.2969">
        <ele>98.7838</ele>
        <time>2011-01-09T13:31:12Z</time>
      </trkpt>
      <trkpt lat="46.3321" lon="-0.29689">
        <ele>98.7636</ele>
        <time>2011-01-09T13:31:13Z</time>
      </trkpt>
      <trkpt lat="46.33211" lon="-0.29687">
        <ele>98.7454</ele>
        <time>2011-01-09T13:31:14Z</time>
      </trkpt>
      <trkpt lat="46.33212" lon="-0.29685">
        <ele>98.7308</ele>
        <time>2011-01-09T13:31:15Z</time>
      </trkpt>
      <trkpt lat="46.33212" lon="-0.29684">
        <ele>98.7188</ele>
        <time>2011-01-09T13:31:16Z</time>
      </trkpt>
      <trkpt lat="46.33212" lon="-0.29682">
        <ele>98.7101</ele>
        <time>2011-01-09T13:31:17Z</time>
      </trkpt>
      <trkpt lat="46.33213" lon="-0.29681">
        <ele>98.704</ele>
        <time>2011-01-09T13:31:18Z</time>
      </trkpt>
      <trkpt lat="46.33213" lon="-0.29679">
        <ele>98.6978</ele>
        <time>2011-01-09T13:31:19Z</time>
      </trkpt>
      <trkpt lat="46.33213" lon="-0.29677">
        <ele>98.6926</ele>
        <time>2011-01-09T13:31:20Z</time>
      </trkpt>
      <trkpt lat="46.33213" lon="-0.29676">
        <ele>98.6873</ele>
        <time>2011-01-09T13:31:21Z</time>
      </trkpt>
      <trkpt lat="46.33213" lon="-0.29674">
        <ele>98.683</ele>
        <time>2011-01-09T13:31:22Z</time>
      </trkpt>
      <trkpt lat="46.33214" lon="-0.29673">
        <ele>98.6791</ele>
        <time>2011-01-09T13:31:23Z</time>
      </trkpt>
      <trkpt lat="46.33215" lon="-0.29671">
        <ele>98.6737</ele>
        <time>2011-01-09T13:31:24Z</time>
      </trkpt>
      <trkpt lat="46.33215" lon="-0.29669">
        <ele>98.6684</ele>
        <time>2011-01-09T13:31:25Z</time>
      </trkpt>
      <trkpt lat="46.33215" lon="-0.29667">
        <ele>98.6621</ele>
        <time>2011-01-09T13:31:26Z</time>
      </trkpt>
      <trkpt lat="46.33216" lon="-0.29666">
        <ele>98.6559</ele>
        <time>2011-01-09T13:31:27Z</time>
      </trkpt>
      <trkpt lat="46.33216" lon="-0.29665">
        <ele>98.649</ele>
        <time>2011-01-09T13:31:28Z</time>
      </trkpt>
      <trkpt lat="46.33216" lon="-0.29663">
        <ele>98.6419</ele>
        <time>2011-01-09T13:31:29Z</time>
      </trkpt>
      <trkpt lat="46.33216" lon="-0.29662">
        <ele>98.6356</ele>
        <time>2011-01-09T13:31:30Z</time>
      </trkpt>
      <trkpt lat="46.33217" lon="-0.29661">
        <ele>98.6282</ele>
        <time>2011-01-09T13:31:31Z</time>
      </trkpt>
      <trkpt lat="46.33217" lon="-0.29659">
        <ele>98.6198</ele>
        <time>2011-01-09T13:31:32Z</time>
      </trkpt>
      <trkpt lat="46.33217" lon="-0.29658">
        <ele>98.6121</ele>
        <time>2011-01-09T13:31:33Z</time>
      </trkpt>
      <trkpt lat="46.33217" lon="-0.29657">
        <ele>98.6062</ele>
        <time>2011-01-09T13:31:34Z</time>
      </trkpt>
      <trkpt lat="46.33218" lon="-0.29656">
        <ele>98.6017</ele>
        <time>2011-01-09T13:31:35Z</time>
      </trkpt>
      <trkpt lat="46.33218" lon="-0.29654">
        <ele>98.5969</ele>
        <time>2011-01-09T13:31:36Z</time>
      </trkpt>
      <trkpt lat="46.33218" lon="-0.29653">
        <ele>98.5908</ele>
        <time>2011-01-09T13:31:37Z</time>
      </trkpt>
      <trkpt lat="46.33218" lon="-0.29651">
        <ele>98.5854</ele>
        <time>2011-01-09T13:31:38Z</time>
      </trkpt>
      <trkpt lat="46.33218" lon="-0.2965">
        <ele>98.5803</ele>
        <time>2011-01-09T13:31:39Z</time>
      </trkpt>
      <trkpt lat="46.33218" lon="-0.29648">
        <ele>98.5751</ele>
        <time>2011-01-09T13:31:40Z</time>
      </trkpt>
      <trkpt lat="46.33217" lon="-0.29646">
        <ele>98.5653</ele>
        <time>2011-01-09T13:31:41Z</time>
      </trkpt>
      <trkpt lat="46.33217" lon="-0.29645">
        <ele>98.5543</ele>
        <time>2011-01-09T13:31:42Z</time>
      </trkpt>
      <trkpt lat="46.33217" lon="-0.29644">
        <ele>98.5421</ele>
        <time>2011-01-09T13:31:43Z</time>
      </trkpt>
      <trkpt lat="46.33216" lon="-0.29643">
        <ele>98.5069</ele>
        <time>2011-01-09T13:31:46Z</time>
      </trkpt>
      <trkpt lat="46.33215" lon="-0.29642">
        <ele>98.4886</ele>
        <time>2011-01-09T13:31:47Z</time>
      </trkpt>
      <trkpt lat="46.33215" lon="-0.29641">
        <ele>98.4702</ele>
        <time>2011-01-09T13:31:48Z</time>
      </trkpt>
      <trkpt lat="46.33215" lon="-0.2964">
        <ele>98.45</ele>
        <time>2011-01-09T13:31:49Z</time>
      </trkpt>
      <trkpt lat="46.33214" lon="-0.29638">
        <ele>98.4271</ele>
        <time>2011-01-09T13:31:50Z</time>
      </trkpt>
      <trkpt lat="46.33214" lon="-0.29637">
        <ele>98.4056</ele>
        <time>2011-01-09T13:31:51Z</time>
      </trkpt>
      <trkpt lat="46.33213" lon="-0.29635">
        <ele>98.3499</ele>
        <time>2011-01-09T13:31:56Z</time>
      </trkpt>
      <trkpt lat="46.33213" lon="-0.29635">
        <ele>98.3499</ele>
        <time>2011-01-09T13:31:57Z</time>
      </trkpt>
      <trkpt lat="46.33212" lon="-0.29633">
        <ele>98.3331</ele>
        <time>2011-01-09T13:31:58Z</time>
      </trkpt>
      <trkpt lat="46.33211" lon="-0.29632">
        <ele>98.3108</ele>
        <time>2011-01-09T13:31:59Z</time>
      </trkpt>
      <trkpt lat="46.3321" lon="-0.2963">
        <ele>98.29</ele>
        <time>2011-01-09T13:32:00Z</time>
      </trkpt>
      <trkpt lat="46.33209" lon="-0.29628">
        <ele>98.2749</ele>
        <time>2011-01-09T13:32:01Z</time>
      </trkpt>
      <trkpt lat="46.33208" lon="-0.29627">
        <ele>98.2606</ele>
        <time>2011-01-09T13:32:02Z</time>
      </trkpt>
      <trkpt lat="46.33207" lon="-0.29626">
        <ele>98.2448</ele>
        <time>2011-01-09T13:32:03Z</time>
      </trkpt>
      <trkpt lat="46.33206" lon="-0.29624">
        <ele>98.2303</ele>
        <time>2011-01-09T13:32:04Z</time>
      </trkpt>
      <trkpt lat="46.33206" lon="-0.29622">
        <ele>98.2141</ele>
        <time>2011-01-09T13:32:05Z</time>
      </trkpt>
      <trkpt lat="46.33205" lon="-0.2962">
        <ele>98.2018</ele>
        <time>2011-01-09T13:32:06Z</time>
      </trkpt>
      <trkpt lat="46.33205" lon="-0.29619">
        <ele>98.1935</ele>
        <time>2011-01-09T13:32:07Z</time>
      </trkpt>
      <trkpt lat="46.33204" lon="-0.29618">
        <ele>98.1864</ele>
        <time>2011-01-09T13:32:08Z</time>
      </trkpt>
      <trkpt lat="46.33204" lon="-0.29615">
        <ele>98.1799</ele>
        <time>2011-01-09T13:32:09Z</time>
      </trkpt>
      <trkpt lat="46.33203" lon="-0.29613">
        <ele>98.1721</ele>
        <time>2011-01-09T13:32:10Z</time>
      </trkpt>
      <trkpt lat="46.33203" lon="-0.29611">
        <ele>98.1634</ele>
        <time>2011-01-09T13:32:11Z</time>
      </trkpt>
      <trkpt lat="46.33202" lon="-0.29609">
        <ele>98.1548</ele>
        <time>2011-01-09T13:32:12Z</time>
      </trkpt>
      <trkpt lat="46.33201" lon="-0.29608">
        <ele>98.1458</ele>
        <time>2011-01-09T13:32:13Z</time>
      </trkpt>
      <trkpt lat="46.33201" lon="-0.29606">
        <ele>98.1369</ele>
        <time>2011-01-09T13:32:14Z</time>
      </trkpt>
      <trkpt lat="46.332" lon="-0.29604">
        <ele>98.1265</ele>
        <time>2011-01-09T13:32:15Z</time>
      </trkpt>
      <trkpt lat="46.33199" lon="-0.29602">
        <ele>98.1133</ele>
        <time>2011-01-09T13:32:16Z</time>
      </trkpt>
      <trkpt lat="46.33199" lon="-0.296">
        <ele>98.097</ele>
        <time>2011-01-09T13:32:17Z</time>
      </trkpt>
      <trkpt lat="46.33198" lon="-0.29598">
        <ele>98.0802</ele>
        <time>2011-01-09T13:32:18Z</time>
      </trkpt>
      <trkpt lat="46.33198" lon="-0.29596">
        <ele>98.0652</ele>
        <time>2011-01-09T13:32:19Z</time>
      </trkpt>
      <trkpt lat="46.33197" lon="-0.29595">
        <ele>98.0519</ele>
        <time>2011-01-09T13:32:20Z</time>
      </trkpt>
      <trkpt lat="46.33197" lon="-0.29593">
        <ele>98.039</ele>
        <time>2011-01-09T13:32:21Z</time>
      </trkpt>
      <trkpt lat="46.33197" lon="-0.29592">
        <ele>98.0274</ele>
        <time>2011-01-09T13:32:22Z</time>
      </trkpt>
      <trkpt lat="46.33196" lon="-0.29591">
        <ele>98.0164</ele>
        <time>2011-01-09T13:32:23Z</time>
      </trkpt>
      <trkpt lat="46.33196" lon="-0.2959">
        <ele>98.0071</ele>
        <time>2011-01-09T13:32:24Z</time>
      </trkpt>
      <trkpt lat="46.33196" lon="-0.29588">
        <ele>97.9989</ele>
        <time>2011-01-09T13:32:25Z</time>
      </trkpt>
      <trkpt lat="46.33195" lon="-0.29587">
        <ele>97.9917</ele>
        <time>2011-01-09T13:32:26Z</time>
      </trkpt>
      <trkpt lat="46.33194" lon="-0.29586">
        <ele>97.9854</ele>
        <time>2011-01-09T13:32:27Z</time>
      </trkpt>
      <trkpt lat="46.33194" lon="-0.29585">
        <ele>97.9794</ele>
        <time>2011-01-09T13:32:28Z</time>
      </trkpt>
      <trkpt lat="46.33193" lon="-0.29584">
        <ele>97.9738</ele>
        <time>2011-01-09T13:32:29Z</time>
      </trkpt>
      <trkpt lat="46.33192" lon="-0.29583">
        <ele>97.9671</ele>
        <time>2011-01-09T13:32:30Z</time>
      </trkpt>
      <trkpt lat="46.33191" lon="-0.29583">
        <ele>97.959</ele>
        <time>2011-01-09T13:32:31Z</time>
      </trkpt>
      <trkpt lat="46.33189" lon="-0.29582">
        <ele>97.9492</ele>
        <time>2011-01-09T13:32:32Z</time>
      </trkpt>
      <trkpt lat="46.33188" lon="-0.29582">
        <ele>97.9391</ele>
        <time>2011-01-09T13:32:33Z</time>
      </trkpt>
      <trkpt lat="46.33187" lon="-0.29582">
        <ele>97.9299</ele>
        <time>2011-01-09T13:32:34Z</time>
      </trkpt>
      <trkpt lat="46.33186" lon="-0.29581">
        <ele>97.9195</ele>
        <time>2011-01-09T13:32:35Z</time>
      </trkpt>
      <trkpt lat="46.33185" lon="-0.29581">
        <ele>97.9059</ele>
        <time>2011-01-09T13:32:36Z</time>
      </trkpt>
      <trkpt lat="46.33183" lon="-0.29582">
        <ele>97.8908</ele>
        <time>2011-01-09T13:32:37Z</time>
      </trkpt>
      <trkpt lat="46.33182" lon="-0.29582">
        <ele>97.8751</ele>
        <time>2011-01-09T13:32:38Z</time>
      </trkpt>
      <trkpt lat="46.33181" lon="-0.29582">
        <ele>97.8579</ele>
        <time>2011-01-09T13:32:39Z</time>
      </trkpt>
      <trkpt lat="46.33179" lon="-0.29579">
        <ele>97.8044</ele>
        <time>2011-01-09T13:32:45Z</time>
      </trkpt>
      <trkpt lat="46.33178" lon="-0.29579">
        <ele>97.781</ele>
        <time>2011-01-09T13:32:46Z</time>
      </trkpt>
      <trkpt lat="46.33178" lon="-0.29579">
        <ele>97.7575</ele>
        <time>2011-01-09T13:32:47Z</time>
      </trkpt>
      <trkpt lat="46.33177" lon="-0.29579">
        <ele>97.7338</ele>
        <time>2011-01-09T13:32:48Z</time>
      </trkpt>
      <trkpt lat="46.33176" lon="-0.2958">
        <ele>97.7042</ele>
        <time>2011-01-09T13:32:49Z</time>
      </trkpt>
      <trkpt lat="46.33175" lon="-0.2958">
        <ele>97.6703</ele>
        <time>2011-01-09T13:32:50Z</time>
      </trkpt>
      <trkpt lat="46.33174" lon="-0.2958">
        <ele>97.6375</ele>
        <time>2011-01-09T13:32:51Z</time>
      </trkpt>
      <trkpt lat="46.33173" lon="-0.2958">
        <ele>97.604</ele>
        <time>2011-01-09T13:32:52Z</time>
      </trkpt>
      <trkpt lat="46.33172" lon="-0.29579">
        <ele>97.5693</ele>
        <time>2011-01-09T13:32:53Z</time>
      </trkpt>
      <trkpt lat="46.33171" lon="-0.29579">
        <ele>97.5356</ele>
        <time>2011-01-09T13:32:54Z</time>
      </trkpt>
      <trkpt lat="46.3317" lon="-0.29579">
        <ele>97.5026</ele>
        <time>2011-01-09T13:32:55Z</time>
      </trkpt>
      <trkpt lat="46.33169" lon="-0.2958">
        <ele>97.4726</ele>
        <time>2011-01-09T13:32:56Z</time>
      </trkpt>
      <trkpt lat="46.33168" lon="-0.2958">
        <ele>97.4439</ele>
        <time>2011-01-09T13:32:57Z</time>
      </trkpt>
      <trkpt lat="46.33167" lon="-0.2958">
        <ele>97.4146</ele>
        <time>2011-01-09T13:32:58Z</time>
      </trkpt>
      <trkpt lat="46.33165" lon="-0.2958">
        <ele>97.3815</ele>
        <time>2011-01-09T13:32:59Z</time>
      </trkpt>
      <trkpt lat="46.33164" lon="-0.29581">
        <ele>97.348</ele>
        <time>2011-01-09T13:33:00Z</time>
      </trkpt>
      <trkpt lat="46.33163" lon="-0.29581">
        <ele>97.3138</ele>
        <time>2011-01-09T13:33:01Z</time>
      </trkpt>
      <trkpt lat="46.33162" lon="-0.29581">
        <ele>97.278</ele>
        <time>2011-01-09T13:33:02Z</time>
      </trkpt>
      <trkpt lat="46.3316" lon="-0.29582">
        <ele>97.2388</ele>
        <time>2011-01-09T13:33:03Z</time>
      </trkpt>
      <trkpt lat="46.33159" lon="-0.29582">
        <ele>97.1954</ele>
        <time>2011-01-09T13:33:04Z</time>
      </trkpt>
      <trkpt lat="46.33158" lon="-0.29582">
        <ele>97.153</ele>
        <time>2011-01-09T13:33:05Z</time>
      </trkpt>
      <trkpt lat="46.33157" lon="-0.29582">
        <ele>97.1113</ele>
        <time>2011-01-09T13:33:06Z</time>
      </trkpt>
      <trkpt lat="46.33156" lon="-0.29583">
        <ele>97.0745</ele>
        <time>2011-01-09T13:33:07Z</time>
      </trkpt>
      <trkpt lat="46.33155" lon="-0.29583">
        <ele>97.0405</ele>
        <time>2011-01-09T13:33:08Z</time>
      </trkpt>
      <trkpt lat="46.33154" lon="-0.29583">
        <ele>97.0098</ele>
        <time>2011-01-09T13:33:09Z</time>
      </trkpt>
      <trkpt lat="46.33153" lon="-0.29583">
        <ele>96.985</ele>
        <time>2011-01-09T13:33:10Z</time>
      </trkpt>
      <trkpt lat="46.33152" lon="-0.29584">
        <ele>96.9631</ele>
        <time>2011-01-09T13:33:11Z</time>
      </trkpt>
      <trkpt lat="46.33151" lon="-0.29584">
        <ele>96.9412</ele>
        <time>2011-01-09T13:33:12Z</time>
      </trkpt>
      <trkpt lat="46.33151" lon="-0.29584">
        <ele>96.9198</ele>
        <time>2011-01-09T13:33:13Z</time>
      </trkpt>
      <trkpt lat="46.3315" lon="-0.29584">
        <ele>96.899</ele>
        <time>2011-01-09T13:33:14Z</time>
      </trkpt>
      <trkpt lat="46.33149" lon="-0.29585">
        <ele>96.8792</ele>
        <time>2011-01-09T13:33:15Z</time>
      </trkpt>
      <trkpt lat="46.33148" lon="-0.29585">
        <ele>96.86</ele>
        <time>2011-01-09T13:33:16Z</time>
      </trkpt>
      <trkpt lat="46.33147" lon="-0.29586">
        <ele>96.8415</ele>
        <time>2011-01-09T13:33:17Z</time>
      </trkpt>
      <trkpt lat="46.33146" lon="-0.29586">
        <ele>96.8231</ele>
        <time>2011-01-09T13:33:18Z</time>
      </trkpt>
      <trkpt lat="46.33146" lon="-0.29587">
        <ele>96.8056</ele>
        <time>2011-01-09T13:33:19Z</time>
      </trkpt>
      <trkpt lat="46.33145" lon="-0.29587">
        <ele>96.7887</ele>
        <time>2011-01-09T13:33:20Z</time>
      </trkpt>
      <trkpt lat="46.33144" lon="-0.29587">
        <ele>96.7745</ele>
        <time>2011-01-09T13:33:21Z</time>
      </trkpt>
      <trkpt lat="46.33143" lon="-0.29588">
        <ele>96.7572</ele>
        <time>2011-01-09T13:33:22Z</time>
      </trkpt>
      <trkpt lat="46.33142" lon="-0.29588">
        <ele>96.7353</ele>
        <time>2011-01-09T13:33:23Z</time>
      </trkpt>
      <trkpt lat="46.33141" lon="-0.29589">
        <ele>96.7088</ele>
        <time>2011-01-09T13:33:24Z</time>
      </trkpt>
      <trkpt lat="46.33141" lon="-0.2959">
        <ele>96.6778</ele>
        <time>2011-01-09T13:33:25Z</time>
      </trkpt>
      <trkpt lat="46.33139" lon="-0.29591">
        <ele>96.6407</ele>
        <time>2011-01-09T13:33:26Z</time>
      </trkpt>
      <trkpt lat="46.33139" lon="-0.29592">
        <ele>96.6048</ele>
        <time>2011-01-09T13:33:27Z</time>
      </trkpt>
      <trkpt lat="46.33138" lon="-0.29593">
        <ele>96.5675</ele>
        <time>2011-01-09T13:33:28Z</time>
      </trkpt>
      <trkpt lat="46.33136" lon="-0.29593">
        <ele>96.529</ele>
        <time>2011-01-09T13:33:29Z</time>
      </trkpt>
      <trkpt lat="46.33135" lon="-0.29594">
        <ele>96.4929</ele>
        <time>2011-01-09T13:33:30Z</time>
      </trkpt>
      <trkpt lat="46.33135" lon="-0.29595">
        <ele>96.458</ele>
        <time>2011-01-09T13:33:31Z</time>
      </trkpt>
      <trkpt lat="46.33133" lon="-0.29596">
        <ele>96.4242</ele>
        <time>2011-01-09T13:33:32Z</time>
      </trkpt>
      <trkpt lat="46.33133" lon="-0.29598">
        <ele>96.3923</ele>
        <time>2011-01-09T13:33:33Z</time>
      </trkpt>
      <trkpt lat="46.33132" lon="-0.29599">
        <ele>96.3616</ele>
        <time>2011-01-09T13:33:34Z</time>
      </trkpt>
      <trkpt lat="46.33131" lon="-0.29601">
        <ele>96.3317</ele>
        <time>2011-01-09T13:33:35Z</time>
      </trkpt>
      <trkpt lat="46.3313" lon="-0.29602">
        <ele>96.3017</ele>
        <time>2011-01-09T13:33:36Z</time>
      </trkpt>
      <trkpt lat="46.33128" lon="-0.29603">
        <ele>96.2707</ele>
        <time>2011-01-09T13:33:37Z</time>
      </trkpt>
      <trkpt lat="46.33128" lon="-0.29604">
        <ele>96.2386</ele>
        <time>2011-01-09T13:33:38Z</time>
      </trkpt>
      <trkpt lat="46.33126" lon="-0.29605">
        <ele>96.2021</ele>
        <time>2011-01-09T13:33:39Z</time>
      </trkpt>
      <trkpt lat="46.33126" lon="-0.29605">
        <ele>96.1662</ele>
        <time>2011-01-09T13:33:40Z</time>
      </trkpt>
      <trkpt lat="46.33125" lon="-0.29606">
        <ele>96.131</ele>
        <time>2011-01-09T13:33:41Z</time>
      </trkpt>
      <trkpt lat="46.33124" lon="-0.29607">
        <ele>96.0947</ele>
        <time>2011-01-09T13:33:42Z</time>
      </trkpt>
      <trkpt lat="46.33123" lon="-0.29607">
        <ele>96.0588</ele>
        <time>2011-01-09T13:33:43Z</time>
      </trkpt>
      <trkpt lat="46.33123" lon="-0.29608">
        <ele>96.0234</ele>
        <time>2011-01-09T13:33:44Z</time>
      </trkpt>
      <trkpt lat="46.33122" lon="-0.29609">
        <ele>95.9888</ele>
        <time>2011-01-09T13:33:45Z</time>
      </trkpt>
      <trkpt lat="46.33121" lon="-0.29609">
        <ele>95.9553</ele>
        <time>2011-01-09T13:33:46Z</time>
      </trkpt>
      <trkpt lat="46.3312" lon="-0.2961">
        <ele>95.9166</ele>
        <time>2011-01-09T13:33:47Z</time>
      </trkpt>
      <trkpt lat="46.33119" lon="-0.29611">
        <ele>95.8749</ele>
        <time>2011-01-09T13:33:48Z</time>
      </trkpt>
      <trkpt lat="46.33118" lon="-0.29612">
        <ele>95.834</ele>
        <time>2011-01-09T13:33:49Z</time>
      </trkpt>
      <trkpt lat="46.33118" lon="-0.29613">
        <ele>95.7941</ele>
        <time>2011-01-09T13:33:50Z</time>
      </trkpt>
      <trkpt lat="46.33117" lon="-0.29614">
        <ele>95.7553</ele>
        <time>2011-01-09T13:33:51Z</time>
      </trkpt>
      <trkpt lat="46.33116" lon="-0.29615">
        <ele>95.7175</ele>
        <time>2011-01-09T13:33:52Z</time>
      </trkpt>
      <trkpt lat="46.33115" lon="-0.29615">
        <ele>95.6808</ele>
        <time>2011-01-09T13:33:53Z</time>
      </trkpt>
      <trkpt lat="46.33115" lon="-0.29616">
        <ele>95.6447</ele>
        <time>2011-01-09T13:33:54Z</time>
      </trkpt>
      <trkpt lat="46.33114" lon="-0.29617">
        <ele>95.6083</ele>
        <time>2011-01-09T13:33:55Z</time>
      </trkpt>
      <trkpt lat="46.33114" lon="-0.29619">
        <ele>95.5723</ele>
        <time>2011-01-09T13:33:56Z</time>
      </trkpt>
      <trkpt lat="46.33113" lon="-0.2962">
        <ele>95.5314</ele>
        <time>2011-01-09T13:33:57Z</time>
      </trkpt>
      <trkpt lat="46.33112" lon="-0.29621">
        <ele>95.4743</ele>
        <time>2011-01-09T13:33:58Z</time>
      </trkpt>
      <trkpt lat="46.33111" lon="-0.29622">
        <ele>95.4085</ele>
        <time>2011-01-09T13:33:59Z</time>
      </trkpt>
      <trkpt lat="46.3311" lon="-0.29623">
        <ele>95.3395</ele>
        <time>2011-01-09T13:34:00Z</time>
      </trkpt>
      <trkpt lat="46.33109" lon="-0.29624">
        <ele>95.2699</ele>
        <time>2011-01-09T13:34:01Z</time>
      </trkpt>
      <trkpt lat="46.33108" lon="-0.29625">
        <ele>95.1991</ele>
        <time>2011-01-09T13:34:02Z</time>
      </trkpt>
      <trkpt lat="46.33107" lon="-0.29626">
        <ele>95.1266</ele>
        <time>2011-01-09T13:34:03Z</time>
      </trkpt>
      <trkpt lat="46.33106" lon="-0.29627">
        <ele>95.0564</ele>
        <time>2011-01-09T13:34:04Z</time>
      </trkpt>
      <trkpt lat="46.33104" lon="-0.29627">
        <ele>94.9869</ele>
        <time>2011-01-09T13:34:05Z</time>
      </trkpt>
      <trkpt lat="46.33104" lon="-0.29628">
        <ele>94.9192</ele>
        <time>2011-01-09T13:34:06Z</time>
      </trkpt>
      <trkpt lat="46.33103" lon="-0.2963">
        <ele>94.8537</ele>
        <time>2011-01-09T13:34:07Z</time>
      </trkpt>
      <trkpt lat="46.33102" lon="-0.29631">
        <ele>94.7933</ele>
        <time>2011-01-09T13:34:08Z</time>
      </trkpt>
      <trkpt lat="46.33102" lon="-0.29633">
        <ele>94.7378</ele>
        <time>2011-01-09T13:34:09Z</time>
      </trkpt>
      <trkpt lat="46.33101" lon="-0.29634">
        <ele>94.6826</ele>
        <time>2011-01-09T13:34:10Z</time>
      </trkpt>
      <trkpt lat="46.331" lon="-0.29636">
        <ele>94.6271</ele>
        <time>2011-01-09T13:34:11Z</time>
      </trkpt>
      <trkpt lat="46.33099" lon="-0.29637">
        <ele>94.5717</ele>
        <time>2011-01-09T13:34:12Z</time>
      </trkpt>
      <trkpt lat="46.33099" lon="-0.29638">
        <ele>94.517</ele>
        <time>2011-01-09T13:34:13Z</time>
      </trkpt>
      <trkpt lat="46.33098" lon="-0.2964">
        <ele>94.4609</ele>
        <time>2011-01-09T13:34:14Z</time>
      </trkpt>
      <trkpt lat="46.33098" lon="-0.29641">
        <ele>94.4051</ele>
        <time>2011-01-09T13:34:15Z</time>
      </trkpt>
      <trkpt lat="46.33097" lon="-0.29642">
        <ele>94.3507</ele>
        <time>2011-01-09T13:34:16Z</time>
      </trkpt>
      <trkpt lat="46.33096" lon="-0.29644">
        <ele>94.2941</ele>
        <time>2011-01-09T13:34:17Z</time>
      </trkpt>
      <trkpt lat="46.33095" lon="-0.29645">
        <ele>94.2363</ele>
        <time>2011-01-09T13:34:18Z</time>
      </trkpt>
      <trkpt lat="46.33094" lon="-0.29645">
        <ele>94.1788</ele>
        <time>2011-01-09T13:34:19Z</time>
      </trkpt>
      <trkpt lat="46.33093" lon="-0.29646">
        <ele>94.1201</ele>
        <time>2011-01-09T13:34:20Z</time>
      </trkpt>
      <trkpt lat="46.33093" lon="-0.29647">
        <ele>94.0626</ele>
        <time>2011-01-09T13:34:21Z</time>
      </trkpt>
      <trkpt lat="46.33092" lon="-0.29648">
        <ele>94.0049</ele>
        <time>2011-01-09T13:34:22Z</time>
      </trkpt>
      <trkpt lat="46.33091" lon="-0.29649">
        <ele>93.9487</ele>
        <time>2011-01-09T13:34:23Z</time>
      </trkpt>
      <trkpt lat="46.33091" lon="-0.29651">
        <ele>93.6683</ele>
        <time>2011-01-09T13:34:43Z</time>
      </trkpt>
      <trkpt lat="46.3309" lon="-0.29652">
        <ele>93.6036</ele>
        <time>2011-01-09T13:34:44Z</time>
      </trkpt>
      <trkpt lat="46.3309" lon="-0.29653">
        <ele>93.5388</ele>
        <time>2011-01-09T13:34:45Z</time>
      </trkpt>
      <trkpt lat="46.33089" lon="-0.29654">
        <ele>93.4738</ele>
        <time>2011-01-09T13:34:46Z</time>
      </trkpt>
      <trkpt lat="46.33089" lon="-0.29655">
        <ele>93.4087</ele>
        <time>2011-01-09T13:34:47Z</time>
      </trkpt>
      <trkpt lat="46.33088" lon="-0.29655">
        <ele>93.3445</ele>
        <time>2011-01-09T13:34:48Z</time>
      </trkpt>
      <trkpt lat="46.33087" lon="-0.29656">
        <ele>93.2832</ele>
        <time>2011-01-09T13:34:49Z</time>
      </trkpt>
      <trkpt lat="46.33084" lon="-0.29661">
        <ele>92.9988</ele>
        <time>2011-01-09T13:35:11Z</time>
      </trkpt>
      <trkpt lat="46.33083" lon="-0.29661">
        <ele>92.9366</ele>
        <time>2011-01-09T13:35:12Z</time>
      </trkpt>
      <trkpt lat="46.33083" lon="-0.29662">
        <ele>92.8805</ele>
        <time>2011-01-09T13:35:13Z</time>
      </trkpt>
      <trkpt lat="46.33081" lon="-0.29662">
        <ele>92.8309</ele>
        <time>2011-01-09T13:35:14Z</time>
      </trkpt>
      <trkpt lat="46.3308" lon="-0.29662">
        <ele>92.7854</ele>
        <time>2011-01-09T13:35:15Z</time>
      </trkpt>
      <trkpt lat="46.33079" lon="-0.29663">
        <ele>92.744</ele>
        <time>2011-01-09T13:35:16Z</time>
      </trkpt>
      <trkpt lat="46.33078" lon="-0.29663">
        <ele>92.7076</ele>
        <time>2011-01-09T13:35:17Z</time>
      </trkpt>
      <trkpt lat="46.33078" lon="-0.29664">
        <ele>92.6761</ele>
        <time>2011-01-09T13:35:18Z</time>
      </trkpt>
      <trkpt lat="46.33077" lon="-0.29664">
        <ele>92.6458</ele>
        <time>2011-01-09T13:35:19Z</time>
      </trkpt>
      <trkpt lat="46.33076" lon="-0.29663">
        <ele>92.6171</ele>
        <time>2011-01-09T13:35:20Z</time>
      </trkpt>
      <trkpt lat="46.33076" lon="-0.29662">
        <ele>92.5942</ele>
        <time>2011-01-09T13:35:21Z</time>
      </trkpt>
      <trkpt lat="46.33075" lon="-0.29662">
        <ele>92.595</ele>
        <time>2011-01-09T13:35:22Z</time>
      </trkpt>
      <trkpt lat="46.33075" lon="-0.29662">
        <ele>92.5984</ele>
        <time>2011-01-09T13:35:23Z</time>
      </trkpt>
      <trkpt lat="46.33074" lon="-0.29661">
        <ele>92.5984</ele>
        <time>2011-01-09T13:35:24Z</time>
      </trkpt>
      <trkpt lat="46.33073" lon="-0.29663">
        <ele>92.5996</ele>
        <time>2011-01-09T13:35:25Z</time>
      </trkpt>
      <trkpt lat="46.33072" lon="-0.29664">
        <ele>92.5991</ele>
        <time>2011-01-09T13:35:26Z</time>
      </trkpt>
      <trkpt lat="46.33071" lon="-0.29665">
        <ele>92.5889</ele>
        <time>2011-01-09T13:35:27Z</time>
      </trkpt>
      <trkpt lat="46.3307" lon="-0.29665">
        <ele>92.5771</ele>
        <time>2011-01-09T13:35:28Z</time>
      </trkpt>
      <trkpt lat="46.33069" lon="-0.29666">
        <ele>92.5652</ele>
        <time>2011-01-09T13:35:29Z</time>
      </trkpt>
      <trkpt lat="46.33068" lon="-0.29667">
        <ele>92.5533</ele>
        <time>2011-01-09T13:35:30Z</time>
      </trkpt>
      <trkpt lat="46.33067" lon="-0.29668">
        <ele>92.5439</ele>
        <time>2011-01-09T13:35:31Z</time>
      </trkpt>
      <trkpt lat="46.33067" lon="-0.29669">
        <ele>92.5358</ele>
        <time>2011-01-09T13:35:32Z</time>
      </trkpt>
      <trkpt lat="46.33066" lon="-0.2967">
        <ele>92.5347</ele>
        <time>2011-01-09T13:35:33Z</time>
      </trkpt>
      <trkpt lat="46.33065" lon="-0.29671">
        <ele>92.5347</ele>
        <time>2011-01-09T13:35:34Z</time>
      </trkpt>
      <trkpt lat="46.33064" lon="-0.29672">
        <ele>92.5363</ele>
        <time>2011-01-09T13:35:35Z</time>
      </trkpt>
      <trkpt lat="46.33063" lon="-0.29672">
        <ele>92.5378</ele>
        <time>2011-01-09T13:35:36Z</time>
      </trkpt>
      <trkpt lat="46.33062" lon="-0.29673">
        <ele>92.5384</ele>
        <time>2011-01-09T13:35:37Z</time>
      </trkpt>
      <trkpt lat="46.33061" lon="-0.29673">
        <ele>92.5393</ele>
        <time>2011-01-09T13:35:38Z</time>
      </trkpt>
      <trkpt lat="46.33061" lon="-0.29674">
        <ele>92.5435</ele>
        <time>2011-01-09T13:35:39Z</time>
      </trkpt>
      <trkpt lat="46.33059" lon="-0.29674">
        <ele>92.5519</ele>
        <time>2011-01-09T13:35:40Z</time>
      </trkpt>
      <trkpt lat="46.33059" lon="-0.29674">
        <ele>92.562</ele>
        <time>2011-01-09T13:35:41Z</time>
      </trkpt>
      <trkpt lat="46.33058" lon="-0.29674">
        <ele>92.569</ele>
        <time>2011-01-09T13:35:42Z</time>
      </trkpt>
      <trkpt lat="46.33057" lon="-0.29674">
        <ele>92.5725</ele>
        <time>2011-01-09T13:35:43Z</time>
      </trkpt>
      <trkpt lat="46.33056" lon="-0.29675">
        <ele>92.571</ele>
        <time>2011-01-09T13:35:44Z</time>
      </trkpt>
      <trkpt lat="46.33055" lon="-0.29675">
        <ele>92.5673</ele>
        <time>2011-01-09T13:35:45Z</time>
      </trkpt>
      <trkpt lat="46.33054" lon="-0.29675">
        <ele>92.5633</ele>
        <time>2011-01-09T13:35:46Z</time>
      </trkpt>
      <trkpt lat="46.33054" lon="-0.29676">
        <ele>92.5524</ele>
        <time>2011-01-09T13:35:47Z</time>
      </trkpt>
      <trkpt lat="46.33053" lon="-0.29676">
        <ele>92.5345</ele>
        <time>2011-01-09T13:35:48Z</time>
      </trkpt>
      <trkpt lat="46.33052" lon="-0.29676">
        <ele>92.5197</ele>
        <time>2011-01-09T13:35:49Z</time>
      </trkpt>
      <trkpt lat="46.33051" lon="-0.29675">
        <ele>92.5059</ele>
        <time>2011-01-09T13:35:50Z</time>
      </trkpt>
      <trkpt lat="46.33051" lon="-0.29675">
        <ele>92.488</ele>
        <time>2011-01-09T13:35:51Z</time>
      </trkpt>
      <trkpt lat="46.3305" lon="-0.29676">
        <ele>92.4703</ele>
        <time>2011-01-09T13:35:52Z</time>
      </trkpt>
      <trkpt lat="46.33049" lon="-0.29676">
        <ele>92.4527</ele>
        <time>2011-01-09T13:35:53Z</time>
      </trkpt>
      <trkpt lat="46.33048" lon="-0.29676">
        <ele>92.44</ele>
        <time>2011-01-09T13:35:54Z</time>
      </trkpt>
      <trkpt lat="46.33047" lon="-0.29676">
        <ele>92.4229</ele>
        <time>2011-01-09T13:35:55Z</time>
      </trkpt>
      <trkpt lat="46.33046" lon="-0.29676">
        <ele>92.4114</ele>
        <time>2011-01-09T13:35:56Z</time>
      </trkpt>
      <trkpt lat="46.33045" lon="-0.29676">
        <ele>92.405</ele>
        <time>2011-01-09T13:35:57Z</time>
      </trkpt>
      <trkpt lat="46.33044" lon="-0.29676">
        <ele>92.3992</ele>
        <time>2011-01-09T13:35:58Z</time>
      </trkpt>
      <trkpt lat="46.33043" lon="-0.29676">
        <ele>92.3943</ele>
        <time>2011-01-09T13:35:59Z</time>
      </trkpt>
      <trkpt lat="46.33042" lon="-0.29677">
        <ele>92.3822</ele>
        <time>2011-01-09T13:36:00Z</time>
      </trkpt>
      <trkpt lat="46.33041" lon="-0.29677">
        <ele>92.3702</ele>
        <time>2011-01-09T13:36:01Z</time>
      </trkpt>
      <trkpt lat="46.3304" lon="-0.29677">
        <ele>92.3508</ele>
        <time>2011-01-09T13:36:02Z</time>
      </trkpt>
      <trkpt lat="46.33039" lon="-0.29677">
        <ele>92.3255</ele>
        <time>2011-01-09T13:36:03Z</time>
      </trkpt>
      <trkpt lat="46.33038" lon="-0.29677">
        <ele>92.2962</ele>
        <time>2011-01-09T13:36:04Z</time>
      </trkpt>
      <trkpt lat="46.33037" lon="-0.29677">
        <ele>92.2681</ele>
        <time>2011-01-09T13:36:05Z</time>
      </trkpt>
      <trkpt lat="46.33036" lon="-0.29677">
        <ele>92.2433</ele>
        <time>2011-01-09T13:36:06Z</time>
      </trkpt>
      <trkpt lat="46.33035" lon="-0.29677">
        <ele>92.2187</ele>
        <time>2011-01-09T13:36:07Z</time>
      </trkpt>
      <trkpt lat="46.33034" lon="-0.29677">
        <ele>92.1951</ele>
        <time>2011-01-09T13:36:08Z</time>
      </trkpt>
      <trkpt lat="46.33033" lon="-0.29677">
        <ele>92.1752</ele>
        <time>2011-01-09T13:36:09Z</time>
      </trkpt>
      <trkpt lat="46.33032" lon="-0.29677">
        <ele>92.1536</ele>
        <time>2011-01-09T13:36:10Z</time>
      </trkpt>
      <trkpt lat="46.3303" lon="-0.29677">
        <ele>92.132</ele>
        <time>2011-01-09T13:36:11Z</time>
      </trkpt>
      <trkpt lat="46.33029" lon="-0.29678">
        <ele>92.1042</ele>
        <time>2011-01-09T13:36:12Z</time>
      </trkpt>
      <trkpt lat="46.33028" lon="-0.29678">
        <ele>92.0765</ele>
        <time>2011-01-09T13:36:13Z</time>
      </trkpt>
      <trkpt lat="46.33027" lon="-0.29678">
        <ele>92.0481</ele>
        <time>2011-01-09T13:36:14Z</time>
      </trkpt>
      <trkpt lat="46.33025" lon="-0.29678">
        <ele>92.0162</ele>
        <time>2011-01-09T13:36:15Z</time>
      </trkpt>
      <trkpt lat="46.33024" lon="-0.29678">
        <ele>91.9839</ele>
        <time>2011-01-09T13:36:16Z</time>
      </trkpt>
      <trkpt lat="46.33023" lon="-0.29679">
        <ele>91.9523</ele>
        <time>2011-01-09T13:36:17Z</time>
      </trkpt>
      <trkpt lat="46.33021" lon="-0.29679">
        <ele>91.918</ele>
        <time>2011-01-09T13:36:18Z</time>
      </trkpt>
      <trkpt lat="46.3302" lon="-0.2968">
        <ele>91.8823</ele>
        <time>2011-01-09T13:36:19Z</time>
      </trkpt>
      <trkpt lat="46.33019" lon="-0.2968">
        <ele>91.8459</ele>
        <time>2011-01-09T13:36:20Z</time>
      </trkpt>
      <trkpt lat="46.33017" lon="-0.2968">
        <ele>91.8119</ele>
        <time>2011-01-09T13:36:21Z</time>
      </trkpt>
      <trkpt lat="46.33016" lon="-0.2968">
        <ele>91.7802</ele>
        <time>2011-01-09T13:36:22Z</time>
      </trkpt>
      <trkpt lat="46.33015" lon="-0.2968">
        <ele>91.7511</ele>
        <time>2011-01-09T13:36:23Z</time>
      </trkpt>
      <trkpt lat="46.33014" lon="-0.29681">
        <ele>91.7184</ele>
        <time>2011-01-09T13:36:24Z</time>
      </trkpt>
      <trkpt lat="46.33013" lon="-0.29681">
        <ele>91.6815</ele>
        <time>2011-01-09T13:36:25Z</time>
      </trkpt>
      <trkpt lat="46.33012" lon="-0.29681">
        <ele>91.6425</ele>
        <time>2011-01-09T13:36:26Z</time>
      </trkpt>
      <trkpt lat="46.33011" lon="-0.29682">
        <ele>91.6023</ele>
        <time>2011-01-09T13:36:27Z</time>
      </trkpt>
      <trkpt lat="46.3301" lon="-0.29682">
        <ele>91.5609</ele>
        <time>2011-01-09T13:36:28Z</time>
      </trkpt>
      <trkpt lat="46.33009" lon="-0.29682">
        <ele>91.5204</ele>
        <time>2011-01-09T13:36:29Z</time>
      </trkpt>
      <trkpt lat="46.33008" lon="-0.29682">
        <ele>91.4795</ele>
        <time>2011-01-09T13:36:30Z</time>
      </trkpt>
      <trkpt lat="46.33007" lon="-0.29681">
        <ele>91.441</ele>
        <time>2011-01-09T13:36:31Z</time>
      </trkpt>
      <trkpt lat="46.33006" lon="-0.29682">
        <ele>91.4041</ele>
        <time>2011-01-09T13:36:32Z</time>
      </trkpt>
      <trkpt lat="46.33005" lon="-0.29682">
        <ele>91.3679</ele>
        <time>2011-01-09T13:36:33Z</time>
      </trkpt>
      <trkpt lat="46.33004" lon="-0.29682">
        <ele>91.3322</ele>
        <time>2011-01-09T13:36:34Z</time>
      </trkpt>
      <trkpt lat="46.33003" lon="-0.29682">
        <ele>91.2973</ele>
        <time>2011-01-09T13:36:35Z</time>
      </trkpt>
      <trkpt lat="46.33003" lon="-0.29681">
        <ele>91.2618</ele>
        <time>2011-01-09T13:36:36Z</time>
      </trkpt>
      <trkpt lat="46.33002" lon="-0.29681">
        <ele>91.227</ele>
        <time>2011-01-09T13:36:37Z</time>
      </trkpt>
      <trkpt lat="46.33001" lon="-0.29681">
        <ele>91.1938</ele>
        <time>2011-01-09T13:36:38Z</time>
      </trkpt>
      <trkpt lat="46.33" lon="-0.29681">
        <ele>91.1619</ele>
        <time>2011-01-09T13:36:39Z</time>
      </trkpt>
      <trkpt lat="46.32999" lon="-0.29682">
        <ele>91.1292</ele>
        <time>2011-01-09T13:36:40Z</time>
      </trkpt>
      <trkpt lat="46.32998" lon="-0.29682">
        <ele>91.0918</ele>
        <time>2011-01-09T13:36:41Z</time>
      </trkpt>
      <trkpt lat="46.32997" lon="-0.29682">
        <ele>91.055</ele>
        <time>2011-01-09T13:36:42Z</time>
      </trkpt>
      <trkpt lat="46.32996" lon="-0.29683">
        <ele>91.0151</ele>
        <time>2011-01-09T13:36:43Z</time>
      </trkpt>
      <trkpt lat="46.32995" lon="-0.29683">
        <ele>90.9757</ele>
        <time>2011-01-09T13:36:44Z</time>
      </trkpt>
      <trkpt lat="46.32995" lon="-0.29683">
        <ele>90.9368</ele>
        <time>2011-01-09T13:36:45Z</time>
      </trkpt>
      <trkpt lat="46.32993" lon="-0.29684">
        <ele>90.8961</ele>
        <time>2011-01-09T13:36:46Z</time>
      </trkpt>
      <trkpt lat="46.32992" lon="-0.29684">
        <ele>90.8539</ele>
        <time>2011-01-09T13:36:47Z</time>
      </trkpt>
      <trkpt lat="46.32991" lon="-0.29685">
        <ele>90.8115</ele>
        <time>2011-01-09T13:36:48Z</time>
      </trkpt>
      <trkpt lat="46.3299" lon="-0.29685">
        <ele>90.7681</ele>
        <time>2011-01-09T13:36:49Z</time>
      </trkpt>
      <trkpt lat="46.3299" lon="-0.29686">
        <ele>90.7193</ele>
        <time>2011-01-09T13:36:50Z</time>
      </trkpt>
      <trkpt lat="46.32988" lon="-0.29686">
        <ele>90.6685</ele>
        <time>2011-01-09T13:36:51Z</time>
      </trkpt>
      <trkpt lat="46.32987" lon="-0.29686">
        <ele>90.6163</ele>
        <time>2011-01-09T13:36:52Z</time>
      </trkpt>
      <trkpt lat="46.32987" lon="-0.29686">
        <ele>90.5621</ele>
        <time>2011-01-09T13:36:53Z</time>
      </trkpt>
      <trkpt lat="46.32985" lon="-0.29686">
        <ele>90.5069</ele>
        <time>2011-01-09T13:36:54Z</time>
      </trkpt>
      <trkpt lat="46.32984" lon="-0.29687">
        <ele>90.4501</ele>
        <time>2011-01-09T13:36:55Z</time>
      </trkpt>
      <trkpt lat="46.32983" lon="-0.29687">
        <ele>90.3911</ele>
        <time>2011-01-09T13:36:56Z</time>
      </trkpt>
      <trkpt lat="46.32982" lon="-0.29686">
        <ele>90.3326</ele>
        <time>2011-01-09T13:36:57Z</time>
      </trkpt>
      <trkpt lat="46.32981" lon="-0.29687">
        <ele>90.2747</ele>
        <time>2011-01-09T13:36:58Z</time>
      </trkpt>
      <trkpt lat="46.3298" lon="-0.29687">
        <ele>90.2189</ele>
        <time>2011-01-09T13:36:59Z</time>
      </trkpt>
      <trkpt lat="46.32978" lon="-0.29687">
        <ele>90.1644</ele>
        <time>2011-01-09T13:37:00Z</time>
      </trkpt>
      <trkpt lat="46.32977" lon="-0.29687">
        <ele>90.1126</ele>
        <time>2011-01-09T13:37:01Z</time>
      </trkpt>
      <trkpt lat="46.32977" lon="-0.29688">
        <ele>90.0606</ele>
        <time>2011-01-09T13:37:02Z</time>
      </trkpt>
      <trkpt lat="46.32976" lon="-0.29688">
        <ele>90.0093</ele>
        <time>2011-01-09T13:37:03Z</time>
      </trkpt>
      <trkpt lat="46.32975" lon="-0.29689">
        <ele>89.9592</ele>
        <time>2011-01-09T13:37:04Z</time>
      </trkpt>
      <trkpt lat="46.32974" lon="-0.29689">
        <ele>89.9117</ele>
        <time>2011-01-09T13:37:05Z</time>
      </trkpt>
      <trkpt lat="46.32973" lon="-0.29689">
        <ele>89.866</ele>
        <time>2011-01-09T13:37:06Z</time>
      </trkpt>
      <trkpt lat="46.32972" lon="-0.2969">
        <ele>89.8216</ele>
        <time>2011-01-09T13:37:07Z</time>
      </trkpt>
      <trkpt lat="46.32971" lon="-0.2969">
        <ele>89.7771</ele>
        <time>2011-01-09T13:37:08Z</time>
      </trkpt>
      <trkpt lat="46.3297" lon="-0.2969">
        <ele>89.7333</ele>
        <time>2011-01-09T13:37:09Z</time>
      </trkpt>
      <trkpt lat="46.32969" lon="-0.2969">
        <ele>89.6883</ele>
        <time>2011-01-09T13:37:10Z</time>
      </trkpt>
      <trkpt lat="46.32968" lon="-0.2969">
        <ele>89.6431</ele>
        <time>2011-01-09T13:37:11Z</time>
      </trkpt>
      <trkpt lat="46.32967" lon="-0.29691">
        <ele>89.5968</ele>
        <time>2011-01-09T13:37:12Z</time>
      </trkpt>
      <trkpt lat="46.32967" lon="-0.2969">
        <ele>89.5485</ele>
        <time>2011-01-09T13:37:13Z</time>
      </trkpt>
      <trkpt lat="46.32966" lon="-0.29691">
        <ele>89.5008</ele>
        <time>2011-01-09T13:37:14Z</time>
      </trkpt>
      <trkpt lat="46.32965" lon="-0.29691">
        <ele>89.4521</ele>
        <time>2011-01-09T13:37:15Z</time>
      </trkpt>
      <trkpt lat="46.32964" lon="-0.29691">
        <ele>89.4018</ele>
        <time>2011-01-09T13:37:16Z</time>
      </trkpt>
      <trkpt lat="46.32963" lon="-0.29692">
        <ele>89.3486</ele>
        <time>2011-01-09T13:37:17Z</time>
      </trkpt>
      <trkpt lat="46.32962" lon="-0.29692">
        <ele>89.2947</ele>
        <time>2011-01-09T13:37:18Z</time>
      </trkpt>
      <trkpt lat="46.32961" lon="-0.29692">
        <ele>89.2396</ele>
        <time>2011-01-09T13:37:19Z</time>
      </trkpt>
      <trkpt lat="46.32959" lon="-0.29692">
        <ele>89.1825</ele>
        <time>2011-01-09T13:37:20Z</time>
      </trkpt>
      <trkpt lat="46.32958" lon="-0.29692">
        <ele>89.1216</ele>
        <time>2011-01-09T13:37:21Z</time>
      </trkpt>
      <trkpt lat="46.32957" lon="-0.29692">
        <ele>89.0587</ele>
        <time>2011-01-09T13:37:22Z</time>
      </trkpt>
      <trkpt lat="46.32956" lon="-0.29692">
        <ele>88.9932</ele>
        <time>2011-01-09T13:37:23Z</time>
      </trkpt>
      <trkpt lat="46.32955" lon="-0.29692">
        <ele>88.929</ele>
        <time>2011-01-09T13:37:24Z</time>
      </trkpt>
      <trkpt lat="46.32954" lon="-0.29692">
        <ele>88.8576</ele>
        <time>2011-01-09T13:37:25Z</time>
      </trkpt>
      <trkpt lat="46.32953" lon="-0.29692">
        <ele>88.7781</ele>
        <time>2011-01-09T13:37:26Z</time>
      </trkpt>
      <trkpt lat="46.32952" lon="-0.29692">
        <ele>88.6919</ele>
        <time>2011-01-09T13:37:27Z</time>
      </trkpt>
      <trkpt lat="46.32951" lon="-0.29693">
        <ele>88.6027</ele>
        <time>2011-01-09T13:37:28Z</time>
      </trkpt>
      <trkpt lat="46.32951" lon="-0.29693">
        <ele>88.5127</ele>
        <time>2011-01-09T13:37:29Z</time>
      </trkpt>
      <trkpt lat="46.3295" lon="-0.29693">
        <ele>88.4236</ele>
        <time>2011-01-09T13:37:30Z</time>
      </trkpt>
      <trkpt lat="46.32949" lon="-0.29694">
        <ele>88.3349</ele>
        <time>2011-01-09T13:37:31Z</time>
      </trkpt>
      <trkpt lat="46.32948" lon="-0.29694">
        <ele>88.2462</ele>
        <time>2011-01-09T13:37:32Z</time>
      </trkpt>
      <trkpt lat="46.32948" lon="-0.29694">
        <ele>88.1589</ele>
        <time>2011-01-09T13:37:33Z</time>
      </trkpt>
      <trkpt lat="46.32947" lon="-0.29694">
        <ele>88.0729</ele>
        <time>2011-01-09T13:37:34Z</time>
      </trkpt>
      <trkpt lat="46.32947" lon="-0.29695">
        <ele>87.9882</ele>
        <time>2011-01-09T13:37:35Z</time>
      </trkpt>
      <trkpt lat="46.32946" lon="-0.29695">
        <ele>87.9041</ele>
        <time>2011-01-09T13:37:36Z</time>
      </trkpt>
      <trkpt lat="46.32945" lon="-0.29696">
        <ele>87.8174</ele>
        <time>2011-01-09T13:37:37Z</time>
      </trkpt>
      <trkpt lat="46.32944" lon="-0.29696">
        <ele>87.729</ele>
        <time>2011-01-09T13:37:38Z</time>
      </trkpt>
      <trkpt lat="46.32944" lon="-0.29697">
        <ele>87.6327</ele>
        <time>2011-01-09T13:37:39Z</time>
      </trkpt>
      <trkpt lat="46.32944" lon="-0.29698">
        <ele>87.5336</ele>
        <time>2011-01-09T13:37:40Z</time>
      </trkpt>
      <trkpt lat="46.32944" lon="-0.29698">
        <ele>87.3915</ele>
        <time>2011-01-09T13:37:46Z</time>
      </trkpt>
      <trkpt lat="46.32943" lon="-0.29698">
        <ele>87.3024</ele>
        <time>2011-01-09T13:37:47Z</time>
      </trkpt>
      <trkpt lat="46.32942" lon="-0.29699">
        <ele>87.2158</ele>
        <time>2011-01-09T13:37:48Z</time>
      </trkpt>
      <trkpt lat="46.32941" lon="-0.29699">
        <ele>87.1313</ele>
        <time>2011-01-09T13:37:49Z</time>
      </trkpt>
      <trkpt lat="46.3294" lon="-0.29699">
        <ele>87.0473</ele>
        <time>2011-01-09T13:37:50Z</time>
      </trkpt>
      <trkpt lat="46.32939" lon="-0.29699">
        <ele>86.9652</ele>
        <time>2011-01-09T13:37:51Z</time>
      </trkpt>
      <trkpt lat="46.32938" lon="-0.29699">
        <ele>86.886</ele>
        <time>2011-01-09T13:37:52Z</time>
      </trkpt>
      <trkpt lat="46.32935" lon="-0.297">
        <ele>86.6932</ele>
        <time>2011-01-09T13:38:12Z</time>
      </trkpt>
      <trkpt lat="46.32933" lon="-0.297">
        <ele>86.6379</ele>
        <time>2011-01-09T13:38:13Z</time>
      </trkpt>
      <trkpt lat="46.32933" lon="-0.297">
        <ele>86.5824</ele>
        <time>2011-01-09T13:38:14Z</time>
      </trkpt>
      <trkpt lat="46.32932" lon="-0.297">
        <ele>86.5279</ele>
        <time>2011-01-09T13:38:15Z</time>
      </trkpt>
      <trkpt lat="46.32931" lon="-0.297">
        <ele>86.476</ele>
        <time>2011-01-09T13:38:16Z</time>
      </trkpt>
      <trkpt lat="46.3293" lon="-0.297">
        <ele>86.4247</ele>
        <time>2011-01-09T13:38:17Z</time>
      </trkpt>
      <trkpt lat="46.32929" lon="-0.297">
        <ele>86.375</ele>
        <time>2011-01-09T13:38:18Z</time>
      </trkpt>
      <trkpt lat="46.32928" lon="-0.297">
        <ele>86.3253</ele>
        <time>2011-01-09T13:38:19Z</time>
      </trkpt>
      <trkpt lat="46.32927" lon="-0.29701">
        <ele>86.2756</ele>
        <time>2011-01-09T13:38:20Z</time>
      </trkpt>
      <trkpt lat="46.32926" lon="-0.29701">
        <ele>86.2271</ele>
        <time>2011-01-09T13:38:21Z</time>
      </trkpt>
      <trkpt lat="46.32925" lon="-0.29701">
        <ele>86.1792</ele>
        <time>2011-01-09T13:38:22Z</time>
      </trkpt>
      <trkpt lat="46.32924" lon="-0.29701">
        <ele>86.1321</ele>
        <time>2011-01-09T13:38:23Z</time>
      </trkpt>
      <trkpt lat="46.32922" lon="-0.29702">
        <ele>86.0871</ele>
        <time>2011-01-09T13:38:24Z</time>
      </trkpt>
      <trkpt lat="46.32921" lon="-0.29702">
        <ele>86.0455</ele>
        <time>2011-01-09T13:38:25Z</time>
      </trkpt>
      <trkpt lat="46.3292" lon="-0.29702">
        <ele>86.0028</ele>
        <time>2011-01-09T13:38:26Z</time>
      </trkpt>
      <trkpt lat="46.32919" lon="-0.29703">
        <ele>85.9595</ele>
        <time>2011-01-09T13:38:27Z</time>
      </trkpt>
      <trkpt lat="46.32918" lon="-0.29703">
        <ele>85.9175</ele>
        <time>2011-01-09T13:38:28Z</time>
      </trkpt>
      <trkpt lat="46.32917" lon="-0.29704">
        <ele>85.8738</ele>
        <time>2011-01-09T13:38:29Z</time>
      </trkpt>
      <trkpt lat="46.32916" lon="-0.29704">
        <ele>85.8301</ele>
        <time>2011-01-09T13:38:30Z</time>
      </trkpt>
      <trkpt lat="46.32915" lon="-0.29704">
        <ele>85.7874</ele>
        <time>2011-01-09T13:38:31Z</time>
      </trkpt>
      <trkpt lat="46.32914" lon="-0.29704">
        <ele>85.7465</ele>
        <time>2011-01-09T13:38:32Z</time>
      </trkpt>
      <trkpt lat="46.32913" lon="-0.29704">
        <ele>85.7068</ele>
        <time>2011-01-09T13:38:33Z</time>
      </trkpt>
      <trkpt lat="46.32912" lon="-0.29705">
        <ele>85.6697</ele>
        <time>2011-01-09T13:38:34Z</time>
      </trkpt>
      <trkpt lat="46.32911" lon="-0.29705">
        <ele>85.6325</ele>
        <time>2011-01-09T13:38:35Z</time>
      </trkpt>
      <trkpt lat="46.3291" lon="-0.29705">
        <ele>85.5922</ele>
        <time>2011-01-09T13:38:36Z</time>
      </trkpt>
      <trkpt lat="46.32909" lon="-0.29705">
        <ele>85.5522</ele>
        <time>2011-01-09T13:38:37Z</time>
      </trkpt>
      <trkpt lat="46.32908" lon="-0.29705">
        <ele>85.5132</ele>
        <time>2011-01-09T13:38:38Z</time>
      </trkpt>
      <trkpt lat="46.32908" lon="-0.29705">
        <ele>85.4711</ele>
        <time>2011-01-09T13:38:39Z</time>
      </trkpt>
      <trkpt lat="46.32907" lon="-0.29704">
        <ele>85.4304</ele>
        <time>2011-01-09T13:38:40Z</time>
      </trkpt>
      <trkpt lat="46.32906" lon="-0.29705">
        <ele>85.3905</ele>
        <time>2011-01-09T13:38:41Z</time>
      </trkpt>
      <trkpt lat="46.32905" lon="-0.29705">
        <ele>85.3519</ele>
        <time>2011-01-09T13:38:42Z</time>
      </trkpt>
      <trkpt lat="46.32904" lon="-0.29705">
        <ele>85.3136</ele>
        <time>2011-01-09T13:38:43Z</time>
      </trkpt>
      <trkpt lat="46.32903" lon="-0.29705">
        <ele>85.2767</ele>
        <time>2011-01-09T13:38:44Z</time>
      </trkpt>
      <trkpt lat="46.32903" lon="-0.29706">
        <ele>85.2411</ele>
        <time>2011-01-09T13:38:45Z</time>
      </trkpt>
      <trkpt lat="46.32902" lon="-0.29706">
        <ele>85.2065</ele>
        <time>2011-01-09T13:38:46Z</time>
      </trkpt>
      <trkpt lat="46.32901" lon="-0.29706">
        <ele>85.1737</ele>
        <time>2011-01-09T13:38:47Z</time>
      </trkpt>
      <trkpt lat="46.329" lon="-0.29707">
        <ele>85.1419</ele>
        <time>2011-01-09T13:38:48Z</time>
      </trkpt>
      <trkpt lat="46.329" lon="-0.29707">
        <ele>85.11</ele>
        <time>2011-01-09T13:38:49Z</time>
      </trkpt>
      <trkpt lat="46.32899" lon="-0.29707">
        <ele>85.0789</ele>
        <time>2011-01-09T13:38:50Z</time>
      </trkpt>
      <trkpt lat="46.32898" lon="-0.29707">
        <ele>85.0486</ele>
        <time>2011-01-09T13:38:51Z</time>
      </trkpt>
      <trkpt lat="46.32898" lon="-0.29708">
        <ele>85.0159</ele>
        <time>2011-01-09T13:38:52Z</time>
      </trkpt>
      <trkpt lat="46.32897" lon="-0.29708">
        <ele>84.9858</ele>
        <time>2011-01-09T13:38:53Z</time>
      </trkpt>
      <trkpt lat="46.32896" lon="-0.29708">
        <ele>84.9569</ele>
        <time>2011-01-09T13:38:54Z</time>
      </trkpt>
      <trkpt lat="46.32895" lon="-0.29709">
        <ele>84.9283</ele>
        <time>2011-01-09T13:38:55Z</time>
      </trkpt>
      <trkpt lat="46.32894" lon="-0.29709">
        <ele>84.9011</ele>
        <time>2011-01-09T13:38:56Z</time>
      </trkpt>
      <trkpt lat="46.32893" lon="-0.2971">
        <ele>84.8741</ele>
        <time>2011-01-09T13:38:57Z</time>
      </trkpt>
      <trkpt lat="46.32892" lon="-0.2971">
        <ele>84.8454</ele>
        <time>2011-01-09T13:38:58Z</time>
      </trkpt>
      <trkpt lat="46.32892" lon="-0.2971">
        <ele>84.8094</ele>
        <time>2011-01-09T13:38:59Z</time>
      </trkpt>
      <trkpt lat="46.32891" lon="-0.2971">
        <ele>84.7731</ele>
        <time>2011-01-09T13:39:00Z</time>
      </trkpt>
      <trkpt lat="46.3289" lon="-0.29711">
        <ele>84.7319</ele>
        <time>2011-01-09T13:39:01Z</time>
      </trkpt>
      <trkpt lat="46.32889" lon="-0.29711">
        <ele>84.6911</ele>
        <time>2011-01-09T13:39:02Z</time>
      </trkpt>
      <trkpt lat="46.32888" lon="-0.29711">
        <ele>84.6491</ele>
        <time>2011-01-09T13:39:03Z</time>
      </trkpt>
      <trkpt lat="46.32887" lon="-0.29712">
        <ele>84.6058</ele>
        <time>2011-01-09T13:39:04Z</time>
      </trkpt>
      <trkpt lat="46.32886" lon="-0.29712">
        <ele>84.5583</ele>
        <time>2011-01-09T13:39:05Z</time>
      </trkpt>
      <trkpt lat="46.32885" lon="-0.29711">
        <ele>84.5105</ele>
        <time>2011-01-09T13:39:06Z</time>
      </trkpt>
      <trkpt lat="46.32885" lon="-0.29712">
        <ele>84.4642</ele>
        <time>2011-01-09T13:39:07Z</time>
      </trkpt>
      <trkpt lat="46.32884" lon="-0.29711">
        <ele>84.4119</ele>
        <time>2011-01-09T13:39:08Z</time>
      </trkpt>
      <trkpt lat="46.32883" lon="-0.29711">
        <ele>84.3595</ele>
        <time>2011-01-09T13:39:09Z</time>
      </trkpt>
      <trkpt lat="46.32882" lon="-0.29711">
        <ele>84.3081</ele>
        <time>2011-01-09T13:39:10Z</time>
      </trkpt>
      <trkpt lat="46.32881" lon="-0.29711">
        <ele>84.2591</ele>
        <time>2011-01-09T13:39:11Z</time>
      </trkpt>
      <trkpt lat="46.3288" lon="-0.29711">
        <ele>84.198</ele>
        <time>2011-01-09T13:39:12Z</time>
      </trkpt>
      <trkpt lat="46.32879" lon="-0.29712">
        <ele>84.1306</ele>
        <time>2011-01-09T13:39:13Z</time>
      </trkpt>
      <trkpt lat="46.32878" lon="-0.29712">
        <ele>84.0635</ele>
        <time>2011-01-09T13:39:14Z</time>
      </trkpt>
      <trkpt lat="46.32877" lon="-0.29712">
        <ele>83.9969</ele>
        <time>2011-01-09T13:39:15Z</time>
      </trkpt>
      <trkpt lat="46.32876" lon="-0.29713">
        <ele>83.9227</ele>
        <time>2011-01-09T13:39:16Z</time>
      </trkpt>
      <trkpt lat="46.32875" lon="-0.29713">
        <ele>83.8477</ele>
        <time>2011-01-09T13:39:17Z</time>
      </trkpt>
      <trkpt lat="46.32874" lon="-0.29713">
        <ele>83.7717</ele>
        <time>2011-01-09T13:39:18Z</time>
      </trkpt>
      <trkpt lat="46.32872" lon="-0.29713">
        <ele>83.6896</ele>
        <time>2011-01-09T13:39:19Z</time>
      </trkpt>
      <trkpt lat="46.32871" lon="-0.29713">
        <ele>83.6099</ele>
        <time>2011-01-09T13:39:20Z</time>
      </trkpt>
      <trkpt lat="46.32869" lon="-0.29714">
        <ele>83.5329</ele>
        <time>2011-01-09T13:39:21Z</time>
      </trkpt>
      <trkpt lat="46.32868" lon="-0.29714">
        <ele>83.456</ele>
        <time>2011-01-09T13:39:22Z</time>
      </trkpt>
      <trkpt lat="46.32867" lon="-0.29714">
        <ele>83.3752</ele>
        <time>2011-01-09T13:39:23Z</time>
      </trkpt>
      <trkpt lat="46.32866" lon="-0.29714">
        <ele>83.29</ele>
        <time>2011-01-09T13:39:24Z</time>
      </trkpt>
      <trkpt lat="46.32864" lon="-0.29714">
        <ele>83.1869</ele>
        <time>2011-01-09T13:39:25Z</time>
      </trkpt>
      <trkpt lat="46.32863" lon="-0.29715">
        <ele>83.0713</ele>
        <time>2011-01-09T13:39:26Z</time>
      </trkpt>
      <trkpt lat="46.32861" lon="-0.29716">
        <ele>82.9488</ele>
        <time>2011-01-09T13:39:27Z</time>
      </trkpt>
      <trkpt lat="46.32859" lon="-0.29716">
        <ele>82.8162</ele>
        <time>2011-01-09T13:39:28Z</time>
      </trkpt>
      <trkpt lat="46.32858" lon="-0.29717">
        <ele>82.6698</ele>
        <time>2011-01-09T13:39:29Z</time>
      </trkpt>
      <trkpt lat="46.32855" lon="-0.29717">
        <ele>82.3536</ele>
        <time>2011-01-09T13:39:32Z</time>
      </trkpt>
      <trkpt lat="46.32854" lon="-0.29717">
        <ele>82.2096</ele>
        <time>2011-01-09T13:39:33Z</time>
      </trkpt>
      <trkpt lat="46.32853" lon="-0.29717">
        <ele>82.0627</ele>
        <time>2011-01-09T13:39:34Z</time>
      </trkpt>
      <trkpt lat="46.32852" lon="-0.29717">
        <ele>81.9206</ele>
        <time>2011-01-09T13:39:35Z</time>
      </trkpt>
      <trkpt lat="46.32851" lon="-0.29717">
        <ele>81.7836</ele>
        <time>2011-01-09T13:39:36Z</time>
      </trkpt>
      <trkpt lat="46.3285" lon="-0.29718">
        <ele>81.6553</ele>
        <time>2011-01-09T13:39:37Z</time>
      </trkpt>
      <trkpt lat="46.32848" lon="-0.29719">
        <ele>81.5357</ele>
        <time>2011-01-09T13:39:38Z</time>
      </trkpt>
      <trkpt lat="46.32847" lon="-0.2972">
        <ele>81.4173</ele>
        <time>2011-01-09T13:39:39Z</time>
      </trkpt>
      <trkpt lat="46.32846" lon="-0.2972">
        <ele>81.3031</ele>
        <time>2011-01-09T13:39:40Z</time>
      </trkpt>
      <trkpt lat="46.32845" lon="-0.2972">
        <ele>81.1886</ele>
        <time>2011-01-09T13:39:41Z</time>
      </trkpt>
      <trkpt lat="46.32844" lon="-0.29721">
        <ele>81.0763</ele>
        <time>2011-01-09T13:39:42Z</time>
      </trkpt>
      <trkpt lat="46.32843" lon="-0.29721">
        <ele>80.9684</ele>
        <time>2011-01-09T13:39:43Z</time>
      </trkpt>
      <trkpt lat="46.32842" lon="-0.29721">
        <ele>80.8665</ele>
        <time>2011-01-09T13:39:44Z</time>
      </trkpt>
      <trkpt lat="46.32841" lon="-0.29722">
        <ele>80.7639</ele>
        <time>2011-01-09T13:39:45Z</time>
      </trkpt>
      <trkpt lat="46.3284" lon="-0.29722">
        <ele>80.6642</ele>
        <time>2011-01-09T13:39:46Z</time>
      </trkpt>
      <trkpt lat="46.32839" lon="-0.29722">
        <ele>80.5649</ele>
        <time>2011-01-09T13:39:47Z</time>
      </trkpt>
      <trkpt lat="46.32838" lon="-0.29723">
        <ele>80.4592</ele>
        <time>2011-01-09T13:39:48Z</time>
      </trkpt>
      <trkpt lat="46.32837" lon="-0.29723">
        <ele>80.3553</ele>
        <time>2011-01-09T13:39:49Z</time>
      </trkpt>
      <trkpt lat="46.32836" lon="-0.29722">
        <ele>80.2517</ele>
        <time>2011-01-09T13:39:50Z</time>
      </trkpt>
      <trkpt lat="46.32835" lon="-0.29723">
        <ele>80.1497</ele>
        <time>2011-01-09T13:39:51Z</time>
      </trkpt>
      <trkpt lat="46.32834" lon="-0.29723">
        <ele>80.0502</ele>
        <time>2011-01-09T13:39:52Z</time>
      </trkpt>
      <trkpt lat="46.32833" lon="-0.29723">
        <ele>79.9527</ele>
        <time>2011-01-09T13:39:53Z</time>
      </trkpt>
      <trkpt lat="46.32832" lon="-0.29723">
        <ele>79.8567</ele>
        <time>2011-01-09T13:39:54Z</time>
      </trkpt>
      <trkpt lat="46.3283" lon="-0.29723">
        <ele>79.7623</ele>
        <time>2011-01-09T13:39:55Z</time>
      </trkpt>
      <trkpt lat="46.32829" lon="-0.29724">
        <ele>79.6664</ele>
        <time>2011-01-09T13:39:56Z</time>
      </trkpt>
      <trkpt lat="46.32828" lon="-0.29724">
        <ele>79.5678</ele>
        <time>2011-01-09T13:39:57Z</time>
      </trkpt>
      <trkpt lat="46.32827" lon="-0.29724">
        <ele>79.467</ele>
        <time>2011-01-09T13:39:58Z</time>
      </trkpt>
      <trkpt lat="46.32826" lon="-0.29724">
        <ele>79.3717</ele>
        <time>2011-01-09T13:39:59Z</time>
      </trkpt>
      <trkpt lat="46.32825" lon="-0.29724">
        <ele>79.2725</ele>
        <time>2011-01-09T13:40:00Z</time>
      </trkpt>
      <trkpt lat="46.32824" lon="-0.29724">
        <ele>79.1763</ele>
        <time>2011-01-09T13:40:01Z</time>
      </trkpt>
      <trkpt lat="46.32823" lon="-0.29725">
        <ele>79.0817</ele>
        <time>2011-01-09T13:40:02Z</time>
      </trkpt>
      <trkpt lat="46.32822" lon="-0.29725">
        <ele>78.9883</ele>
        <time>2011-01-09T13:40:03Z</time>
      </trkpt>
      <trkpt lat="46.32821" lon="-0.29726">
        <ele>78.8974</ele>
        <time>2011-01-09T13:40:04Z</time>
      </trkpt>
      <trkpt lat="46.3282" lon="-0.29726">
        <ele>78.8076</ele>
        <time>2011-01-09T13:40:05Z</time>
      </trkpt>
      <trkpt lat="46.32819" lon="-0.29726">
        <ele>78.7205</ele>
        <time>2011-01-09T13:40:06Z</time>
      </trkpt>
      <trkpt lat="46.32818" lon="-0.29726">
        <ele>78.6336</ele>
        <time>2011-01-09T13:40:07Z</time>
      </trkpt>
      <trkpt lat="46.32817" lon="-0.29727">
        <ele>78.5484</ele>
        <time>2011-01-09T13:40:08Z</time>
      </trkpt>
      <trkpt lat="46.32816" lon="-0.29727">
        <ele>78.4594</ele>
        <time>2011-01-09T13:40:09Z</time>
      </trkpt>
      <trkpt lat="46.32816" lon="-0.29727">
        <ele>78.3707</ele>
        <time>2011-01-09T13:40:10Z</time>
      </trkpt>
      <trkpt lat="46.32815" lon="-0.29727">
        <ele>78.2816</ele>
        <time>2011-01-09T13:40:11Z</time>
      </trkpt>
      <trkpt lat="46.32814" lon="-0.29728">
        <ele>78.1956</ele>
        <time>2011-01-09T13:40:12Z</time>
      </trkpt>
      <trkpt lat="46.32814" lon="-0.29729">
        <ele>78.1114</ele>
        <time>2011-01-09T13:40:13Z</time>
      </trkpt>
      <trkpt lat="46.32813" lon="-0.29729">
        <ele>77.7534</ele>
        <time>2011-01-09T13:40:18Z</time>
      </trkpt>
      <trkpt lat="46.32812" lon="-0.2973">
        <ele>77.6713</ele>
        <time>2011-01-09T13:40:19Z</time>
      </trkpt>
      <trkpt lat="46.32811" lon="-0.2973">
        <ele>77.5904</ele>
        <time>2011-01-09T13:40:20Z</time>
      </trkpt>
      <trkpt lat="46.32811" lon="-0.2973">
        <ele>77.512</ele>
        <time>2011-01-09T13:40:21Z</time>
      </trkpt>
      <trkpt lat="46.3281" lon="-0.2973">
        <ele>77.4342</ele>
        <time>2011-01-09T13:40:22Z</time>
      </trkpt>
      <trkpt lat="46.32809" lon="-0.2973">
        <ele>77.356</ele>
        <time>2011-01-09T13:40:23Z</time>
      </trkpt>
      <trkpt lat="46.32808" lon="-0.2973">
        <ele>77.2588</ele>
        <time>2011-01-09T13:40:25Z</time>
      </trkpt>
      <trkpt lat="46.32808" lon="-0.29731">
        <ele>77.1709</ele>
        <time>2011-01-09T13:40:26Z</time>
      </trkpt>
      <trkpt lat="46.32806" lon="-0.29731">
        <ele>77.0825</ele>
        <time>2011-01-09T13:40:27Z</time>
      </trkpt>
      <trkpt lat="46.32805" lon="-0.29732">
        <ele>77.0014</ele>
        <time>2011-01-09T13:40:28Z</time>
      </trkpt>
      <trkpt lat="46.32804" lon="-0.29732">
        <ele>76.9228</ele>
        <time>2011-01-09T13:40:29Z</time>
      </trkpt>
      <trkpt lat="46.32803" lon="-0.29732">
        <ele>76.8459</ele>
        <time>2011-01-09T13:40:30Z</time>
      </trkpt>
      <trkpt lat="46.32802" lon="-0.29732">
        <ele>76.7697</ele>
        <time>2011-01-09T13:40:31Z</time>
      </trkpt>
      <trkpt lat="46.32801" lon="-0.29732">
        <ele>76.6962</ele>
        <time>2011-01-09T13:40:32Z</time>
      </trkpt>
      <trkpt lat="46.328" lon="-0.29733">
        <ele>76.628</ele>
        <time>2011-01-09T13:40:33Z</time>
      </trkpt>
      <trkpt lat="46.32799" lon="-0.29734">
        <ele>76.56</ele>
        <time>2011-01-09T13:40:34Z</time>
      </trkpt>
      <trkpt lat="46.32798" lon="-0.29734">
        <ele>76.4864</ele>
        <time>2011-01-09T13:40:35Z</time>
      </trkpt>
      <trkpt lat="46.32797" lon="-0.29735">
        <ele>76.4125</ele>
        <time>2011-01-09T13:40:36Z</time>
      </trkpt>
      <trkpt lat="46.32796" lon="-0.29735">
        <ele>76.3371</ele>
        <time>2011-01-09T13:40:37Z</time>
      </trkpt>
      <trkpt lat="46.32795" lon="-0.29735">
        <ele>76.264</ele>
        <time>2011-01-09T13:40:38Z</time>
      </trkpt>
      <trkpt lat="46.32793" lon="-0.29735">
        <ele>76.1886</ele>
        <time>2011-01-09T13:40:39Z</time>
      </trkpt>
      <trkpt lat="46.32793" lon="-0.29735">
        <ele>76.1124</ele>
        <time>2011-01-09T13:40:40Z</time>
      </trkpt>
      <trkpt lat="46.32792" lon="-0.29735">
        <ele>76.0404</ele>
        <time>2011-01-09T13:40:41Z</time>
      </trkpt>
      <trkpt lat="46.32791" lon="-0.29735">
        <ele>75.9716</ele>
        <time>2011-01-09T13:40:42Z</time>
      </trkpt>
      <trkpt lat="46.3279" lon="-0.29736">
        <ele>75.8976</ele>
        <time>2011-01-09T13:40:43Z</time>
      </trkpt>
      <trkpt lat="46.32789" lon="-0.29736">
        <ele>75.8178</ele>
        <time>2011-01-09T13:40:44Z</time>
      </trkpt>
      <trkpt lat="46.32788" lon="-0.29736">
        <ele>75.729</ele>
        <time>2011-01-09T13:40:45Z</time>
      </trkpt>
      <trkpt lat="46.32787" lon="-0.29736">
        <ele>75.6355</ele>
        <time>2011-01-09T13:40:46Z</time>
      </trkpt>
      <trkpt lat="46.32786" lon="-0.29737">
        <ele>75.5424</ele>
        <time>2011-01-09T13:40:47Z</time>
      </trkpt>
      <trkpt lat="46.32785" lon="-0.29737">
        <ele>75.4536</ele>
        <time>2011-01-09T13:40:48Z</time>
      </trkpt>
      <trkpt lat="46.32784" lon="-0.29737">
        <ele>75.3637</ele>
        <time>2011-01-09T13:40:49Z</time>
      </trkpt>
      <trkpt lat="46.32783" lon="-0.29737">
        <ele>75.2757</ele>
        <time>2011-01-09T13:40:50Z</time>
      </trkpt>
      <trkpt lat="46.32782" lon="-0.29737">
        <ele>75.1899</ele>
        <time>2011-01-09T13:40:51Z</time>
      </trkpt>
      <trkpt lat="46.32781" lon="-0.29737">
        <ele>75.1031</ele>
        <time>2011-01-09T13:40:52Z</time>
      </trkpt>
      <trkpt lat="46.32781" lon="-0.29737">
        <ele>75.0129</ele>
        <time>2011-01-09T13:40:53Z</time>
      </trkpt>
      <trkpt lat="46.3278" lon="-0.29738">
        <ele>74.9234</ele>
        <time>2011-01-09T13:40:54Z</time>
      </trkpt>
      <trkpt lat="46.32779" lon="-0.29739">
        <ele>74.8333</ele>
        <time>2011-01-09T13:40:55Z</time>
      </trkpt>
      <trkpt lat="46.32778" lon="-0.29739">
        <ele>74.7455</ele>
        <time>2011-01-09T13:40:56Z</time>
      </trkpt>
      <trkpt lat="46.32777" lon="-0.2974">
        <ele>74.6586</ele>
        <time>2011-01-09T13:40:57Z</time>
      </trkpt>
      <trkpt lat="46.32777" lon="-0.29741">
        <ele>74.573</ele>
        <time>2011-01-09T13:40:58Z</time>
      </trkpt>
      <trkpt lat="46.32775" lon="-0.29742">
        <ele>74.3965</ele>
        <time>2011-01-09T13:41:01Z</time>
      </trkpt>
      <trkpt lat="46.32774" lon="-0.29742">
        <ele>74.3151</ele>
        <time>2011-01-09T13:41:02Z</time>
      </trkpt>
      <trkpt lat="46.32773" lon="-0.29742">
        <ele>74.2363</ele>
        <time>2011-01-09T13:41:03Z</time>
      </trkpt>
      <trkpt lat="46.32772" lon="-0.29743">
        <ele>74.1599</ele>
        <time>2011-01-09T13:41:04Z</time>
      </trkpt>
      <trkpt lat="46.32772" lon="-0.29743">
        <ele>74.0792</ele>
        <time>2011-01-09T13:41:05Z</time>
      </trkpt>
      <trkpt lat="46.32771" lon="-0.29744">
        <ele>73.998</ele>
        <time>2011-01-09T13:41:06Z</time>
      </trkpt>
      <trkpt lat="46.3277" lon="-0.29744">
        <ele>73.918</ele>
        <time>2011-01-09T13:41:07Z</time>
      </trkpt>
      <trkpt lat="46.32769" lon="-0.29744">
        <ele>73.8372</ele>
        <time>2011-01-09T13:41:08Z</time>
      </trkpt>
      <trkpt lat="46.32768" lon="-0.29744">
        <ele>73.7565</ele>
        <time>2011-01-09T13:41:09Z</time>
      </trkpt>
      <trkpt lat="46.32767" lon="-0.29745">
        <ele>73.6751</ele>
        <time>2011-01-09T13:41:10Z</time>
      </trkpt>
      <trkpt lat="46.32766" lon="-0.29745">
        <ele>73.5968</ele>
        <time>2011-01-09T13:41:11Z</time>
      </trkpt>
      <trkpt lat="46.32765" lon="-0.29746">
        <ele>73.5214</ele>
        <time>2011-01-09T13:41:12Z</time>
      </trkpt>
      <trkpt lat="46.32764" lon="-0.29746">
        <ele>73.4421</ele>
        <time>2011-01-09T13:41:13Z</time>
      </trkpt>
      <trkpt lat="46.32763" lon="-0.29746">
        <ele>73.3622</ele>
        <time>2011-01-09T13:41:14Z</time>
      </trkpt>
      <trkpt lat="46.32762" lon="-0.29747">
        <ele>73.2804</ele>
        <time>2011-01-09T13:41:15Z</time>
      </trkpt>
      <trkpt lat="46.32761" lon="-0.29747">
        <ele>73.2024</ele>
        <time>2011-01-09T13:41:16Z</time>
      </trkpt>
      <trkpt lat="46.3276" lon="-0.29747">
        <ele>73.1296</ele>
        <time>2011-01-09T13:41:17Z</time>
      </trkpt>
      <trkpt lat="46.3276" lon="-0.29748">
        <ele>73.0585</ele>
        <time>2011-01-09T13:41:18Z</time>
      </trkpt>
      <trkpt lat="46.32759" lon="-0.29748">
        <ele>72.9888</ele>
        <time>2011-01-09T13:41:19Z</time>
      </trkpt>
      <trkpt lat="46.32758" lon="-0.29748">
        <ele>72.9208</ele>
        <time>2011-01-09T13:41:20Z</time>
      </trkpt>
      <trkpt lat="46.32757" lon="-0.29748">
        <ele>72.8531</ele>
        <time>2011-01-09T13:41:21Z</time>
      </trkpt>
      <trkpt lat="46.32756" lon="-0.29748">
        <ele>72.7871</ele>
        <time>2011-01-09T13:41:22Z</time>
      </trkpt>
      <trkpt lat="46.32755" lon="-0.29749">
        <ele>72.7164</ele>
        <time>2011-01-09T13:41:23Z</time>
      </trkpt>
      <trkpt lat="46.32755" lon="-0.29749">
        <ele>72.6414</ele>
        <time>2011-01-09T13:41:24Z</time>
      </trkpt>
      <trkpt lat="46.32753" lon="-0.29749">
        <ele>72.5667</ele>
        <time>2011-01-09T13:41:25Z</time>
      </trkpt>
      <trkpt lat="46.32753" lon="-0.29749">
        <ele>72.4931</ele>
        <time>2011-01-09T13:41:26Z</time>
      </trkpt>
      <trkpt lat="46.32752" lon="-0.2975">
        <ele>72.4221</ele>
        <time>2011-01-09T13:41:27Z</time>
      </trkpt>
      <trkpt lat="46.32751" lon="-0.2975">
        <ele>72.3521</ele>
        <time>2011-01-09T13:41:28Z</time>
      </trkpt>
      <trkpt lat="46.3275" lon="-0.29749">
        <ele>72.283</ele>
        <time>2011-01-09T13:41:29Z</time>
      </trkpt>
      <trkpt lat="46.32749" lon="-0.29749">
        <ele>72.2139</ele>
        <time>2011-01-09T13:41:30Z</time>
      </trkpt>
      <trkpt lat="46.32748" lon="-0.29749">
        <ele>72.1469</ele>
        <time>2011-01-09T13:41:31Z</time>
      </trkpt>
      <trkpt lat="46.32747" lon="-0.29749">
        <ele>72.0834</ele>
        <time>2011-01-09T13:41:32Z</time>
      </trkpt>
      <trkpt lat="46.32747" lon="-0.29749">
        <ele>72.0252</ele>
        <time>2011-01-09T13:41:33Z</time>
      </trkpt>
      <trkpt lat="46.32746" lon="-0.2975">
        <ele>71.9683</ele>
        <time>2011-01-09T13:41:34Z</time>
      </trkpt>
      <trkpt lat="46.32745" lon="-0.2975">
        <ele>71.9119</ele>
        <time>2011-01-09T13:41:35Z</time>
      </trkpt>
      <trkpt lat="46.32744" lon="-0.29749">
        <ele>71.8573</ele>
        <time>2011-01-09T13:41:36Z</time>
      </trkpt>
      <trkpt lat="46.32743" lon="-0.2975">
        <ele>71.8037</ele>
        <time>2011-01-09T13:41:37Z</time>
      </trkpt>
      <trkpt lat="46.32742" lon="-0.2975">
        <ele>71.7429</ele>
        <time>2011-01-09T13:41:38Z</time>
      </trkpt>
      <trkpt lat="46.32742" lon="-0.2975">
        <ele>71.6734</ele>
        <time>2011-01-09T13:41:39Z</time>
      </trkpt>
      <trkpt lat="46.32741" lon="-0.2975">
        <ele>71.5982</ele>
        <time>2011-01-09T13:41:40Z</time>
      </trkpt>
      <trkpt lat="46.3274" lon="-0.2975">
        <ele>71.5277</ele>
        <time>2011-01-09T13:41:41Z</time>
      </trkpt>
      <trkpt lat="46.32739" lon="-0.2975">
        <ele>71.4627</ele>
        <time>2011-01-09T13:41:42Z</time>
      </trkpt>
      <trkpt lat="46.32738" lon="-0.2975">
        <ele>71.3958</ele>
        <time>2011-01-09T13:41:43Z</time>
      </trkpt>
      <trkpt lat="46.32737" lon="-0.2975">
        <ele>71.3295</ele>
        <time>2011-01-09T13:41:44Z</time>
      </trkpt>
      <trkpt lat="46.32735" lon="-0.2975">
        <ele>71.2632</ele>
        <time>2011-01-09T13:41:45Z</time>
      </trkpt>
      <trkpt lat="46.32734" lon="-0.2975">
        <ele>71.1919</ele>
        <time>2011-01-09T13:41:46Z</time>
      </trkpt>
      <trkpt lat="46.32733" lon="-0.2975">
        <ele>71.1204</ele>
        <time>2011-01-09T13:41:47Z</time>
      </trkpt>
      <trkpt lat="46.32732" lon="-0.2975">
        <ele>71.049</ele>
        <time>2011-01-09T13:41:48Z</time>
      </trkpt>
      <trkpt lat="46.3273" lon="-0.29749">
        <ele>70.9784</ele>
        <time>2011-01-09T13:41:49Z</time>
      </trkpt>
      <trkpt lat="46.32729" lon="-0.29749">
        <ele>70.9094</ele>
        <time>2011-01-09T13:41:50Z</time>
      </trkpt>
      <trkpt lat="46.32727" lon="-0.29749">
        <ele>70.8408</ele>
        <time>2011-01-09T13:41:51Z</time>
      </trkpt>
      <trkpt lat="46.32726" lon="-0.29749">
        <ele>70.7727</ele>
        <time>2011-01-09T13:41:52Z</time>
      </trkpt>
      <trkpt lat="46.32724" lon="-0.29749">
        <ele>70.7037</ele>
        <time>2011-01-09T13:41:53Z</time>
      </trkpt>
      <trkpt lat="46.32723" lon="-0.29748">
        <ele>70.6342</ele>
        <time>2011-01-09T13:41:54Z</time>
      </trkpt>
      <trkpt lat="46.32721" lon="-0.29748">
        <ele>70.5655</ele>
        <time>2011-01-09T13:41:55Z</time>
      </trkpt>
      <trkpt lat="46.32719" lon="-0.29748">
        <ele>70.4966</ele>
        <time>2011-01-09T13:41:56Z</time>
      </trkpt>
      <trkpt lat="46.32718" lon="-0.29748">
        <ele>70.4262</ele>
        <time>2011-01-09T13:41:57Z</time>
      </trkpt>
      <trkpt lat="46.32717" lon="-0.29747">
        <ele>70.3547</ele>
        <time>2011-01-09T13:41:58Z</time>
      </trkpt>
      <trkpt lat="46.32715" lon="-0.29746">
        <ele>70.284</ele>
        <time>2011-01-09T13:41:59Z</time>
      </trkpt>
      <trkpt lat="46.32714" lon="-0.29746">
        <ele>70.2141</ele>
        <time>2011-01-09T13:42:00Z</time>
      </trkpt>
      <trkpt lat="46.32713" lon="-0.29746">
        <ele>70.1432</ele>
        <time>2011-01-09T13:42:01Z</time>
      </trkpt>
      <trkpt lat="46.32713" lon="-0.29745">
        <ele>70.0208</ele>
        <time>2011-01-09T13:42:06Z</time>
      </trkpt>
      <trkpt lat="46.32712" lon="-0.29745">
        <ele>69.9286</ele>
        <time>2011-01-09T13:42:07Z</time>
      </trkpt>
      <trkpt lat="46.32711" lon="-0.29744">
        <ele>69.8385</ele>
        <time>2011-01-09T13:42:08Z</time>
      </trkpt>
      <trkpt lat="46.32711" lon="-0.29744">
        <ele>69.7526</ele>
        <time>2011-01-09T13:42:09Z</time>
      </trkpt>
      <trkpt lat="46.3271" lon="-0.29744">
        <ele>69.6692</ele>
        <time>2011-01-09T13:42:10Z</time>
      </trkpt>
      <trkpt lat="46.32709" lon="-0.29744">
        <ele>69.5887</ele>
        <time>2011-01-09T13:42:11Z</time>
      </trkpt>
      <trkpt lat="46.32708" lon="-0.29743">
        <ele>69.5074</ele>
        <time>2011-01-09T13:42:12Z</time>
      </trkpt>
      <trkpt lat="46.32708" lon="-0.29743">
        <ele>69.4272</ele>
        <time>2011-01-09T13:42:13Z</time>
      </trkpt>
      <trkpt lat="46.32707" lon="-0.29743">
        <ele>69.3445</ele>
        <time>2011-01-09T13:42:14Z</time>
      </trkpt>
      <trkpt lat="46.32705" lon="-0.29743">
        <ele>69.2592</ele>
        <time>2011-01-09T13:42:15Z</time>
      </trkpt>
      <trkpt lat="46.32704" lon="-0.29743">
        <ele>69.1692</ele>
        <time>2011-01-09T13:42:16Z</time>
      </trkpt>
      <trkpt lat="46.32704" lon="-0.29744">
        <ele>69.0798</ele>
        <time>2011-01-09T13:42:17Z</time>
      </trkpt>
      <trkpt lat="46.32703" lon="-0.29743">
        <ele>68.9933</ele>
        <time>2011-01-09T13:42:18Z</time>
      </trkpt>
      <trkpt lat="46.32703" lon="-0.29743">
        <ele>68.9098</ele>
        <time>2011-01-09T13:42:19Z</time>
      </trkpt>
      <trkpt lat="46.32702" lon="-0.29742">
        <ele>68.8305</ele>
        <time>2011-01-09T13:42:20Z</time>
      </trkpt>
      <trkpt lat="46.32701" lon="-0.29741">
        <ele>68.7598</ele>
        <time>2011-01-09T13:42:21Z</time>
      </trkpt>
      <trkpt lat="46.327" lon="-0.2974">
        <ele>68.6919</ele>
        <time>2011-01-09T13:42:22Z</time>
      </trkpt>
      <trkpt lat="46.32699" lon="-0.2974">
        <ele>68.6246</ele>
        <time>2011-01-09T13:42:23Z</time>
      </trkpt>
      <trkpt lat="46.32698" lon="-0.29739">
        <ele>68.5588</ele>
        <time>2011-01-09T13:42:24Z</time>
      </trkpt>
      <trkpt lat="46.32696" lon="-0.29739">
        <ele>68.4921</ele>
        <time>2011-01-09T13:42:25Z</time>
      </trkpt>
      <trkpt lat="46.32695" lon="-0.29738">
        <ele>68.4285</ele>
        <time>2011-01-09T13:42:26Z</time>
      </trkpt>
      <trkpt lat="46.32694" lon="-0.29738">
        <ele>68.356</ele>
        <time>2011-01-09T13:42:27Z</time>
      </trkpt>
      <trkpt lat="46.32689" lon="-0.29739">
        <ele>67.9622</ele>
        <time>2011-01-09T13:42:44Z</time>
      </trkpt>
      <trkpt lat="46.32687" lon="-0.29739">
        <ele>67.6086</ele>
        <time>2011-01-09T13:42:48Z</time>
      </trkpt>
      <trkpt lat="46.32686" lon="-0.29738">
        <ele>67.4879</ele>
        <time>2011-01-09T13:42:49Z</time>
      </trkpt>
      <trkpt lat="46.32685" lon="-0.29737">
        <ele>67.3692</ele>
        <time>2011-01-09T13:42:50Z</time>
      </trkpt>
      <trkpt lat="46.32684" lon="-0.29737">
        <ele>67.2555</ele>
        <time>2011-01-09T13:42:51Z</time>
      </trkpt>
      <trkpt lat="46.32683" lon="-0.29736">
        <ele>67.1477</ele>
        <time>2011-01-09T13:42:52Z</time>
      </trkpt>
      <trkpt lat="46.32682" lon="-0.29734">
        <ele>67.0752</ele>
        <time>2011-01-09T13:42:53Z</time>
      </trkpt>
      <trkpt lat="46.32681" lon="-0.29733">
        <ele>67.0045</ele>
        <time>2011-01-09T13:42:54Z</time>
      </trkpt>
      <trkpt lat="46.3268" lon="-0.29732">
        <ele>66.9376</ele>
        <time>2011-01-09T13:42:55Z</time>
      </trkpt>
      <trkpt lat="46.32679" lon="-0.29732">
        <ele>66.8742</ele>
        <time>2011-01-09T13:42:56Z</time>
      </trkpt>
      <trkpt lat="46.32678" lon="-0.29731">
        <ele>66.8146</ele>
        <time>2011-01-09T13:42:57Z</time>
      </trkpt>
      <trkpt lat="46.32677" lon="-0.2973">
        <ele>66.759</ele>
        <time>2011-01-09T13:42:58Z</time>
      </trkpt>
      <trkpt lat="46.32676" lon="-0.29729">
        <ele>66.7076</ele>
        <time>2011-01-09T13:42:59Z</time>
      </trkpt>
      <trkpt lat="46.32675" lon="-0.29728">
        <ele>66.6598</ele>
        <time>2011-01-09T13:43:00Z</time>
      </trkpt>
      <trkpt lat="46.32674" lon="-0.29727">
        <ele>66.6128</ele>
        <time>2011-01-09T13:43:01Z</time>
      </trkpt>
      <trkpt lat="46.32673" lon="-0.29726">
        <ele>66.5831</ele>
        <time>2011-01-09T13:43:02Z</time>
      </trkpt>
      <trkpt lat="46.32673" lon="-0.29726">
        <ele>66.553</ele>
        <time>2011-01-09T13:43:03Z</time>
      </trkpt>
      <trkpt lat="46.32672" lon="-0.29725">
        <ele>66.5258</ele>
        <time>2011-01-09T13:43:04Z</time>
      </trkpt>
      <trkpt lat="46.32671" lon="-0.29725">
        <ele>66.502</ele>
        <time>2011-01-09T13:43:05Z</time>
      </trkpt>
      <trkpt lat="46.3267" lon="-0.29725">
        <ele>66.4892</ele>
        <time>2011-01-09T13:43:06Z</time>
      </trkpt>
      <trkpt lat="46.32669" lon="-0.29724">
        <ele>66.4842</ele>
        <time>2011-01-09T13:43:07Z</time>
      </trkpt>
      <trkpt lat="46.32669" lon="-0.29724">
        <ele>66.4818</ele>
        <time>2011-01-09T13:43:08Z</time>
      </trkpt>
      <trkpt lat="46.32668" lon="-0.29723">
        <ele>66.4837</ele>
        <time>2011-01-09T13:43:09Z</time>
      </trkpt>
      <trkpt lat="46.32667" lon="-0.29723">
        <ele>66.4882</ele>
        <time>2011-01-09T13:43:10Z</time>
      </trkpt>
      <trkpt lat="46.32666" lon="-0.29723">
        <ele>66.4926</ele>
        <time>2011-01-09T13:43:11Z</time>
      </trkpt>
      <trkpt lat="46.32665" lon="-0.29722">
        <ele>66.4971</ele>
        <time>2011-01-09T13:43:12Z</time>
      </trkpt>
      <trkpt lat="46.32664" lon="-0.29722">
        <ele>66.5019</ele>
        <time>2011-01-09T13:43:13Z</time>
      </trkpt>
      <trkpt lat="46.32663" lon="-0.29721">
        <ele>66.5067</ele>
        <time>2011-01-09T13:43:14Z</time>
      </trkpt>
      <trkpt lat="46.32662" lon="-0.29721">
        <ele>66.5134</ele>
        <time>2011-01-09T13:43:15Z</time>
      </trkpt>
      <trkpt lat="46.3266" lon="-0.29721">
        <ele>66.5294</ele>
        <time>2011-01-09T13:43:16Z</time>
      </trkpt>
      <trkpt lat="46.32659" lon="-0.2972">
        <ele>66.5566</ele>
        <time>2011-01-09T13:43:17Z</time>
      </trkpt>
      <trkpt lat="46.32658" lon="-0.2972">
        <ele>66.5893</ele>
        <time>2011-01-09T13:43:18Z</time>
      </trkpt>
      <trkpt lat="46.32657" lon="-0.2972">
        <ele>66.6211</ele>
        <time>2011-01-09T13:43:19Z</time>
      </trkpt>
      <trkpt lat="46.32656" lon="-0.2972">
        <ele>66.6523</ele>
        <time>2011-01-09T13:43:20Z</time>
      </trkpt>
      <trkpt lat="46.32655" lon="-0.2972">
        <ele>66.6826</ele>
        <time>2011-01-09T13:43:21Z</time>
      </trkpt>
      <trkpt lat="46.32654" lon="-0.29719">
        <ele>66.7168</ele>
        <time>2011-01-09T13:43:22Z</time>
      </trkpt>
      <trkpt lat="46.32653" lon="-0.29719">
        <ele>66.7475</ele>
        <time>2011-01-09T13:43:23Z</time>
      </trkpt>
      <trkpt lat="46.32652" lon="-0.29718">
        <ele>66.7759</ele>
        <time>2011-01-09T13:43:24Z</time>
      </trkpt>
      <trkpt lat="46.32651" lon="-0.29717">
        <ele>66.8029</ele>
        <time>2011-01-09T13:43:25Z</time>
      </trkpt>
      <trkpt lat="46.3265" lon="-0.29716">
        <ele>66.8298</ele>
        <time>2011-01-09T13:43:26Z</time>
      </trkpt>
      <trkpt lat="46.32649" lon="-0.29715">
        <ele>66.8593</ele>
        <time>2011-01-09T13:43:27Z</time>
      </trkpt>
      <trkpt lat="46.32648" lon="-0.29714">
        <ele>66.8939</ele>
        <time>2011-01-09T13:43:28Z</time>
      </trkpt>
      <trkpt lat="46.32647" lon="-0.29713">
        <ele>66.9343</ele>
        <time>2011-01-09T13:43:29Z</time>
      </trkpt>
      <trkpt lat="46.32647" lon="-0.29712">
        <ele>66.9795</ele>
        <time>2011-01-09T13:43:30Z</time>
      </trkpt>
      <trkpt lat="46.32646" lon="-0.29711">
        <ele>67.028</ele>
        <time>2011-01-09T13:43:31Z</time>
      </trkpt>
      <trkpt lat="46.32644" lon="-0.29708">
        <ele>67.1204</ele>
        <time>2011-01-09T13:43:39Z</time>
      </trkpt>
      <trkpt lat="46.32645" lon="-0.29705">
        <ele>67.0855</ele>
        <time>2011-01-09T13:43:50Z</time>
      </trkpt>
      <trkpt lat="46.32645" lon="-0.29704">
        <ele>67.0643</ele>
        <time>2011-01-09T13:43:51Z</time>
      </trkpt>
      <trkpt lat="46.32644" lon="-0.29704">
        <ele>67.0498</ele>
        <time>2011-01-09T13:43:52Z</time>
      </trkpt>
      <trkpt lat="46.32644" lon="-0.29703">
        <ele>67.0342</ele>
        <time>2011-01-09T13:43:53Z</time>
      </trkpt>
      <trkpt lat="46.32644" lon="-0.29702">
        <ele>67.0185</ele>
        <time>2011-01-09T13:43:54Z</time>
      </trkpt>
      <trkpt lat="46.32643" lon="-0.29702">
        <ele>67.0077</ele>
        <time>2011-01-09T13:43:55Z</time>
      </trkpt>
      <trkpt lat="46.32642" lon="-0.29701">
        <ele>66.994</ele>
        <time>2011-01-09T13:43:56Z</time>
      </trkpt>
      <trkpt lat="46.32642" lon="-0.297">
        <ele>66.982</ele>
        <time>2011-01-09T13:43:57Z</time>
      </trkpt>
      <trkpt lat="46.32641" lon="-0.297">
        <ele>66.972</ele>
        <time>2011-01-09T13:43:58Z</time>
      </trkpt>
      <trkpt lat="46.3264" lon="-0.29699">
        <ele>66.972</ele>
        <time>2011-01-09T13:43:59Z</time>
      </trkpt>
      <trkpt lat="46.32639" lon="-0.29698">
        <ele>66.9607</ele>
        <time>2011-01-09T13:44:00Z</time>
      </trkpt>
      <trkpt lat="46.32637" lon="-0.29697">
        <ele>66.9441</ele>
        <time>2011-01-09T13:44:01Z</time>
      </trkpt>
      <trkpt lat="46.32636" lon="-0.29697">
        <ele>66.9275</ele>
        <time>2011-01-09T13:44:02Z</time>
      </trkpt>
      <trkpt lat="46.32635" lon="-0.29696">
        <ele>66.9094</ele>
        <time>2011-01-09T13:44:03Z</time>
      </trkpt>
      <trkpt lat="46.32633" lon="-0.29696">
        <ele>66.8889</ele>
        <time>2011-01-09T13:44:04Z</time>
      </trkpt>
      <trkpt lat="46.32632" lon="-0.29695">
        <ele>66.8654</ele>
        <time>2011-01-09T13:44:05Z</time>
      </trkpt>
      <trkpt lat="46.32631" lon="-0.29695">
        <ele>66.8484</ele>
        <time>2011-01-09T13:44:06Z</time>
      </trkpt>
      <trkpt lat="46.3263" lon="-0.29694">
        <ele>66.8294</ele>
        <time>2011-01-09T13:44:07Z</time>
      </trkpt>
      <trkpt lat="46.32629" lon="-0.29693">
        <ele>66.8112</ele>
        <time>2011-01-09T13:44:08Z</time>
      </trkpt>
      <trkpt lat="46.32629" lon="-0.29693">
        <ele>66.7908</ele>
        <time>2011-01-09T13:44:09Z</time>
      </trkpt>
      <trkpt lat="46.32628" lon="-0.29692">
        <ele>66.7723</ele>
        <time>2011-01-09T13:44:10Z</time>
      </trkpt>
      <trkpt lat="46.32626" lon="-0.29691">
        <ele>66.7543</ele>
        <time>2011-01-09T13:44:11Z</time>
      </trkpt>
      <trkpt lat="46.32625" lon="-0.2969">
        <ele>66.7373</ele>
        <time>2011-01-09T13:44:12Z</time>
      </trkpt>
      <trkpt lat="46.32624" lon="-0.2969">
        <ele>66.72</ele>
        <time>2011-01-09T13:44:13Z</time>
      </trkpt>
      <trkpt lat="46.32623" lon="-0.2969">
        <ele>66.6888</ele>
        <time>2011-01-09T13:44:14Z</time>
      </trkpt>
      <trkpt lat="46.32622" lon="-0.29689">
        <ele>66.6504</ele>
        <time>2011-01-09T13:44:15Z</time>
      </trkpt>
      <trkpt lat="46.32621" lon="-0.29688">
        <ele>66.5818</ele>
        <time>2011-01-09T13:44:16Z</time>
      </trkpt>
      <trkpt lat="46.32621" lon="-0.29688">
        <ele>66.5137</ele>
        <time>2011-01-09T13:44:17Z</time>
      </trkpt>
      <trkpt lat="46.3262" lon="-0.29687">
        <ele>66.4253</ele>
        <time>2011-01-09T13:44:18Z</time>
      </trkpt>
      <trkpt lat="46.3262" lon="-0.29687">
        <ele>66.3342</ele>
        <time>2011-01-09T13:44:19Z</time>
      </trkpt>
      <trkpt lat="46.32619" lon="-0.29687">
        <ele>66.2465</ele>
        <time>2011-01-09T13:44:20Z</time>
      </trkpt>
      <trkpt lat="46.32618" lon="-0.29686">
        <ele>66.1378</ele>
        <time>2011-01-09T13:44:21Z</time>
      </trkpt>
      <trkpt lat="46.32618" lon="-0.29685">
        <ele>66.0294</ele>
        <time>2011-01-09T13:44:22Z</time>
      </trkpt>
      <trkpt lat="46.32617" lon="-0.29685">
        <ele>65.9062</ele>
        <time>2011-01-09T13:44:23Z</time>
      </trkpt>
      <trkpt lat="46.32616" lon="-0.29685">
        <ele>65.787</ele>
        <time>2011-01-09T13:44:24Z</time>
      </trkpt>
      <trkpt lat="46.32615" lon="-0.29684">
        <ele>65.6708</ele>
        <time>2011-01-09T13:44:25Z</time>
      </trkpt>
      <trkpt lat="46.32615" lon="-0.29683">
        <ele>65.5584</ele>
        <time>2011-01-09T13:44:26Z</time>
      </trkpt>
      <trkpt lat="46.32614" lon="-0.29683">
        <ele>65.4478</ele>
        <time>2011-01-09T13:44:27Z</time>
      </trkpt>
      <trkpt lat="46.32613" lon="-0.29682">
        <ele>65.3457</ele>
        <time>2011-01-09T13:44:28Z</time>
      </trkpt>
      <trkpt lat="46.32613" lon="-0.29681">
        <ele>65.2467</ele>
        <time>2011-01-09T13:44:29Z</time>
      </trkpt>
      <trkpt lat="46.32612" lon="-0.29681">
        <ele>65.158</ele>
        <time>2011-01-09T13:44:30Z</time>
      </trkpt>
      <trkpt lat="46.32611" lon="-0.2968">
        <ele>65.0746</ele>
        <time>2011-01-09T13:44:31Z</time>
      </trkpt>
      <trkpt lat="46.3261" lon="-0.2968">
        <ele>64.9938</ele>
        <time>2011-01-09T13:44:32Z</time>
      </trkpt>
      <trkpt lat="46.32608" lon="-0.29679">
        <ele>64.9172</ele>
        <time>2011-01-09T13:44:34Z</time>
      </trkpt>
      <trkpt lat="46.32608" lon="-0.29678">
        <ele>64.8644</ele>
        <time>2011-01-09T13:44:35Z</time>
      </trkpt>
      <trkpt lat="46.32607" lon="-0.29677">
        <ele>64.8151</ele>
        <time>2011-01-09T13:44:36Z</time>
      </trkpt>
      <trkpt lat="46.32606" lon="-0.29676">
        <ele>64.7667</ele>
        <time>2011-01-09T13:44:37Z</time>
      </trkpt>
      <trkpt lat="46.32605" lon="-0.29675">
        <ele>64.7214</ele>
        <time>2011-01-09T13:44:38Z</time>
      </trkpt>
      <trkpt lat="46.32604" lon="-0.29674">
        <ele>64.6855</ele>
        <time>2011-01-09T13:44:39Z</time>
      </trkpt>
      <trkpt lat="46.32602" lon="-0.29674">
        <ele>64.6501</ele>
        <time>2011-01-09T13:44:40Z</time>
      </trkpt>
      <trkpt lat="46.32601" lon="-0.29673">
        <ele>64.6121</ele>
        <time>2011-01-09T13:44:41Z</time>
      </trkpt>
      <trkpt lat="46.326" lon="-0.29672">
        <ele>64.5684</ele>
        <time>2011-01-09T13:44:42Z</time>
      </trkpt>
      <trkpt lat="46.32599" lon="-0.29672">
        <ele>64.5389</ele>
        <time>2011-01-09T13:44:43Z</time>
      </trkpt>
      <trkpt lat="46.32598" lon="-0.29671">
        <ele>64.511</ele>
        <time>2011-01-09T13:44:44Z</time>
      </trkpt>
      <trkpt lat="46.32597" lon="-0.2967">
        <ele>64.4847</ele>
        <time>2011-01-09T13:44:45Z</time>
      </trkpt>
      <trkpt lat="46.32596" lon="-0.29663">
        <ele>64.3404</ele>
        <time>2011-01-09T13:45:00Z</time>
      </trkpt>
      <trkpt lat="46.32595" lon="-0.29661">
        <ele>64.2321</ele>
        <time>2011-01-09T13:45:05Z</time>
      </trkpt>
      <trkpt lat="46.32594" lon="-0.2966">
        <ele>64.1865</ele>
        <time>2011-01-09T13:45:06Z</time>
      </trkpt>
      <trkpt lat="46.32594" lon="-0.2966">
        <ele>64.1449</ele>
        <time>2011-01-09T13:45:07Z</time>
      </trkpt>
      <trkpt lat="46.32593" lon="-0.29659">
        <ele>64.1102</ele>
        <time>2011-01-09T13:45:08Z</time>
      </trkpt>
      <trkpt lat="46.32593" lon="-0.29658">
        <ele>64.0783</ele>
        <time>2011-01-09T13:45:09Z</time>
      </trkpt>
      <trkpt lat="46.32592" lon="-0.29658">
        <ele>64.0474</ele>
        <time>2011-01-09T13:45:10Z</time>
      </trkpt>
      <trkpt lat="46.32592" lon="-0.29657">
        <ele>64.017</ele>
        <time>2011-01-09T13:45:11Z</time>
      </trkpt>
      <trkpt lat="46.32592" lon="-0.29657">
        <ele>63.9868</ele>
        <time>2011-01-09T13:45:12Z</time>
      </trkpt>
      <trkpt lat="46.32591" lon="-0.29655">
        <ele>63.9648</ele>
        <time>2011-01-09T13:45:13Z</time>
      </trkpt>
      <trkpt lat="46.3259" lon="-0.29654">
        <ele>63.9536</ele>
        <time>2011-01-09T13:45:14Z</time>
      </trkpt>
      <trkpt lat="46.32589" lon="-0.29653">
        <ele>63.9535</ele>
        <time>2011-01-09T13:45:15Z</time>
      </trkpt>
      <trkpt lat="46.32588" lon="-0.29652">
        <ele>63.9626</ele>
        <time>2011-01-09T13:45:16Z</time>
      </trkpt>
      <trkpt lat="46.32587" lon="-0.29651">
        <ele>63.9777</ele>
        <time>2011-01-09T13:45:17Z</time>
      </trkpt>
      <trkpt lat="46.32587" lon="-0.2965">
        <ele>63.9855</ele>
        <time>2011-01-09T13:45:18Z</time>
      </trkpt>
      <trkpt lat="46.32586" lon="-0.29649">
        <ele>63.9934</ele>
        <time>2011-01-09T13:45:19Z</time>
      </trkpt>
      <trkpt lat="46.32585" lon="-0.29649">
        <ele>64.0012</ele>
        <time>2011-01-09T13:45:20Z</time>
      </trkpt>
      <trkpt lat="46.32584" lon="-0.29649">
        <ele>64.0106</ele>
        <time>2011-01-09T13:45:21Z</time>
      </trkpt>
      <trkpt lat="46.32583" lon="-0.29648">
        <ele>64.0201</ele>
        <time>2011-01-09T13:45:22Z</time>
      </trkpt>
      <trkpt lat="46.32583" lon="-0.29648">
        <ele>64.0305</ele>
        <time>2011-01-09T13:45:23Z</time>
      </trkpt>
      <trkpt lat="46.32582" lon="-0.29648">
        <ele>64.0419</ele>
        <time>2011-01-09T13:45:24Z</time>
      </trkpt>
      <trkpt lat="46.32582" lon="-0.29648">
        <ele>64.0542</ele>
        <time>2011-01-09T13:45:25Z</time>
      </trkpt>
      <trkpt lat="46.32582" lon="-0.29641">
        <ele>64.1781</ele>
        <time>2011-01-09T13:45:35Z</time>
      </trkpt>
      <trkpt lat="46.32583" lon="-0.29634">
        <ele>64.6787</ele>
        <time>2011-01-09T13:45:45Z</time>
      </trkpt>
      <trkpt lat="46.32584" lon="-0.29632">
        <ele>65.6807</ele>
        <time>2011-01-09T13:46:05Z</time>
      </trkpt>
      <trkpt lat="46.32584" lon="-0.2963">
        <ele>65.8162</ele>
        <time>2011-01-09T13:46:07Z</time>
      </trkpt>
      <trkpt lat="46.32584" lon="-0.29628">
        <ele>66.0067</ele>
        <time>2011-01-09T13:46:10Z</time>
      </trkpt>
      <trkpt lat="46.32584" lon="-0.29627">
        <ele>66.068</ele>
        <time>2011-01-09T13:46:11Z</time>
      </trkpt>
      <trkpt lat="46.32583" lon="-0.29626">
        <ele>66.1907</ele>
        <time>2011-01-09T13:46:13Z</time>
      </trkpt>
      <trkpt lat="46.32583" lon="-0.29625">
        <ele>66.2507</ele>
        <time>2011-01-09T13:46:14Z</time>
      </trkpt>
      <trkpt lat="46.32583" lon="-0.29624">
        <ele>66.3062</ele>
        <time>2011-01-09T13:46:15Z</time>
      </trkpt>
      <trkpt lat="46.32583" lon="-0.29623">
        <ele>66.359</ele>
        <time>2011-01-09T13:46:16Z</time>
      </trkpt>
      <trkpt lat="46.32582" lon="-0.29622">
        <ele>66.4091</ele>
        <time>2011-01-09T13:46:17Z</time>
      </trkpt>
      <trkpt lat="46.32582" lon="-0.29621">
        <ele>66.4562</ele>
        <time>2011-01-09T13:46:18Z</time>
      </trkpt>
      <trkpt lat="46.32581" lon="-0.2962">
        <ele>66.5028</ele>
        <time>2011-01-09T13:46:19Z</time>
      </trkpt>
      <trkpt lat="46.32581" lon="-0.29619">
        <ele>66.5524</ele>
        <time>2011-01-09T13:46:20Z</time>
      </trkpt>
      <trkpt lat="46.32581" lon="-0.29618">
        <ele>66.6021</ele>
        <time>2011-01-09T13:46:21Z</time>
      </trkpt>
      <trkpt lat="46.3258" lon="-0.29617">
        <ele>66.6524</ele>
        <time>2011-01-09T13:46:22Z</time>
      </trkpt>
      <trkpt lat="46.3258" lon="-0.29616">
        <ele>66.7023</ele>
        <time>2011-01-09T13:46:23Z</time>
      </trkpt>
      <trkpt lat="46.32579" lon="-0.29614">
        <ele>66.7542</ele>
        <time>2011-01-09T13:46:24Z</time>
      </trkpt>
      <trkpt lat="46.32579" lon="-0.29613">
        <ele>66.8073</ele>
        <time>2011-01-09T13:46:25Z</time>
      </trkpt>
      <trkpt lat="46.32579" lon="-0.29612">
        <ele>66.8607</ele>
        <time>2011-01-09T13:46:26Z</time>
      </trkpt>
      <trkpt lat="46.32576" lon="-0.29606">
        <ele>67.2415</ele>
        <time>2011-01-09T13:46:33Z</time>
      </trkpt>
      <trkpt lat="46.32575" lon="-0.29599">
        <ele>67.5452</ele>
        <time>2011-01-09T13:46:39Z</time>
      </trkpt>
      <trkpt lat="46.32576" lon="-0.29592">
        <ele>67.7711</ele>
        <time>2011-01-09T13:46:45Z</time>
      </trkpt>
      <trkpt lat="46.32576" lon="-0.29589">
        <ele>67.8364</ele>
        <time>2011-01-09T13:46:47Z</time>
      </trkpt>
      <trkpt lat="46.32576" lon="-0.29588">
        <ele>67.8677</ele>
        <time>2011-01-09T13:46:48Z</time>
      </trkpt>
      <trkpt lat="46.32576" lon="-0.29587">
        <ele>67.8981</ele>
        <time>2011-01-09T13:46:49Z</time>
      </trkpt>
      <trkpt lat="46.32576" lon="-0.29586">
        <ele>67.9307</ele>
        <time>2011-01-09T13:46:50Z</time>
      </trkpt>
      <trkpt lat="46.32576" lon="-0.29585">
        <ele>67.9632</ele>
        <time>2011-01-09T13:46:51Z</time>
      </trkpt>
      <trkpt lat="46.32576" lon="-0.29583">
        <ele>67.9926</ele>
        <time>2011-01-09T13:46:52Z</time>
      </trkpt>
      <trkpt lat="46.32576" lon="-0.29582">
        <ele>68.0193</ele>
        <time>2011-01-09T13:46:53Z</time>
      </trkpt>
      <trkpt lat="46.32576" lon="-0.29581">
        <ele>68.0437</ele>
        <time>2011-01-09T13:46:54Z</time>
      </trkpt>
      <trkpt lat="46.32576" lon="-0.2958">
        <ele>68.066</ele>
        <time>2011-01-09T13:46:55Z</time>
      </trkpt>
      <trkpt lat="46.32576" lon="-0.29578">
        <ele>68.0841</ele>
        <time>2011-01-09T13:46:56Z</time>
      </trkpt>
      <trkpt lat="46.32576" lon="-0.29577">
        <ele>68.1018</ele>
        <time>2011-01-09T13:46:57Z</time>
      </trkpt>
      <trkpt lat="46.32576" lon="-0.29574">
        <ele>68.1403</ele>
        <time>2011-01-09T13:46:59Z</time>
      </trkpt>
      <trkpt lat="46.32576" lon="-0.29571">
        <ele>68.1787</ele>
        <time>2011-01-09T13:47:01Z</time>
      </trkpt>
      <trkpt lat="46.32576" lon="-0.2957">
        <ele>68.1979</ele>
        <time>2011-01-09T13:47:02Z</time>
      </trkpt>
      <trkpt lat="46.32577" lon="-0.29569">
        <ele>68.2162</ele>
        <time>2011-01-09T13:47:03Z</time>
      </trkpt>
      <trkpt lat="46.32577" lon="-0.29568">
        <ele>68.2341</ele>
        <time>2011-01-09T13:47:04Z</time>
      </trkpt>
      <trkpt lat="46.32578" lon="-0.29567">
        <ele>68.2502</ele>
        <time>2011-01-09T13:47:05Z</time>
      </trkpt>
      <trkpt lat="46.32578" lon="-0.29566">
        <ele>68.2643</ele>
        <time>2011-01-09T13:47:06Z</time>
      </trkpt>
      <trkpt lat="46.3258" lon="-0.29559">
        <ele>68.2255</ele>
        <time>2011-01-09T13:47:12Z</time>
      </trkpt>
      <trkpt lat="46.32581" lon="-0.29552">
        <ele>68.0979</ele>
        <time>2011-01-09T13:47:17Z</time>
      </trkpt>
      <trkpt lat="46.32583" lon="-0.29544">
        <ele>67.8028</ele>
        <time>2011-01-09T13:47:22Z</time>
      </trkpt>
      <trkpt lat="46.32583" lon="-0.29537">
        <ele>67.5622</ele>
        <time>2011-01-09T13:47:28Z</time>
      </trkpt>
      <trkpt lat="46.32584" lon="-0.29529">
        <ele>67.3321</ele>
        <time>2011-01-09T13:47:34Z</time>
      </trkpt>
      <trkpt lat="46.32584" lon="-0.29527">
        <ele>67.3103</ele>
        <time>2011-01-09T13:47:35Z</time>
      </trkpt>
      <trkpt lat="46.32584" lon="-0.29526">
        <ele>67.2963</ele>
        <time>2011-01-09T13:47:36Z</time>
      </trkpt>
      <trkpt lat="46.32583" lon="-0.29518">
        <ele>67.2849</ele>
        <time>2011-01-09T13:47:42Z</time>
      </trkpt>
      <trkpt lat="46.32582" lon="-0.29513">
        <ele>67.3011</ele>
        <time>2011-01-09T13:47:45Z</time>
      </trkpt>
      <trkpt lat="46.32581" lon="-0.29511">
        <ele>67.304</ele>
        <time>2011-01-09T13:47:46Z</time>
      </trkpt>
      <trkpt lat="46.32581" lon="-0.2951">
        <ele>67.3055</ele>
        <time>2011-01-09T13:47:47Z</time>
      </trkpt>
      <trkpt lat="46.32581" lon="-0.29503">
        <ele>67.2554</ele>
        <time>2011-01-09T13:47:54Z</time>
      </trkpt>
      <trkpt lat="46.32581" lon="-0.29502">
        <ele>67.2485</ele>
        <time>2011-01-09T13:47:55Z</time>
      </trkpt>
      <trkpt lat="46.32581" lon="-0.29494">
        <ele>67.2543</ele>
        <time>2011-01-09T13:48:01Z</time>
      </trkpt>
      <trkpt lat="46.32581" lon="-0.29488">
        <ele>67.3351</ele>
        <time>2011-01-09T13:48:06Z</time>
      </trkpt>
      <trkpt lat="46.32581" lon="-0.29487">
        <ele>67.3538</ele>
        <time>2011-01-09T13:48:07Z</time>
      </trkpt>
      <trkpt lat="46.32581" lon="-0.29486">
        <ele>67.3641</ele>
        <time>2011-01-09T13:48:08Z</time>
      </trkpt>
      <trkpt lat="46.32581" lon="-0.29484">
        <ele>67.3601</ele>
        <time>2011-01-09T13:48:09Z</time>
      </trkpt>
      <trkpt lat="46.32581" lon="-0.29483">
        <ele>67.3563</ele>
        <time>2011-01-09T13:48:10Z</time>
      </trkpt>
      <trkpt lat="46.32581" lon="-0.29481">
        <ele>67.354</ele>
        <time>2011-01-09T13:48:11Z</time>
      </trkpt>
      <trkpt lat="46.32581" lon="-0.2948">
        <ele>67.3546</ele>
        <time>2011-01-09T13:48:12Z</time>
      </trkpt>
      <trkpt lat="46.32581" lon="-0.29478">
        <ele>67.3599</ele>
        <time>2011-01-09T13:48:13Z</time>
      </trkpt>
      <trkpt lat="46.32583" lon="-0.29474">
        <ele>67.3736</ele>
        <time>2011-01-09T13:48:16Z</time>
      </trkpt>
      <trkpt lat="46.32583" lon="-0.29473">
        <ele>67.3727</ele>
        <time>2011-01-09T13:48:17Z</time>
      </trkpt>
      <trkpt lat="46.32584" lon="-0.29466">
        <ele>67.391</ele>
        <time>2011-01-09T13:48:24Z</time>
      </trkpt>
      <trkpt lat="46.32583" lon="-0.2946">
        <ele>67.2997</ele>
        <time>2011-01-09T13:48:37Z</time>
      </trkpt>
      <trkpt lat="46.32583" lon="-0.29456">
        <ele>67.1816</ele>
        <time>2011-01-09T13:48:40Z</time>
      </trkpt>
      <trkpt lat="46.32583" lon="-0.29455">
        <ele>67.147</ele>
        <time>2011-01-09T13:48:41Z</time>
      </trkpt>
      <trkpt lat="46.32582" lon="-0.29448">
        <ele>66.9622</ele>
        <time>2011-01-09T13:48:48Z</time>
      </trkpt>
      <trkpt lat="46.32582" lon="-0.29447">
        <ele>66.9522</ele>
        <time>2011-01-09T13:48:49Z</time>
      </trkpt>
      <trkpt lat="46.32582" lon="-0.29445">
        <ele>66.9359</ele>
        <time>2011-01-09T13:48:50Z</time>
      </trkpt>
      <trkpt lat="46.32582" lon="-0.29444">
        <ele>66.9201</ele>
        <time>2011-01-09T13:48:51Z</time>
      </trkpt>
      <trkpt lat="46.32582" lon="-0.29442">
        <ele>66.9025</ele>
        <time>2011-01-09T13:48:52Z</time>
      </trkpt>
      <trkpt lat="46.32582" lon="-0.2944">
        <ele>66.8844</ele>
        <time>2011-01-09T13:48:53Z</time>
      </trkpt>
      <trkpt lat="46.32581" lon="-0.29437">
        <ele>66.8503</ele>
        <time>2011-01-09T13:48:55Z</time>
      </trkpt>
      <trkpt lat="46.32581" lon="-0.29436">
        <ele>66.833</ele>
        <time>2011-01-09T13:48:56Z</time>
      </trkpt>
      <trkpt lat="46.32581" lon="-0.29434">
        <ele>66.8167</ele>
        <time>2011-01-09T13:48:57Z</time>
      </trkpt>
      <trkpt lat="46.32581" lon="-0.29433">
        <ele>66.8012</ele>
        <time>2011-01-09T13:48:58Z</time>
      </trkpt>
      <trkpt lat="46.32581" lon="-0.29431">
        <ele>66.786</ele>
        <time>2011-01-09T13:48:59Z</time>
      </trkpt>
      <trkpt lat="46.32581" lon="-0.2943">
        <ele>66.7707</ele>
        <time>2011-01-09T13:49:00Z</time>
      </trkpt>
      <trkpt lat="46.32581" lon="-0.29429">
        <ele>66.756</ele>
        <time>2011-01-09T13:49:01Z</time>
      </trkpt>
      <trkpt lat="46.32581" lon="-0.29422">
        <ele>66.6504</ele>
        <time>2011-01-09T13:49:09Z</time>
      </trkpt>
      <trkpt lat="46.32581" lon="-0.29415">
        <ele>66.536</ele>
        <time>2011-01-09T13:49:18Z</time>
      </trkpt>
      <trkpt lat="46.32579" lon="-0.29408">
        <ele>66.4255</ele>
        <time>2011-01-09T13:49:24Z</time>
      </trkpt>
      <trkpt lat="46.32578" lon="-0.29401">
        <ele>66.3202</ele>
        <time>2011-01-09T13:49:29Z</time>
      </trkpt>
      <trkpt lat="46.32577" lon="-0.29393">
        <ele>66.4977</ele>
        <time>2011-01-09T13:49:36Z</time>
      </trkpt>
      <trkpt lat="46.32577" lon="-0.29391">
        <ele>66.5755</ele>
        <time>2011-01-09T13:49:37Z</time>
      </trkpt>
      <trkpt lat="46.32577" lon="-0.2939">
        <ele>66.6546</ele>
        <time>2011-01-09T13:49:38Z</time>
      </trkpt>
      <trkpt lat="46.32577" lon="-0.29388">
        <ele>66.7359</ele>
        <time>2011-01-09T13:49:39Z</time>
      </trkpt>
      <trkpt lat="46.32577" lon="-0.29387">
        <ele>66.8212</ele>
        <time>2011-01-09T13:49:40Z</time>
      </trkpt>
      <trkpt lat="46.32576" lon="-0.29381">
        <ele>67.2228</ele>
        <time>2011-01-09T13:49:45Z</time>
      </trkpt>
      <trkpt lat="46.32576" lon="-0.29375">
        <ele>67.6953</ele>
        <time>2011-01-09T13:50:04Z</time>
      </trkpt>
      <trkpt lat="46.32576" lon="-0.29374">
        <ele>67.7955</ele>
        <time>2011-01-09T13:50:05Z</time>
      </trkpt>
      <trkpt lat="46.32577" lon="-0.29374">
        <ele>67.8925</ele>
        <time>2011-01-09T13:50:06Z</time>
      </trkpt>
      <trkpt lat="46.32578" lon="-0.29373">
        <ele>67.9874</ele>
        <time>2011-01-09T13:50:07Z</time>
      </trkpt>
      <trkpt lat="46.32579" lon="-0.29372">
        <ele>68.0821</ele>
        <time>2011-01-09T13:50:08Z</time>
      </trkpt>
      <trkpt lat="46.32579" lon="-0.2937">
        <ele>68.1795</ele>
        <time>2011-01-09T13:50:09Z</time>
      </trkpt>
      <trkpt lat="46.32579" lon="-0.29369">
        <ele>68.2805</ele>
        <time>2011-01-09T13:50:10Z</time>
      </trkpt>
      <trkpt lat="46.32579" lon="-0.29367">
        <ele>68.3862</ele>
        <time>2011-01-09T13:50:11Z</time>
      </trkpt>
      <trkpt lat="46.32579" lon="-0.29366">
        <ele>68.498</ele>
        <time>2011-01-09T13:50:12Z</time>
      </trkpt>
      <trkpt lat="46.32579" lon="-0.29364">
        <ele>68.6118</ele>
        <time>2011-01-09T13:50:13Z</time>
      </trkpt>
      <trkpt lat="46.32579" lon="-0.29363">
        <ele>68.7282</ele>
        <time>2011-01-09T13:50:14Z</time>
      </trkpt>
      <trkpt lat="46.32576" lon="-0.29357">
        <ele>69.3127</ele>
        <time>2011-01-09T13:50:19Z</time>
      </trkpt>
      <trkpt lat="46.32573" lon="-0.29352">
        <ele>69.5447</ele>
        <time>2011-01-09T13:50:29Z</time>
      </trkpt>
      <trkpt lat="46.3257" lon="-0.29347">
        <ele>70.3652</ele>
        <time>2011-01-09T13:50:39Z</time>
      </trkpt>
      <trkpt lat="46.3257" lon="-0.2934">
        <ele>70.4672</ele>
        <time>2011-01-09T13:50:48Z</time>
      </trkpt>
      <trkpt lat="46.32571" lon="-0.29334">
        <ele>70.735</ele>
        <time>2011-01-09T13:50:58Z</time>
      </trkpt>
      <trkpt lat="46.32572" lon="-0.29327">
        <ele>70.8906</ele>
        <time>2011-01-09T13:51:16Z</time>
      </trkpt>
      <trkpt lat="46.32572" lon="-0.29327">
        <ele>70.9</ele>
        <time>2011-01-09T13:51:17Z</time>
      </trkpt>
      <trkpt lat="46.32572" lon="-0.29326">
        <ele>70.9053</ele>
        <time>2011-01-09T13:51:18Z</time>
      </trkpt>
      <trkpt lat="46.32571" lon="-0.29325">
        <ele>70.9097</ele>
        <time>2011-01-09T13:51:19Z</time>
      </trkpt>
      <trkpt lat="46.32571" lon="-0.29324">
        <ele>70.9142</ele>
        <time>2011-01-09T13:51:20Z</time>
      </trkpt>
      <trkpt lat="46.32571" lon="-0.29321">
        <ele>70.9816</ele>
        <time>2011-01-09T13:51:24Z</time>
      </trkpt>
      <trkpt lat="46.32571" lon="-0.2932">
        <ele>71.0164</ele>
        <time>2011-01-09T13:51:25Z</time>
      </trkpt>
      <trkpt lat="46.32571" lon="-0.29319">
        <ele>71.049</ele>
        <time>2011-01-09T13:51:26Z</time>
      </trkpt>
      <trkpt lat="46.32571" lon="-0.29317">
        <ele>71.0867</ele>
        <time>2011-01-09T13:51:27Z</time>
      </trkpt>
      <trkpt lat="46.32571" lon="-0.29316">
        <ele>71.1244</ele>
        <time>2011-01-09T13:51:28Z</time>
      </trkpt>
      <trkpt lat="46.32571" lon="-0.29315">
        <ele>71.1498</ele>
        <time>2011-01-09T13:51:29Z</time>
      </trkpt>
      <trkpt lat="46.3257" lon="-0.29312">
        <ele>71.1431</ele>
        <time>2011-01-09T13:51:32Z</time>
      </trkpt>
      <trkpt lat="46.32571" lon="-0.29305">
        <ele>71.0447</ele>
        <time>2011-01-09T13:51:40Z</time>
      </trkpt>
      <trkpt lat="46.32573" lon="-0.293">
        <ele>70.8954</ele>
        <time>2011-01-09T13:51:48Z</time>
      </trkpt>
      <trkpt lat="46.32572" lon="-0.29299">
        <ele>70.8086</ele>
        <time>2011-01-09T13:51:49Z</time>
      </trkpt>
      <trkpt lat="46.32572" lon="-0.29298">
        <ele>70.7233</ele>
        <time>2011-01-09T13:51:50Z</time>
      </trkpt>
      <trkpt lat="46.32572" lon="-0.29296">
        <ele>70.6418</ele>
        <time>2011-01-09T13:51:51Z</time>
      </trkpt>
      <trkpt lat="46.32572" lon="-0.29295">
        <ele>70.5631</ele>
        <time>2011-01-09T13:51:52Z</time>
      </trkpt>
      <trkpt lat="46.32571" lon="-0.29293">
        <ele>70.4849</ele>
        <time>2011-01-09T13:51:53Z</time>
      </trkpt>
      <trkpt lat="46.32571" lon="-0.29292">
        <ele>70.4107</ele>
        <time>2011-01-09T13:51:54Z</time>
      </trkpt>
      <trkpt lat="46.32571" lon="-0.29291">
        <ele>70.3389</ele>
        <time>2011-01-09T13:51:55Z</time>
      </trkpt>
      <trkpt lat="46.3257" lon="-0.29289">
        <ele>70.2625</ele>
        <time>2011-01-09T13:51:57Z</time>
      </trkpt>
      <trkpt lat="46.3257" lon="-0.29288">
        <ele>70.1969</ele>
        <time>2011-01-09T13:51:58Z</time>
      </trkpt>
      <trkpt lat="46.3257" lon="-0.29287">
        <ele>70.1352</ele>
        <time>2011-01-09T13:51:59Z</time>
      </trkpt>
      <trkpt lat="46.32569" lon="-0.29286">
        <ele>70.0771</ele>
        <time>2011-01-09T13:52:00Z</time>
      </trkpt>
      <trkpt lat="46.32569" lon="-0.29285">
        <ele>70.0231</ele>
        <time>2011-01-09T13:52:01Z</time>
      </trkpt>
      <trkpt lat="46.32568" lon="-0.29284">
        <ele>69.9737</ele>
        <time>2011-01-09T13:52:02Z</time>
      </trkpt>
      <trkpt lat="46.32568" lon="-0.29283">
        <ele>69.9293</ele>
        <time>2011-01-09T13:52:03Z</time>
      </trkpt>
      <trkpt lat="46.32568" lon="-0.29281">
        <ele>69.8908</ele>
        <time>2011-01-09T13:52:04Z</time>
      </trkpt>
      <trkpt lat="46.32567" lon="-0.2928">
        <ele>69.8578</ele>
        <time>2011-01-09T13:52:05Z</time>
      </trkpt>
      <trkpt lat="46.32567" lon="-0.29279">
        <ele>69.8292</ele>
        <time>2011-01-09T13:52:06Z</time>
      </trkpt>
      <trkpt lat="46.32567" lon="-0.29278">
        <ele>69.804</ele>
        <time>2011-01-09T13:52:08Z</time>
      </trkpt>
      <trkpt lat="46.32567" lon="-0.29277">
        <ele>69.7839</ele>
        <time>2011-01-09T13:52:09Z</time>
      </trkpt>
      <trkpt lat="46.32567" lon="-0.29276">
        <ele>69.7654</ele>
        <time>2011-01-09T13:52:10Z</time>
      </trkpt>
      <trkpt lat="46.32567" lon="-0.29274">
        <ele>69.7486</ele>
        <time>2011-01-09T13:52:11Z</time>
      </trkpt>
      <trkpt lat="46.32566" lon="-0.29273">
        <ele>69.7346</ele>
        <time>2011-01-09T13:52:12Z</time>
      </trkpt>
      <trkpt lat="46.32566" lon="-0.29272">
        <ele>69.7267</ele>
        <time>2011-01-09T13:52:13Z</time>
      </trkpt>
      <trkpt lat="46.32565" lon="-0.29271">
        <ele>69.7201</ele>
        <time>2011-01-09T13:52:14Z</time>
      </trkpt>
      <trkpt lat="46.32565" lon="-0.2927">
        <ele>69.715</ele>
        <time>2011-01-09T13:52:15Z</time>
      </trkpt>
      <trkpt lat="46.32565" lon="-0.29269">
        <ele>69.7085</ele>
        <time>2011-01-09T13:52:16Z</time>
      </trkpt>
      <trkpt lat="46.32564" lon="-0.29268">
        <ele>69.7011</ele>
        <time>2011-01-09T13:52:17Z</time>
      </trkpt>
      <trkpt lat="46.32564" lon="-0.29267">
        <ele>69.6937</ele>
        <time>2011-01-09T13:52:18Z</time>
      </trkpt>
      <trkpt lat="46.32564" lon="-0.29266">
        <ele>69.6862</ele>
        <time>2011-01-09T13:52:19Z</time>
      </trkpt>
      <trkpt lat="46.32564" lon="-0.29265">
        <ele>69.6782</ele>
        <time>2011-01-09T13:52:20Z</time>
      </trkpt>
      <trkpt lat="46.32563" lon="-0.29264">
        <ele>69.6707</ele>
        <time>2011-01-09T13:52:21Z</time>
      </trkpt>
      <trkpt lat="46.32563" lon="-0.29263">
        <ele>69.6612</ele>
        <time>2011-01-09T13:52:22Z</time>
      </trkpt>
      <trkpt lat="46.32563" lon="-0.29261">
        <ele>69.6512</ele>
        <time>2011-01-09T13:52:23Z</time>
      </trkpt>
      <trkpt lat="46.32563" lon="-0.2926">
        <ele>69.6435</ele>
        <time>2011-01-09T13:52:24Z</time>
      </trkpt>
      <trkpt lat="46.32563" lon="-0.29259">
        <ele>69.6349</ele>
        <time>2011-01-09T13:52:25Z</time>
      </trkpt>
      <trkpt lat="46.32563" lon="-0.29258">
        <ele>69.631</ele>
        <time>2011-01-09T13:52:26Z</time>
      </trkpt>
      <trkpt lat="46.32563" lon="-0.29257">
        <ele>69.6215</ele>
        <time>2011-01-09T13:52:27Z</time>
      </trkpt>
      <trkpt lat="46.32562" lon="-0.29256">
        <ele>69.6117</ele>
        <time>2011-01-09T13:52:28Z</time>
      </trkpt>
      <trkpt lat="46.32562" lon="-0.29255">
        <ele>69.6057</ele>
        <time>2011-01-09T13:52:29Z</time>
      </trkpt>
      <trkpt lat="46.32562" lon="-0.29253">
        <ele>69.6023</ele>
        <time>2011-01-09T13:52:30Z</time>
      </trkpt>
      <trkpt lat="46.32562" lon="-0.29252">
        <ele>69.6053</ele>
        <time>2011-01-09T13:52:31Z</time>
      </trkpt>
      <trkpt lat="46.32561" lon="-0.29251">
        <ele>69.614</ele>
        <time>2011-01-09T13:52:32Z</time>
      </trkpt>
      <trkpt lat="46.32561" lon="-0.29249">
        <ele>69.6241</ele>
        <time>2011-01-09T13:52:33Z</time>
      </trkpt>
      <trkpt lat="46.3256" lon="-0.29248">
        <ele>69.6374</ele>
        <time>2011-01-09T13:52:34Z</time>
      </trkpt>
      <trkpt lat="46.32559" lon="-0.29245">
        <ele>69.6748</ele>
        <time>2011-01-09T13:52:37Z</time>
      </trkpt>
      <trkpt lat="46.32558" lon="-0.29242">
        <ele>69.6805</ele>
        <time>2011-01-09T13:52:38Z</time>
      </trkpt>
      <trkpt lat="46.32558" lon="-0.2924">
        <ele>69.6863</ele>
        <time>2011-01-09T13:52:39Z</time>
      </trkpt>
      <trkpt lat="46.32558" lon="-0.29238">
        <ele>69.6873</ele>
        <time>2011-01-09T13:52:40Z</time>
      </trkpt>
      <trkpt lat="46.32557" lon="-0.29236">
        <ele>69.6794</ele>
        <time>2011-01-09T13:52:41Z</time>
      </trkpt>
      <trkpt lat="46.32557" lon="-0.29235">
        <ele>69.6638</ele>
        <time>2011-01-09T13:52:42Z</time>
      </trkpt>
      <trkpt lat="46.32557" lon="-0.29233">
        <ele>69.6408</ele>
        <time>2011-01-09T13:52:43Z</time>
      </trkpt>
      <trkpt lat="46.32557" lon="-0.29232">
        <ele>69.616</ele>
        <time>2011-01-09T13:52:44Z</time>
      </trkpt>
      <trkpt lat="46.32557" lon="-0.29231">
        <ele>69.5908</ele>
        <time>2011-01-09T13:52:45Z</time>
      </trkpt>
      <trkpt lat="46.32557" lon="-0.29229">
        <ele>69.5664</ele>
        <time>2011-01-09T13:52:46Z</time>
      </trkpt>
      <trkpt lat="46.32557" lon="-0.29228">
        <ele>69.5467</ele>
        <time>2011-01-09T13:52:47Z</time>
      </trkpt>
      <trkpt lat="46.32557" lon="-0.29227">
        <ele>69.5297</ele>
        <time>2011-01-09T13:52:48Z</time>
      </trkpt>
      <trkpt lat="46.32557" lon="-0.29225">
        <ele>69.5139</ele>
        <time>2011-01-09T13:52:49Z</time>
      </trkpt>
      <trkpt lat="46.32557" lon="-0.29224">
        <ele>69.495</ele>
        <time>2011-01-09T13:52:50Z</time>
      </trkpt>
      <trkpt lat="46.32557" lon="-0.29223">
        <ele>69.4688</ele>
        <time>2011-01-09T13:52:51Z</time>
      </trkpt>
      <trkpt lat="46.32556" lon="-0.29222">
        <ele>69.4413</ele>
        <time>2011-01-09T13:52:52Z</time>
      </trkpt>
      <trkpt lat="46.32556" lon="-0.29221">
        <ele>69.4167</ele>
        <time>2011-01-09T13:52:53Z</time>
      </trkpt>
      <trkpt lat="46.32555" lon="-0.29219">
        <ele>69.3957</ele>
        <time>2011-01-09T13:52:54Z</time>
      </trkpt>
      <trkpt lat="46.32555" lon="-0.29218">
        <ele>69.378</ele>
        <time>2011-01-09T13:52:55Z</time>
      </trkpt>
      <trkpt lat="46.32555" lon="-0.29217">
        <ele>69.3646</ele>
        <time>2011-01-09T13:52:56Z</time>
      </trkpt>
      <trkpt lat="46.32554" lon="-0.29215">
        <ele>69.3551</ele>
        <time>2011-01-09T13:52:57Z</time>
      </trkpt>
      <trkpt lat="46.32554" lon="-0.29214">
        <ele>69.3515</ele>
        <time>2011-01-09T13:52:58Z</time>
      </trkpt>
      <trkpt lat="46.32553" lon="-0.29212">
        <ele>69.3544</ele>
        <time>2011-01-09T13:52:59Z</time>
      </trkpt>
      <trkpt lat="46.32552" lon="-0.29211">
        <ele>69.3602</ele>
        <time>2011-01-09T13:53:00Z</time>
      </trkpt>
      <trkpt lat="46.32552" lon="-0.2921">
        <ele>69.3655</ele>
        <time>2011-01-09T13:53:01Z</time>
      </trkpt>
      <trkpt lat="46.32551" lon="-0.29207">
        <ele>69.3884</ele>
        <time>2011-01-09T13:53:04Z</time>
      </trkpt>
      <trkpt lat="46.32551" lon="-0.29206">
        <ele>69.4009</ele>
        <time>2011-01-09T13:53:05Z</time>
      </trkpt>
      <trkpt lat="46.3255" lon="-0.29204">
        <ele>69.4077</ele>
        <time>2011-01-09T13:53:06Z</time>
      </trkpt>
      <trkpt lat="46.3255" lon="-0.29203">
        <ele>69.4092</ele>
        <time>2011-01-09T13:53:07Z</time>
      </trkpt>
      <trkpt lat="46.32549" lon="-0.29201">
        <ele>69.4056</ele>
        <time>2011-01-09T13:53:08Z</time>
      </trkpt>
      <trkpt lat="46.32549" lon="-0.29199">
        <ele>69.4024</ele>
        <time>2011-01-09T13:53:09Z</time>
      </trkpt>
      <trkpt lat="46.32548" lon="-0.29197">
        <ele>69.3949</ele>
        <time>2011-01-09T13:53:10Z</time>
      </trkpt>
      <trkpt lat="46.32547" lon="-0.29195">
        <ele>69.3832</ele>
        <time>2011-01-09T13:53:11Z</time>
      </trkpt>
      <trkpt lat="46.32547" lon="-0.29193">
        <ele>69.3684</ele>
        <time>2011-01-09T13:53:12Z</time>
      </trkpt>
      <trkpt lat="46.32547" lon="-0.2919">
        <ele>69.3521</ele>
        <time>2011-01-09T13:53:13Z</time>
      </trkpt>
      <trkpt lat="46.32547" lon="-0.29189">
        <ele>69.3384</ele>
        <time>2011-01-09T13:53:14Z</time>
      </trkpt>
      <trkpt lat="46.32547" lon="-0.29187">
        <ele>69.3269</ele>
        <time>2011-01-09T13:53:15Z</time>
      </trkpt>
      <trkpt lat="46.32547" lon="-0.29186">
        <ele>69.3184</ele>
        <time>2011-01-09T13:53:16Z</time>
      </trkpt>
      <trkpt lat="46.32546" lon="-0.29184">
        <ele>69.3109</ele>
        <time>2011-01-09T13:53:17Z</time>
      </trkpt>
      <trkpt lat="46.32546" lon="-0.29183">
        <ele>69.3077</ele>
        <time>2011-01-09T13:53:18Z</time>
      </trkpt>
      <trkpt lat="46.32546" lon="-0.29181">
        <ele>69.3081</ele>
        <time>2011-01-09T13:53:19Z</time>
      </trkpt>
      <trkpt lat="46.32547" lon="-0.2918">
        <ele>69.3131</ele>
        <time>2011-01-09T13:53:20Z</time>
      </trkpt>
      <trkpt lat="46.32547" lon="-0.29178">
        <ele>69.3195</ele>
        <time>2011-01-09T13:53:21Z</time>
      </trkpt>
      <trkpt lat="46.32547" lon="-0.29177">
        <ele>69.3225</ele>
        <time>2011-01-09T13:53:26Z</time>
      </trkpt>
      <trkpt lat="46.32548" lon="-0.29178">
        <ele>69.3237</ele>
        <time>2011-01-09T13:53:27Z</time>
      </trkpt>
      <trkpt lat="46.32548" lon="-0.29179">
        <ele>69.3241</ele>
        <time>2011-01-09T13:53:28Z</time>
      </trkpt>
      <trkpt lat="46.32548" lon="-0.2918">
        <ele>69.3242</ele>
        <time>2011-01-09T13:53:29Z</time>
      </trkpt>
      <trkpt lat="46.32548" lon="-0.2918">
        <ele>69.4102</ele>
        <time>2011-01-09T13:53:38Z</time>
      </trkpt>
      <trkpt lat="46.32548" lon="-0.29179">
        <ele>69.4356</ele>
        <time>2011-01-09T13:53:39Z</time>
      </trkpt>
      <trkpt lat="46.32548" lon="-0.29178">
        <ele>69.4614</ele>
        <time>2011-01-09T13:53:40Z</time>
      </trkpt>
      <trkpt lat="46.32547" lon="-0.29177">
        <ele>69.4866</ele>
        <time>2011-01-09T13:53:41Z</time>
      </trkpt>
      <trkpt lat="46.32547" lon="-0.29175">
        <ele>69.5138</ele>
        <time>2011-01-09T13:53:42Z</time>
      </trkpt>
      <trkpt lat="46.32547" lon="-0.29174">
        <ele>69.5396</ele>
        <time>2011-01-09T13:53:43Z</time>
      </trkpt>
      <trkpt lat="46.32547" lon="-0.29173">
        <ele>69.5699</ele>
        <time>2011-01-09T13:53:44Z</time>
      </trkpt>
      <trkpt lat="46.32547" lon="-0.29172">
        <ele>69.5995</ele>
        <time>2011-01-09T13:53:45Z</time>
      </trkpt>
      <trkpt lat="46.32547" lon="-0.29171">
        <ele>69.6274</ele>
        <time>2011-01-09T13:53:46Z</time>
      </trkpt>
      <trkpt lat="46.32547" lon="-0.29169">
        <ele>69.6553</ele>
        <time>2011-01-09T13:53:47Z</time>
      </trkpt>
      <trkpt lat="46.32547" lon="-0.29168">
        <ele>69.685</ele>
        <time>2011-01-09T13:53:48Z</time>
      </trkpt>
      <trkpt lat="46.32546" lon="-0.29167">
        <ele>69.7127</ele>
        <time>2011-01-09T13:53:49Z</time>
      </trkpt>
      <trkpt lat="46.32546" lon="-0.29166">
        <ele>69.7395</ele>
        <time>2011-01-09T13:53:50Z</time>
      </trkpt>
      <trkpt lat="46.32546" lon="-0.29164">
        <ele>69.7619</ele>
        <time>2011-01-09T13:53:51Z</time>
      </trkpt>
      <trkpt lat="46.32545" lon="-0.29163">
        <ele>69.7796</ele>
        <time>2011-01-09T13:53:53Z</time>
      </trkpt>
      <trkpt lat="46.32546" lon="-0.29163">
        <ele>69.799</ele>
        <time>2011-01-09T13:53:54Z</time>
      </trkpt>
      <trkpt lat="46.32546" lon="-0.29163">
        <ele>69.8248</ele>
        <time>2011-01-09T13:53:55Z</time>
      </trkpt>
      <trkpt lat="46.32547" lon="-0.29164">
        <ele>70.3051</ele>
        <time>2011-01-09T13:54:13Z</time>
      </trkpt>
      <trkpt lat="46.32547" lon="-0.29165">
        <ele>70.3629</ele>
        <time>2011-01-09T13:54:14Z</time>
      </trkpt>
      <trkpt lat="46.32543" lon="-0.29168">
        <ele>70.5889</ele>
        <time>2011-01-09T13:54:28Z</time>
      </trkpt>
      <trkpt lat="46.32544" lon="-0.29164">
        <ele>71.1271</ele>
        <time>2011-01-09T13:55:02Z</time>
      </trkpt>
      <trkpt lat="46.32544" lon="-0.29164">
        <ele>71.2316</ele>
        <time>2011-01-09T13:55:03Z</time>
      </trkpt>
      <trkpt lat="46.32544" lon="-0.29165">
        <ele>71.4512</ele>
        <time>2011-01-09T13:55:09Z</time>
      </trkpt>
      <trkpt lat="46.32543" lon="-0.29164">
        <ele>72.0188</ele>
        <time>2011-01-09T13:55:31Z</time>
      </trkpt>
      <trkpt lat="46.32544" lon="-0.29163">
        <ele>72.0552</ele>
        <time>2011-01-09T13:55:32Z</time>
      </trkpt>
      <trkpt lat="46.32544" lon="-0.29163">
        <ele>72.0963</ele>
        <time>2011-01-09T13:55:33Z</time>
      </trkpt>
      <trkpt lat="46.32544" lon="-0.29162">
        <ele>72.1418</ele>
        <time>2011-01-09T13:55:34Z</time>
      </trkpt>
      <trkpt lat="46.32544" lon="-0.29161">
        <ele>72.1906</ele>
        <time>2011-01-09T13:55:35Z</time>
      </trkpt>
      <trkpt lat="46.32544" lon="-0.2916">
        <ele>72.2457</ele>
        <time>2011-01-09T13:55:36Z</time>
      </trkpt>
      <trkpt lat="46.32544" lon="-0.29158">
        <ele>72.2999</ele>
        <time>2011-01-09T13:55:37Z</time>
      </trkpt>
      <trkpt lat="46.32544" lon="-0.29157">
        <ele>72.3581</ele>
        <time>2011-01-09T13:55:38Z</time>
      </trkpt>
      <trkpt lat="46.32544" lon="-0.29156">
        <ele>72.4158</ele>
        <time>2011-01-09T13:55:39Z</time>
      </trkpt>
      <trkpt lat="46.32544" lon="-0.29155">
        <ele>72.4758</ele>
        <time>2011-01-09T13:55:40Z</time>
      </trkpt>
      <trkpt lat="46.32544" lon="-0.29153">
        <ele>72.5339</ele>
        <time>2011-01-09T13:55:41Z</time>
      </trkpt>
      <trkpt lat="46.32544" lon="-0.29152">
        <ele>72.5896</ele>
        <time>2011-01-09T13:55:42Z</time>
      </trkpt>
      <trkpt lat="46.32544" lon="-0.29152">
        <ele>72.6406</ele>
        <time>2011-01-09T13:55:43Z</time>
      </trkpt>
      <trkpt lat="46.32545" lon="-0.29151">
        <ele>72.6923</ele>
        <time>2011-01-09T13:55:44Z</time>
      </trkpt>
      <trkpt lat="46.32545" lon="-0.29149">
        <ele>72.7438</ele>
        <time>2011-01-09T13:55:45Z</time>
      </trkpt>
      <trkpt lat="46.32546" lon="-0.29148">
        <ele>72.7914</ele>
        <time>2011-01-09T13:55:46Z</time>
      </trkpt>
      <trkpt lat="46.32546" lon="-0.29147">
        <ele>72.8362</ele>
        <time>2011-01-09T13:55:47Z</time>
      </trkpt>
      <trkpt lat="46.32546" lon="-0.29145">
        <ele>72.8746</ele>
        <time>2011-01-09T13:55:48Z</time>
      </trkpt>
      <trkpt lat="46.32546" lon="-0.29143">
        <ele>72.9103</ele>
        <time>2011-01-09T13:55:49Z</time>
      </trkpt>
      <trkpt lat="46.32546" lon="-0.29142">
        <ele>72.9458</ele>
        <time>2011-01-09T13:55:50Z</time>
      </trkpt>
      <trkpt lat="46.32546" lon="-0.2914">
        <ele>72.9842</ele>
        <time>2011-01-09T13:55:51Z</time>
      </trkpt>
      <trkpt lat="46.32547" lon="-0.29138">
        <ele>73.1028</ele>
        <time>2011-01-09T13:55:57Z</time>
      </trkpt>
      <trkpt lat="46.32547" lon="-0.29137">
        <ele>73.1352</ele>
        <time>2011-01-09T13:55:58Z</time>
      </trkpt>
      <trkpt lat="46.32548" lon="-0.29136">
        <ele>73.1704</ele>
        <time>2011-01-09T13:55:59Z</time>
      </trkpt>
      <trkpt lat="46.32548" lon="-0.29136">
        <ele>73.2047</ele>
        <time>2011-01-09T13:56:00Z</time>
      </trkpt>
      <trkpt lat="46.32548" lon="-0.29135">
        <ele>73.2363</ele>
        <time>2011-01-09T13:56:01Z</time>
      </trkpt>
      <trkpt lat="46.32549" lon="-0.29135">
        <ele>73.2682</ele>
        <time>2011-01-09T13:56:02Z</time>
      </trkpt>
      <trkpt lat="46.3255" lon="-0.29134">
        <ele>73.2999</ele>
        <time>2011-01-09T13:56:03Z</time>
      </trkpt>
      <trkpt lat="46.3255" lon="-0.29133">
        <ele>73.3324</ele>
        <time>2011-01-09T13:56:04Z</time>
      </trkpt>
      <trkpt lat="46.3255" lon="-0.29131">
        <ele>73.3643</ele>
        <time>2011-01-09T13:56:05Z</time>
      </trkpt>
      <trkpt lat="46.32551" lon="-0.2913">
        <ele>73.4017</ele>
        <time>2011-01-09T13:56:06Z</time>
      </trkpt>
      <trkpt lat="46.32551" lon="-0.29128">
        <ele>73.4392</ele>
        <time>2011-01-09T13:56:07Z</time>
      </trkpt>
      <trkpt lat="46.32551" lon="-0.29126">
        <ele>73.4744</ele>
        <time>2011-01-09T13:56:08Z</time>
      </trkpt>
      <trkpt lat="46.32552" lon="-0.29124">
        <ele>73.9418</ele>
        <time>2011-01-09T13:56:15Z</time>
      </trkpt>
      <trkpt lat="46.32551" lon="-0.29122">
        <ele>74.047</ele>
        <time>2011-01-09T13:56:16Z</time>
      </trkpt>
      <trkpt lat="46.32551" lon="-0.29121">
        <ele>74.1537</ele>
        <time>2011-01-09T13:56:17Z</time>
      </trkpt>
      <trkpt lat="46.3255" lon="-0.29119">
        <ele>74.2581</ele>
        <time>2011-01-09T13:56:18Z</time>
      </trkpt>
      <trkpt lat="46.3255" lon="-0.29117">
        <ele>74.3597</ele>
        <time>2011-01-09T13:56:19Z</time>
      </trkpt>
      <trkpt lat="46.32549" lon="-0.29116">
        <ele>74.4574</ele>
        <time>2011-01-09T13:56:20Z</time>
      </trkpt>
      <trkpt lat="46.32549" lon="-0.29114">
        <ele>74.549</ele>
        <time>2011-01-09T13:56:21Z</time>
      </trkpt>
      <trkpt lat="46.32548" lon="-0.29113">
        <ele>74.6316</ele>
        <time>2011-01-09T13:56:22Z</time>
      </trkpt>
      <trkpt lat="46.32547" lon="-0.29111">
        <ele>74.7094</ele>
        <time>2011-01-09T13:56:23Z</time>
      </trkpt>
      <trkpt lat="46.32546" lon="-0.2911">
        <ele>74.7798</ele>
        <time>2011-01-09T13:56:24Z</time>
      </trkpt>
      <trkpt lat="46.32546" lon="-0.29108">
        <ele>74.8473</ele>
        <time>2011-01-09T13:56:25Z</time>
      </trkpt>
      <trkpt lat="46.32545" lon="-0.29107">
        <ele>74.915</ele>
        <time>2011-01-09T13:56:26Z</time>
      </trkpt>
      <trkpt lat="46.32544" lon="-0.29105">
        <ele>74.9807</ele>
        <time>2011-01-09T13:56:27Z</time>
      </trkpt>
      <trkpt lat="46.32544" lon="-0.29104">
        <ele>75.045</ele>
        <time>2011-01-09T13:56:28Z</time>
      </trkpt>
      <trkpt lat="46.32543" lon="-0.29102">
        <ele>75.1082</ele>
        <time>2011-01-09T13:56:29Z</time>
      </trkpt>
      <trkpt lat="46.32542" lon="-0.29101">
        <ele>75.175</ele>
        <time>2011-01-09T13:56:30Z</time>
      </trkpt>
      <trkpt lat="46.32541" lon="-0.29099">
        <ele>75.2476</ele>
        <time>2011-01-09T13:56:31Z</time>
      </trkpt>
      <trkpt lat="46.32541" lon="-0.29097">
        <ele>75.3241</ele>
        <time>2011-01-09T13:56:32Z</time>
      </trkpt>
      <trkpt lat="46.3254" lon="-0.29095">
        <ele>75.3996</ele>
        <time>2011-01-09T13:56:33Z</time>
      </trkpt>
      <trkpt lat="46.32539" lon="-0.29093">
        <ele>75.481</ele>
        <time>2011-01-09T13:56:34Z</time>
      </trkpt>
      <trkpt lat="46.32539" lon="-0.29092">
        <ele>75.5609</ele>
        <time>2011-01-09T13:56:35Z</time>
      </trkpt>
      <trkpt lat="46.32538" lon="-0.2909">
        <ele>75.6427</ele>
        <time>2011-01-09T13:56:36Z</time>
      </trkpt>
      <trkpt lat="46.32538" lon="-0.29089">
        <ele>75.722</ele>
        <time>2011-01-09T13:56:37Z</time>
      </trkpt>
      <trkpt lat="46.32537" lon="-0.29087">
        <ele>75.7988</ele>
        <time>2011-01-09T13:56:38Z</time>
      </trkpt>
      <trkpt lat="46.32536" lon="-0.29086">
        <ele>75.8671</ele>
        <time>2011-01-09T13:56:39Z</time>
      </trkpt>
      <trkpt lat="46.32536" lon="-0.29084">
        <ele>75.9388</ele>
        <time>2011-01-09T13:56:40Z</time>
      </trkpt>
      <trkpt lat="46.32535" lon="-0.29083">
        <ele>76.0132</ele>
        <time>2011-01-09T13:56:41Z</time>
      </trkpt>
      <trkpt lat="46.32535" lon="-0.29083">
        <ele>76.0887</ele>
        <time>2011-01-09T13:56:42Z</time>
      </trkpt>
      <trkpt lat="46.32535" lon="-0.2908">
        <ele>76.4081</ele>
        <time>2011-01-09T13:56:49Z</time>
      </trkpt>
      <trkpt lat="46.32534" lon="-0.29078">
        <ele>76.49</ele>
        <time>2011-01-09T13:56:50Z</time>
      </trkpt>
      <trkpt lat="46.32534" lon="-0.29077">
        <ele>76.5781</ele>
        <time>2011-01-09T13:56:51Z</time>
      </trkpt>
      <trkpt lat="46.32534" lon="-0.29076">
        <ele>76.6564</ele>
        <time>2011-01-09T13:56:52Z</time>
      </trkpt>
      <trkpt lat="46.32533" lon="-0.29074">
        <ele>76.9585</ele>
        <time>2011-01-09T13:56:56Z</time>
      </trkpt>
      <trkpt lat="46.32459" lon="-0.28952">
        <ele>16.7762</ele>
        <time>2011-01-09T13:58:43Z</time>
      </trkpt>
      <trkpt lat="46.3249" lon="-0.2892">
        <ele>95.7487</ele>
        <time>2011-01-09T13:58:45Z</time>
      </trkpt>
      <trkpt lat="46.32491" lon="-0.28921">
        <ele>95.3258</ele>
        <time>2011-01-09T13:58:47Z</time>
      </trkpt>
      <trkpt lat="46.32491" lon="-0.2892">
        <ele>94.3476</ele>
        <time>2011-01-09T13:58:48Z</time>
      </trkpt>
      <trkpt lat="46.32489" lon="-0.28917">
        <ele>93.7274</ele>
        <time>2011-01-09T13:58:50Z</time>
      </trkpt>
      <trkpt lat="46.32488" lon="-0.28915">
        <ele>91.7927</ele>
        <time>2011-01-09T13:58:52Z</time>
      </trkpt>
      <trkpt lat="46.32486" lon="-0.28911">
        <ele>90.0708</ele>
        <time>2011-01-09T13:58:55Z</time>
      </trkpt>
      <trkpt lat="46.32484" lon="-0.28908">
        <ele>89.0149</ele>
        <time>2011-01-09T13:58:57Z</time>
      </trkpt>
      <trkpt lat="46.32484" lon="-0.28907">
        <ele>88.4981</ele>
        <time>2011-01-09T13:58:58Z</time>
      </trkpt>
      <trkpt lat="46.32484" lon="-0.28906">
        <ele>87.7996</ele>
        <time>2011-01-09T13:58:59Z</time>
      </trkpt>
      <trkpt lat="46.32483" lon="-0.28905">
        <ele>86.5483</ele>
        <time>2011-01-09T13:59:01Z</time>
      </trkpt>
      <trkpt lat="46.32482" lon="-0.28904">
        <ele>86.179</ele>
        <time>2011-01-09T13:59:02Z</time>
      </trkpt>
      <trkpt lat="46.32481" lon="-0.28902">
        <ele>85.7442</ele>
        <time>2011-01-09T13:59:04Z</time>
      </trkpt>
      <trkpt lat="46.32481" lon="-0.28901">
        <ele>85.5903</ele>
        <time>2011-01-09T13:59:05Z</time>
      </trkpt>
      <trkpt lat="46.3248" lon="-0.289">
        <ele>85.4929</ele>
        <time>2011-01-09T13:59:06Z</time>
      </trkpt>
      <trkpt lat="46.3248" lon="-0.28899">
        <ele>85.4517</ele>
        <time>2011-01-09T13:59:07Z</time>
      </trkpt>
      <trkpt lat="46.3248" lon="-0.28897">
        <ele>85.5747</ele>
        <time>2011-01-09T13:59:08Z</time>
      </trkpt>
      <trkpt lat="46.32479" lon="-0.28896">
        <ele>85.5951</ele>
        <time>2011-01-09T13:59:09Z</time>
      </trkpt>
      <trkpt lat="46.32479" lon="-0.28894">
        <ele>85.6764</ele>
        <time>2011-01-09T13:59:10Z</time>
      </trkpt>
      <trkpt lat="46.32479" lon="-0.28892">
        <ele>85.4778</ele>
        <time>2011-01-09T13:59:11Z</time>
      </trkpt>
      <trkpt lat="46.32478" lon="-0.2889">
        <ele>85.1931</ele>
        <time>2011-01-09T13:59:12Z</time>
      </trkpt>
      <trkpt lat="46.32478" lon="-0.28889">
        <ele>85.0261</ele>
        <time>2011-01-09T13:59:13Z</time>
      </trkpt>
      <trkpt lat="46.32478" lon="-0.28887">
        <ele>85.0261</ele>
        <time>2011-01-09T13:59:14Z</time>
      </trkpt>
      <trkpt lat="46.32477" lon="-0.28886">
        <ele>85.0188</ele>
        <time>2011-01-09T13:59:15Z</time>
      </trkpt>
      <trkpt lat="46.32476" lon="-0.28885">
        <ele>85.0162</ele>
        <time>2011-01-09T13:59:17Z</time>
      </trkpt>
      <trkpt lat="46.32476" lon="-0.28884">
        <ele>85.0098</ele>
        <time>2011-01-09T13:59:18Z</time>
      </trkpt>
      <trkpt lat="46.32476" lon="-0.28883">
        <ele>85.0133</ele>
        <time>2011-01-09T13:59:19Z</time>
      </trkpt>
      <trkpt lat="46.32476" lon="-0.28882">
        <ele>85.0254</ele>
        <time>2011-01-09T13:59:20Z</time>
      </trkpt>
      <trkpt lat="46.32476" lon="-0.28881">
        <ele>85.035</ele>
        <time>2011-01-09T13:59:21Z</time>
      </trkpt>
      <trkpt lat="46.32476" lon="-0.28879">
        <ele>85.0472</ele>
        <time>2011-01-09T13:59:22Z</time>
      </trkpt>
      <trkpt lat="46.32476" lon="-0.28878">
        <ele>85.0548</ele>
        <time>2011-01-09T13:59:23Z</time>
      </trkpt>
      <trkpt lat="46.32476" lon="-0.28878">
        <ele>85.0599</ele>
        <time>2011-01-09T13:59:24Z</time>
      </trkpt>
      <trkpt lat="46.32476" lon="-0.28877">
        <ele>85.0687</ele>
        <time>2011-01-09T13:59:25Z</time>
      </trkpt>
      <trkpt lat="46.32476" lon="-0.28875">
        <ele>85.0764</ele>
        <time>2011-01-09T13:59:26Z</time>
      </trkpt>
      <trkpt lat="46.32476" lon="-0.28874">
        <ele>85.0857</ele>
        <time>2011-01-09T13:59:27Z</time>
      </trkpt>
      <trkpt lat="46.32476" lon="-0.28873">
        <ele>85.0971</ele>
        <time>2011-01-09T13:59:28Z</time>
      </trkpt>
      <trkpt lat="46.32476" lon="-0.28872">
        <ele>85.1069</ele>
        <time>2011-01-09T13:59:29Z</time>
      </trkpt>
      <trkpt lat="46.32476" lon="-0.28871">
        <ele>85.1197</ele>
        <time>2011-01-09T13:59:30Z</time>
      </trkpt>
      <trkpt lat="46.32477" lon="-0.2887">
        <ele>85.1504</ele>
        <time>2011-01-09T13:59:31Z</time>
      </trkpt>
      <trkpt lat="46.32477" lon="-0.28868">
        <ele>85.1925</ele>
        <time>2011-01-09T13:59:32Z</time>
      </trkpt>
      <trkpt lat="46.32477" lon="-0.28867">
        <ele>85.2362</ele>
        <time>2011-01-09T13:59:33Z</time>
      </trkpt>
      <trkpt lat="46.32477" lon="-0.28866">
        <ele>85.2801</ele>
        <time>2011-01-09T13:59:34Z</time>
      </trkpt>
      <trkpt lat="46.32476" lon="-0.28865">
        <ele>85.3223</ele>
        <time>2011-01-09T13:59:35Z</time>
      </trkpt>
      <trkpt lat="46.32476" lon="-0.28863">
        <ele>85.3599</ele>
        <time>2011-01-09T13:59:36Z</time>
      </trkpt>
      <trkpt lat="46.32476" lon="-0.28862">
        <ele>85.391</ele>
        <time>2011-01-09T13:59:37Z</time>
      </trkpt>
      <trkpt lat="46.32475" lon="-0.2886">
        <ele>85.4229</ele>
        <time>2011-01-09T13:59:38Z</time>
      </trkpt>
      <trkpt lat="46.32475" lon="-0.28859">
        <ele>85.4558</ele>
        <time>2011-01-09T13:59:39Z</time>
      </trkpt>
      <trkpt lat="46.32475" lon="-0.28857">
        <ele>85.4845</ele>
        <time>2011-01-09T13:59:40Z</time>
      </trkpt>
      <trkpt lat="46.32475" lon="-0.28855">
        <ele>85.512</ele>
        <time>2011-01-09T13:59:41Z</time>
      </trkpt>
      <trkpt lat="46.32475" lon="-0.28853">
        <ele>85.5398</ele>
        <time>2011-01-09T13:59:42Z</time>
      </trkpt>
      <trkpt lat="46.32475" lon="-0.28851">
        <ele>85.5658</ele>
        <time>2011-01-09T13:59:43Z</time>
      </trkpt>
      <trkpt lat="46.32474" lon="-0.28849">
        <ele>85.5901</ele>
        <time>2011-01-09T13:59:44Z</time>
      </trkpt>
      <trkpt lat="46.32474" lon="-0.28848">
        <ele>85.6145</ele>
        <time>2011-01-09T13:59:45Z</time>
      </trkpt>
      <trkpt lat="46.32473" lon="-0.28846">
        <ele>85.6418</ele>
        <time>2011-01-09T13:59:46Z</time>
      </trkpt>
      <trkpt lat="46.32473" lon="-0.28844">
        <ele>85.6671</ele>
        <time>2011-01-09T13:59:47Z</time>
      </trkpt>
      <trkpt lat="46.32473" lon="-0.28843">
        <ele>85.6926</ele>
        <time>2011-01-09T13:59:48Z</time>
      </trkpt>
      <trkpt lat="46.32473" lon="-0.28842">
        <ele>85.72</ele>
        <time>2011-01-09T13:59:49Z</time>
      </trkpt>
      <trkpt lat="46.32473" lon="-0.28841">
        <ele>85.7494</ele>
        <time>2011-01-09T13:59:50Z</time>
      </trkpt>
      <trkpt lat="46.32473" lon="-0.28839">
        <ele>85.7799</ele>
        <time>2011-01-09T13:59:51Z</time>
      </trkpt>
      <trkpt lat="46.32473" lon="-0.28838">
        <ele>85.8102</ele>
        <time>2011-01-09T13:59:52Z</time>
      </trkpt>
      <trkpt lat="46.32473" lon="-0.28837">
        <ele>85.8415</ele>
        <time>2011-01-09T13:59:53Z</time>
      </trkpt>
      <trkpt lat="46.32473" lon="-0.28835">
        <ele>85.8689</ele>
        <time>2011-01-09T13:59:54Z</time>
      </trkpt>
      <trkpt lat="46.32473" lon="-0.28834">
        <ele>85.8962</ele>
        <time>2011-01-09T13:59:55Z</time>
      </trkpt>
      <trkpt lat="46.32473" lon="-0.28832">
        <ele>85.9231</ele>
        <time>2011-01-09T13:59:56Z</time>
      </trkpt>
      <trkpt lat="46.32473" lon="-0.28831">
        <ele>85.9509</ele>
        <time>2011-01-09T13:59:57Z</time>
      </trkpt>
      <trkpt lat="46.32473" lon="-0.2883">
        <ele>85.9787</ele>
        <time>2011-01-09T13:59:58Z</time>
      </trkpt>
      <trkpt lat="46.32473" lon="-0.28829">
        <ele>85.999</ele>
        <time>2011-01-09T13:59:59Z</time>
      </trkpt>
      <trkpt lat="46.32472" lon="-0.28827">
        <ele>86.0189</ele>
        <time>2011-01-09T14:00:00Z</time>
      </trkpt>
      <trkpt lat="46.32472" lon="-0.28825">
        <ele>86.0388</ele>
        <time>2011-01-09T14:00:01Z</time>
      </trkpt>
      <trkpt lat="46.32472" lon="-0.28824">
        <ele>86.0585</ele>
        <time>2011-01-09T14:00:02Z</time>
      </trkpt>
      <trkpt lat="46.32472" lon="-0.28822">
        <ele>86.0821</ele>
        <time>2011-01-09T14:00:03Z</time>
      </trkpt>
      <trkpt lat="46.32471" lon="-0.28821">
        <ele>86.1027</ele>
        <time>2011-01-09T14:00:04Z</time>
      </trkpt>
      <trkpt lat="46.32471" lon="-0.28819">
        <ele>86.1236</ele>
        <time>2011-01-09T14:00:05Z</time>
      </trkpt>
      <trkpt lat="46.32471" lon="-0.28818">
        <ele>86.1418</ele>
        <time>2011-01-09T14:00:06Z</time>
      </trkpt>
      <trkpt lat="46.3247" lon="-0.28817">
        <ele>86.1617</ele>
        <time>2011-01-09T14:00:07Z</time>
      </trkpt>
      <trkpt lat="46.3247" lon="-0.28815">
        <ele>86.1826</ele>
        <time>2011-01-09T14:00:08Z</time>
      </trkpt>
      <trkpt lat="46.32469" lon="-0.28813">
        <ele>86.2025</ele>
        <time>2011-01-09T14:00:09Z</time>
      </trkpt>
      <trkpt lat="46.32468" lon="-0.28812">
        <ele>86.2208</ele>
        <time>2011-01-09T14:00:10Z</time>
      </trkpt>
      <trkpt lat="46.32468" lon="-0.2881">
        <ele>86.2364</ele>
        <time>2011-01-09T14:00:11Z</time>
      </trkpt>
      <trkpt lat="46.32468" lon="-0.28809">
        <ele>86.2501</ele>
        <time>2011-01-09T14:00:12Z</time>
      </trkpt>
      <trkpt lat="46.32468" lon="-0.28807">
        <ele>86.264</ele>
        <time>2011-01-09T14:00:13Z</time>
      </trkpt>
      <trkpt lat="46.32467" lon="-0.28801">
        <ele>86.2459</ele>
        <time>2011-01-09T14:00:22Z</time>
      </trkpt>
      <trkpt lat="46.32467" lon="-0.288">
        <ele>86.2279</ele>
        <time>2011-01-09T14:00:23Z</time>
      </trkpt>
      <trkpt lat="46.32467" lon="-0.28798">
        <ele>86.2123</ele>
        <time>2011-01-09T14:00:24Z</time>
      </trkpt>
      <trkpt lat="46.32467" lon="-0.28796">
        <ele>86.1968</ele>
        <time>2011-01-09T14:00:25Z</time>
      </trkpt>
      <trkpt lat="46.32467" lon="-0.28795">
        <ele>86.1817</ele>
        <time>2011-01-09T14:00:26Z</time>
      </trkpt>
      <trkpt lat="46.32467" lon="-0.28793">
        <ele>86.1679</ele>
        <time>2011-01-09T14:00:27Z</time>
      </trkpt>
      <trkpt lat="46.32467" lon="-0.28791">
        <ele>86.1573</ele>
        <time>2011-01-09T14:00:28Z</time>
      </trkpt>
      <trkpt lat="46.32467" lon="-0.2879">
        <ele>86.1499</ele>
        <time>2011-01-09T14:00:29Z</time>
      </trkpt>
      <trkpt lat="46.32466" lon="-0.28788">
        <ele>86.1466</ele>
        <time>2011-01-09T14:00:30Z</time>
      </trkpt>
      <trkpt lat="46.32466" lon="-0.28786">
        <ele>86.1439</ele>
        <time>2011-01-09T14:00:31Z</time>
      </trkpt>
      <trkpt lat="46.32465" lon="-0.28785">
        <ele>86.1425</ele>
        <time>2011-01-09T14:00:32Z</time>
      </trkpt>
      <trkpt lat="46.32465" lon="-0.28783">
        <ele>86.1415</ele>
        <time>2011-01-09T14:00:33Z</time>
      </trkpt>
      <trkpt lat="46.32464" lon="-0.28782">
        <ele>86.1416</ele>
        <time>2011-01-09T14:00:34Z</time>
      </trkpt>
      <trkpt lat="46.32464" lon="-0.2878">
        <ele>86.1426</ele>
        <time>2011-01-09T14:00:35Z</time>
      </trkpt>
      <trkpt lat="46.32464" lon="-0.28779">
        <ele>86.1455</ele>
        <time>2011-01-09T14:00:36Z</time>
      </trkpt>
      <trkpt lat="46.32464" lon="-0.28778">
        <ele>86.1509</ele>
        <time>2011-01-09T14:00:37Z</time>
      </trkpt>
      <trkpt lat="46.32464" lon="-0.28777">
        <ele>86.1581</ele>
        <time>2011-01-09T14:00:38Z</time>
      </trkpt>
      <trkpt lat="46.32464" lon="-0.28775">
        <ele>86.165</ele>
        <time>2011-01-09T14:00:39Z</time>
      </trkpt>
      <trkpt lat="46.32464" lon="-0.28774">
        <ele>86.1713</ele>
        <time>2011-01-09T14:00:40Z</time>
      </trkpt>
      <trkpt lat="46.32464" lon="-0.28773">
        <ele>86.1758</ele>
        <time>2011-01-09T14:00:41Z</time>
      </trkpt>
      <trkpt lat="46.32464" lon="-0.28772">
        <ele>86.1786</ele>
        <time>2011-01-09T14:00:42Z</time>
      </trkpt>
      <trkpt lat="46.32463" lon="-0.2877">
        <ele>86.1791</ele>
        <time>2011-01-09T14:00:43Z</time>
      </trkpt>
      <trkpt lat="46.32463" lon="-0.28768">
        <ele>86.178</ele>
        <time>2011-01-09T14:00:44Z</time>
      </trkpt>
      <trkpt lat="46.32463" lon="-0.28767">
        <ele>86.1765</ele>
        <time>2011-01-09T14:00:45Z</time>
      </trkpt>
      <trkpt lat="46.32463" lon="-0.28765">
        <ele>86.1742</ele>
        <time>2011-01-09T14:00:46Z</time>
      </trkpt>
      <trkpt lat="46.32463" lon="-0.28764">
        <ele>86.1695</ele>
        <time>2011-01-09T14:00:47Z</time>
      </trkpt>
      <trkpt lat="46.32463" lon="-0.28762">
        <ele>86.1657</ele>
        <time>2011-01-09T14:00:48Z</time>
      </trkpt>
      <trkpt lat="46.32463" lon="-0.28761">
        <ele>86.1629</ele>
        <time>2011-01-09T14:00:49Z</time>
      </trkpt>
      <trkpt lat="46.32463" lon="-0.2876">
        <ele>86.1607</ele>
        <time>2011-01-09T14:00:50Z</time>
      </trkpt>
      <trkpt lat="46.32463" lon="-0.28758">
        <ele>86.1604</ele>
        <time>2011-01-09T14:00:51Z</time>
      </trkpt>
      <trkpt lat="46.32462" lon="-0.28756">
        <ele>86.1569</ele>
        <time>2011-01-09T14:00:52Z</time>
      </trkpt>
      <trkpt lat="46.32462" lon="-0.28755">
        <ele>86.1503</ele>
        <time>2011-01-09T14:00:53Z</time>
      </trkpt>
      <trkpt lat="46.32462" lon="-0.28753">
        <ele>86.1451</ele>
        <time>2011-01-09T14:00:54Z</time>
      </trkpt>
      <trkpt lat="46.32462" lon="-0.28751">
        <ele>86.1363</ele>
        <time>2011-01-09T14:00:55Z</time>
      </trkpt>
      <trkpt lat="46.32461" lon="-0.28749">
        <ele>86.1271</ele>
        <time>2011-01-09T14:00:56Z</time>
      </trkpt>
      <trkpt lat="46.32461" lon="-0.28747">
        <ele>86.1165</ele>
        <time>2011-01-09T14:00:57Z</time>
      </trkpt>
      <trkpt lat="46.32461" lon="-0.28746">
        <ele>86.1035</ele>
        <time>2011-01-09T14:00:58Z</time>
      </trkpt>
      <trkpt lat="46.3246" lon="-0.28744">
        <ele>86.0875</ele>
        <time>2011-01-09T14:00:59Z</time>
      </trkpt>
      <trkpt lat="46.3246" lon="-0.28742">
        <ele>86.0689</ele>
        <time>2011-01-09T14:01:00Z</time>
      </trkpt>
      <trkpt lat="46.32459" lon="-0.2874">
        <ele>86.0485</ele>
        <time>2011-01-09T14:01:01Z</time>
      </trkpt>
      <trkpt lat="46.3246" lon="-0.28739">
        <ele>86.0259</ele>
        <time>2011-01-09T14:01:02Z</time>
      </trkpt>
      <trkpt lat="46.3246" lon="-0.28737">
        <ele>86.0016</ele>
        <time>2011-01-09T14:01:03Z</time>
      </trkpt>
      <trkpt lat="46.3246" lon="-0.28736">
        <ele>85.9769</ele>
        <time>2011-01-09T14:01:04Z</time>
      </trkpt>
      <trkpt lat="46.3246" lon="-0.28734">
        <ele>85.9528</ele>
        <time>2011-01-09T14:01:05Z</time>
      </trkpt>
      <trkpt lat="46.3246" lon="-0.28733">
        <ele>85.9286</ele>
        <time>2011-01-09T14:01:06Z</time>
      </trkpt>
      <trkpt lat="46.32461" lon="-0.28732">
        <ele>85.9057</ele>
        <time>2011-01-09T14:01:07Z</time>
      </trkpt>
      <trkpt lat="46.32461" lon="-0.28732">
        <ele>85.884</ele>
        <time>2011-01-09T14:01:08Z</time>
      </trkpt>
      <trkpt lat="46.32461" lon="-0.28732">
        <ele>85.8611</ele>
        <time>2011-01-09T14:01:09Z</time>
      </trkpt>
      <trkpt lat="46.32461" lon="-0.28731">
        <ele>85.8348</ele>
        <time>2011-01-09T14:01:10Z</time>
      </trkpt>
      <trkpt lat="46.32461" lon="-0.2873">
        <ele>85.8076</ele>
        <time>2011-01-09T14:01:11Z</time>
      </trkpt>
      <trkpt lat="46.32461" lon="-0.28729">
        <ele>85.7826</ele>
        <time>2011-01-09T14:01:12Z</time>
      </trkpt>
      <trkpt lat="46.3246" lon="-0.28728">
        <ele>85.7591</ele>
        <time>2011-01-09T14:01:13Z</time>
      </trkpt>
      <trkpt lat="46.3246" lon="-0.28727">
        <ele>85.7356</ele>
        <time>2011-01-09T14:01:14Z</time>
      </trkpt>
      <trkpt lat="46.3246" lon="-0.28726">
        <ele>85.7135</ele>
        <time>2011-01-09T14:01:15Z</time>
      </trkpt>
      <trkpt lat="46.32459" lon="-0.28725">
        <ele>85.6933</ele>
        <time>2011-01-09T14:01:16Z</time>
      </trkpt>
      <trkpt lat="46.32459" lon="-0.28723">
        <ele>85.6745</ele>
        <time>2011-01-09T14:01:17Z</time>
      </trkpt>
      <trkpt lat="46.32458" lon="-0.28722">
        <ele>85.6588</ele>
        <time>2011-01-09T14:01:18Z</time>
      </trkpt>
      <trkpt lat="46.32458" lon="-0.2872">
        <ele>85.6451</ele>
        <time>2011-01-09T14:01:19Z</time>
      </trkpt>
      <trkpt lat="46.32458" lon="-0.28719">
        <ele>85.6309</ele>
        <time>2011-01-09T14:01:20Z</time>
      </trkpt>
      <trkpt lat="46.32457" lon="-0.28717">
        <ele>85.6204</ele>
        <time>2011-01-09T14:01:21Z</time>
      </trkpt>
      <trkpt lat="46.32457" lon="-0.28716">
        <ele>85.6152</ele>
        <time>2011-01-09T14:01:22Z</time>
      </trkpt>
      <trkpt lat="46.32457" lon="-0.28714">
        <ele>85.6007</ele>
        <time>2011-01-09T14:01:23Z</time>
      </trkpt>
      <trkpt lat="46.32456" lon="-0.28713">
        <ele>85.5831</ele>
        <time>2011-01-09T14:01:24Z</time>
      </trkpt>
      <trkpt lat="46.32456" lon="-0.28711">
        <ele>85.5635</ele>
        <time>2011-01-09T14:01:25Z</time>
      </trkpt>
      <trkpt lat="46.32456" lon="-0.2871">
        <ele>85.5432</ele>
        <time>2011-01-09T14:01:26Z</time>
      </trkpt>
      <trkpt lat="46.32455" lon="-0.28708">
        <ele>85.523</ele>
        <time>2011-01-09T14:01:27Z</time>
      </trkpt>
      <trkpt lat="46.32455" lon="-0.28707">
        <ele>85.5027</ele>
        <time>2011-01-09T14:01:28Z</time>
      </trkpt>
      <trkpt lat="46.32455" lon="-0.28705">
        <ele>85.4834</ele>
        <time>2011-01-09T14:01:29Z</time>
      </trkpt>
      <trkpt lat="46.32455" lon="-0.28704">
        <ele>85.4622</ele>
        <time>2011-01-09T14:01:30Z</time>
      </trkpt>
      <trkpt lat="46.32455" lon="-0.28703">
        <ele>85.4373</ele>
        <time>2011-01-09T14:01:31Z</time>
      </trkpt>
      <trkpt lat="46.32455" lon="-0.28702">
        <ele>85.4126</ele>
        <time>2011-01-09T14:01:32Z</time>
      </trkpt>
      <trkpt lat="46.32455" lon="-0.28701">
        <ele>85.3889</ele>
        <time>2011-01-09T14:01:33Z</time>
      </trkpt>
      <trkpt lat="46.32455" lon="-0.28699">
        <ele>85.365</ele>
        <time>2011-01-09T14:01:34Z</time>
      </trkpt>
      <trkpt lat="46.32455" lon="-0.28698">
        <ele>85.3433</ele>
        <time>2011-01-09T14:01:35Z</time>
      </trkpt>
      <trkpt lat="46.32456" lon="-0.28697">
        <ele>85.3253</ele>
        <time>2011-01-09T14:01:36Z</time>
      </trkpt>
      <trkpt lat="46.32456" lon="-0.28695">
        <ele>85.3085</ele>
        <time>2011-01-09T14:01:37Z</time>
      </trkpt>
      <trkpt lat="46.32456" lon="-0.28694">
        <ele>85.2931</ele>
        <time>2011-01-09T14:01:38Z</time>
      </trkpt>
      <trkpt lat="46.32456" lon="-0.28693">
        <ele>85.2807</ele>
        <time>2011-01-09T14:01:39Z</time>
      </trkpt>
      <trkpt lat="46.32456" lon="-0.28692">
        <ele>85.2692</ele>
        <time>2011-01-09T14:01:40Z</time>
      </trkpt>
      <trkpt lat="46.32456" lon="-0.2869">
        <ele>85.2518</ele>
        <time>2011-01-09T14:01:41Z</time>
      </trkpt>
      <trkpt lat="46.32456" lon="-0.28689">
        <ele>85.2335</ele>
        <time>2011-01-09T14:01:42Z</time>
      </trkpt>
      <trkpt lat="46.32456" lon="-0.28688">
        <ele>85.2219</ele>
        <time>2011-01-09T14:01:43Z</time>
      </trkpt>
      <trkpt lat="46.32455" lon="-0.28686">
        <ele>85.2221</ele>
        <time>2011-01-09T14:01:44Z</time>
      </trkpt>
      <trkpt lat="46.32455" lon="-0.28684">
        <ele>85.2296</ele>
        <time>2011-01-09T14:01:45Z</time>
      </trkpt>
      <trkpt lat="46.32454" lon="-0.28682">
        <ele>85.2464</ele>
        <time>2011-01-09T14:01:46Z</time>
      </trkpt>
      <trkpt lat="46.32454" lon="-0.28681">
        <ele>85.2619</ele>
        <time>2011-01-09T14:01:47Z</time>
      </trkpt>
      <trkpt lat="46.32453" lon="-0.28679">
        <ele>85.2792</ele>
        <time>2011-01-09T14:01:48Z</time>
      </trkpt>
      <trkpt lat="46.32452" lon="-0.28677">
        <ele>85.2927</ele>
        <time>2011-01-09T14:01:49Z</time>
      </trkpt>
      <trkpt lat="46.32452" lon="-0.28676">
        <ele>85.3088</ele>
        <time>2011-01-09T14:01:50Z</time>
      </trkpt>
      <trkpt lat="46.32452" lon="-0.28674">
        <ele>85.3275</ele>
        <time>2011-01-09T14:01:51Z</time>
      </trkpt>
      <trkpt lat="46.32452" lon="-0.28672">
        <ele>85.3481</ele>
        <time>2011-01-09T14:01:52Z</time>
      </trkpt>
      <trkpt lat="46.32452" lon="-0.2867">
        <ele>85.3737</ele>
        <time>2011-01-09T14:01:53Z</time>
      </trkpt>
      <trkpt lat="46.32452" lon="-0.28668">
        <ele>85.3999</ele>
        <time>2011-01-09T14:01:54Z</time>
      </trkpt>
      <trkpt lat="46.32451" lon="-0.28666">
        <ele>85.4263</ele>
        <time>2011-01-09T14:01:55Z</time>
      </trkpt>
      <trkpt lat="46.32451" lon="-0.28665">
        <ele>85.4567</ele>
        <time>2011-01-09T14:01:56Z</time>
      </trkpt>
      <trkpt lat="46.32451" lon="-0.28663">
        <ele>85.4957</ele>
        <time>2011-01-09T14:01:57Z</time>
      </trkpt>
      <trkpt lat="46.3245" lon="-0.28662">
        <ele>85.548</ele>
        <time>2011-01-09T14:01:58Z</time>
      </trkpt>
      <trkpt lat="46.3245" lon="-0.2866">
        <ele>85.6026</ele>
        <time>2011-01-09T14:01:59Z</time>
      </trkpt>
      <trkpt lat="46.3245" lon="-0.28658">
        <ele>85.6551</ele>
        <time>2011-01-09T14:02:00Z</time>
      </trkpt>
      <trkpt lat="46.32449" lon="-0.28657">
        <ele>85.7082</ele>
        <time>2011-01-09T14:02:01Z</time>
      </trkpt>
      <trkpt lat="46.32449" lon="-0.28655">
        <ele>85.7629</ele>
        <time>2011-01-09T14:02:02Z</time>
      </trkpt>
      <trkpt lat="46.3245" lon="-0.28654">
        <ele>85.8184</ele>
        <time>2011-01-09T14:02:03Z</time>
      </trkpt>
      <trkpt lat="46.3245" lon="-0.28653">
        <ele>85.8746</ele>
        <time>2011-01-09T14:02:04Z</time>
      </trkpt>
      <trkpt lat="46.32451" lon="-0.28651">
        <ele>85.9309</ele>
        <time>2011-01-09T14:02:05Z</time>
      </trkpt>
      <trkpt lat="46.32451" lon="-0.28651">
        <ele>85.9928</ele>
        <time>2011-01-09T14:02:06Z</time>
      </trkpt>
      <trkpt lat="46.32452" lon="-0.2865">
        <ele>86.0636</ele>
        <time>2011-01-09T14:02:07Z</time>
      </trkpt>
      <trkpt lat="46.32453" lon="-0.28649">
        <ele>86.1432</ele>
        <time>2011-01-09T14:02:08Z</time>
      </trkpt>
      <trkpt lat="46.32454" lon="-0.28647">
        <ele>86.2345</ele>
        <time>2011-01-09T14:02:09Z</time>
      </trkpt>
      <trkpt lat="46.32455" lon="-0.28646">
        <ele>86.3379</ele>
        <time>2011-01-09T14:02:10Z</time>
      </trkpt>
      <trkpt lat="46.32456" lon="-0.28644">
        <ele>86.4441</ele>
        <time>2011-01-09T14:02:11Z</time>
      </trkpt>
      <trkpt lat="46.32458" lon="-0.28643">
        <ele>86.5491</ele>
        <time>2011-01-09T14:02:12Z</time>
      </trkpt>
      <trkpt lat="46.32459" lon="-0.28642">
        <ele>86.6525</ele>
        <time>2011-01-09T14:02:13Z</time>
      </trkpt>
      <trkpt lat="46.3246" lon="-0.28641">
        <ele>86.7545</ele>
        <time>2011-01-09T14:02:14Z</time>
      </trkpt>
      <trkpt lat="46.32462" lon="-0.28641">
        <ele>86.8548</ele>
        <time>2011-01-09T14:02:15Z</time>
      </trkpt>
      <trkpt lat="46.32462" lon="-0.2864">
        <ele>86.9525</ele>
        <time>2011-01-09T14:02:16Z</time>
      </trkpt>
      <trkpt lat="46.32464" lon="-0.2864">
        <ele>87.0484</ele>
        <time>2011-01-09T14:02:17Z</time>
      </trkpt>
      <trkpt lat="46.32464" lon="-0.28639">
        <ele>87.1433</ele>
        <time>2011-01-09T14:02:18Z</time>
      </trkpt>
      <trkpt lat="46.32464" lon="-0.28638">
        <ele>87.237</ele>
        <time>2011-01-09T14:02:19Z</time>
      </trkpt>
      <trkpt lat="46.32464" lon="-0.28638">
        <ele>87.3295</ele>
        <time>2011-01-09T14:02:20Z</time>
      </trkpt>
      <trkpt lat="46.32464" lon="-0.28637">
        <ele>87.4224</ele>
        <time>2011-01-09T14:02:21Z</time>
      </trkpt>
      <trkpt lat="46.32464" lon="-0.28637">
        <ele>87.5141</ele>
        <time>2011-01-09T14:02:22Z</time>
      </trkpt>
      <trkpt lat="46.32465" lon="-0.28637">
        <ele>87.5957</ele>
        <time>2011-01-09T14:02:23Z</time>
      </trkpt>
      <trkpt lat="46.32465" lon="-0.28636">
        <ele>87.6767</ele>
        <time>2011-01-09T14:02:24Z</time>
      </trkpt>
      <trkpt lat="46.32465" lon="-0.28637">
        <ele>87.7564</ele>
        <time>2011-01-09T14:02:25Z</time>
      </trkpt>
      <trkpt lat="46.32465" lon="-0.28637">
        <ele>87.8377</ele>
        <time>2011-01-09T14:02:26Z</time>
      </trkpt>
      <trkpt lat="46.32465" lon="-0.28637">
        <ele>87.9212</ele>
        <time>2011-01-09T14:02:27Z</time>
      </trkpt>
      <trkpt lat="46.32464" lon="-0.28632">
        <ele>88.1714</ele>
        <time>2011-01-09T14:02:42Z</time>
      </trkpt>
      <trkpt lat="46.32464" lon="-0.28631">
        <ele>88.2325</ele>
        <time>2011-01-09T14:02:43Z</time>
      </trkpt>
      <trkpt lat="46.32464" lon="-0.28629">
        <ele>88.29</ele>
        <time>2011-01-09T14:02:44Z</time>
      </trkpt>
      <trkpt lat="46.32463" lon="-0.28628">
        <ele>88.3442</ele>
        <time>2011-01-09T14:02:45Z</time>
      </trkpt>
      <trkpt lat="46.32463" lon="-0.28626">
        <ele>88.4072</ele>
        <time>2011-01-09T14:02:46Z</time>
      </trkpt>
      <trkpt lat="46.32463" lon="-0.28625">
        <ele>88.4707</ele>
        <time>2011-01-09T14:02:47Z</time>
      </trkpt>
      <trkpt lat="46.32462" lon="-0.28623">
        <ele>88.5343</ele>
        <time>2011-01-09T14:02:48Z</time>
      </trkpt>
      <trkpt lat="46.32462" lon="-0.28622">
        <ele>88.6105</ele>
        <time>2011-01-09T14:02:49Z</time>
      </trkpt>
      <trkpt lat="46.32462" lon="-0.2862">
        <ele>88.6939</ele>
        <time>2011-01-09T14:02:50Z</time>
      </trkpt>
      <trkpt lat="46.32463" lon="-0.28619">
        <ele>88.7844</ele>
        <time>2011-01-09T14:02:51Z</time>
      </trkpt>
      <trkpt lat="46.32463" lon="-0.28618">
        <ele>88.8813</ele>
        <time>2011-01-09T14:02:52Z</time>
      </trkpt>
      <trkpt lat="46.32463" lon="-0.28616">
        <ele>88.9854</ele>
        <time>2011-01-09T14:02:53Z</time>
      </trkpt>
      <trkpt lat="46.32463" lon="-0.28615">
        <ele>89.0937</ele>
        <time>2011-01-09T14:02:54Z</time>
      </trkpt>
      <trkpt lat="46.32463" lon="-0.28614">
        <ele>89.2089</ele>
        <time>2011-01-09T14:02:55Z</time>
      </trkpt>
      <trkpt lat="46.32463" lon="-0.28613">
        <ele>89.3731</ele>
        <time>2011-01-09T14:02:59Z</time>
      </trkpt>
      <trkpt lat="46.32463" lon="-0.28612">
        <ele>89.5024</ele>
        <time>2011-01-09T14:03:00Z</time>
      </trkpt>
      <trkpt lat="46.32462" lon="-0.28611">
        <ele>89.6317</ele>
        <time>2011-01-09T14:03:01Z</time>
      </trkpt>
      <trkpt lat="46.32462" lon="-0.2861">
        <ele>89.7593</ele>
        <time>2011-01-09T14:03:02Z</time>
      </trkpt>
      <trkpt lat="46.32462" lon="-0.28609">
        <ele>89.8866</ele>
        <time>2011-01-09T14:03:03Z</time>
      </trkpt>
      <trkpt lat="46.32462" lon="-0.28608">
        <ele>90.0121</ele>
        <time>2011-01-09T14:03:04Z</time>
      </trkpt>
      <trkpt lat="46.32462" lon="-0.28606">
        <ele>90.137</ele>
        <time>2011-01-09T14:03:05Z</time>
      </trkpt>
      <trkpt lat="46.32462" lon="-0.28605">
        <ele>90.2594</ele>
        <time>2011-01-09T14:03:06Z</time>
      </trkpt>
      <trkpt lat="46.32462" lon="-0.28604">
        <ele>90.3797</ele>
        <time>2011-01-09T14:03:07Z</time>
      </trkpt>
      <trkpt lat="46.32461" lon="-0.28602">
        <ele>90.4966</ele>
        <time>2011-01-09T14:03:08Z</time>
      </trkpt>
      <trkpt lat="46.32461" lon="-0.28601">
        <ele>90.6118</ele>
        <time>2011-01-09T14:03:09Z</time>
      </trkpt>
      <trkpt lat="46.32461" lon="-0.286">
        <ele>90.7253</ele>
        <time>2011-01-09T14:03:10Z</time>
      </trkpt>
      <trkpt lat="46.32461" lon="-0.28598">
        <ele>90.8363</ele>
        <time>2011-01-09T14:03:11Z</time>
      </trkpt>
      <trkpt lat="46.3246" lon="-0.28597">
        <ele>90.9458</ele>
        <time>2011-01-09T14:03:12Z</time>
      </trkpt>
      <trkpt lat="46.3246" lon="-0.28597">
        <ele>91.0536</ele>
        <time>2011-01-09T14:03:13Z</time>
      </trkpt>
      <trkpt lat="46.3246" lon="-0.28597">
        <ele>91.1592</ele>
        <time>2011-01-09T14:03:14Z</time>
      </trkpt>
      <trkpt lat="46.3246" lon="-0.28597">
        <ele>91.2578</ele>
        <time>2011-01-09T14:03:15Z</time>
      </trkpt>
      <trkpt lat="46.3246" lon="-0.28598">
        <ele>91.3514</ele>
        <time>2011-01-09T14:03:16Z</time>
      </trkpt>
      <trkpt lat="46.32458" lon="-0.28592">
        <ele>91.6852</ele>
        <time>2011-01-09T14:03:28Z</time>
      </trkpt>
      <trkpt lat="46.32457" lon="-0.28591">
        <ele>91.737</ele>
        <time>2011-01-09T14:03:29Z</time>
      </trkpt>
      <trkpt lat="46.32457" lon="-0.28591">
        <ele>91.7889</ele>
        <time>2011-01-09T14:03:30Z</time>
      </trkpt>
      <trkpt lat="46.32456" lon="-0.28591">
        <ele>91.8268</ele>
        <time>2011-01-09T14:03:31Z</time>
      </trkpt>
      <trkpt lat="46.32455" lon="-0.28591">
        <ele>91.8528</ele>
        <time>2011-01-09T14:03:32Z</time>
      </trkpt>
      <trkpt lat="46.32455" lon="-0.28592">
        <ele>91.8528</ele>
        <time>2011-01-09T14:03:33Z</time>
      </trkpt>
      <trkpt lat="46.32454" lon="-0.28592">
        <ele>91.8685</ele>
        <time>2011-01-09T14:03:34Z</time>
      </trkpt>
      <trkpt lat="46.32452" lon="-0.28593">
        <ele>91.8776</ele>
        <time>2011-01-09T14:03:35Z</time>
      </trkpt>
      <trkpt lat="46.32452" lon="-0.28594">
        <ele>91.8835</ele>
        <time>2011-01-09T14:03:36Z</time>
      </trkpt>
      <trkpt lat="46.32451" lon="-0.28594">
        <ele>91.8907</ele>
        <time>2011-01-09T14:03:37Z</time>
      </trkpt>
      <trkpt lat="46.32449" lon="-0.28595">
        <ele>91.8972</ele>
        <time>2011-01-09T14:03:38Z</time>
      </trkpt>
      <trkpt lat="46.32449" lon="-0.28597">
        <ele>91.9035</ele>
        <time>2011-01-09T14:03:39Z</time>
      </trkpt>
      <trkpt lat="46.32447" lon="-0.28597">
        <ele>91.9109</ele>
        <time>2011-01-09T14:03:40Z</time>
      </trkpt>
      <trkpt lat="46.32447" lon="-0.28598">
        <ele>91.9165</ele>
        <time>2011-01-09T14:03:41Z</time>
      </trkpt>
      <trkpt lat="46.32446" lon="-0.28599">
        <ele>91.9218</ele>
        <time>2011-01-09T14:03:42Z</time>
      </trkpt>
      <trkpt lat="46.32445" lon="-0.28598">
        <ele>91.9248</ele>
        <time>2011-01-09T14:03:43Z</time>
      </trkpt>
      <trkpt lat="46.32444" lon="-0.28598">
        <ele>91.9325</ele>
        <time>2011-01-09T14:03:44Z</time>
      </trkpt>
      <trkpt lat="46.32441" lon="-0.28599">
        <ele>92.2677</ele>
        <time>2011-01-09T14:03:59Z</time>
      </trkpt>
      <trkpt lat="46.32441" lon="-0.286">
        <ele>92.3362</ele>
        <time>2011-01-09T14:04:00Z</time>
      </trkpt>
      <trkpt lat="46.32439" lon="-0.28601">
        <ele>92.4006</ele>
        <time>2011-01-09T14:04:01Z</time>
      </trkpt>
      <trkpt lat="46.32439" lon="-0.28602">
        <ele>92.4577</ele>
        <time>2011-01-09T14:04:02Z</time>
      </trkpt>
      <trkpt lat="46.32438" lon="-0.28602">
        <ele>92.5136</ele>
        <time>2011-01-09T14:04:03Z</time>
      </trkpt>
      <trkpt lat="46.32437" lon="-0.28603">
        <ele>92.57</ele>
        <time>2011-01-09T14:04:04Z</time>
      </trkpt>
      <trkpt lat="46.32436" lon="-0.28603">
        <ele>92.6109</ele>
        <time>2011-01-09T14:04:05Z</time>
      </trkpt>
      <trkpt lat="46.32435" lon="-0.28604">
        <ele>92.6541</ele>
        <time>2011-01-09T14:04:06Z</time>
      </trkpt>
      <trkpt lat="46.32434" lon="-0.28605">
        <ele>92.6848</ele>
        <time>2011-01-09T14:04:07Z</time>
      </trkpt>
      <trkpt lat="46.32433" lon="-0.28605">
        <ele>92.7028</ele>
        <time>2011-01-09T14:04:08Z</time>
      </trkpt>
      <trkpt lat="46.32432" lon="-0.28605">
        <ele>92.7229</ele>
        <time>2011-01-09T14:04:09Z</time>
      </trkpt>
      <trkpt lat="46.32431" lon="-0.28606">
        <ele>92.7441</ele>
        <time>2011-01-09T14:04:10Z</time>
      </trkpt>
      <trkpt lat="46.32431" lon="-0.28606">
        <ele>92.765</ele>
        <time>2011-01-09T14:04:11Z</time>
      </trkpt>
      <trkpt lat="46.3243" lon="-0.28606">
        <ele>92.7851</ele>
        <time>2011-01-09T14:04:12Z</time>
      </trkpt>
      <trkpt lat="46.32429" lon="-0.28607">
        <ele>92.8019</ele>
        <time>2011-01-09T14:04:13Z</time>
      </trkpt>
      <trkpt lat="46.32428" lon="-0.28607">
        <ele>92.8161</ele>
        <time>2011-01-09T14:04:14Z</time>
      </trkpt>
      <trkpt lat="46.32428" lon="-0.28608">
        <ele>92.8283</ele>
        <time>2011-01-09T14:04:15Z</time>
      </trkpt>
      <trkpt lat="46.32427" lon="-0.28609">
        <ele>92.8252</ele>
        <time>2011-01-09T14:04:16Z</time>
      </trkpt>
      <trkpt lat="46.32427" lon="-0.28609">
        <ele>92.8204</ele>
        <time>2011-01-09T14:04:17Z</time>
      </trkpt>
      <trkpt lat="46.32426" lon="-0.28609">
        <ele>92.8135</ele>
        <time>2011-01-09T14:04:18Z</time>
      </trkpt>
      <trkpt lat="46.32423" lon="-0.28608">
        <ele>92.1064</ele>
        <time>2011-01-09T14:04:39Z</time>
      </trkpt>
      <trkpt lat="46.32423" lon="-0.28608">
        <ele>92.0139</ele>
        <time>2011-01-09T14:04:40Z</time>
      </trkpt>
      <trkpt lat="46.32422" lon="-0.28608">
        <ele>91.9277</ele>
        <time>2011-01-09T14:04:41Z</time>
      </trkpt>
      <trkpt lat="46.32422" lon="-0.28608">
        <ele>91.8448</ele>
        <time>2011-01-09T14:04:42Z</time>
      </trkpt>
      <trkpt lat="46.32421" lon="-0.28608">
        <ele>91.7676</ele>
        <time>2011-01-09T14:04:43Z</time>
      </trkpt>
      <trkpt lat="46.32421" lon="-0.28608">
        <ele>91.7031</ele>
        <time>2011-01-09T14:04:44Z</time>
      </trkpt>
      <trkpt lat="46.3242" lon="-0.28608">
        <ele>91.6392</ele>
        <time>2011-01-09T14:04:45Z</time>
      </trkpt>
      <trkpt lat="46.3242" lon="-0.28607">
        <ele>91.5791</ele>
        <time>2011-01-09T14:04:46Z</time>
      </trkpt>
      <trkpt lat="46.3242" lon="-0.28607">
        <ele>91.52</ele>
        <time>2011-01-09T14:04:47Z</time>
      </trkpt>
      <trkpt lat="46.3242" lon="-0.28608">
        <ele>91.466</ele>
        <time>2011-01-09T14:04:48Z</time>
      </trkpt>
      <trkpt lat="46.3242" lon="-0.28608">
        <ele>91.4151</ele>
        <time>2011-01-09T14:04:49Z</time>
      </trkpt>
      <trkpt lat="46.32419" lon="-0.28608">
        <ele>91.3747</ele>
        <time>2011-01-09T14:04:50Z</time>
      </trkpt>
      <trkpt lat="46.32419" lon="-0.28608">
        <ele>91.345</ele>
        <time>2011-01-09T14:04:51Z</time>
      </trkpt>
      <trkpt lat="46.32418" lon="-0.28612">
        <ele>90.9886</ele>
        <time>2011-01-09T14:05:16Z</time>
      </trkpt>
      <trkpt lat="46.32418" lon="-0.28612">
        <ele>90.9278</ele>
        <time>2011-01-09T14:05:17Z</time>
      </trkpt>
      <trkpt lat="46.32417" lon="-0.28612">
        <ele>90.867</ele>
        <time>2011-01-09T14:05:18Z</time>
      </trkpt>
      <trkpt lat="46.32417" lon="-0.28612">
        <ele>90.8072</ele>
        <time>2011-01-09T14:05:19Z</time>
      </trkpt>
      <trkpt lat="46.32417" lon="-0.28612">
        <ele>90.7458</ele>
        <time>2011-01-09T14:05:20Z</time>
      </trkpt>
      <trkpt lat="46.32417" lon="-0.28612">
        <ele>90.6882</ele>
        <time>2011-01-09T14:05:21Z</time>
      </trkpt>
      <trkpt lat="46.3242" lon="-0.28608">
        <ele>90.3583</ele>
        <time>2011-01-09T14:05:35Z</time>
      </trkpt>
      <trkpt lat="46.3242" lon="-0.28606">
        <ele>89.8758</ele>
        <time>2011-01-09T14:05:42Z</time>
      </trkpt>
      <trkpt lat="46.3242" lon="-0.28606">
        <ele>89.7327</ele>
        <time>2011-01-09T14:05:43Z</time>
      </trkpt>
      <trkpt lat="46.32415" lon="-0.28607">
        <ele>89.2859</ele>
        <time>2011-01-09T14:05:58Z</time>
      </trkpt>
      <trkpt lat="46.32414" lon="-0.28607">
        <ele>89.013</ele>
        <time>2011-01-09T14:06:00Z</time>
      </trkpt>
      <trkpt lat="46.32409" lon="-0.28607">
        <ele>88.1345</ele>
        <time>2011-01-09T14:06:37Z</time>
      </trkpt>
      <trkpt lat="46.32406" lon="-0.28607">
        <ele>88.0252</ele>
        <time>2011-01-09T14:06:42Z</time>
      </trkpt>
      <trkpt lat="46.32404" lon="-0.28607">
        <ele>87.9861</ele>
        <time>2011-01-09T14:06:43Z</time>
      </trkpt>
      <trkpt lat="46.32404" lon="-0.28607">
        <ele>87.9473</ele>
        <time>2011-01-09T14:06:44Z</time>
      </trkpt>
      <trkpt lat="46.32403" lon="-0.28607">
        <ele>87.9093</ele>
        <time>2011-01-09T14:06:45Z</time>
      </trkpt>
      <trkpt lat="46.32402" lon="-0.28608">
        <ele>87.8727</ele>
        <time>2011-01-09T14:06:46Z</time>
      </trkpt>
      <trkpt lat="46.32402" lon="-0.28607">
        <ele>87.8375</ele>
        <time>2011-01-09T14:06:47Z</time>
      </trkpt>
      <trkpt lat="46.32402" lon="-0.28607">
        <ele>87.8049</ele>
        <time>2011-01-09T14:06:48Z</time>
      </trkpt>
      <trkpt lat="46.32402" lon="-0.28607">
        <ele>87.7687</ele>
        <time>2011-01-09T14:06:49Z</time>
      </trkpt>
      <trkpt lat="46.32401" lon="-0.28607">
        <ele>87.7332</ele>
        <time>2011-01-09T14:06:50Z</time>
      </trkpt>
      <trkpt lat="46.32401" lon="-0.28607">
        <ele>87.6989</ele>
        <time>2011-01-09T14:06:51Z</time>
      </trkpt>
      <trkpt lat="46.32401" lon="-0.28608">
        <ele>87.6648</ele>
        <time>2011-01-09T14:06:52Z</time>
      </trkpt>
      <trkpt lat="46.32401" lon="-0.28608">
        <ele>87.633</ele>
        <time>2011-01-09T14:06:53Z</time>
      </trkpt>
      <trkpt lat="46.32401" lon="-0.28607">
        <ele>87.596</ele>
        <time>2011-01-09T14:06:55Z</time>
      </trkpt>
      <trkpt lat="46.32401" lon="-0.28607">
        <ele>87.5633</ele>
        <time>2011-01-09T14:06:56Z</time>
      </trkpt>
      <trkpt lat="46.32401" lon="-0.28607">
        <ele>87.5287</ele>
        <time>2011-01-09T14:06:57Z</time>
      </trkpt>
      <trkpt lat="46.32396" lon="-0.28608">
        <ele>87.2162</ele>
        <time>2011-01-09T14:07:15Z</time>
      </trkpt>
      <trkpt lat="46.32396" lon="-0.28608">
        <ele>87.1968</ele>
        <time>2011-01-09T14:07:16Z</time>
      </trkpt>
      <trkpt lat="46.32395" lon="-0.28608">
        <ele>87.178</ele>
        <time>2011-01-09T14:07:17Z</time>
      </trkpt>
      <trkpt lat="46.32394" lon="-0.28608">
        <ele>87.1561</ele>
        <time>2011-01-09T14:07:18Z</time>
      </trkpt>
      <trkpt lat="46.32394" lon="-0.28608">
        <ele>87.1354</ele>
        <time>2011-01-09T14:07:19Z</time>
      </trkpt>
      <trkpt lat="46.32393" lon="-0.28608">
        <ele>87.1154</ele>
        <time>2011-01-09T14:07:20Z</time>
      </trkpt>
      <trkpt lat="46.32393" lon="-0.28608">
        <ele>87.0966</ele>
        <time>2011-01-09T14:07:21Z</time>
      </trkpt>
      <trkpt lat="46.32392" lon="-0.28609">
        <ele>87.0788</ele>
        <time>2011-01-09T14:07:22Z</time>
      </trkpt>
      <trkpt lat="46.32391" lon="-0.28609">
        <ele>87.061</ele>
        <time>2011-01-09T14:07:23Z</time>
      </trkpt>
      <trkpt lat="46.32391" lon="-0.28609">
        <ele>87.0461</ele>
        <time>2011-01-09T14:07:24Z</time>
      </trkpt>
      <trkpt lat="46.3239" lon="-0.28609">
        <ele>87.0289</ele>
        <time>2011-01-09T14:07:25Z</time>
      </trkpt>
      <trkpt lat="46.32389" lon="-0.28609">
        <ele>87.0088</ele>
        <time>2011-01-09T14:07:26Z</time>
      </trkpt>
      <trkpt lat="46.32388" lon="-0.28609">
        <ele>86.9851</ele>
        <time>2011-01-09T14:07:27Z</time>
      </trkpt>
      <trkpt lat="46.32388" lon="-0.28609">
        <ele>86.9618</ele>
        <time>2011-01-09T14:07:28Z</time>
      </trkpt>
      <trkpt lat="46.32387" lon="-0.28609">
        <ele>86.9372</ele>
        <time>2011-01-09T14:07:29Z</time>
      </trkpt>
      <trkpt lat="46.32387" lon="-0.28609">
        <ele>86.9093</ele>
        <time>2011-01-09T14:07:30Z</time>
      </trkpt>
      <trkpt lat="46.32386" lon="-0.28609">
        <ele>86.8782</ele>
        <time>2011-01-09T14:07:31Z</time>
      </trkpt>
      <trkpt lat="46.32386" lon="-0.2861">
        <ele>86.8518</ele>
        <time>2011-01-09T14:07:32Z</time>
      </trkpt>
      <trkpt lat="46.32386" lon="-0.2861">
        <ele>86.8261</ele>
        <time>2011-01-09T14:07:33Z</time>
      </trkpt>
      <trkpt lat="46.32385" lon="-0.28611">
        <ele>86.7952</ele>
        <time>2011-01-09T14:07:34Z</time>
      </trkpt>
      <trkpt lat="46.32384" lon="-0.28611">
        <ele>86.7636</ele>
        <time>2011-01-09T14:07:35Z</time>
      </trkpt>
      <trkpt lat="46.32383" lon="-0.28612">
        <ele>86.7335</ele>
        <time>2011-01-09T14:07:36Z</time>
      </trkpt>
      <trkpt lat="46.32383" lon="-0.28613">
        <ele>86.7059</ele>
        <time>2011-01-09T14:07:37Z</time>
      </trkpt>
      <trkpt lat="46.32382" lon="-0.28615">
        <ele>86.6779</ele>
        <time>2011-01-09T14:07:38Z</time>
      </trkpt>
      <trkpt lat="46.32381" lon="-0.28616">
        <ele>86.6471</ele>
        <time>2011-01-09T14:07:39Z</time>
      </trkpt>
      <trkpt lat="46.3238" lon="-0.28616">
        <ele>86.615</ele>
        <time>2011-01-09T14:07:40Z</time>
      </trkpt>
      <trkpt lat="46.32379" lon="-0.28617">
        <ele>86.5859</ele>
        <time>2011-01-09T14:07:41Z</time>
      </trkpt>
      <trkpt lat="46.32379" lon="-0.28618">
        <ele>86.51</ele>
        <time>2011-01-09T14:07:47Z</time>
      </trkpt>
      <trkpt lat="46.32379" lon="-0.28618">
        <ele>86.4782</ele>
        <time>2011-01-09T14:07:48Z</time>
      </trkpt>
      <trkpt lat="46.32378" lon="-0.28618">
        <ele>86.4444</ele>
        <time>2011-01-09T14:07:49Z</time>
      </trkpt>
      <trkpt lat="46.32378" lon="-0.28618">
        <ele>86.4076</ele>
        <time>2011-01-09T14:07:50Z</time>
      </trkpt>
      <trkpt lat="46.32377" lon="-0.28618">
        <ele>86.3667</ele>
        <time>2011-01-09T14:07:51Z</time>
      </trkpt>
      <trkpt lat="46.32377" lon="-0.28618">
        <ele>86.3232</ele>
        <time>2011-01-09T14:07:52Z</time>
      </trkpt>
      <trkpt lat="46.32375" lon="-0.28618">
        <ele>86.2703</ele>
        <time>2011-01-09T14:07:53Z</time>
      </trkpt>
      <trkpt lat="46.32375" lon="-0.28617">
        <ele>86.1875</ele>
        <time>2011-01-09T14:07:54Z</time>
      </trkpt>
      <trkpt lat="46.32374" lon="-0.2861">
        <ele>86.0889</ele>
        <time>2011-01-09T14:08:00Z</time>
      </trkpt>
      <trkpt lat="46.32372" lon="-0.28605">
        <ele>85.7816</ele>
        <time>2011-01-09T14:08:04Z</time>
      </trkpt>
      <trkpt lat="46.32371" lon="-0.28605">
        <ele>85.5401</ele>
        <time>2011-01-09T14:08:05Z</time>
      </trkpt>
      <trkpt lat="46.3237" lon="-0.28606">
        <ele>85.302</ele>
        <time>2011-01-09T14:08:06Z</time>
      </trkpt>
      <trkpt lat="46.3237" lon="-0.28607">
        <ele>85.0684</ele>
        <time>2011-01-09T14:08:07Z</time>
      </trkpt>
      <trkpt lat="46.32369" lon="-0.28609">
        <ele>84.8404</ele>
        <time>2011-01-09T14:08:08Z</time>
      </trkpt>
      <trkpt lat="46.32369" lon="-0.28611">
        <ele>84.6198</ele>
        <time>2011-01-09T14:08:09Z</time>
      </trkpt>
      <trkpt lat="46.32369" lon="-0.28612">
        <ele>84.4063</ele>
        <time>2011-01-09T14:08:10Z</time>
      </trkpt>
      <trkpt lat="46.32367" lon="-0.28614">
        <ele>84.2015</ele>
        <time>2011-01-09T14:08:11Z</time>
      </trkpt>
      <trkpt lat="46.32367" lon="-0.28615">
        <ele>84.0046</ele>
        <time>2011-01-09T14:08:12Z</time>
      </trkpt>
      <trkpt lat="46.32365" lon="-0.28615">
        <ele>83.8137</ele>
        <time>2011-01-09T14:08:13Z</time>
      </trkpt>
      <trkpt lat="46.32364" lon="-0.28616">
        <ele>83.6341</ele>
        <time>2011-01-09T14:08:14Z</time>
      </trkpt>
      <trkpt lat="46.32363" lon="-0.28615">
        <ele>83.4624</ele>
        <time>2011-01-09T14:08:15Z</time>
      </trkpt>
      <trkpt lat="46.32362" lon="-0.28615">
        <ele>83.2901</ele>
        <time>2011-01-09T14:08:16Z</time>
      </trkpt>
      <trkpt lat="46.32361" lon="-0.28615">
        <ele>83.1219</ele>
        <time>2011-01-09T14:08:17Z</time>
      </trkpt>
      <trkpt lat="46.32361" lon="-0.28616">
        <ele>82.9564</ele>
        <time>2011-01-09T14:08:18Z</time>
      </trkpt>
      <trkpt lat="46.32359" lon="-0.28616">
        <ele>82.792</ele>
        <time>2011-01-09T14:08:19Z</time>
      </trkpt>
      <trkpt lat="46.32359" lon="-0.28616">
        <ele>82.6351</ele>
        <time>2011-01-09T14:08:20Z</time>
      </trkpt>
      <trkpt lat="46.32357" lon="-0.28616">
        <ele>82.4812</ele>
        <time>2011-01-09T14:08:21Z</time>
      </trkpt>
      <trkpt lat="46.32357" lon="-0.28617">
        <ele>82.328</ele>
        <time>2011-01-09T14:08:22Z</time>
      </trkpt>
      <trkpt lat="46.32356" lon="-0.28618">
        <ele>82.1785</ele>
        <time>2011-01-09T14:08:23Z</time>
      </trkpt>
      <trkpt lat="46.32355" lon="-0.28619">
        <ele>82.023</ele>
        <time>2011-01-09T14:08:24Z</time>
      </trkpt>
      <trkpt lat="46.32354" lon="-0.28619">
        <ele>81.8757</ele>
        <time>2011-01-09T14:08:25Z</time>
      </trkpt>
      <trkpt lat="46.32353" lon="-0.2862">
        <ele>81.7296</ele>
        <time>2011-01-09T14:08:26Z</time>
      </trkpt>
      <trkpt lat="46.32352" lon="-0.28621">
        <ele>81.5888</ele>
        <time>2011-01-09T14:08:27Z</time>
      </trkpt>
      <trkpt lat="46.32351" lon="-0.28622">
        <ele>81.4475</ele>
        <time>2011-01-09T14:08:28Z</time>
      </trkpt>
      <trkpt lat="46.3235" lon="-0.28623">
        <ele>81.3096</ele>
        <time>2011-01-09T14:08:29Z</time>
      </trkpt>
      <trkpt lat="46.32349" lon="-0.28623">
        <ele>81.1776</ele>
        <time>2011-01-09T14:08:30Z</time>
      </trkpt>
      <trkpt lat="46.32348" lon="-0.28624">
        <ele>81.0452</ele>
        <time>2011-01-09T14:08:31Z</time>
      </trkpt>
      <trkpt lat="46.32348" lon="-0.28625">
        <ele>80.9132</ele>
        <time>2011-01-09T14:08:32Z</time>
      </trkpt>
      <trkpt lat="46.32346" lon="-0.28626">
        <ele>80.7833</ele>
        <time>2011-01-09T14:08:33Z</time>
      </trkpt>
      <trkpt lat="46.32346" lon="-0.28627">
        <ele>80.6461</ele>
        <time>2011-01-09T14:08:34Z</time>
      </trkpt>
      <trkpt lat="46.32345" lon="-0.28628">
        <ele>80.5054</ele>
        <time>2011-01-09T14:08:35Z</time>
      </trkpt>
      <trkpt lat="46.32344" lon="-0.28629">
        <ele>80.3708</ele>
        <time>2011-01-09T14:08:36Z</time>
      </trkpt>
      <trkpt lat="46.32344" lon="-0.2863">
        <ele>80.2286</ele>
        <time>2011-01-09T14:08:37Z</time>
      </trkpt>
      <trkpt lat="46.32344" lon="-0.28631">
        <ele>80.082</ele>
        <time>2011-01-09T14:08:38Z</time>
      </trkpt>
      <trkpt lat="46.32343" lon="-0.28632">
        <ele>79.9402</ele>
        <time>2011-01-09T14:08:39Z</time>
      </trkpt>
      <trkpt lat="46.32343" lon="-0.28633">
        <ele>79.8008</ele>
        <time>2011-01-09T14:08:40Z</time>
      </trkpt>
      <trkpt lat="46.32343" lon="-0.28635">
        <ele>79.6604</ele>
        <time>2011-01-09T14:08:41Z</time>
      </trkpt>
      <trkpt lat="46.32342" lon="-0.28635">
        <ele>79.5158</ele>
        <time>2011-01-09T14:08:42Z</time>
      </trkpt>
      <trkpt lat="46.32341" lon="-0.28636">
        <ele>79.385</ele>
        <time>2011-01-09T14:08:43Z</time>
      </trkpt>
      <trkpt lat="46.3234" lon="-0.28637">
        <ele>79.2636</ele>
        <time>2011-01-09T14:08:44Z</time>
      </trkpt>
      <trkpt lat="46.32339" lon="-0.28638">
        <ele>79.1452</ele>
        <time>2011-01-09T14:08:45Z</time>
      </trkpt>
      <trkpt lat="46.32338" lon="-0.28639">
        <ele>79.0201</ele>
        <time>2011-01-09T14:08:46Z</time>
      </trkpt>
      <trkpt lat="46.32337" lon="-0.28641">
        <ele>78.9041</ele>
        <time>2011-01-09T14:08:47Z</time>
      </trkpt>
      <trkpt lat="46.32335" lon="-0.28642">
        <ele>78.7931</ele>
        <time>2011-01-09T14:08:48Z</time>
      </trkpt>
      <trkpt lat="46.32334" lon="-0.28643">
        <ele>78.6847</ele>
        <time>2011-01-09T14:08:49Z</time>
      </trkpt>
      <trkpt lat="46.32333" lon="-0.28643">
        <ele>78.5771</ele>
        <time>2011-01-09T14:08:50Z</time>
      </trkpt>
      <trkpt lat="46.32332" lon="-0.28643">
        <ele>78.4722</ele>
        <time>2011-01-09T14:08:51Z</time>
      </trkpt>
      <trkpt lat="46.3233" lon="-0.28644">
        <ele>78.2609</ele>
        <time>2011-01-09T14:08:54Z</time>
      </trkpt>
      <trkpt lat="46.3233" lon="-0.28645">
        <ele>78.1622</ele>
        <time>2011-01-09T14:08:55Z</time>
      </trkpt>
      <trkpt lat="46.32328" lon="-0.28645">
        <ele>78.0663</ele>
        <time>2011-01-09T14:08:56Z</time>
      </trkpt>
      <trkpt lat="46.32327" lon="-0.28646">
        <ele>77.97</ele>
        <time>2011-01-09T14:08:57Z</time>
      </trkpt>
      <trkpt lat="46.32327" lon="-0.28647">
        <ele>77.8733</ele>
        <time>2011-01-09T14:08:58Z</time>
      </trkpt>
      <trkpt lat="46.32325" lon="-0.28648">
        <ele>77.7723</ele>
        <time>2011-01-09T14:08:59Z</time>
      </trkpt>
      <trkpt lat="46.32324" lon="-0.28649">
        <ele>77.6707</ele>
        <time>2011-01-09T14:09:00Z</time>
      </trkpt>
      <trkpt lat="46.32323" lon="-0.2865">
        <ele>77.5724</ele>
        <time>2011-01-09T14:09:01Z</time>
      </trkpt>
      <trkpt lat="46.32322" lon="-0.28651">
        <ele>77.4738</ele>
        <time>2011-01-09T14:09:02Z</time>
      </trkpt>
      <trkpt lat="46.32321" lon="-0.28652">
        <ele>77.3751</ele>
        <time>2011-01-09T14:09:03Z</time>
      </trkpt>
      <trkpt lat="46.3232" lon="-0.28653">
        <ele>77.2756</ele>
        <time>2011-01-09T14:09:04Z</time>
      </trkpt>
      <trkpt lat="46.32319" lon="-0.28654">
        <ele>77.1727</ele>
        <time>2011-01-09T14:09:05Z</time>
      </trkpt>
      <trkpt lat="46.32318" lon="-0.28654">
        <ele>77.0663</ele>
        <time>2011-01-09T14:09:06Z</time>
      </trkpt>
      <trkpt lat="46.32317" lon="-0.28654">
        <ele>76.961</ele>
        <time>2011-01-09T14:09:07Z</time>
      </trkpt>
      <trkpt lat="46.32316" lon="-0.28655">
        <ele>76.8552</ele>
        <time>2011-01-09T14:09:08Z</time>
      </trkpt>
      <trkpt lat="46.32315" lon="-0.28655">
        <ele>76.7466</ele>
        <time>2011-01-09T14:09:09Z</time>
      </trkpt>
      <trkpt lat="46.32314" lon="-0.28656">
        <ele>76.6353</ele>
        <time>2011-01-09T14:09:10Z</time>
      </trkpt>
      <trkpt lat="46.32313" lon="-0.28656">
        <ele>76.519</ele>
        <time>2011-01-09T14:09:11Z</time>
      </trkpt>
      <trkpt lat="46.32312" lon="-0.28657">
        <ele>76.4041</ele>
        <time>2011-01-09T14:09:12Z</time>
      </trkpt>
      <trkpt lat="46.32311" lon="-0.28657">
        <ele>76.2913</ele>
        <time>2011-01-09T14:09:13Z</time>
      </trkpt>
      <trkpt lat="46.3231" lon="-0.28658">
        <ele>76.1708</ele>
        <time>2011-01-09T14:09:14Z</time>
      </trkpt>
      <trkpt lat="46.32309" lon="-0.28658">
        <ele>76.0459</ele>
        <time>2011-01-09T14:09:15Z</time>
      </trkpt>
      <trkpt lat="46.32307" lon="-0.28659">
        <ele>75.9165</ele>
        <time>2011-01-09T14:09:16Z</time>
      </trkpt>
      <trkpt lat="46.32306" lon="-0.2866">
        <ele>75.7892</ele>
        <time>2011-01-09T14:09:17Z</time>
      </trkpt>
      <trkpt lat="46.32306" lon="-0.28661">
        <ele>75.6667</ele>
        <time>2011-01-09T14:09:18Z</time>
      </trkpt>
      <trkpt lat="46.32304" lon="-0.28661">
        <ele>75.5472</ele>
        <time>2011-01-09T14:09:19Z</time>
      </trkpt>
      <trkpt lat="46.32304" lon="-0.28662">
        <ele>75.4291</ele>
        <time>2011-01-09T14:09:20Z</time>
      </trkpt>
      <trkpt lat="46.32303" lon="-0.28662">
        <ele>75.3112</ele>
        <time>2011-01-09T14:09:21Z</time>
      </trkpt>
      <trkpt lat="46.32303" lon="-0.28662">
        <ele>75.188</ele>
        <time>2011-01-09T14:09:22Z</time>
      </trkpt>
      <trkpt lat="46.32302" lon="-0.28662">
        <ele>75.0687</ele>
        <time>2011-01-09T14:09:23Z</time>
      </trkpt>
      <trkpt lat="46.32304" lon="-0.28664">
        <ele>74.7143</ele>
        <time>2011-01-09T14:09:30Z</time>
      </trkpt>
      <trkpt lat="46.32304" lon="-0.28664">
        <ele>74.576</ele>
        <time>2011-01-09T14:09:31Z</time>
      </trkpt>
      <trkpt lat="46.32303" lon="-0.28665">
        <ele>74.4386</ele>
        <time>2011-01-09T14:09:32Z</time>
      </trkpt>
      <trkpt lat="46.32301" lon="-0.28665">
        <ele>74.3136</ele>
        <time>2011-01-09T14:09:33Z</time>
      </trkpt>
      <trkpt lat="46.32299" lon="-0.28666">
        <ele>74.1941</ele>
        <time>2011-01-09T14:09:34Z</time>
      </trkpt>
      <trkpt lat="46.32298" lon="-0.28666">
        <ele>74.0798</ele>
        <time>2011-01-09T14:09:35Z</time>
      </trkpt>
      <trkpt lat="46.32296" lon="-0.28666">
        <ele>73.9601</ele>
        <time>2011-01-09T14:09:36Z</time>
      </trkpt>
      <trkpt lat="46.32295" lon="-0.28667">
        <ele>73.8471</ele>
        <time>2011-01-09T14:09:37Z</time>
      </trkpt>
      <trkpt lat="46.32295" lon="-0.28667">
        <ele>73.7403</ele>
        <time>2011-01-09T14:09:38Z</time>
      </trkpt>
      <trkpt lat="46.32294" lon="-0.28667">
        <ele>73.6411</ele>
        <time>2011-01-09T14:09:39Z</time>
      </trkpt>
      <trkpt lat="46.32293" lon="-0.28668">
        <ele>73.5385</ele>
        <time>2011-01-09T14:09:40Z</time>
      </trkpt>
      <trkpt lat="46.32292" lon="-0.28669">
        <ele>73.4329</ele>
        <time>2011-01-09T14:09:41Z</time>
      </trkpt>
      <trkpt lat="46.32291" lon="-0.2867">
        <ele>73.3298</ele>
        <time>2011-01-09T14:09:42Z</time>
      </trkpt>
      <trkpt lat="46.32291" lon="-0.28671">
        <ele>73.2283</ele>
        <time>2011-01-09T14:09:43Z</time>
      </trkpt>
      <trkpt lat="46.3229" lon="-0.28673">
        <ele>73.1269</ele>
        <time>2011-01-09T14:09:44Z</time>
      </trkpt>
      <trkpt lat="46.32289" lon="-0.28674">
        <ele>73.0282</ele>
        <time>2011-01-09T14:09:45Z</time>
      </trkpt>
      <trkpt lat="46.32289" lon="-0.28676">
        <ele>72.9312</ele>
        <time>2011-01-09T14:09:46Z</time>
      </trkpt>
      <trkpt lat="46.32288" lon="-0.28677">
        <ele>72.8357</ele>
        <time>2011-01-09T14:09:47Z</time>
      </trkpt>
      <trkpt lat="46.32287" lon="-0.28679">
        <ele>72.7417</ele>
        <time>2011-01-09T14:09:48Z</time>
      </trkpt>
      <trkpt lat="46.32287" lon="-0.2868">
        <ele>72.6473</ele>
        <time>2011-01-09T14:09:49Z</time>
      </trkpt>
      <trkpt lat="46.32286" lon="-0.28681">
        <ele>72.5546</ele>
        <time>2011-01-09T14:09:50Z</time>
      </trkpt>
      <trkpt lat="46.32286" lon="-0.28682">
        <ele>72.4629</ele>
        <time>2011-01-09T14:09:51Z</time>
      </trkpt>
      <trkpt lat="46.32285" lon="-0.28684">
        <ele>72.3752</ele>
        <time>2011-01-09T14:09:52Z</time>
      </trkpt>
      <trkpt lat="46.32285" lon="-0.28685">
        <ele>72.2874</ele>
        <time>2011-01-09T14:09:53Z</time>
      </trkpt>
      <trkpt lat="46.32284" lon="-0.28686">
        <ele>72.2022</ele>
        <time>2011-01-09T14:09:54Z</time>
      </trkpt>
      <trkpt lat="46.32284" lon="-0.28687">
        <ele>72.1152</ele>
        <time>2011-01-09T14:09:55Z</time>
      </trkpt>
      <trkpt lat="46.32283" lon="-0.28688">
        <ele>72.0366</ele>
        <time>2011-01-09T14:09:56Z</time>
      </trkpt>
      <trkpt lat="46.32283" lon="-0.28689">
        <ele>71.9613</ele>
        <time>2011-01-09T14:09:57Z</time>
      </trkpt>
      <trkpt lat="46.32283" lon="-0.2869">
        <ele>71.8837</ele>
        <time>2011-01-09T14:09:58Z</time>
      </trkpt>
      <trkpt lat="46.32282" lon="-0.28691">
        <ele>71.8092</ele>
        <time>2011-01-09T14:09:59Z</time>
      </trkpt>
      <trkpt lat="46.32282" lon="-0.28691">
        <ele>71.7249</ele>
        <time>2011-01-09T14:10:00Z</time>
      </trkpt>
      <trkpt lat="46.32282" lon="-0.28692">
        <ele>71.6272</ele>
        <time>2011-01-09T14:10:01Z</time>
      </trkpt>
      <trkpt lat="46.32282" lon="-0.28693">
        <ele>71.5386</ele>
        <time>2011-01-09T14:10:02Z</time>
      </trkpt>
      <trkpt lat="46.32281" lon="-0.28694">
        <ele>71.4602</ele>
        <time>2011-01-09T14:10:03Z</time>
      </trkpt>
      <trkpt lat="46.32281" lon="-0.28696">
        <ele>71.3847</ele>
        <time>2011-01-09T14:10:04Z</time>
      </trkpt>
      <trkpt lat="46.3228" lon="-0.28698">
        <ele>71.2992</ele>
        <time>2011-01-09T14:10:05Z</time>
      </trkpt>
      <trkpt lat="46.32279" lon="-0.287">
        <ele>71.2195</ele>
        <time>2011-01-09T14:10:06Z</time>
      </trkpt>
      <trkpt lat="46.32279" lon="-0.28702">
        <ele>71.142</ele>
        <time>2011-01-09T14:10:07Z</time>
      </trkpt>
      <trkpt lat="46.32278" lon="-0.28703">
        <ele>71.0648</ele>
        <time>2011-01-09T14:10:08Z</time>
      </trkpt>
      <trkpt lat="46.32278" lon="-0.28705">
        <ele>70.9905</ele>
        <time>2011-01-09T14:10:09Z</time>
      </trkpt>
      <trkpt lat="46.32278" lon="-0.28707">
        <ele>70.9229</ele>
        <time>2011-01-09T14:10:10Z</time>
      </trkpt>
      <trkpt lat="46.32277" lon="-0.28708">
        <ele>70.8553</ele>
        <time>2011-01-09T14:10:11Z</time>
      </trkpt>
      <trkpt lat="46.32277" lon="-0.2871">
        <ele>70.7911</ele>
        <time>2011-01-09T14:10:12Z</time>
      </trkpt>
      <trkpt lat="46.32276" lon="-0.28711">
        <ele>70.7348</ele>
        <time>2011-01-09T14:10:13Z</time>
      </trkpt>
      <trkpt lat="46.32276" lon="-0.28712">
        <ele>70.6797</ele>
        <time>2011-01-09T14:10:14Z</time>
      </trkpt>
      <trkpt lat="46.32275" lon="-0.28713">
        <ele>70.6293</ele>
        <time>2011-01-09T14:10:15Z</time>
      </trkpt>
      <trkpt lat="46.32275" lon="-0.28714">
        <ele>70.5841</ele>
        <time>2011-01-09T14:10:16Z</time>
      </trkpt>
      <trkpt lat="46.32275" lon="-0.28715">
        <ele>70.5462</ele>
        <time>2011-01-09T14:10:17Z</time>
      </trkpt>
      <trkpt lat="46.32275" lon="-0.28717">
        <ele>70.5123</ele>
        <time>2011-01-09T14:10:18Z</time>
      </trkpt>
      <trkpt lat="46.32275" lon="-0.28718">
        <ele>70.4827</ele>
        <time>2011-01-09T14:10:19Z</time>
      </trkpt>
      <trkpt lat="46.32275" lon="-0.28719">
        <ele>70.4555</ele>
        <time>2011-01-09T14:10:20Z</time>
      </trkpt>
      <trkpt lat="46.32275" lon="-0.2872">
        <ele>70.4301</ele>
        <time>2011-01-09T14:10:21Z</time>
      </trkpt>
      <trkpt lat="46.32275" lon="-0.28721">
        <ele>70.4101</ele>
        <time>2011-01-09T14:10:22Z</time>
      </trkpt>
      <trkpt lat="46.32275" lon="-0.28722">
        <ele>70.3931</ele>
        <time>2011-01-09T14:10:23Z</time>
      </trkpt>
      <trkpt lat="46.32274" lon="-0.28723">
        <ele>70.3795</ele>
        <time>2011-01-09T14:10:24Z</time>
      </trkpt>
      <trkpt lat="46.32274" lon="-0.28724">
        <ele>70.3703</ele>
        <time>2011-01-09T14:10:25Z</time>
      </trkpt>
      <trkpt lat="46.32273" lon="-0.28725">
        <ele>70.363</ele>
        <time>2011-01-09T14:10:26Z</time>
      </trkpt>
      <trkpt lat="46.32273" lon="-0.28726">
        <ele>70.3593</ele>
        <time>2011-01-09T14:10:27Z</time>
      </trkpt>
      <trkpt lat="46.32273" lon="-0.28727">
        <ele>70.3549</ele>
        <time>2011-01-09T14:10:28Z</time>
      </trkpt>
      <trkpt lat="46.32273" lon="-0.28728">
        <ele>70.352</ele>
        <time>2011-01-09T14:10:29Z</time>
      </trkpt>
      <trkpt lat="46.32273" lon="-0.2873">
        <ele>70.35</ele>
        <time>2011-01-09T14:10:30Z</time>
      </trkpt>
      <trkpt lat="46.32273" lon="-0.28731">
        <ele>70.3508</ele>
        <time>2011-01-09T14:10:31Z</time>
      </trkpt>
      <trkpt lat="46.32273" lon="-0.28732">
        <ele>70.3539</ele>
        <time>2011-01-09T14:10:32Z</time>
      </trkpt>
      <trkpt lat="46.32272" lon="-0.28733">
        <ele>70.3649</ele>
        <time>2011-01-09T14:10:33Z</time>
      </trkpt>
      <trkpt lat="46.32272" lon="-0.28735">
        <ele>70.3714</ele>
        <time>2011-01-09T14:10:34Z</time>
      </trkpt>
      <trkpt lat="46.32271" lon="-0.28737">
        <ele>70.3893</ele>
        <time>2011-01-09T14:10:35Z</time>
      </trkpt>
      <trkpt lat="46.3227" lon="-0.28738">
        <ele>70.4111</ele>
        <time>2011-01-09T14:10:36Z</time>
      </trkpt>
      <trkpt lat="46.3227" lon="-0.28739">
        <ele>70.4432</ele>
        <time>2011-01-09T14:10:37Z</time>
      </trkpt>
      <trkpt lat="46.3227" lon="-0.28741">
        <ele>70.4695</ele>
        <time>2011-01-09T14:10:38Z</time>
      </trkpt>
      <trkpt lat="46.32269" lon="-0.28742">
        <ele>70.4842</ele>
        <time>2011-01-09T14:10:39Z</time>
      </trkpt>
      <trkpt lat="46.32268" lon="-0.28744">
        <ele>70.4993</ele>
        <time>2011-01-09T14:10:40Z</time>
      </trkpt>
      <trkpt lat="46.32268" lon="-0.28745">
        <ele>70.5146</ele>
        <time>2011-01-09T14:10:41Z</time>
      </trkpt>
      <trkpt lat="46.32267" lon="-0.28747">
        <ele>70.5338</ele>
        <time>2011-01-09T14:10:42Z</time>
      </trkpt>
      <trkpt lat="46.32267" lon="-0.28749">
        <ele>70.552</ele>
        <time>2011-01-09T14:10:43Z</time>
      </trkpt>
      <trkpt lat="46.32267" lon="-0.28751">
        <ele>70.5693</ele>
        <time>2011-01-09T14:10:44Z</time>
      </trkpt>
      <trkpt lat="46.32267" lon="-0.28752">
        <ele>70.5837</ele>
        <time>2011-01-09T14:10:45Z</time>
      </trkpt>
      <trkpt lat="46.32267" lon="-0.28754">
        <ele>70.6043</ele>
        <time>2011-01-09T14:10:46Z</time>
      </trkpt>
      <trkpt lat="46.32267" lon="-0.28755">
        <ele>70.6262</ele>
        <time>2011-01-09T14:10:47Z</time>
      </trkpt>
      <trkpt lat="46.32267" lon="-0.28757">
        <ele>70.6473</ele>
        <time>2011-01-09T14:10:48Z</time>
      </trkpt>
      <trkpt lat="46.32267" lon="-0.28759">
        <ele>70.7133</ele>
        <time>2011-01-09T14:10:49Z</time>
      </trkpt>
      <trkpt lat="46.32266" lon="-0.28761">
        <ele>70.7777</ele>
        <time>2011-01-09T14:10:50Z</time>
      </trkpt>
      <trkpt lat="46.32265" lon="-0.28763">
        <ele>70.869</ele>
        <time>2011-01-09T14:10:51Z</time>
      </trkpt>
      <trkpt lat="46.32265" lon="-0.28766">
        <ele>70.9566</ele>
        <time>2011-01-09T14:10:52Z</time>
      </trkpt>
      <trkpt lat="46.32264" lon="-0.28768">
        <ele>71.0622</ele>
        <time>2011-01-09T14:10:53Z</time>
      </trkpt>
      <trkpt lat="46.32264" lon="-0.2877">
        <ele>71.1627</ele>
        <time>2011-01-09T14:10:54Z</time>
      </trkpt>
      <trkpt lat="46.32263" lon="-0.28772">
        <ele>71.2757</ele>
        <time>2011-01-09T14:10:55Z</time>
      </trkpt>
      <trkpt lat="46.32263" lon="-0.28774">
        <ele>71.3806</ele>
        <time>2011-01-09T14:10:56Z</time>
      </trkpt>
      <trkpt lat="46.32262" lon="-0.28776">
        <ele>71.4834</ele>
        <time>2011-01-09T14:10:57Z</time>
      </trkpt>
      <trkpt lat="46.32262" lon="-0.28778">
        <ele>71.5807</ele>
        <time>2011-01-09T14:10:58Z</time>
      </trkpt>
      <trkpt lat="46.32262" lon="-0.2878">
        <ele>71.6767</ele>
        <time>2011-01-09T14:10:59Z</time>
      </trkpt>
      <trkpt lat="46.32262" lon="-0.28782">
        <ele>71.7708</ele>
        <time>2011-01-09T14:11:00Z</time>
      </trkpt>
      <trkpt lat="46.32261" lon="-0.28783">
        <ele>71.8618</ele>
        <time>2011-01-09T14:11:01Z</time>
      </trkpt>
      <trkpt lat="46.32261" lon="-0.28785">
        <ele>71.9483</ele>
        <time>2011-01-09T14:11:02Z</time>
      </trkpt>
      <trkpt lat="46.32261" lon="-0.28787">
        <ele>72.0329</ele>
        <time>2011-01-09T14:11:03Z</time>
      </trkpt>
      <trkpt lat="46.3226" lon="-0.28788">
        <ele>72.1152</ele>
        <time>2011-01-09T14:11:04Z</time>
      </trkpt>
      <trkpt lat="46.3226" lon="-0.2879">
        <ele>72.1975</ele>
        <time>2011-01-09T14:11:05Z</time>
      </trkpt>
      <trkpt lat="46.3226" lon="-0.28792">
        <ele>72.2794</ele>
        <time>2011-01-09T14:11:06Z</time>
      </trkpt>
      <trkpt lat="46.3226" lon="-0.28794">
        <ele>72.3565</ele>
        <time>2011-01-09T14:11:07Z</time>
      </trkpt>
      <trkpt lat="46.3226" lon="-0.28796">
        <ele>72.4323</ele>
        <time>2011-01-09T14:11:08Z</time>
      </trkpt>
      <trkpt lat="46.3226" lon="-0.28798">
        <ele>72.5078</ele>
        <time>2011-01-09T14:11:09Z</time>
      </trkpt>
      <trkpt lat="46.32261" lon="-0.288">
        <ele>72.5803</ele>
        <time>2011-01-09T14:11:10Z</time>
      </trkpt>
      <trkpt lat="46.32261" lon="-0.28802">
        <ele>72.6493</ele>
        <time>2011-01-09T14:11:11Z</time>
      </trkpt>
      <trkpt lat="46.32261" lon="-0.28805">
        <ele>72.7135</ele>
        <time>2011-01-09T14:11:12Z</time>
      </trkpt>
      <trkpt lat="46.32261" lon="-0.28806">
        <ele>72.7751</ele>
        <time>2011-01-09T14:11:13Z</time>
      </trkpt>
      <trkpt lat="46.32261" lon="-0.28808">
        <ele>72.8353</ele>
        <time>2011-01-09T14:11:14Z</time>
      </trkpt>
      <trkpt lat="46.3226" lon="-0.2881">
        <ele>72.8954</ele>
        <time>2011-01-09T14:11:15Z</time>
      </trkpt>
      <trkpt lat="46.3226" lon="-0.28812">
        <ele>72.9521</ele>
        <time>2011-01-09T14:11:16Z</time>
      </trkpt>
      <trkpt lat="46.3226" lon="-0.28814">
        <ele>73.0047</ele>
        <time>2011-01-09T14:11:17Z</time>
      </trkpt>
      <trkpt lat="46.3226" lon="-0.28816">
        <ele>73.0534</ele>
        <time>2011-01-09T14:11:18Z</time>
      </trkpt>
      <trkpt lat="46.3226" lon="-0.28818">
        <ele>73.0951</ele>
        <time>2011-01-09T14:11:19Z</time>
      </trkpt>
      <trkpt lat="46.32261" lon="-0.28819">
        <ele>73.1444</ele>
        <time>2011-01-09T14:11:20Z</time>
      </trkpt>
      <trkpt lat="46.32261" lon="-0.28821">
        <ele>73.1925</ele>
        <time>2011-01-09T14:11:21Z</time>
      </trkpt>
      <trkpt lat="46.32261" lon="-0.28822">
        <ele>73.239</ele>
        <time>2011-01-09T14:11:22Z</time>
      </trkpt>
      <trkpt lat="46.32261" lon="-0.28823">
        <ele>73.2793</ele>
        <time>2011-01-09T14:11:23Z</time>
      </trkpt>
      <trkpt lat="46.32261" lon="-0.28824">
        <ele>73.3084</ele>
        <time>2011-01-09T14:11:24Z</time>
      </trkpt>
      <trkpt lat="46.32261" lon="-0.28825">
        <ele>73.339</ele>
        <time>2011-01-09T14:11:25Z</time>
      </trkpt>
      <trkpt lat="46.32261" lon="-0.28827">
        <ele>73.3679</ele>
        <time>2011-01-09T14:11:26Z</time>
      </trkpt>
      <trkpt lat="46.32261" lon="-0.28828">
        <ele>73.3952</ele>
        <time>2011-01-09T14:11:27Z</time>
      </trkpt>
      <trkpt lat="46.32261" lon="-0.2883">
        <ele>73.4216</ele>
        <time>2011-01-09T14:11:28Z</time>
      </trkpt>
      <trkpt lat="46.32261" lon="-0.28832">
        <ele>73.4459</ele>
        <time>2011-01-09T14:11:29Z</time>
      </trkpt>
      <trkpt lat="46.32261" lon="-0.28834">
        <ele>73.461</ele>
        <time>2011-01-09T14:11:30Z</time>
      </trkpt>
      <trkpt lat="46.32261" lon="-0.28835">
        <ele>73.4712</ele>
        <time>2011-01-09T14:11:31Z</time>
      </trkpt>
      <trkpt lat="46.32261" lon="-0.28837">
        <ele>73.4829</ele>
        <time>2011-01-09T14:11:32Z</time>
      </trkpt>
      <trkpt lat="46.32261" lon="-0.28838">
        <ele>73.5028</ele>
        <time>2011-01-09T14:11:33Z</time>
      </trkpt>
      <trkpt lat="46.32261" lon="-0.2884">
        <ele>73.5263</ele>
        <time>2011-01-09T14:11:34Z</time>
      </trkpt>
      <trkpt lat="46.32261" lon="-0.28842">
        <ele>73.5421</ele>
        <time>2011-01-09T14:11:35Z</time>
      </trkpt>
      <trkpt lat="46.32262" lon="-0.28844">
        <ele>73.5505</ele>
        <time>2011-01-09T14:11:36Z</time>
      </trkpt>
      <trkpt lat="46.32262" lon="-0.28846">
        <ele>73.5621</ele>
        <time>2011-01-09T14:11:37Z</time>
      </trkpt>
      <trkpt lat="46.32262" lon="-0.28848">
        <ele>73.5662</ele>
        <time>2011-01-09T14:11:38Z</time>
      </trkpt>
      <trkpt lat="46.32262" lon="-0.28849">
        <ele>73.5698</ele>
        <time>2011-01-09T14:11:39Z</time>
      </trkpt>
      <trkpt lat="46.32262" lon="-0.28851">
        <ele>73.5746</ele>
        <time>2011-01-09T14:11:40Z</time>
      </trkpt>
      <trkpt lat="46.32262" lon="-0.28853">
        <ele>73.587</ele>
        <time>2011-01-09T14:11:41Z</time>
      </trkpt>
      <trkpt lat="46.32262" lon="-0.28855">
        <ele>73.6034</ele>
        <time>2011-01-09T14:11:42Z</time>
      </trkpt>
      <trkpt lat="46.32262" lon="-0.28857">
        <ele>73.6206</ele>
        <time>2011-01-09T14:11:43Z</time>
      </trkpt>
      <trkpt lat="46.32262" lon="-0.28858">
        <ele>73.632</ele>
        <time>2011-01-09T14:11:44Z</time>
      </trkpt>
      <trkpt lat="46.32262" lon="-0.2886">
        <ele>73.6451</ele>
        <time>2011-01-09T14:11:45Z</time>
      </trkpt>
      <trkpt lat="46.32262" lon="-0.28862">
        <ele>73.6542</ele>
        <time>2011-01-09T14:11:46Z</time>
      </trkpt>
      <trkpt lat="46.32262" lon="-0.28864">
        <ele>73.6599</ele>
        <time>2011-01-09T14:11:47Z</time>
      </trkpt>
      <trkpt lat="46.32262" lon="-0.28866">
        <ele>73.6608</ele>
        <time>2011-01-09T14:11:48Z</time>
      </trkpt>
      <trkpt lat="46.32262" lon="-0.28868">
        <ele>73.6525</ele>
        <time>2011-01-09T14:11:49Z</time>
      </trkpt>
      <trkpt lat="46.32262" lon="-0.28869">
        <ele>73.6457</ele>
        <time>2011-01-09T14:11:50Z</time>
      </trkpt>
      <trkpt lat="46.32262" lon="-0.2887">
        <ele>73.6434</ele>
        <time>2011-01-09T14:11:51Z</time>
      </trkpt>
      <trkpt lat="46.32262" lon="-0.28872">
        <ele>73.6395</ele>
        <time>2011-01-09T14:11:52Z</time>
      </trkpt>
      <trkpt lat="46.32263" lon="-0.28873">
        <ele>73.6406</ele>
        <time>2011-01-09T14:11:53Z</time>
      </trkpt>
      <trkpt lat="46.32263" lon="-0.28875">
        <ele>73.6379</ele>
        <time>2011-01-09T14:11:54Z</time>
      </trkpt>
      <trkpt lat="46.32263" lon="-0.28876">
        <ele>73.6367</ele>
        <time>2011-01-09T14:11:55Z</time>
      </trkpt>
      <trkpt lat="46.32264" lon="-0.28878">
        <ele>73.6375</ele>
        <time>2011-01-09T14:11:56Z</time>
      </trkpt>
      <trkpt lat="46.32264" lon="-0.28879">
        <ele>73.6447</ele>
        <time>2011-01-09T14:11:57Z</time>
      </trkpt>
      <trkpt lat="46.32264" lon="-0.28881">
        <ele>73.6609</ele>
        <time>2011-01-09T14:11:58Z</time>
      </trkpt>
      <trkpt lat="46.32264" lon="-0.28883">
        <ele>73.6816</ele>
        <time>2011-01-09T14:11:59Z</time>
      </trkpt>
      <trkpt lat="46.32264" lon="-0.28884">
        <ele>73.7027</ele>
        <time>2011-01-09T14:12:00Z</time>
      </trkpt>
      <trkpt lat="46.32264" lon="-0.28886">
        <ele>73.7197</ele>
        <time>2011-01-09T14:12:01Z</time>
      </trkpt>
      <trkpt lat="46.32264" lon="-0.28887">
        <ele>73.7343</ele>
        <time>2011-01-09T14:12:02Z</time>
      </trkpt>
      <trkpt lat="46.32264" lon="-0.28889">
        <ele>73.7542</ele>
        <time>2011-01-09T14:12:03Z</time>
      </trkpt>
      <trkpt lat="46.32264" lon="-0.28891">
        <ele>73.774</ele>
        <time>2011-01-09T14:12:04Z</time>
      </trkpt>
      <trkpt lat="46.32264" lon="-0.28893">
        <ele>73.7938</ele>
        <time>2011-01-09T14:12:05Z</time>
      </trkpt>
      <trkpt lat="46.32263" lon="-0.28895">
        <ele>73.8155</ele>
        <time>2011-01-09T14:12:06Z</time>
      </trkpt>
      <trkpt lat="46.32263" lon="-0.28897">
        <ele>73.8356</ele>
        <time>2011-01-09T14:12:07Z</time>
      </trkpt>
      <trkpt lat="46.32262" lon="-0.28898">
        <ele>73.8516</ele>
        <time>2011-01-09T14:12:08Z</time>
      </trkpt>
      <trkpt lat="46.32262" lon="-0.289">
        <ele>73.8644</ele>
        <time>2011-01-09T14:12:09Z</time>
      </trkpt>
      <trkpt lat="46.32261" lon="-0.28902">
        <ele>73.8792</ele>
        <time>2011-01-09T14:12:10Z</time>
      </trkpt>
      <trkpt lat="46.32261" lon="-0.28903">
        <ele>73.8944</ele>
        <time>2011-01-09T14:12:11Z</time>
      </trkpt>
      <trkpt lat="46.32261" lon="-0.28905">
        <ele>73.9086</ele>
        <time>2011-01-09T14:12:12Z</time>
      </trkpt>
      <trkpt lat="46.32261" lon="-0.28905">
        <ele>73.9495</ele>
        <time>2011-01-09T14:12:15Z</time>
      </trkpt>
      <trkpt lat="46.3226" lon="-0.28906">
        <ele>73.9795</ele>
        <time>2011-01-09T14:12:18Z</time>
      </trkpt>
      <trkpt lat="46.3226" lon="-0.28908">
        <ele>73.9874</ele>
        <time>2011-01-09T14:12:19Z</time>
      </trkpt>
      <trkpt lat="46.3226" lon="-0.28909">
        <ele>73.999</ele>
        <time>2011-01-09T14:12:20Z</time>
      </trkpt>
      <trkpt lat="46.3226" lon="-0.2891">
        <ele>74.016</ele>
        <time>2011-01-09T14:12:21Z</time>
      </trkpt>
      <trkpt lat="46.3226" lon="-0.28911">
        <ele>74.0368</ele>
        <time>2011-01-09T14:12:22Z</time>
      </trkpt>
      <trkpt lat="46.32259" lon="-0.28912">
        <ele>74.0567</ele>
        <time>2011-01-09T14:12:23Z</time>
      </trkpt>
      <trkpt lat="46.32259" lon="-0.28913">
        <ele>74.0764</ele>
        <time>2011-01-09T14:12:24Z</time>
      </trkpt>
      <trkpt lat="46.32259" lon="-0.28914">
        <ele>74.106</ele>
        <time>2011-01-09T14:12:25Z</time>
      </trkpt>
      <trkpt lat="46.32259" lon="-0.28916">
        <ele>74.1438</ele>
        <time>2011-01-09T14:12:26Z</time>
      </trkpt>
      <trkpt lat="46.32258" lon="-0.28918">
        <ele>74.1705</ele>
        <time>2011-01-09T14:12:27Z</time>
      </trkpt>
      <trkpt lat="46.32257" lon="-0.28919">
        <ele>74.2004</ele>
        <time>2011-01-09T14:12:28Z</time>
      </trkpt>
      <trkpt lat="46.32256" lon="-0.28921">
        <ele>74.2298</ele>
        <time>2011-01-09T14:12:29Z</time>
      </trkpt>
      <trkpt lat="46.32256" lon="-0.28922">
        <ele>74.2547</ele>
        <time>2011-01-09T14:12:30Z</time>
      </trkpt>
      <trkpt lat="46.32256" lon="-0.28924">
        <ele>74.2749</ele>
        <time>2011-01-09T14:12:31Z</time>
      </trkpt>
      <trkpt lat="46.32255" lon="-0.28925">
        <ele>74.2978</ele>
        <time>2011-01-09T14:12:32Z</time>
      </trkpt>
      <trkpt lat="46.32255" lon="-0.28926">
        <ele>74.3221</ele>
        <time>2011-01-09T14:12:33Z</time>
      </trkpt>
      <trkpt lat="46.32254" lon="-0.28927">
        <ele>74.3476</ele>
        <time>2011-01-09T14:12:34Z</time>
      </trkpt>
      <trkpt lat="46.32254" lon="-0.28928">
        <ele>74.3703</ele>
        <time>2011-01-09T14:12:35Z</time>
      </trkpt>
      <trkpt lat="46.32253" lon="-0.28929">
        <ele>74.386</ele>
        <time>2011-01-09T14:12:36Z</time>
      </trkpt>
      <trkpt lat="46.32253" lon="-0.2893">
        <ele>74.3995</ele>
        <time>2011-01-09T14:12:37Z</time>
      </trkpt>
      <trkpt lat="46.32253" lon="-0.28931">
        <ele>74.4124</ele>
        <time>2011-01-09T14:12:38Z</time>
      </trkpt>
      <trkpt lat="46.32252" lon="-0.28931">
        <ele>74.4408</ele>
        <time>2011-01-09T14:12:39Z</time>
      </trkpt>
      <trkpt lat="46.32251" lon="-0.28932">
        <ele>74.474</ele>
        <time>2011-01-09T14:12:40Z</time>
      </trkpt>
      <trkpt lat="46.32251" lon="-0.28933">
        <ele>74.51</ele>
        <time>2011-01-09T14:12:41Z</time>
      </trkpt>
      <trkpt lat="46.3225" lon="-0.28934">
        <ele>74.5514</ele>
        <time>2011-01-09T14:12:42Z</time>
      </trkpt>
      <trkpt lat="46.32249" lon="-0.28935">
        <ele>74.5983</ele>
        <time>2011-01-09T14:12:43Z</time>
      </trkpt>
      <trkpt lat="46.32248" lon="-0.28936">
        <ele>74.6454</ele>
        <time>2011-01-09T14:12:44Z</time>
      </trkpt>
      <trkpt lat="46.32248" lon="-0.28937">
        <ele>74.6899</ele>
        <time>2011-01-09T14:12:45Z</time>
      </trkpt>
      <trkpt lat="46.32247" lon="-0.28938">
        <ele>74.7313</ele>
        <time>2011-01-09T14:12:46Z</time>
      </trkpt>
      <trkpt lat="46.32246" lon="-0.28939">
        <ele>74.769</ele>
        <time>2011-01-09T14:12:47Z</time>
      </trkpt>
      <trkpt lat="46.32246" lon="-0.2894">
        <ele>74.8041</ele>
        <time>2011-01-09T14:12:48Z</time>
      </trkpt>
      <trkpt lat="46.32246" lon="-0.28941">
        <ele>74.835</ele>
        <time>2011-01-09T14:12:49Z</time>
      </trkpt>
      <trkpt lat="46.32245" lon="-0.28942">
        <ele>74.876</ele>
        <time>2011-01-09T14:12:50Z</time>
      </trkpt>
      <trkpt lat="46.32245" lon="-0.28943">
        <ele>74.9127</ele>
        <time>2011-01-09T14:12:51Z</time>
      </trkpt>
      <trkpt lat="46.32244" lon="-0.28944">
        <ele>74.9538</ele>
        <time>2011-01-09T14:12:52Z</time>
      </trkpt>
      <trkpt lat="46.32243" lon="-0.28945">
        <ele>74.9896</ele>
        <time>2011-01-09T14:12:53Z</time>
      </trkpt>
      <trkpt lat="46.32242" lon="-0.28946">
        <ele>75.0184</ele>
        <time>2011-01-09T14:12:54Z</time>
      </trkpt>
      <trkpt lat="46.32241" lon="-0.28947">
        <ele>75.0502</ele>
        <time>2011-01-09T14:12:55Z</time>
      </trkpt>
      <trkpt lat="46.3224" lon="-0.28948">
        <ele>75.0839</ele>
        <time>2011-01-09T14:12:56Z</time>
      </trkpt>
      <trkpt lat="46.32238" lon="-0.28949">
        <ele>75.1183</ele>
        <time>2011-01-09T14:12:57Z</time>
      </trkpt>
      <trkpt lat="46.32237" lon="-0.2895">
        <ele>75.1615</ele>
        <time>2011-01-09T14:12:58Z</time>
      </trkpt>
      <trkpt lat="46.32235" lon="-0.28951">
        <ele>75.2102</ele>
        <time>2011-01-09T14:12:59Z</time>
      </trkpt>
      <trkpt lat="46.32234" lon="-0.28952">
        <ele>75.2632</ele>
        <time>2011-01-09T14:13:00Z</time>
      </trkpt>
      <trkpt lat="46.32233" lon="-0.28953">
        <ele>75.3187</ele>
        <time>2011-01-09T14:13:01Z</time>
      </trkpt>
      <trkpt lat="46.32232" lon="-0.28954">
        <ele>75.3738</ele>
        <time>2011-01-09T14:13:02Z</time>
      </trkpt>
      <trkpt lat="46.32231" lon="-0.28955">
        <ele>75.4269</ele>
        <time>2011-01-09T14:13:03Z</time>
      </trkpt>
      <trkpt lat="46.3223" lon="-0.28955">
        <ele>75.478</ele>
        <time>2011-01-09T14:13:04Z</time>
      </trkpt>
      <trkpt lat="46.32232" lon="-0.28953">
        <ele>75.5958</ele>
        <time>2011-01-09T14:13:10Z</time>
      </trkpt>
      <trkpt lat="46.32232" lon="-0.28952">
        <ele>75.6375</ele>
        <time>2011-01-09T14:13:11Z</time>
      </trkpt>
      <trkpt lat="46.32232" lon="-0.28952">
        <ele>75.6863</ele>
        <time>2011-01-09T14:13:12Z</time>
      </trkpt>
      <trkpt lat="46.32231" lon="-0.28953">
        <ele>75.7417</ele>
        <time>2011-01-09T14:13:13Z</time>
      </trkpt>
      <trkpt lat="46.3223" lon="-0.28954">
        <ele>75.9158</ele>
        <time>2011-01-09T14:13:16Z</time>
      </trkpt>
      <trkpt lat="46.32229" lon="-0.28955">
        <ele>75.9716</ele>
        <time>2011-01-09T14:13:17Z</time>
      </trkpt>
      <trkpt lat="46.32229" lon="-0.28956">
        <ele>76.029</ele>
        <time>2011-01-09T14:13:18Z</time>
      </trkpt>
      <trkpt lat="46.32227" lon="-0.28957">
        <ele>76.0851</ele>
        <time>2011-01-09T14:13:19Z</time>
      </trkpt>
      <trkpt lat="46.32227" lon="-0.28958">
        <ele>76.1438</ele>
        <time>2011-01-09T14:13:20Z</time>
      </trkpt>
      <trkpt lat="46.32226" lon="-0.28959">
        <ele>76.2013</ele>
        <time>2011-01-09T14:13:21Z</time>
      </trkpt>
      <trkpt lat="46.32225" lon="-0.28961">
        <ele>76.2651</ele>
        <time>2011-01-09T14:13:22Z</time>
      </trkpt>
      <trkpt lat="46.32224" lon="-0.28962">
        <ele>76.3242</ele>
        <time>2011-01-09T14:13:23Z</time>
      </trkpt>
      <trkpt lat="46.32222" lon="-0.28965">
        <ele>76.6209</ele>
        <time>2011-01-09T14:13:28Z</time>
      </trkpt>
      <trkpt lat="46.32221" lon="-0.28965">
        <ele>76.6864</ele>
        <time>2011-01-09T14:13:29Z</time>
      </trkpt>
      <trkpt lat="46.3222" lon="-0.28967">
        <ele>76.754</ele>
        <time>2011-01-09T14:13:30Z</time>
      </trkpt>
      <trkpt lat="46.3222" lon="-0.28968">
        <ele>76.8177</ele>
        <time>2011-01-09T14:13:31Z</time>
      </trkpt>
      <trkpt lat="46.32219" lon="-0.2897">
        <ele>76.8808</ele>
        <time>2011-01-09T14:13:32Z</time>
      </trkpt>
      <trkpt lat="46.32219" lon="-0.28971">
        <ele>76.9478</ele>
        <time>2011-01-09T14:13:33Z</time>
      </trkpt>
      <trkpt lat="46.32219" lon="-0.28973">
        <ele>77.0172</ele>
        <time>2011-01-09T14:13:34Z</time>
      </trkpt>
      <trkpt lat="46.32218" lon="-0.28974">
        <ele>77.0899</ele>
        <time>2011-01-09T14:13:35Z</time>
      </trkpt>
      <trkpt lat="46.32218" lon="-0.28975">
        <ele>77.1728</ele>
        <time>2011-01-09T14:13:36Z</time>
      </trkpt>
      <trkpt lat="46.32218" lon="-0.28977">
        <ele>77.2567</ele>
        <time>2011-01-09T14:13:37Z</time>
      </trkpt>
      <trkpt lat="46.32217" lon="-0.2898">
        <ele>77.4266</ele>
        <time>2011-01-09T14:13:39Z</time>
      </trkpt>
      <trkpt lat="46.32217" lon="-0.28982">
        <ele>77.512</ele>
        <time>2011-01-09T14:13:40Z</time>
      </trkpt>
      <trkpt lat="46.32216" lon="-0.28984">
        <ele>77.5977</ele>
        <time>2011-01-09T14:13:41Z</time>
      </trkpt>
      <trkpt lat="46.32215" lon="-0.28986">
        <ele>77.6868</ele>
        <time>2011-01-09T14:13:42Z</time>
      </trkpt>
      <trkpt lat="46.32214" lon="-0.28988">
        <ele>77.7796</ele>
        <time>2011-01-09T14:13:43Z</time>
      </trkpt>
      <trkpt lat="46.32214" lon="-0.2899">
        <ele>77.8814</ele>
        <time>2011-01-09T14:13:44Z</time>
      </trkpt>
      <trkpt lat="46.32213" lon="-0.28992">
        <ele>77.992</ele>
        <time>2011-01-09T14:13:45Z</time>
      </trkpt>
      <trkpt lat="46.32212" lon="-0.28994">
        <ele>78.1018</ele>
        <time>2011-01-09T14:13:46Z</time>
      </trkpt>
      <trkpt lat="46.32211" lon="-0.28996">
        <ele>78.2064</ele>
        <time>2011-01-09T14:13:47Z</time>
      </trkpt>
      <trkpt lat="46.32211" lon="-0.28998">
        <ele>78.3069</ele>
        <time>2011-01-09T14:13:48Z</time>
      </trkpt>
      <trkpt lat="46.32211" lon="-0.29">
        <ele>78.4064</ele>
        <time>2011-01-09T14:13:49Z</time>
      </trkpt>
      <trkpt lat="46.32211" lon="-0.29002">
        <ele>78.5047</ele>
        <time>2011-01-09T14:13:50Z</time>
      </trkpt>
      <trkpt lat="46.3221" lon="-0.29004">
        <ele>78.6045</ele>
        <time>2011-01-09T14:13:51Z</time>
      </trkpt>
      <trkpt lat="46.3221" lon="-0.29005">
        <ele>78.704</ele>
        <time>2011-01-09T14:13:52Z</time>
      </trkpt>
      <trkpt lat="46.32209" lon="-0.29007">
        <ele>78.8055</ele>
        <time>2011-01-09T14:13:53Z</time>
      </trkpt>
      <trkpt lat="46.3221" lon="-0.29008">
        <ele>78.9127</ele>
        <time>2011-01-09T14:13:54Z</time>
      </trkpt>
      <trkpt lat="46.3221" lon="-0.2901">
        <ele>79.0166</ele>
        <time>2011-01-09T14:13:55Z</time>
      </trkpt>
      <trkpt lat="46.32212" lon="-0.29017">
        <ele>79.409</ele>
        <time>2011-01-09T14:14:06Z</time>
      </trkpt>
      <trkpt lat="46.32212" lon="-0.29018">
        <ele>79.4561</ele>
        <time>2011-01-09T14:14:07Z</time>
      </trkpt>
      <trkpt lat="46.32212" lon="-0.29022">
        <ele>79.5537</ele>
        <time>2011-01-09T14:14:09Z</time>
      </trkpt>
      <trkpt lat="46.32212" lon="-0.29024">
        <ele>79.615</ele>
        <time>2011-01-09T14:14:10Z</time>
      </trkpt>
      <trkpt lat="46.32213" lon="-0.29025">
        <ele>79.6837</ele>
        <time>2011-01-09T14:14:11Z</time>
      </trkpt>
      <trkpt lat="46.32213" lon="-0.29027">
        <ele>79.7565</ele>
        <time>2011-01-09T14:14:12Z</time>
      </trkpt>
      <trkpt lat="46.32213" lon="-0.29028">
        <ele>79.8412</ele>
        <time>2011-01-09T14:14:13Z</time>
      </trkpt>
      <trkpt lat="46.32212" lon="-0.2903">
        <ele>79.9295</ele>
        <time>2011-01-09T14:14:14Z</time>
      </trkpt>
      <trkpt lat="46.32213" lon="-0.29032">
        <ele>80.1048</ele>
        <time>2011-01-09T14:14:16Z</time>
      </trkpt>
      <trkpt lat="46.32213" lon="-0.29033">
        <ele>80.1914</ele>
        <time>2011-01-09T14:14:17Z</time>
      </trkpt>
      <trkpt lat="46.32213" lon="-0.29034">
        <ele>80.2754</ele>
        <time>2011-01-09T14:14:18Z</time>
      </trkpt>
      <trkpt lat="46.32213" lon="-0.29035">
        <ele>80.3634</ele>
        <time>2011-01-09T14:14:19Z</time>
      </trkpt>
      <trkpt lat="46.32212" lon="-0.29036">
        <ele>80.4462</ele>
        <time>2011-01-09T14:14:20Z</time>
      </trkpt>
      <trkpt lat="46.32212" lon="-0.29037">
        <ele>80.5289</ele>
        <time>2011-01-09T14:14:21Z</time>
      </trkpt>
      <trkpt lat="46.32211" lon="-0.29038">
        <ele>80.6155</ele>
        <time>2011-01-09T14:14:22Z</time>
      </trkpt>
      <trkpt lat="46.3221" lon="-0.29039">
        <ele>80.7042</ele>
        <time>2011-01-09T14:14:23Z</time>
      </trkpt>
      <trkpt lat="46.32209" lon="-0.29039">
        <ele>80.8019</ele>
        <time>2011-01-09T14:14:24Z</time>
      </trkpt>
      <trkpt lat="46.32208" lon="-0.2904">
        <ele>80.9167</ele>
        <time>2011-01-09T14:14:25Z</time>
      </trkpt>
      <trkpt lat="46.32207" lon="-0.29041">
        <ele>81.0559</ele>
        <time>2011-01-09T14:14:26Z</time>
      </trkpt>
      <trkpt lat="46.32206" lon="-0.29042">
        <ele>81.2056</ele>
        <time>2011-01-09T14:14:27Z</time>
      </trkpt>
      <trkpt lat="46.32205" lon="-0.29042">
        <ele>81.3555</ele>
        <time>2011-01-09T14:14:28Z</time>
      </trkpt>
      <trkpt lat="46.32204" lon="-0.29042">
        <ele>81.5082</ele>
        <time>2011-01-09T14:14:29Z</time>
      </trkpt>
      <trkpt lat="46.32203" lon="-0.29042">
        <ele>81.6585</ele>
        <time>2011-01-09T14:14:30Z</time>
      </trkpt>
      <trkpt lat="46.32202" lon="-0.29044">
        <ele>82.1891</ele>
        <time>2011-01-09T14:14:34Z</time>
      </trkpt>
      <trkpt lat="46.32201" lon="-0.29045">
        <ele>82.3099</ele>
        <time>2011-01-09T14:14:35Z</time>
      </trkpt>
      <trkpt lat="46.32201" lon="-0.29045">
        <ele>82.4322</ele>
        <time>2011-01-09T14:14:36Z</time>
      </trkpt>
      <trkpt lat="46.322" lon="-0.29046">
        <ele>82.5633</ele>
        <time>2011-01-09T14:14:37Z</time>
      </trkpt>
      <trkpt lat="46.32198" lon="-0.29047">
        <ele>82.6987</ele>
        <time>2011-01-09T14:14:38Z</time>
      </trkpt>
      <trkpt lat="46.32197" lon="-0.29048">
        <ele>82.8358</ele>
        <time>2011-01-09T14:14:39Z</time>
      </trkpt>
      <trkpt lat="46.32196" lon="-0.29049">
        <ele>82.9704</ele>
        <time>2011-01-09T14:14:40Z</time>
      </trkpt>
      <trkpt lat="46.32195" lon="-0.2905">
        <ele>83.1088</ele>
        <time>2011-01-09T14:14:41Z</time>
      </trkpt>
      <trkpt lat="46.32194" lon="-0.29051">
        <ele>83.2435</ele>
        <time>2011-01-09T14:14:42Z</time>
      </trkpt>
      <trkpt lat="46.32193" lon="-0.29052">
        <ele>83.3723</ele>
        <time>2011-01-09T14:14:43Z</time>
      </trkpt>
      <trkpt lat="46.32192" lon="-0.29053">
        <ele>83.4986</ele>
        <time>2011-01-09T14:14:44Z</time>
      </trkpt>
      <trkpt lat="46.32191" lon="-0.29054">
        <ele>83.6229</ele>
        <time>2011-01-09T14:14:45Z</time>
      </trkpt>
      <trkpt lat="46.3219" lon="-0.29055">
        <ele>83.7477</ele>
        <time>2011-01-09T14:14:46Z</time>
      </trkpt>
      <trkpt lat="46.3219" lon="-0.29056">
        <ele>83.8708</ele>
        <time>2011-01-09T14:14:47Z</time>
      </trkpt>
      <trkpt lat="46.32189" lon="-0.29057">
        <ele>83.9837</ele>
        <time>2011-01-09T14:14:48Z</time>
      </trkpt>
      <trkpt lat="46.32186" lon="-0.2906">
        <ele>84.3887</ele>
        <time>2011-01-09T14:14:58Z</time>
      </trkpt>
      <trkpt lat="46.32186" lon="-0.2906">
        <ele>84.5026</ele>
        <time>2011-01-09T14:14:59Z</time>
      </trkpt>
      <trkpt lat="46.32185" lon="-0.29061">
        <ele>84.6216</ele>
        <time>2011-01-09T14:15:00Z</time>
      </trkpt>
      <trkpt lat="46.32184" lon="-0.29061">
        <ele>84.7383</ele>
        <time>2011-01-09T14:15:01Z</time>
      </trkpt>
      <trkpt lat="46.32184" lon="-0.29062">
        <ele>84.857</ele>
        <time>2011-01-09T14:15:02Z</time>
      </trkpt>
      <trkpt lat="46.32182" lon="-0.29063">
        <ele>84.9779</ele>
        <time>2011-01-09T14:15:03Z</time>
      </trkpt>
      <trkpt lat="46.32182" lon="-0.29063">
        <ele>85.0992</ele>
        <time>2011-01-09T14:15:04Z</time>
      </trkpt>
      <trkpt lat="46.3218" lon="-0.29064">
        <ele>85.2262</ele>
        <time>2011-01-09T14:15:05Z</time>
      </trkpt>
      <trkpt lat="46.3218" lon="-0.29065">
        <ele>85.353</ele>
        <time>2011-01-09T14:15:06Z</time>
      </trkpt>
      <trkpt lat="46.32179" lon="-0.29066">
        <ele>85.4785</ele>
        <time>2011-01-09T14:15:07Z</time>
      </trkpt>
      <trkpt lat="46.32177" lon="-0.29067">
        <ele>85.6013</ele>
        <time>2011-01-09T14:15:08Z</time>
      </trkpt>
      <trkpt lat="46.32177" lon="-0.29069">
        <ele>85.7225</ele>
        <time>2011-01-09T14:15:09Z</time>
      </trkpt>
      <trkpt lat="46.32176" lon="-0.2907">
        <ele>85.8405</ele>
        <time>2011-01-09T14:15:10Z</time>
      </trkpt>
      <trkpt lat="46.32175" lon="-0.29071">
        <ele>85.9566</ele>
        <time>2011-01-09T14:15:11Z</time>
      </trkpt>
      <trkpt lat="46.32174" lon="-0.29072">
        <ele>86.0724</ele>
        <time>2011-01-09T14:15:12Z</time>
      </trkpt>
      <trkpt lat="46.32174" lon="-0.29074">
        <ele>86.186</ele>
        <time>2011-01-09T14:15:13Z</time>
      </trkpt>
      <trkpt lat="46.32173" lon="-0.29075">
        <ele>86.3002</ele>
        <time>2011-01-09T14:15:14Z</time>
      </trkpt>
      <trkpt lat="46.32172" lon="-0.29077">
        <ele>86.4093</ele>
        <time>2011-01-09T14:15:15Z</time>
      </trkpt>
      <trkpt lat="46.32171" lon="-0.29079">
        <ele>86.5147</ele>
        <time>2011-01-09T14:15:16Z</time>
      </trkpt>
      <trkpt lat="46.32171" lon="-0.29081">
        <ele>86.6213</ele>
        <time>2011-01-09T14:15:17Z</time>
      </trkpt>
      <trkpt lat="46.32169" lon="-0.29083">
        <ele>86.7296</ele>
        <time>2011-01-09T14:15:18Z</time>
      </trkpt>
      <trkpt lat="46.32169" lon="-0.29085">
        <ele>86.8464</ele>
        <time>2011-01-09T14:15:19Z</time>
      </trkpt>
      <trkpt lat="46.32166" lon="-0.29088">
        <ele>87.2353</ele>
        <time>2011-01-09T14:15:23Z</time>
      </trkpt>
      <trkpt lat="46.32166" lon="-0.29089">
        <ele>87.3689</ele>
        <time>2011-01-09T14:15:24Z</time>
      </trkpt>
      <trkpt lat="46.32165" lon="-0.29091">
        <ele>87.5085</ele>
        <time>2011-01-09T14:15:25Z</time>
      </trkpt>
      <trkpt lat="46.32165" lon="-0.29092">
        <ele>87.6499</ele>
        <time>2011-01-09T14:15:26Z</time>
      </trkpt>
      <trkpt lat="46.32164" lon="-0.29093">
        <ele>87.7899</ele>
        <time>2011-01-09T14:15:27Z</time>
      </trkpt>
      <trkpt lat="46.32164" lon="-0.29095">
        <ele>87.9261</ele>
        <time>2011-01-09T14:15:28Z</time>
      </trkpt>
      <trkpt lat="46.32163" lon="-0.29096">
        <ele>88.0614</ele>
        <time>2011-01-09T14:15:29Z</time>
      </trkpt>
      <trkpt lat="46.32162" lon="-0.29097">
        <ele>88.1918</ele>
        <time>2011-01-09T14:15:30Z</time>
      </trkpt>
      <trkpt lat="46.32161" lon="-0.29099">
        <ele>88.3199</ele>
        <time>2011-01-09T14:15:31Z</time>
      </trkpt>
      <trkpt lat="46.32161" lon="-0.291">
        <ele>88.4461</ele>
        <time>2011-01-09T14:15:32Z</time>
      </trkpt>
      <trkpt lat="46.3216" lon="-0.29102">
        <ele>88.5768</ele>
        <time>2011-01-09T14:15:33Z</time>
      </trkpt>
      <trkpt lat="46.32159" lon="-0.29104">
        <ele>88.7089</ele>
        <time>2011-01-09T14:15:34Z</time>
      </trkpt>
      <trkpt lat="46.32159" lon="-0.29106">
        <ele>88.8455</ele>
        <time>2011-01-09T14:15:35Z</time>
      </trkpt>
      <trkpt lat="46.32158" lon="-0.29108">
        <ele>88.9853</ele>
        <time>2011-01-09T14:15:36Z</time>
      </trkpt>
      <trkpt lat="46.32158" lon="-0.2911">
        <ele>89.1258</ele>
        <time>2011-01-09T14:15:37Z</time>
      </trkpt>
      <trkpt lat="46.32157" lon="-0.29111">
        <ele>89.2661</ele>
        <time>2011-01-09T14:15:38Z</time>
      </trkpt>
      <trkpt lat="46.32156" lon="-0.29112">
        <ele>89.4049</ele>
        <time>2011-01-09T14:15:39Z</time>
      </trkpt>
      <trkpt lat="46.32155" lon="-0.29114">
        <ele>89.5491</ele>
        <time>2011-01-09T14:15:40Z</time>
      </trkpt>
      <trkpt lat="46.32154" lon="-0.29115">
        <ele>89.6866</ele>
        <time>2011-01-09T14:15:41Z</time>
      </trkpt>
      <trkpt lat="46.32153" lon="-0.29116">
        <ele>89.8193</ele>
        <time>2011-01-09T14:15:42Z</time>
      </trkpt>
      <trkpt lat="46.32153" lon="-0.29117">
        <ele>89.9489</ele>
        <time>2011-01-09T14:15:43Z</time>
      </trkpt>
      <trkpt lat="46.32152" lon="-0.29117">
        <ele>90.0775</ele>
        <time>2011-01-09T14:15:44Z</time>
      </trkpt>
      <trkpt lat="46.32151" lon="-0.29118">
        <ele>90.2044</ele>
        <time>2011-01-09T14:15:45Z</time>
      </trkpt>
      <trkpt lat="46.3215" lon="-0.29119">
        <ele>90.3201</ele>
        <time>2011-01-09T14:15:46Z</time>
      </trkpt>
      <trkpt lat="46.3215" lon="-0.2912">
        <ele>90.4287</ele>
        <time>2011-01-09T14:15:47Z</time>
      </trkpt>
      <trkpt lat="46.32149" lon="-0.29121">
        <ele>90.5293</ele>
        <time>2011-01-09T14:15:48Z</time>
      </trkpt>
      <trkpt lat="46.32148" lon="-0.29122">
        <ele>90.6255</ele>
        <time>2011-01-09T14:15:49Z</time>
      </trkpt>
      <trkpt lat="46.32148" lon="-0.29123">
        <ele>90.7178</ele>
        <time>2011-01-09T14:15:50Z</time>
      </trkpt>
      <trkpt lat="46.32148" lon="-0.29124">
        <ele>90.808</ele>
        <time>2011-01-09T14:15:51Z</time>
      </trkpt>
      <trkpt lat="46.32147" lon="-0.29125">
        <ele>90.8914</ele>
        <time>2011-01-09T14:15:52Z</time>
      </trkpt>
      <trkpt lat="46.32147" lon="-0.29126">
        <ele>90.97</ele>
        <time>2011-01-09T14:15:53Z</time>
      </trkpt>
      <trkpt lat="46.32146" lon="-0.29127">
        <ele>91.0426</ele>
        <time>2011-01-09T14:15:54Z</time>
      </trkpt>
      <trkpt lat="46.32145" lon="-0.29128">
        <ele>91.1098</ele>
        <time>2011-01-09T14:15:55Z</time>
      </trkpt>
      <trkpt lat="46.32145" lon="-0.29129">
        <ele>91.1681</ele>
        <time>2011-01-09T14:15:56Z</time>
      </trkpt>
      <trkpt lat="46.32144" lon="-0.2913">
        <ele>91.2197</ele>
        <time>2011-01-09T14:15:57Z</time>
      </trkpt>
      <trkpt lat="46.32143" lon="-0.2913">
        <ele>91.2692</ele>
        <time>2011-01-09T14:15:58Z</time>
      </trkpt>
      <trkpt lat="46.32142" lon="-0.29131">
        <ele>91.3141</ele>
        <time>2011-01-09T14:15:59Z</time>
      </trkpt>
      <trkpt lat="46.32141" lon="-0.29132">
        <ele>91.3885</ele>
        <time>2011-01-09T14:16:00Z</time>
      </trkpt>
      <trkpt lat="46.3214" lon="-0.29132">
        <ele>91.4621</ele>
        <time>2011-01-09T14:16:01Z</time>
      </trkpt>
      <trkpt lat="46.32138" lon="-0.29133">
        <ele>91.523</ele>
        <time>2011-01-09T14:16:02Z</time>
      </trkpt>
      <trkpt lat="46.32137" lon="-0.29134">
        <ele>91.5813</ele>
        <time>2011-01-09T14:16:03Z</time>
      </trkpt>
      <trkpt lat="46.32136" lon="-0.29136">
        <ele>91.6402</ele>
        <time>2011-01-09T14:16:04Z</time>
      </trkpt>
      <trkpt lat="46.32135" lon="-0.29137">
        <ele>91.6981</ele>
        <time>2011-01-09T14:16:05Z</time>
      </trkpt>
      <trkpt lat="46.32134" lon="-0.29138">
        <ele>91.7602</ele>
        <time>2011-01-09T14:16:06Z</time>
      </trkpt>
      <trkpt lat="46.32133" lon="-0.29139">
        <ele>91.8274</ele>
        <time>2011-01-09T14:16:07Z</time>
      </trkpt>
      <trkpt lat="46.32132" lon="-0.2914">
        <ele>91.8954</ele>
        <time>2011-01-09T14:16:08Z</time>
      </trkpt>
      <trkpt lat="46.32132" lon="-0.29141">
        <ele>91.9637</ele>
        <time>2011-01-09T14:16:09Z</time>
      </trkpt>
      <trkpt lat="46.32131" lon="-0.29141">
        <ele>92.0406</ele>
        <time>2011-01-09T14:16:10Z</time>
      </trkpt>
      <trkpt lat="46.32131" lon="-0.29142">
        <ele>92.1181</ele>
        <time>2011-01-09T14:16:11Z</time>
      </trkpt>
      <trkpt lat="46.32131" lon="-0.29143">
        <ele>92.196</ele>
        <time>2011-01-09T14:16:12Z</time>
      </trkpt>
      <trkpt lat="46.3213" lon="-0.29144">
        <ele>92.2765</ele>
        <time>2011-01-09T14:16:13Z</time>
      </trkpt>
      <trkpt lat="46.3213" lon="-0.29145">
        <ele>92.3576</ele>
        <time>2011-01-09T14:16:14Z</time>
      </trkpt>
      <trkpt lat="46.32129" lon="-0.29147">
        <ele>92.4438</ele>
        <time>2011-01-09T14:16:15Z</time>
      </trkpt>
      <trkpt lat="46.32128" lon="-0.29148">
        <ele>92.5424</ele>
        <time>2011-01-09T14:16:16Z</time>
      </trkpt>
      <trkpt lat="46.32126" lon="-0.29149">
        <ele>92.6447</ele>
        <time>2011-01-09T14:16:17Z</time>
      </trkpt>
      <trkpt lat="46.32125" lon="-0.2915">
        <ele>92.7426</ele>
        <time>2011-01-09T14:16:18Z</time>
      </trkpt>
      <trkpt lat="46.32124" lon="-0.2915">
        <ele>92.9252</ele>
        <time>2011-01-09T14:16:22Z</time>
      </trkpt>
      <trkpt lat="46.32124" lon="-0.2915">
        <ele>93.0093</ele>
        <time>2011-01-09T14:16:23Z</time>
      </trkpt>
      <trkpt lat="46.32123" lon="-0.2915">
        <ele>93.0846</ele>
        <time>2011-01-09T14:16:24Z</time>
      </trkpt>
      <trkpt lat="46.32123" lon="-0.29151">
        <ele>93.1638</ele>
        <time>2011-01-09T14:16:25Z</time>
      </trkpt>
      <trkpt lat="46.32122" lon="-0.29151">
        <ele>93.2495</ele>
        <time>2011-01-09T14:16:26Z</time>
      </trkpt>
      <trkpt lat="46.32122" lon="-0.29151">
        <ele>93.3339</ele>
        <time>2011-01-09T14:16:27Z</time>
      </trkpt>
      <trkpt lat="46.32121" lon="-0.29152">
        <ele>93.4154</ele>
        <time>2011-01-09T14:16:28Z</time>
      </trkpt>
      <trkpt lat="46.32121" lon="-0.29153">
        <ele>93.4966</ele>
        <time>2011-01-09T14:16:29Z</time>
      </trkpt>
      <trkpt lat="46.3212" lon="-0.29153">
        <ele>93.575</ele>
        <time>2011-01-09T14:16:30Z</time>
      </trkpt>
      <trkpt lat="46.32119" lon="-0.29154">
        <ele>93.6512</ele>
        <time>2011-01-09T14:16:31Z</time>
      </trkpt>
      <trkpt lat="46.32118" lon="-0.29155">
        <ele>93.7307</ele>
        <time>2011-01-09T14:16:32Z</time>
      </trkpt>
      <trkpt lat="46.32118" lon="-0.29155">
        <ele>93.8077</ele>
        <time>2011-01-09T14:16:33Z</time>
      </trkpt>
      <trkpt lat="46.32117" lon="-0.29157">
        <ele>93.8825</ele>
        <time>2011-01-09T14:16:34Z</time>
      </trkpt>
      <trkpt lat="46.32116" lon="-0.29157">
        <ele>93.9567</ele>
        <time>2011-01-09T14:16:35Z</time>
      </trkpt>
      <trkpt lat="46.32115" lon="-0.29158">
        <ele>94.0314</ele>
        <time>2011-01-09T14:16:36Z</time>
      </trkpt>
      <trkpt lat="46.32114" lon="-0.29159">
        <ele>94.1067</ele>
        <time>2011-01-09T14:16:37Z</time>
      </trkpt>
      <trkpt lat="46.32113" lon="-0.2916">
        <ele>94.1809</ele>
        <time>2011-01-09T14:16:38Z</time>
      </trkpt>
      <trkpt lat="46.32112" lon="-0.29161">
        <ele>94.2549</ele>
        <time>2011-01-09T14:16:39Z</time>
      </trkpt>
      <trkpt lat="46.32111" lon="-0.29162">
        <ele>94.3392</ele>
        <time>2011-01-09T14:16:40Z</time>
      </trkpt>
      <trkpt lat="46.3211" lon="-0.29163">
        <ele>94.4317</ele>
        <time>2011-01-09T14:16:41Z</time>
      </trkpt>
      <trkpt lat="46.32109" lon="-0.29164">
        <ele>94.5228</ele>
        <time>2011-01-09T14:16:42Z</time>
      </trkpt>
      <trkpt lat="46.32108" lon="-0.29166">
        <ele>94.6129</ele>
        <time>2011-01-09T14:16:43Z</time>
      </trkpt>
      <trkpt lat="46.32106" lon="-0.29167">
        <ele>94.6987</ele>
        <time>2011-01-09T14:16:44Z</time>
      </trkpt>
      <trkpt lat="46.32105" lon="-0.29169">
        <ele>94.7824</ele>
        <time>2011-01-09T14:16:45Z</time>
      </trkpt>
      <trkpt lat="46.32105" lon="-0.2917">
        <ele>94.862</ele>
        <time>2011-01-09T14:16:46Z</time>
      </trkpt>
      <trkpt lat="46.32103" lon="-0.29171">
        <ele>94.9393</ele>
        <time>2011-01-09T14:16:47Z</time>
      </trkpt>
      <trkpt lat="46.32102" lon="-0.29172">
        <ele>95.0152</ele>
        <time>2011-01-09T14:16:48Z</time>
      </trkpt>
      <trkpt lat="46.32101" lon="-0.29173">
        <ele>95.0905</ele>
        <time>2011-01-09T14:16:49Z</time>
      </trkpt>
      <trkpt lat="46.32101" lon="-0.29174">
        <ele>95.1588</ele>
        <time>2011-01-09T14:16:50Z</time>
      </trkpt>
      <trkpt lat="46.321" lon="-0.29174">
        <ele>95.2278</ele>
        <time>2011-01-09T14:16:51Z</time>
      </trkpt>
      <trkpt lat="46.32099" lon="-0.29176">
        <ele>95.2949</ele>
        <time>2011-01-09T14:16:52Z</time>
      </trkpt>
      <trkpt lat="46.32098" lon="-0.29177">
        <ele>95.3613</ele>
        <time>2011-01-09T14:16:53Z</time>
      </trkpt>
      <trkpt lat="46.32097" lon="-0.29178">
        <ele>95.4281</ele>
        <time>2011-01-09T14:16:54Z</time>
      </trkpt>
      <trkpt lat="46.32097" lon="-0.29179">
        <ele>95.4938</ele>
        <time>2011-01-09T14:16:55Z</time>
      </trkpt>
      <trkpt lat="46.32095" lon="-0.29181">
        <ele>95.5715</ele>
        <time>2011-01-09T14:16:56Z</time>
      </trkpt>
      <trkpt lat="46.32095" lon="-0.29182">
        <ele>95.6586</ele>
        <time>2011-01-09T14:16:57Z</time>
      </trkpt>
      <trkpt lat="46.32094" lon="-0.29184">
        <ele>95.7471</ele>
        <time>2011-01-09T14:16:58Z</time>
      </trkpt>
      <trkpt lat="46.32093" lon="-0.29185">
        <ele>95.8344</ele>
        <time>2011-01-09T14:16:59Z</time>
      </trkpt>
      <trkpt lat="46.32093" lon="-0.29187">
        <ele>95.9238</ele>
        <time>2011-01-09T14:17:00Z</time>
      </trkpt>
      <trkpt lat="46.32093" lon="-0.29189">
        <ele>96.019</ele>
        <time>2011-01-09T14:17:01Z</time>
      </trkpt>
      <trkpt lat="46.32094" lon="-0.29191">
        <ele>96.1156</ele>
        <time>2011-01-09T14:17:02Z</time>
      </trkpt>
      <trkpt lat="46.32094" lon="-0.29192">
        <ele>96.2125</ele>
        <time>2011-01-09T14:17:03Z</time>
      </trkpt>
      <trkpt lat="46.32094" lon="-0.29194">
        <ele>96.3107</ele>
        <time>2011-01-09T14:17:04Z</time>
      </trkpt>
      <trkpt lat="46.32094" lon="-0.29196">
        <ele>96.4144</ele>
        <time>2011-01-09T14:17:05Z</time>
      </trkpt>
      <trkpt lat="46.32093" lon="-0.29197">
        <ele>96.5187</ele>
        <time>2011-01-09T14:17:06Z</time>
      </trkpt>
      <trkpt lat="46.32093" lon="-0.29197">
        <ele>96.6261</ele>
        <time>2011-01-09T14:17:07Z</time>
      </trkpt>
      <trkpt lat="46.32093" lon="-0.29198">
        <ele>96.7349</ele>
        <time>2011-01-09T14:17:08Z</time>
      </trkpt>
      <trkpt lat="46.32093" lon="-0.29196">
        <ele>96.8742</ele>
        <time>2011-01-09T14:17:13Z</time>
      </trkpt>
      <trkpt lat="46.32093" lon="-0.29195">
        <ele>96.9688</ele>
        <time>2011-01-09T14:17:14Z</time>
      </trkpt>
      <trkpt lat="46.32094" lon="-0.29194">
        <ele>97.0646</ele>
        <time>2011-01-09T14:17:15Z</time>
      </trkpt>
      <trkpt lat="46.32094" lon="-0.29193">
        <ele>97.1597</ele>
        <time>2011-01-09T14:17:16Z</time>
      </trkpt>
      <trkpt lat="46.32094" lon="-0.29192">
        <ele>97.2517</ele>
        <time>2011-01-09T14:17:17Z</time>
      </trkpt>
      <trkpt lat="46.32095" lon="-0.29191">
        <ele>97.3419</ele>
        <time>2011-01-09T14:17:18Z</time>
      </trkpt>
      <trkpt lat="46.32095" lon="-0.29191">
        <ele>97.7086</ele>
        <time>2011-01-09T14:17:27Z</time>
      </trkpt>
      <trkpt lat="46.32095" lon="-0.29192">
        <ele>97.7862</ele>
        <time>2011-01-09T14:17:28Z</time>
      </trkpt>
      <trkpt lat="46.32094" lon="-0.29192">
        <ele>97.8989</ele>
        <time>2011-01-09T14:17:36Z</time>
      </trkpt>
      <trkpt lat="46.32093" lon="-0.29193">
        <ele>97.9604</ele>
        <time>2011-01-09T14:17:37Z</time>
      </trkpt>
      <trkpt lat="46.32092" lon="-0.29194">
        <ele>98.0195</ele>
        <time>2011-01-09T14:17:38Z</time>
      </trkpt>
      <trkpt lat="46.32092" lon="-0.29195">
        <ele>98.0705</ele>
        <time>2011-01-09T14:17:39Z</time>
      </trkpt>
      <trkpt lat="46.32092" lon="-0.29196">
        <ele>98.1233</ele>
        <time>2011-01-09T14:17:40Z</time>
      </trkpt>
      <trkpt lat="46.32092" lon="-0.29198">
        <ele>98.1745</ele>
        <time>2011-01-09T14:17:41Z</time>
      </trkpt>
      <trkpt lat="46.32093" lon="-0.29199">
        <ele>98.2256</ele>
        <time>2011-01-09T14:17:42Z</time>
      </trkpt>
      <trkpt lat="46.32093" lon="-0.29201">
        <ele>98.277</ele>
        <time>2011-01-09T14:17:43Z</time>
      </trkpt>
      <trkpt lat="46.32095" lon="-0.29202">
        <ele>98.3268</ele>
        <time>2011-01-09T14:17:44Z</time>
      </trkpt>
      <trkpt lat="46.32095" lon="-0.29204">
        <ele>98.3753</ele>
        <time>2011-01-09T14:17:45Z</time>
      </trkpt>
      <trkpt lat="46.32096" lon="-0.29205">
        <ele>98.4246</ele>
        <time>2011-01-09T14:17:46Z</time>
      </trkpt>
      <trkpt lat="46.32097" lon="-0.29207">
        <ele>98.4724</ele>
        <time>2011-01-09T14:17:47Z</time>
      </trkpt>
      <trkpt lat="46.32098" lon="-0.29208">
        <ele>98.5201</ele>
        <time>2011-01-09T14:17:48Z</time>
      </trkpt>
      <trkpt lat="46.32099" lon="-0.2921">
        <ele>98.5697</ele>
        <time>2011-01-09T14:17:49Z</time>
      </trkpt>
      <trkpt lat="46.321" lon="-0.29211">
        <ele>98.6198</ele>
        <time>2011-01-09T14:17:50Z</time>
      </trkpt>
      <trkpt lat="46.321" lon="-0.29213">
        <ele>98.6709</ele>
        <time>2011-01-09T14:17:51Z</time>
      </trkpt>
      <trkpt lat="46.32101" lon="-0.29214">
        <ele>98.7237</ele>
        <time>2011-01-09T14:17:52Z</time>
      </trkpt>
      <trkpt lat="46.32101" lon="-0.29216">
        <ele>98.7771</ele>
        <time>2011-01-09T14:17:53Z</time>
      </trkpt>
      <trkpt lat="46.32102" lon="-0.29218">
        <ele>98.8293</ele>
        <time>2011-01-09T14:17:54Z</time>
      </trkpt>
      <trkpt lat="46.32103" lon="-0.29219">
        <ele>98.8657</ele>
        <time>2011-01-09T14:17:55Z</time>
      </trkpt>
      <trkpt lat="46.32104" lon="-0.29221">
        <ele>98.895</ele>
        <time>2011-01-09T14:17:56Z</time>
      </trkpt>
      <trkpt lat="46.32105" lon="-0.29222">
        <ele>98.9248</ele>
        <time>2011-01-09T14:17:57Z</time>
      </trkpt>
      <trkpt lat="46.32105" lon="-0.29223">
        <ele>98.9534</ele>
        <time>2011-01-09T14:17:58Z</time>
      </trkpt>
      <trkpt lat="46.32106" lon="-0.29224">
        <ele>98.9823</ele>
        <time>2011-01-09T14:17:59Z</time>
      </trkpt>
      <trkpt lat="46.32106" lon="-0.29225">
        <ele>99.0102</ele>
        <time>2011-01-09T14:18:00Z</time>
      </trkpt>
      <trkpt lat="46.32108" lon="-0.29227">
        <ele>99.0355</ele>
        <time>2011-01-09T14:18:01Z</time>
      </trkpt>
      <trkpt lat="46.32108" lon="-0.29228">
        <ele>99.0591</ele>
        <time>2011-01-09T14:18:02Z</time>
      </trkpt>
      <trkpt lat="46.32109" lon="-0.2923">
        <ele>99.0832</ele>
        <time>2011-01-09T14:18:03Z</time>
      </trkpt>
      <trkpt lat="46.3211" lon="-0.29231">
        <ele>99.1023</ele>
        <time>2011-01-09T14:18:04Z</time>
      </trkpt>
      <trkpt lat="46.32111" lon="-0.29233">
        <ele>99.1208</ele>
        <time>2011-01-09T14:18:05Z</time>
      </trkpt>
      <trkpt lat="46.32111" lon="-0.29234">
        <ele>99.1391</ele>
        <time>2011-01-09T14:18:06Z</time>
      </trkpt>
      <trkpt lat="46.32112" lon="-0.29235">
        <ele>99.1575</ele>
        <time>2011-01-09T14:18:07Z</time>
      </trkpt>
      <trkpt lat="46.32113" lon="-0.29236">
        <ele>99.1656</ele>
        <time>2011-01-09T14:18:08Z</time>
      </trkpt>
      <trkpt lat="46.32113" lon="-0.29237">
        <ele>99.1736</ele>
        <time>2011-01-09T14:18:09Z</time>
      </trkpt>
      <trkpt lat="46.32114" lon="-0.29238">
        <ele>99.1808</ele>
        <time>2011-01-09T14:18:10Z</time>
      </trkpt>
      <trkpt lat="46.32114" lon="-0.29239">
        <ele>99.1895</ele>
        <time>2011-01-09T14:18:11Z</time>
      </trkpt>
      <trkpt lat="46.32116" lon="-0.29241">
        <ele>99.195</ele>
        <time>2011-01-09T14:18:12Z</time>
      </trkpt>
      <trkpt lat="46.32117" lon="-0.29242">
        <ele>99.2009</ele>
        <time>2011-01-09T14:18:13Z</time>
      </trkpt>
      <trkpt lat="46.32118" lon="-0.29243">
        <ele>99.1942</ele>
        <time>2011-01-09T14:18:14Z</time>
      </trkpt>
      <trkpt lat="46.32118" lon="-0.29245">
        <ele>99.1825</ele>
        <time>2011-01-09T14:18:15Z</time>
      </trkpt>
      <trkpt lat="46.32119" lon="-0.29246">
        <ele>99.1743</ele>
        <time>2011-01-09T14:18:16Z</time>
      </trkpt>
      <trkpt lat="46.32119" lon="-0.29248">
        <ele>99.1675</ele>
        <time>2011-01-09T14:18:17Z</time>
      </trkpt>
      <trkpt lat="46.32121" lon="-0.29249">
        <ele>99.1618</ele>
        <time>2011-01-09T14:18:18Z</time>
      </trkpt>
      <trkpt lat="46.32121" lon="-0.2925">
        <ele>99.1598</ele>
        <time>2011-01-09T14:18:19Z</time>
      </trkpt>
      <trkpt lat="46.32122" lon="-0.29251">
        <ele>99.1647</ele>
        <time>2011-01-09T14:18:20Z</time>
      </trkpt>
      <trkpt lat="46.32123" lon="-0.29252">
        <ele>99.1704</ele>
        <time>2011-01-09T14:18:21Z</time>
      </trkpt>
      <trkpt lat="46.32124" lon="-0.29254">
        <ele>99.1763</ele>
        <time>2011-01-09T14:18:22Z</time>
      </trkpt>
      <trkpt lat="46.32125" lon="-0.29255">
        <ele>99.1839</ele>
        <time>2011-01-09T14:18:23Z</time>
      </trkpt>
      <trkpt lat="46.32126" lon="-0.29257">
        <ele>99.1947</ele>
        <time>2011-01-09T14:18:24Z</time>
      </trkpt>
      <trkpt lat="46.32126" lon="-0.29258">
        <ele>99.2126</ele>
        <time>2011-01-09T14:18:25Z</time>
      </trkpt>
      <trkpt lat="46.32127" lon="-0.29259">
        <ele>99.2269</ele>
        <time>2011-01-09T14:18:26Z</time>
      </trkpt>
      <trkpt lat="46.32127" lon="-0.29259">
        <ele>99.2344</ele>
        <time>2011-01-09T14:18:27Z</time>
      </trkpt>
      <trkpt lat="46.32128" lon="-0.29259">
        <ele>99.2376</ele>
        <time>2011-01-09T14:18:28Z</time>
      </trkpt>
      <trkpt lat="46.32129" lon="-0.29259">
        <ele>99.231</ele>
        <time>2011-01-09T14:18:29Z</time>
      </trkpt>
      <trkpt lat="46.32129" lon="-0.29259">
        <ele>99.2064</ele>
        <time>2011-01-09T14:18:30Z</time>
      </trkpt>
      <trkpt lat="46.32129" lon="-0.2926">
        <ele>99.1672</ele>
        <time>2011-01-09T14:18:31Z</time>
      </trkpt>
      <trkpt lat="46.32129" lon="-0.29261">
        <ele>99.1178</ele>
        <time>2011-01-09T14:18:32Z</time>
      </trkpt>
      <trkpt lat="46.3213" lon="-0.29262">
        <ele>99.0696</ele>
        <time>2011-01-09T14:18:33Z</time>
      </trkpt>
      <trkpt lat="46.3213" lon="-0.29264">
        <ele>99.0252</ele>
        <time>2011-01-09T14:18:34Z</time>
      </trkpt>
      <trkpt lat="46.32131" lon="-0.29265">
        <ele>98.979</ele>
        <time>2011-01-09T14:18:35Z</time>
      </trkpt>
      <trkpt lat="46.32132" lon="-0.29266">
        <ele>98.935</ele>
        <time>2011-01-09T14:18:36Z</time>
      </trkpt>
      <trkpt lat="46.32132" lon="-0.29267">
        <ele>98.8973</ele>
        <time>2011-01-09T14:18:37Z</time>
      </trkpt>
      <trkpt lat="46.32132" lon="-0.29268">
        <ele>98.8697</ele>
        <time>2011-01-09T14:18:38Z</time>
      </trkpt>
      <trkpt lat="46.32132" lon="-0.29269">
        <ele>98.8461</ele>
        <time>2011-01-09T14:18:39Z</time>
      </trkpt>
      <trkpt lat="46.32132" lon="-0.29271">
        <ele>98.8335</ele>
        <time>2011-01-09T14:18:40Z</time>
      </trkpt>
      <trkpt lat="46.32132" lon="-0.29273">
        <ele>98.8247</ele>
        <time>2011-01-09T14:18:41Z</time>
      </trkpt>
      <trkpt lat="46.32133" lon="-0.29274">
        <ele>98.8285</ele>
        <time>2011-01-09T14:18:42Z</time>
      </trkpt>
      <trkpt lat="46.32134" lon="-0.29277">
        <ele>98.8412</ele>
        <time>2011-01-09T14:18:43Z</time>
      </trkpt>
      <trkpt lat="46.32134" lon="-0.29279">
        <ele>98.8745</ele>
        <time>2011-01-09T14:18:44Z</time>
      </trkpt>
      <trkpt lat="46.32135" lon="-0.29281">
        <ele>98.9132</ele>
        <time>2011-01-09T14:18:45Z</time>
      </trkpt>
      <trkpt lat="46.32136" lon="-0.29283">
        <ele>98.9496</ele>
        <time>2011-01-09T14:18:46Z</time>
      </trkpt>
      <trkpt lat="46.32137" lon="-0.29285">
        <ele>98.986</ele>
        <time>2011-01-09T14:18:47Z</time>
      </trkpt>
      <trkpt lat="46.32137" lon="-0.29287">
        <ele>99.0191</ele>
        <time>2011-01-09T14:18:48Z</time>
      </trkpt>
      <trkpt lat="46.32137" lon="-0.29288">
        <ele>99.0496</ele>
        <time>2011-01-09T14:18:49Z</time>
      </trkpt>
      <trkpt lat="46.32138" lon="-0.2929">
        <ele>99.0744</ele>
        <time>2011-01-09T14:18:50Z</time>
      </trkpt>
      <trkpt lat="46.32138" lon="-0.29292">
        <ele>99.0952</ele>
        <time>2011-01-09T14:18:51Z</time>
      </trkpt>
      <trkpt lat="46.32138" lon="-0.29293">
        <ele>99.1183</ele>
        <time>2011-01-09T14:18:52Z</time>
      </trkpt>
      <trkpt lat="46.32139" lon="-0.29295">
        <ele>99.1445</ele>
        <time>2011-01-09T14:18:53Z</time>
      </trkpt>
      <trkpt lat="46.3214" lon="-0.29297">
        <ele>99.1815</ele>
        <time>2011-01-09T14:18:54Z</time>
      </trkpt>
      <trkpt lat="46.3214" lon="-0.29298">
        <ele>99.232</ele>
        <time>2011-01-09T14:18:55Z</time>
      </trkpt>
      <trkpt lat="46.3214" lon="-0.293">
        <ele>99.282</ele>
        <time>2011-01-09T14:18:56Z</time>
      </trkpt>
      <trkpt lat="46.32141" lon="-0.29301">
        <ele>99.3313</ele>
        <time>2011-01-09T14:18:57Z</time>
      </trkpt>
      <trkpt lat="46.32142" lon="-0.29302">
        <ele>99.3813</ele>
        <time>2011-01-09T14:18:58Z</time>
      </trkpt>
      <trkpt lat="46.32142" lon="-0.29304">
        <ele>99.4306</ele>
        <time>2011-01-09T14:18:59Z</time>
      </trkpt>
      <trkpt lat="46.32143" lon="-0.29305">
        <ele>99.4765</ele>
        <time>2011-01-09T14:19:00Z</time>
      </trkpt>
      <trkpt lat="46.32143" lon="-0.29306">
        <ele>99.5219</ele>
        <time>2011-01-09T14:19:01Z</time>
      </trkpt>
      <trkpt lat="46.32144" lon="-0.29307">
        <ele>99.5658</ele>
        <time>2011-01-09T14:19:02Z</time>
      </trkpt>
      <trkpt lat="46.32145" lon="-0.29309">
        <ele>99.6033</ele>
        <time>2011-01-09T14:19:03Z</time>
      </trkpt>
      <trkpt lat="46.32145" lon="-0.2931">
        <ele>99.6359</ele>
        <time>2011-01-09T14:19:04Z</time>
      </trkpt>
      <trkpt lat="46.32145" lon="-0.29311">
        <ele>99.6653</ele>
        <time>2011-01-09T14:19:05Z</time>
      </trkpt>
      <trkpt lat="46.32146" lon="-0.29312">
        <ele>99.6915</ele>
        <time>2011-01-09T14:19:06Z</time>
      </trkpt>
      <trkpt lat="46.32145" lon="-0.29311">
        <ele>99.7441</ele>
        <time>2011-01-09T14:19:10Z</time>
      </trkpt>
      <trkpt lat="46.32145" lon="-0.29312">
        <ele>99.7881</ele>
        <time>2011-01-09T14:19:11Z</time>
      </trkpt>
      <trkpt lat="46.32146" lon="-0.29313">
        <ele>99.8316</ele>
        <time>2011-01-09T14:19:12Z</time>
      </trkpt>
      <trkpt lat="46.32146" lon="-0.29314">
        <ele>99.8767</ele>
        <time>2011-01-09T14:19:13Z</time>
      </trkpt>
      <trkpt lat="46.32146" lon="-0.29315">
        <ele>99.9257</ele>
        <time>2011-01-09T14:19:14Z</time>
      </trkpt>
      <trkpt lat="46.32147" lon="-0.29317">
        <ele>99.9805</ele>
        <time>2011-01-09T14:19:15Z</time>
      </trkpt>
      <trkpt lat="46.32147" lon="-0.29318">
        <ele>100.0356</ele>
        <time>2011-01-09T14:19:16Z</time>
      </trkpt>
      <trkpt lat="46.32147" lon="-0.29319">
        <ele>100.089</ele>
        <time>2011-01-09T14:19:17Z</time>
      </trkpt>
      <trkpt lat="46.32148" lon="-0.29321">
        <ele>100.1416</ele>
        <time>2011-01-09T14:19:18Z</time>
      </trkpt>
      <trkpt lat="46.32148" lon="-0.29322">
        <ele>100.1929</ele>
        <time>2011-01-09T14:19:19Z</time>
      </trkpt>
      <trkpt lat="46.32149" lon="-0.29323">
        <ele>100.2429</ele>
        <time>2011-01-09T14:19:20Z</time>
      </trkpt>
      <trkpt lat="46.3215" lon="-0.29325">
        <ele>100.2921</ele>
        <time>2011-01-09T14:19:21Z</time>
      </trkpt>
      <trkpt lat="46.3215" lon="-0.29326">
        <ele>100.3441</ele>
        <time>2011-01-09T14:19:22Z</time>
      </trkpt>
      <trkpt lat="46.32151" lon="-0.29327">
        <ele>100.3941</ele>
        <time>2011-01-09T14:19:23Z</time>
      </trkpt>
      <trkpt lat="46.32151" lon="-0.29328">
        <ele>100.4405</ele>
        <time>2011-01-09T14:19:24Z</time>
      </trkpt>
      <trkpt lat="46.32151" lon="-0.29329">
        <ele>100.4901</ele>
        <time>2011-01-09T14:19:25Z</time>
      </trkpt>
      <trkpt lat="46.32152" lon="-0.2933">
        <ele>100.5383</ele>
        <time>2011-01-09T14:19:26Z</time>
      </trkpt>
      <trkpt lat="46.32152" lon="-0.29332">
        <ele>100.5887</ele>
        <time>2011-01-09T14:19:27Z</time>
      </trkpt>
      <trkpt lat="46.32153" lon="-0.29333">
        <ele>100.6378</ele>
        <time>2011-01-09T14:19:28Z</time>
      </trkpt>
      <trkpt lat="46.32153" lon="-0.29335">
        <ele>100.6983</ele>
        <time>2011-01-09T14:19:29Z</time>
      </trkpt>
      <trkpt lat="46.32154" lon="-0.29337">
        <ele>100.759</ele>
        <time>2011-01-09T14:19:30Z</time>
      </trkpt>
      <trkpt lat="46.32154" lon="-0.29338">
        <ele>100.8162</ele>
        <time>2011-01-09T14:19:31Z</time>
      </trkpt>
      <trkpt lat="46.32154" lon="-0.2934">
        <ele>100.874</ele>
        <time>2011-01-09T14:19:32Z</time>
      </trkpt>
      <trkpt lat="46.32154" lon="-0.29342">
        <ele>100.9386</ele>
        <time>2011-01-09T14:19:33Z</time>
      </trkpt>
      <trkpt lat="46.32153" lon="-0.29343">
        <ele>101.0101</ele>
        <time>2011-01-09T14:19:34Z</time>
      </trkpt>
      <trkpt lat="46.32152" lon="-0.29344">
        <ele>101.0667</ele>
        <time>2011-01-09T14:19:35Z</time>
      </trkpt>
      <trkpt lat="46.32151" lon="-0.29345">
        <ele>101.1155</ele>
        <time>2011-01-09T14:19:36Z</time>
      </trkpt>
      <trkpt lat="46.32149" lon="-0.29346">
        <ele>101.1572</ele>
        <time>2011-01-09T14:19:37Z</time>
      </trkpt>
      <trkpt lat="46.32148" lon="-0.29347">
        <ele>101.1973</ele>
        <time>2011-01-09T14:19:38Z</time>
      </trkpt>
      <trkpt lat="46.32147" lon="-0.29347">
        <ele>101.2375</ele>
        <time>2011-01-09T14:19:39Z</time>
      </trkpt>
      <trkpt lat="46.32145" lon="-0.29347">
        <ele>101.2743</ele>
        <time>2011-01-09T14:19:40Z</time>
      </trkpt>
      <trkpt lat="46.32145" lon="-0.29348">
        <ele>101.3112</ele>
        <time>2011-01-09T14:19:41Z</time>
      </trkpt>
      <trkpt lat="46.32143" lon="-0.29349">
        <ele>101.3472</ele>
        <time>2011-01-09T14:19:42Z</time>
      </trkpt>
      <trkpt lat="46.32142" lon="-0.29349">
        <ele>101.3796</ele>
        <time>2011-01-09T14:19:43Z</time>
      </trkpt>
      <trkpt lat="46.32142" lon="-0.2935">
        <ele>101.408</ele>
        <time>2011-01-09T14:19:44Z</time>
      </trkpt>
      <trkpt lat="46.3214" lon="-0.29351">
        <ele>101.4339</ele>
        <time>2011-01-09T14:19:45Z</time>
      </trkpt>
      <trkpt lat="46.32139" lon="-0.29351">
        <ele>101.4585</ele>
        <time>2011-01-09T14:19:46Z</time>
      </trkpt>
      <trkpt lat="46.32138" lon="-0.29352">
        <ele>101.4832</ele>
        <time>2011-01-09T14:19:47Z</time>
      </trkpt>
      <trkpt lat="46.32137" lon="-0.29353">
        <ele>101.5073</ele>
        <time>2011-01-09T14:19:48Z</time>
      </trkpt>
      <trkpt lat="46.32137" lon="-0.29353">
        <ele>101.533</ele>
        <time>2011-01-09T14:19:49Z</time>
      </trkpt>
      <trkpt lat="46.32135" lon="-0.29354">
        <ele>101.5589</ele>
        <time>2011-01-09T14:19:50Z</time>
      </trkpt>
      <trkpt lat="46.32135" lon="-0.29354">
        <ele>101.5848</ele>
        <time>2011-01-09T14:19:51Z</time>
      </trkpt>
      <trkpt lat="46.32134" lon="-0.29355">
        <ele>101.6099</ele>
        <time>2011-01-09T14:19:52Z</time>
      </trkpt>
      <trkpt lat="46.32132" lon="-0.29356">
        <ele>101.6345</ele>
        <time>2011-01-09T14:19:53Z</time>
      </trkpt>
      <trkpt lat="46.32132" lon="-0.29357">
        <ele>101.6578</ele>
        <time>2011-01-09T14:19:54Z</time>
      </trkpt>
      <trkpt lat="46.32131" lon="-0.29357">
        <ele>101.6808</ele>
        <time>2011-01-09T14:19:55Z</time>
      </trkpt>
      <trkpt lat="46.3213" lon="-0.29358">
        <ele>101.7038</ele>
        <time>2011-01-09T14:19:56Z</time>
      </trkpt>
      <trkpt lat="46.32129" lon="-0.29359">
        <ele>101.727</ele>
        <time>2011-01-09T14:19:57Z</time>
      </trkpt>
      <trkpt lat="46.32129" lon="-0.2936">
        <ele>101.7467</ele>
        <time>2011-01-09T14:19:58Z</time>
      </trkpt>
      <trkpt lat="46.32127" lon="-0.29361">
        <ele>101.78</ele>
        <time>2011-01-09T14:20:01Z</time>
      </trkpt>
      <trkpt lat="46.32126" lon="-0.29363">
        <ele>101.7929</ele>
        <time>2011-01-09T14:20:02Z</time>
      </trkpt>
      <trkpt lat="46.32125" lon="-0.29364">
        <ele>101.8038</ele>
        <time>2011-01-09T14:20:03Z</time>
      </trkpt>
      <trkpt lat="46.32124" lon="-0.29365">
        <ele>101.814</ele>
        <time>2011-01-09T14:20:04Z</time>
      </trkpt>
      <trkpt lat="46.32124" lon="-0.29366">
        <ele>101.8251</ele>
        <time>2011-01-09T14:20:05Z</time>
      </trkpt>
      <trkpt lat="46.32122" lon="-0.29366">
        <ele>101.8374</ele>
        <time>2011-01-09T14:20:06Z</time>
      </trkpt>
      <trkpt lat="46.32122" lon="-0.29367">
        <ele>101.8539</ele>
        <time>2011-01-09T14:20:07Z</time>
      </trkpt>
      <trkpt lat="46.32121" lon="-0.29367">
        <ele>101.8705</ele>
        <time>2011-01-09T14:20:08Z</time>
      </trkpt>
      <trkpt lat="46.3212" lon="-0.29368">
        <ele>101.8852</ele>
        <time>2011-01-09T14:20:09Z</time>
      </trkpt>
      <trkpt lat="46.32119" lon="-0.29368">
        <ele>101.9014</ele>
        <time>2011-01-09T14:20:10Z</time>
      </trkpt>
      <trkpt lat="46.32118" lon="-0.29369">
        <ele>101.9173</ele>
        <time>2011-01-09T14:20:11Z</time>
      </trkpt>
      <trkpt lat="46.32118" lon="-0.2937">
        <ele>101.9329</ele>
        <time>2011-01-09T14:20:12Z</time>
      </trkpt>
      <trkpt lat="46.32117" lon="-0.2937">
        <ele>101.9499</ele>
        <time>2011-01-09T14:20:13Z</time>
      </trkpt>
      <trkpt lat="46.32116" lon="-0.2937">
        <ele>101.97</ele>
        <time>2011-01-09T14:20:14Z</time>
      </trkpt>
      <trkpt lat="46.32116" lon="-0.29371">
        <ele>101.9867</ele>
        <time>2011-01-09T14:20:15Z</time>
      </trkpt>
      <trkpt lat="46.32114" lon="-0.29371">
        <ele>102.0049</ele>
        <time>2011-01-09T14:20:16Z</time>
      </trkpt>
      <trkpt lat="46.32114" lon="-0.29373">
        <ele>102.0235</ele>
        <time>2011-01-09T14:20:17Z</time>
      </trkpt>
      <trkpt lat="46.32113" lon="-0.29373">
        <ele>102.0386</ele>
        <time>2011-01-09T14:20:18Z</time>
      </trkpt>
      <trkpt lat="46.32112" lon="-0.29374">
        <ele>102.0499</ele>
        <time>2011-01-09T14:20:19Z</time>
      </trkpt>
      <trkpt lat="46.32111" lon="-0.29375">
        <ele>102.0441</ele>
        <time>2011-01-09T14:20:20Z</time>
      </trkpt>
      <trkpt lat="46.3211" lon="-0.29376">
        <ele>102.0281</ele>
        <time>2011-01-09T14:20:21Z</time>
      </trkpt>
      <trkpt lat="46.3211" lon="-0.29376">
        <ele>101.9982</ele>
        <time>2011-01-09T14:20:22Z</time>
      </trkpt>
      <trkpt lat="46.32108" lon="-0.29377">
        <ele>101.9686</ele>
        <time>2011-01-09T14:20:23Z</time>
      </trkpt>
      <trkpt lat="46.32107" lon="-0.29377">
        <ele>101.937</ele>
        <time>2011-01-09T14:20:24Z</time>
      </trkpt>
      <trkpt lat="46.32106" lon="-0.29377">
        <ele>101.9083</ele>
        <time>2011-01-09T14:20:25Z</time>
      </trkpt>
      <trkpt lat="46.32105" lon="-0.29378">
        <ele>101.88</ele>
        <time>2011-01-09T14:20:26Z</time>
      </trkpt>
      <trkpt lat="46.32105" lon="-0.29378">
        <ele>101.8513</ele>
        <time>2011-01-09T14:20:27Z</time>
      </trkpt>
      <trkpt lat="46.32104" lon="-0.2938">
        <ele>101.8232</ele>
        <time>2011-01-09T14:20:28Z</time>
      </trkpt>
      <trkpt lat="46.32103" lon="-0.29381">
        <ele>101.7934</ele>
        <time>2011-01-09T14:20:29Z</time>
      </trkpt>
      <trkpt lat="46.32103" lon="-0.29383">
        <ele>101.7627</ele>
        <time>2011-01-09T14:20:30Z</time>
      </trkpt>
      <trkpt lat="46.32102" lon="-0.29384">
        <ele>101.7338</ele>
        <time>2011-01-09T14:20:31Z</time>
      </trkpt>
      <trkpt lat="46.32101" lon="-0.29385">
        <ele>101.7047</ele>
        <time>2011-01-09T14:20:32Z</time>
      </trkpt>
      <trkpt lat="46.32101" lon="-0.29386">
        <ele>101.6757</ele>
        <time>2011-01-09T14:20:33Z</time>
      </trkpt>
      <trkpt lat="46.321" lon="-0.29387">
        <ele>101.6483</ele>
        <time>2011-01-09T14:20:34Z</time>
      </trkpt>
      <trkpt lat="46.321" lon="-0.29388">
        <ele>101.6237</ele>
        <time>2011-01-09T14:20:35Z</time>
      </trkpt>
      <trkpt lat="46.32099" lon="-0.29389">
        <ele>101.5983</ele>
        <time>2011-01-09T14:20:36Z</time>
      </trkpt>
      <trkpt lat="46.32099" lon="-0.2939">
        <ele>101.5751</ele>
        <time>2011-01-09T14:20:37Z</time>
      </trkpt>
      <trkpt lat="46.32098" lon="-0.29391">
        <ele>101.5608</ele>
        <time>2011-01-09T14:20:38Z</time>
      </trkpt>
      <trkpt lat="46.32098" lon="-0.29392">
        <ele>101.5473</ele>
        <time>2011-01-09T14:20:39Z</time>
      </trkpt>
      <trkpt lat="46.32097" lon="-0.29393">
        <ele>101.5305</ele>
        <time>2011-01-09T14:20:40Z</time>
      </trkpt>
      <trkpt lat="46.32097" lon="-0.29394">
        <ele>101.5032</ele>
        <time>2011-01-09T14:20:41Z</time>
      </trkpt>
      <trkpt lat="46.32096" lon="-0.29396">
        <ele>101.4754</ele>
        <time>2011-01-09T14:20:42Z</time>
      </trkpt>
      <trkpt lat="46.32095" lon="-0.29397">
        <ele>101.4471</ele>
        <time>2011-01-09T14:20:43Z</time>
      </trkpt>
      <trkpt lat="46.32094" lon="-0.29398">
        <ele>101.4193</ele>
        <time>2011-01-09T14:20:44Z</time>
      </trkpt>
      <trkpt lat="46.32093" lon="-0.29399">
        <ele>101.3911</ele>
        <time>2011-01-09T14:20:45Z</time>
      </trkpt>
      <trkpt lat="46.32091" lon="-0.294">
        <ele>101.3676</ele>
        <time>2011-01-09T14:20:46Z</time>
      </trkpt>
      <trkpt lat="46.3209" lon="-0.29401">
        <ele>101.3446</ele>
        <time>2011-01-09T14:20:47Z</time>
      </trkpt>
      <trkpt lat="46.32089" lon="-0.29401">
        <ele>101.3235</ele>
        <time>2011-01-09T14:20:48Z</time>
      </trkpt>
      <trkpt lat="46.32089" lon="-0.29402">
        <ele>101.304</ele>
        <time>2011-01-09T14:20:49Z</time>
      </trkpt>
      <trkpt lat="46.32088" lon="-0.29403">
        <ele>101.2897</ele>
        <time>2011-01-09T14:20:50Z</time>
      </trkpt>
      <trkpt lat="46.32087" lon="-0.29403">
        <ele>101.2788</ele>
        <time>2011-01-09T14:20:51Z</time>
      </trkpt>
      <trkpt lat="46.32086" lon="-0.29404">
        <ele>101.2687</ele>
        <time>2011-01-09T14:20:52Z</time>
      </trkpt>
      <trkpt lat="46.32085" lon="-0.29405">
        <ele>101.263</ele>
        <time>2011-01-09T14:20:53Z</time>
      </trkpt>
      <trkpt lat="46.32084" lon="-0.29407">
        <ele>101.255</ele>
        <time>2011-01-09T14:20:54Z</time>
      </trkpt>
      <trkpt lat="46.32084" lon="-0.29408">
        <ele>101.2488</ele>
        <time>2011-01-09T14:20:55Z</time>
      </trkpt>
      <trkpt lat="46.32083" lon="-0.29409">
        <ele>101.2424</ele>
        <time>2011-01-09T14:20:56Z</time>
      </trkpt>
      <trkpt lat="46.32082" lon="-0.2941">
        <ele>101.2356</ele>
        <time>2011-01-09T14:20:57Z</time>
      </trkpt>
      <trkpt lat="46.32082" lon="-0.29411">
        <ele>101.229</ele>
        <time>2011-01-09T14:20:58Z</time>
      </trkpt>
      <trkpt lat="46.32081" lon="-0.29412">
        <ele>101.2255</ele>
        <time>2011-01-09T14:20:59Z</time>
      </trkpt>
      <trkpt lat="46.3208" lon="-0.29414">
        <ele>101.2234</ele>
        <time>2011-01-09T14:21:00Z</time>
      </trkpt>
      <trkpt lat="46.3208" lon="-0.29415">
        <ele>101.2234</ele>
        <time>2011-01-09T14:21:01Z</time>
      </trkpt>
      <trkpt lat="46.32079" lon="-0.29416">
        <ele>101.2242</ele>
        <time>2011-01-09T14:21:02Z</time>
      </trkpt>
      <trkpt lat="46.32079" lon="-0.29417">
        <ele>101.2243</ele>
        <time>2011-01-09T14:21:03Z</time>
      </trkpt>
      <trkpt lat="46.32078" lon="-0.29418">
        <ele>101.2249</ele>
        <time>2011-01-09T14:21:04Z</time>
      </trkpt>
      <trkpt lat="46.32078" lon="-0.2942">
        <ele>101.2256</ele>
        <time>2011-01-09T14:21:05Z</time>
      </trkpt>
      <trkpt lat="46.32077" lon="-0.29421">
        <ele>101.2245</ele>
        <time>2011-01-09T14:21:06Z</time>
      </trkpt>
      <trkpt lat="46.32077" lon="-0.29422">
        <ele>101.2233</ele>
        <time>2011-01-09T14:21:07Z</time>
      </trkpt>
      <trkpt lat="46.32076" lon="-0.29423">
        <ele>101.2224</ele>
        <time>2011-01-09T14:21:08Z</time>
      </trkpt>
      <trkpt lat="46.32075" lon="-0.29424">
        <ele>101.2218</ele>
        <time>2011-01-09T14:21:09Z</time>
      </trkpt>
      <trkpt lat="46.32074" lon="-0.29425">
        <ele>101.2218</ele>
        <time>2011-01-09T14:21:10Z</time>
      </trkpt>
      <trkpt lat="46.32073" lon="-0.29426">
        <ele>101.2203</ele>
        <time>2011-01-09T14:21:11Z</time>
      </trkpt>
      <trkpt lat="46.32072" lon="-0.29428">
        <ele>101.2141</ele>
        <time>2011-01-09T14:21:12Z</time>
      </trkpt>
      <trkpt lat="46.32072" lon="-0.29429">
        <ele>101.2067</ele>
        <time>2011-01-09T14:21:13Z</time>
      </trkpt>
      <trkpt lat="46.32071" lon="-0.2943">
        <ele>101.1983</ele>
        <time>2011-01-09T14:21:14Z</time>
      </trkpt>
      <trkpt lat="46.32071" lon="-0.29431">
        <ele>101.1864</ele>
        <time>2011-01-09T14:21:15Z</time>
      </trkpt>
      <trkpt lat="46.32071" lon="-0.29432">
        <ele>101.1742</ele>
        <time>2011-01-09T14:21:16Z</time>
      </trkpt>
      <trkpt lat="46.3207" lon="-0.29433">
        <ele>101.1614</ele>
        <time>2011-01-09T14:21:17Z</time>
      </trkpt>
      <trkpt lat="46.3207" lon="-0.29434">
        <ele>101.1472</ele>
        <time>2011-01-09T14:21:18Z</time>
      </trkpt>
      <trkpt lat="46.32069" lon="-0.29435">
        <ele>101.1334</ele>
        <time>2011-01-09T14:21:19Z</time>
      </trkpt>
      <trkpt lat="46.32069" lon="-0.29436">
        <ele>101.1198</ele>
        <time>2011-01-09T14:21:20Z</time>
      </trkpt>
      <trkpt lat="46.32068" lon="-0.29437">
        <ele>101.105</ele>
        <time>2011-01-09T14:21:21Z</time>
      </trkpt>
      <trkpt lat="46.32068" lon="-0.29437">
        <ele>101.0896</ele>
        <time>2011-01-09T14:21:22Z</time>
      </trkpt>
      <trkpt lat="46.32068" lon="-0.29438">
        <ele>101.0727</ele>
        <time>2011-01-09T14:21:23Z</time>
      </trkpt>
      <trkpt lat="46.32067" lon="-0.29439">
        <ele>101.0564</ele>
        <time>2011-01-09T14:21:24Z</time>
      </trkpt>
      <trkpt lat="46.32066" lon="-0.2944">
        <ele>101.0406</ele>
        <time>2011-01-09T14:21:25Z</time>
      </trkpt>
      <trkpt lat="46.32066" lon="-0.29441">
        <ele>101.0281</ele>
        <time>2011-01-09T14:21:26Z</time>
      </trkpt>
      <trkpt lat="46.32065" lon="-0.29442">
        <ele>101.0168</ele>
        <time>2011-01-09T14:21:27Z</time>
      </trkpt>
      <trkpt lat="46.32064" lon="-0.29442">
        <ele>101.0068</ele>
        <time>2011-01-09T14:21:28Z</time>
      </trkpt>
      <trkpt lat="46.32063" lon="-0.29443">
        <ele>101.0014</ele>
        <time>2011-01-09T14:21:29Z</time>
      </trkpt>
      <trkpt lat="46.32062" lon="-0.29445">
        <ele>100.9992</ele>
        <time>2011-01-09T14:21:30Z</time>
      </trkpt>
      <trkpt lat="46.32061" lon="-0.29446">
        <ele>101.0043</ele>
        <time>2011-01-09T14:21:31Z</time>
      </trkpt>
      <trkpt lat="46.3206" lon="-0.29448">
        <ele>101.0172</ele>
        <time>2011-01-09T14:21:32Z</time>
      </trkpt>
      <trkpt lat="46.32059" lon="-0.29449">
        <ele>101.0323</ele>
        <time>2011-01-09T14:21:33Z</time>
      </trkpt>
      <trkpt lat="46.32058" lon="-0.2945">
        <ele>101.0509</ele>
        <time>2011-01-09T14:21:34Z</time>
      </trkpt>
      <trkpt lat="46.32057" lon="-0.29451">
        <ele>101.0674</ele>
        <time>2011-01-09T14:21:35Z</time>
      </trkpt>
      <trkpt lat="46.32056" lon="-0.29451">
        <ele>101.0853</ele>
        <time>2011-01-09T14:21:36Z</time>
      </trkpt>
      <trkpt lat="46.32055" lon="-0.29452">
        <ele>101.0997</ele>
        <time>2011-01-09T14:21:37Z</time>
      </trkpt>
      <trkpt lat="46.32054" lon="-0.29453">
        <ele>101.1118</ele>
        <time>2011-01-09T14:21:38Z</time>
      </trkpt>
      <trkpt lat="46.32053" lon="-0.29454">
        <ele>101.126</ele>
        <time>2011-01-09T14:21:39Z</time>
      </trkpt>
      <trkpt lat="46.32052" lon="-0.29455">
        <ele>101.1372</ele>
        <time>2011-01-09T14:21:40Z</time>
      </trkpt>
      <trkpt lat="46.3205" lon="-0.29455">
        <ele>101.1438</ele>
        <time>2011-01-09T14:21:41Z</time>
      </trkpt>
      <trkpt lat="46.32049" lon="-0.29456">
        <ele>101.1419</ele>
        <time>2011-01-09T14:21:42Z</time>
      </trkpt>
      <trkpt lat="46.32047" lon="-0.29457">
        <ele>101.1322</ele>
        <time>2011-01-09T14:21:43Z</time>
      </trkpt>
      <trkpt lat="46.32046" lon="-0.29458">
        <ele>101.1205</ele>
        <time>2011-01-09T14:21:44Z</time>
      </trkpt>
      <trkpt lat="46.32045" lon="-0.29459">
        <ele>101.1046</ele>
        <time>2011-01-09T14:21:45Z</time>
      </trkpt>
      <trkpt lat="46.32044" lon="-0.29459">
        <ele>101.0854</ele>
        <time>2011-01-09T14:21:46Z</time>
      </trkpt>
      <trkpt lat="46.32044" lon="-0.2946">
        <ele>101.0612</ele>
        <time>2011-01-09T14:21:47Z</time>
      </trkpt>
      <trkpt lat="46.32043" lon="-0.29461">
        <ele>101.0368</ele>
        <time>2011-01-09T14:21:48Z</time>
      </trkpt>
      <trkpt lat="46.32042" lon="-0.29462">
        <ele>101.0107</ele>
        <time>2011-01-09T14:21:49Z</time>
      </trkpt>
      <trkpt lat="46.32041" lon="-0.29463">
        <ele>100.983</ele>
        <time>2011-01-09T14:21:50Z</time>
      </trkpt>
      <trkpt lat="46.3204" lon="-0.29463">
        <ele>100.9539</ele>
        <time>2011-01-09T14:21:51Z</time>
      </trkpt>
      <trkpt lat="46.32039" lon="-0.29464">
        <ele>100.9232</ele>
        <time>2011-01-09T14:21:52Z</time>
      </trkpt>
      <trkpt lat="46.32038" lon="-0.29465">
        <ele>100.8939</ele>
        <time>2011-01-09T14:21:53Z</time>
      </trkpt>
      <trkpt lat="46.32037" lon="-0.29466">
        <ele>100.8654</ele>
        <time>2011-01-09T14:21:54Z</time>
      </trkpt>
      <trkpt lat="46.32036" lon="-0.29467">
        <ele>100.8363</ele>
        <time>2011-01-09T14:21:55Z</time>
      </trkpt>
      <trkpt lat="46.32035" lon="-0.29467">
        <ele>100.8111</ele>
        <time>2011-01-09T14:21:56Z</time>
      </trkpt>
      <trkpt lat="46.32034" lon="-0.29468">
        <ele>100.7881</ele>
        <time>2011-01-09T14:21:57Z</time>
      </trkpt>
      <trkpt lat="46.32033" lon="-0.29468">
        <ele>100.7679</ele>
        <time>2011-01-09T14:21:58Z</time>
      </trkpt>
      <trkpt lat="46.32032" lon="-0.29469">
        <ele>100.7502</ele>
        <time>2011-01-09T14:21:59Z</time>
      </trkpt>
      <trkpt lat="46.32031" lon="-0.29469">
        <ele>100.7344</ele>
        <time>2011-01-09T14:22:00Z</time>
      </trkpt>
      <trkpt lat="46.32031" lon="-0.2947">
        <ele>100.7195</ele>
        <time>2011-01-09T14:22:01Z</time>
      </trkpt>
      <trkpt lat="46.32029" lon="-0.29471">
        <ele>100.7069</ele>
        <time>2011-01-09T14:22:02Z</time>
      </trkpt>
      <trkpt lat="46.32029" lon="-0.29471">
        <ele>100.696</ele>
        <time>2011-01-09T14:22:03Z</time>
      </trkpt>
      <trkpt lat="46.32027" lon="-0.29472">
        <ele>100.686</ele>
        <time>2011-01-09T14:22:04Z</time>
      </trkpt>
      <trkpt lat="46.32027" lon="-0.29473">
        <ele>100.6794</ele>
        <time>2011-01-09T14:22:05Z</time>
      </trkpt>
      <trkpt lat="46.32026" lon="-0.29474">
        <ele>100.6787</ele>
        <time>2011-01-09T14:22:06Z</time>
      </trkpt>
      <trkpt lat="46.32025" lon="-0.29475">
        <ele>100.6792</ele>
        <time>2011-01-09T14:22:07Z</time>
      </trkpt>
      <trkpt lat="46.32025" lon="-0.29476">
        <ele>100.6775</ele>
        <time>2011-01-09T14:22:08Z</time>
      </trkpt>
      <trkpt lat="46.32024" lon="-0.29477">
        <ele>100.6739</ele>
        <time>2011-01-09T14:22:09Z</time>
      </trkpt>
      <trkpt lat="46.32023" lon="-0.29477">
        <ele>100.6716</ele>
        <time>2011-01-09T14:22:10Z</time>
      </trkpt>
      <trkpt lat="46.32022" lon="-0.29478">
        <ele>100.6694</ele>
        <time>2011-01-09T14:22:11Z</time>
      </trkpt>
      <trkpt lat="46.32021" lon="-0.29478">
        <ele>100.6664</ele>
        <time>2011-01-09T14:22:12Z</time>
      </trkpt>
      <trkpt lat="46.32019" lon="-0.29478">
        <ele>100.6558</ele>
        <time>2011-01-09T14:22:13Z</time>
      </trkpt>
      <trkpt lat="46.32018" lon="-0.29479">
        <ele>100.6464</ele>
        <time>2011-01-09T14:22:14Z</time>
      </trkpt>
      <trkpt lat="46.32017" lon="-0.29479">
        <ele>100.6394</ele>
        <time>2011-01-09T14:22:15Z</time>
      </trkpt>
      <trkpt lat="46.32016" lon="-0.2948">
        <ele>100.6347</ele>
        <time>2011-01-09T14:22:16Z</time>
      </trkpt>
      <trkpt lat="46.32016" lon="-0.2948">
        <ele>100.6272</ele>
        <time>2011-01-09T14:22:17Z</time>
      </trkpt>
      <trkpt lat="46.32015" lon="-0.29481">
        <ele>100.6201</ele>
        <time>2011-01-09T14:22:18Z</time>
      </trkpt>
      <trkpt lat="46.32014" lon="-0.29482">
        <ele>100.6122</ele>
        <time>2011-01-09T14:22:19Z</time>
      </trkpt>
      <trkpt lat="46.32013" lon="-0.29483">
        <ele>100.6052</ele>
        <time>2011-01-09T14:22:20Z</time>
      </trkpt>
      <trkpt lat="46.32012" lon="-0.29484">
        <ele>100.5987</ele>
        <time>2011-01-09T14:22:21Z</time>
      </trkpt>
      <trkpt lat="46.32011" lon="-0.29485">
        <ele>100.5922</ele>
        <time>2011-01-09T14:22:22Z</time>
      </trkpt>
      <trkpt lat="46.3201" lon="-0.29486">
        <ele>100.5857</ele>
        <time>2011-01-09T14:22:23Z</time>
      </trkpt>
      <trkpt lat="46.3201" lon="-0.29487">
        <ele>100.5805</ele>
        <time>2011-01-09T14:22:24Z</time>
      </trkpt>
      <trkpt lat="46.32009" lon="-0.29487">
        <ele>100.5755</ele>
        <time>2011-01-09T14:22:25Z</time>
      </trkpt>
      <trkpt lat="46.32008" lon="-0.29488">
        <ele>100.5686</ele>
        <time>2011-01-09T14:22:26Z</time>
      </trkpt>
      <trkpt lat="46.32007" lon="-0.29489">
        <ele>100.5611</ele>
        <time>2011-01-09T14:22:27Z</time>
      </trkpt>
      <trkpt lat="46.32007" lon="-0.2949">
        <ele>100.5512</ele>
        <time>2011-01-09T14:22:28Z</time>
      </trkpt>
      <trkpt lat="46.32005" lon="-0.2949">
        <ele>100.537</ele>
        <time>2011-01-09T14:22:29Z</time>
      </trkpt>
      <trkpt lat="46.32005" lon="-0.29491">
        <ele>100.5231</ele>
        <time>2011-01-09T14:22:30Z</time>
      </trkpt>
      <trkpt lat="46.32003" lon="-0.29491">
        <ele>100.5042</ele>
        <time>2011-01-09T14:22:33Z</time>
      </trkpt>
      <trkpt lat="46.32003" lon="-0.29492">
        <ele>100.4866</ele>
        <time>2011-01-09T14:22:34Z</time>
      </trkpt>
      <trkpt lat="46.32002" lon="-0.29493">
        <ele>100.4656</ele>
        <time>2011-01-09T14:22:35Z</time>
      </trkpt>
      <trkpt lat="46.32001" lon="-0.29494">
        <ele>100.4433</ele>
        <time>2011-01-09T14:22:36Z</time>
      </trkpt>
      <trkpt lat="46.32" lon="-0.29494">
        <ele>100.4188</ele>
        <time>2011-01-09T14:22:37Z</time>
      </trkpt>
      <trkpt lat="46.31998" lon="-0.29495">
        <ele>100.3919</ele>
        <time>2011-01-09T14:22:38Z</time>
      </trkpt>
      <trkpt lat="46.31998" lon="-0.29496">
        <ele>100.3642</ele>
        <time>2011-01-09T14:22:39Z</time>
      </trkpt>
      <trkpt lat="46.31997" lon="-0.29497">
        <ele>100.3403</ele>
        <time>2011-01-09T14:22:40Z</time>
      </trkpt>
      <trkpt lat="46.31996" lon="-0.29497">
        <ele>100.318</ele>
        <time>2011-01-09T14:22:41Z</time>
      </trkpt>
      <trkpt lat="46.31995" lon="-0.29498">
        <ele>100.2992</ele>
        <time>2011-01-09T14:22:42Z</time>
      </trkpt>
      <trkpt lat="46.31994" lon="-0.29499">
        <ele>100.2814</ele>
        <time>2011-01-09T14:22:43Z</time>
      </trkpt>
      <trkpt lat="46.31993" lon="-0.29499">
        <ele>100.2657</ele>
        <time>2011-01-09T14:22:44Z</time>
      </trkpt>
      <trkpt lat="46.31992" lon="-0.295">
        <ele>100.2521</ele>
        <time>2011-01-09T14:22:45Z</time>
      </trkpt>
      <trkpt lat="46.31991" lon="-0.29501">
        <ele>100.2399</ele>
        <time>2011-01-09T14:22:46Z</time>
      </trkpt>
      <trkpt lat="46.3199" lon="-0.29501">
        <ele>100.2269</ele>
        <time>2011-01-09T14:22:47Z</time>
      </trkpt>
      <trkpt lat="46.3199" lon="-0.29502">
        <ele>100.2136</ele>
        <time>2011-01-09T14:22:48Z</time>
      </trkpt>
      <trkpt lat="46.3199" lon="-0.29502">
        <ele>100.2043</ele>
        <time>2011-01-09T14:22:50Z</time>
      </trkpt>
      <trkpt lat="46.31989" lon="-0.29502">
        <ele>100.1963</ele>
        <time>2011-01-09T14:22:51Z</time>
      </trkpt>
      <trkpt lat="46.31989" lon="-0.29503">
        <ele>100.1898</ele>
        <time>2011-01-09T14:22:52Z</time>
      </trkpt>
      <trkpt lat="46.31988" lon="-0.29504">
        <ele>100.1847</ele>
        <time>2011-01-09T14:22:53Z</time>
      </trkpt>
      <trkpt lat="46.31987" lon="-0.29505">
        <ele>100.1803</ele>
        <time>2011-01-09T14:22:54Z</time>
      </trkpt>
      <trkpt lat="46.31986" lon="-0.29506">
        <ele>100.1771</ele>
        <time>2011-01-09T14:22:55Z</time>
      </trkpt>
      <trkpt lat="46.31985" lon="-0.29507">
        <ele>100.175</ele>
        <time>2011-01-09T14:22:56Z</time>
      </trkpt>
      <trkpt lat="46.31984" lon="-0.29508">
        <ele>100.1736</ele>
        <time>2011-01-09T14:22:57Z</time>
      </trkpt>
      <trkpt lat="46.31984" lon="-0.29509">
        <ele>100.1712</ele>
        <time>2011-01-09T14:22:58Z</time>
      </trkpt>
      <trkpt lat="46.31982" lon="-0.2951">
        <ele>100.1671</ele>
        <time>2011-01-09T14:22:59Z</time>
      </trkpt>
      <trkpt lat="46.31982" lon="-0.29512">
        <ele>100.1632</ele>
        <time>2011-01-09T14:23:00Z</time>
      </trkpt>
      <trkpt lat="46.31981" lon="-0.29513">
        <ele>100.1584</ele>
        <time>2011-01-09T14:23:01Z</time>
      </trkpt>
      <trkpt lat="46.31981" lon="-0.29515">
        <ele>100.1541</ele>
        <time>2011-01-09T14:23:02Z</time>
      </trkpt>
      <trkpt lat="46.3198" lon="-0.29516">
        <ele>100.1497</ele>
        <time>2011-01-09T14:23:03Z</time>
      </trkpt>
      <trkpt lat="46.31979" lon="-0.29518">
        <ele>100.1445</ele>
        <time>2011-01-09T14:23:04Z</time>
      </trkpt>
      <trkpt lat="46.31979" lon="-0.29519">
        <ele>100.137</ele>
        <time>2011-01-09T14:23:05Z</time>
      </trkpt>
      <trkpt lat="46.31979" lon="-0.29521">
        <ele>100.1269</ele>
        <time>2011-01-09T14:23:06Z</time>
      </trkpt>
      <trkpt lat="46.31979" lon="-0.29522">
        <ele>100.1163</ele>
        <time>2011-01-09T14:23:07Z</time>
      </trkpt>
      <trkpt lat="46.31978" lon="-0.29524">
        <ele>100.1046</ele>
        <time>2011-01-09T14:23:08Z</time>
      </trkpt>
      <trkpt lat="46.31978" lon="-0.29525">
        <ele>100.0921</ele>
        <time>2011-01-09T14:23:09Z</time>
      </trkpt>
      <trkpt lat="46.31977" lon="-0.29527">
        <ele>100.0819</ele>
        <time>2011-01-09T14:23:10Z</time>
      </trkpt>
      <trkpt lat="46.31977" lon="-0.29528">
        <ele>100.0705</ele>
        <time>2011-01-09T14:23:11Z</time>
      </trkpt>
      <trkpt lat="46.31978" lon="-0.2953">
        <ele>100.0581</ele>
        <time>2011-01-09T14:23:12Z</time>
      </trkpt>
      <trkpt lat="46.31978" lon="-0.29531">
        <ele>100.046</ele>
        <time>2011-01-09T14:23:13Z</time>
      </trkpt>
      <trkpt lat="46.31978" lon="-0.29533">
        <ele>100.0362</ele>
        <time>2011-01-09T14:23:14Z</time>
      </trkpt>
      <trkpt lat="46.31978" lon="-0.29534">
        <ele>100.0275</ele>
        <time>2011-01-09T14:23:15Z</time>
      </trkpt>
      <trkpt lat="46.31979" lon="-0.29536">
        <ele>100.0215</ele>
        <time>2011-01-09T14:23:16Z</time>
      </trkpt>
      <trkpt lat="46.31979" lon="-0.29537">
        <ele>100.0164</ele>
        <time>2011-01-09T14:23:17Z</time>
      </trkpt>
      <trkpt lat="46.31979" lon="-0.29539">
        <ele>100.0107</ele>
        <time>2011-01-09T14:23:18Z</time>
      </trkpt>
      <trkpt lat="46.31979" lon="-0.29541">
        <ele>100.0039</ele>
        <time>2011-01-09T14:23:19Z</time>
      </trkpt>
      <trkpt lat="46.3198" lon="-0.29542">
        <ele>99.9952</ele>
        <time>2011-01-09T14:23:20Z</time>
      </trkpt>
      <trkpt lat="46.31981" lon="-0.29544">
        <ele>99.9851</ele>
        <time>2011-01-09T14:23:21Z</time>
      </trkpt>
      <trkpt lat="46.31981" lon="-0.29545">
        <ele>99.9735</ele>
        <time>2011-01-09T14:23:22Z</time>
      </trkpt>
      <trkpt lat="46.31982" lon="-0.29546">
        <ele>99.9626</ele>
        <time>2011-01-09T14:23:23Z</time>
      </trkpt>
      <trkpt lat="46.31982" lon="-0.29548">
        <ele>99.9494</ele>
        <time>2011-01-09T14:23:24Z</time>
      </trkpt>
      <trkpt lat="46.31983" lon="-0.29549">
        <ele>99.9364</ele>
        <time>2011-01-09T14:23:25Z</time>
      </trkpt>
      <trkpt lat="46.31983" lon="-0.29551">
        <ele>99.9212</ele>
        <time>2011-01-09T14:23:26Z</time>
      </trkpt>
      <trkpt lat="46.31984" lon="-0.29552">
        <ele>99.9046</ele>
        <time>2011-01-09T14:23:27Z</time>
      </trkpt>
      <trkpt lat="46.31984" lon="-0.29554">
        <ele>99.8873</ele>
        <time>2011-01-09T14:23:28Z</time>
      </trkpt>
      <trkpt lat="46.31984" lon="-0.29555">
        <ele>99.8727</ele>
        <time>2011-01-09T14:23:29Z</time>
      </trkpt>
      <trkpt lat="46.31984" lon="-0.29556">
        <ele>99.8606</ele>
        <time>2011-01-09T14:23:30Z</time>
      </trkpt>
      <trkpt lat="46.31985" lon="-0.29558">
        <ele>99.8517</ele>
        <time>2011-01-09T14:23:31Z</time>
      </trkpt>
      <trkpt lat="46.31985" lon="-0.29559">
        <ele>99.8442</ele>
        <time>2011-01-09T14:23:32Z</time>
      </trkpt>
      <trkpt lat="46.31985" lon="-0.2956">
        <ele>99.838</ele>
        <time>2011-01-09T14:23:33Z</time>
      </trkpt>
      <trkpt lat="46.31986" lon="-0.2956">
        <ele>99.834</ele>
        <time>2011-01-09T14:23:34Z</time>
      </trkpt>
      <trkpt lat="46.31986" lon="-0.29561">
        <ele>99.8316</ele>
        <time>2011-01-09T14:23:37Z</time>
      </trkpt>
      <trkpt lat="46.31986" lon="-0.29563">
        <ele>99.8326</ele>
        <time>2011-01-09T14:23:38Z</time>
      </trkpt>
      <trkpt lat="46.31986" lon="-0.29564">
        <ele>99.8319</ele>
        <time>2011-01-09T14:23:39Z</time>
      </trkpt>
      <trkpt lat="46.31986" lon="-0.29566">
        <ele>99.8297</ele>
        <time>2011-01-09T14:23:40Z</time>
      </trkpt>
      <trkpt lat="46.31986" lon="-0.29567">
        <ele>99.8273</ele>
        <time>2011-01-09T14:23:41Z</time>
      </trkpt>
      <trkpt lat="46.31987" lon="-0.29568">
        <ele>99.8204</ele>
        <time>2011-01-09T14:23:42Z</time>
      </trkpt>
      <trkpt lat="46.31987" lon="-0.2957">
        <ele>99.8129</ele>
        <time>2011-01-09T14:23:43Z</time>
      </trkpt>
      <trkpt lat="46.31986" lon="-0.29572">
        <ele>99.8043</ele>
        <time>2011-01-09T14:23:44Z</time>
      </trkpt>
      <trkpt lat="46.31986" lon="-0.29573">
        <ele>99.7965</ele>
        <time>2011-01-09T14:23:45Z</time>
      </trkpt>
      <trkpt lat="46.31985" lon="-0.29574">
        <ele>99.7912</ele>
        <time>2011-01-09T14:23:46Z</time>
      </trkpt>
      <trkpt lat="46.31985" lon="-0.29576">
        <ele>99.7848</ele>
        <time>2011-01-09T14:23:47Z</time>
      </trkpt>
      <trkpt lat="46.31985" lon="-0.29577">
        <ele>99.778</ele>
        <time>2011-01-09T14:23:48Z</time>
      </trkpt>
      <trkpt lat="46.31984" lon="-0.29578">
        <ele>99.7676</ele>
        <time>2011-01-09T14:23:49Z</time>
      </trkpt>
      <trkpt lat="46.31984" lon="-0.29579">
        <ele>99.7577</ele>
        <time>2011-01-09T14:23:50Z</time>
      </trkpt>
      <trkpt lat="46.31983" lon="-0.29581">
        <ele>99.7553</ele>
        <time>2011-01-09T14:23:51Z</time>
      </trkpt>
      <trkpt lat="46.31982" lon="-0.29582">
        <ele>99.7535</ele>
        <time>2011-01-09T14:23:52Z</time>
      </trkpt>
      <trkpt lat="46.31982" lon="-0.29583">
        <ele>99.709</ele>
        <time>2011-01-09T14:23:55Z</time>
      </trkpt>
      <trkpt lat="46.31981" lon="-0.29584">
        <ele>99.6811</ele>
        <time>2011-01-09T14:23:56Z</time>
      </trkpt>
      <trkpt lat="46.31981" lon="-0.29585">
        <ele>99.651</ele>
        <time>2011-01-09T14:23:57Z</time>
      </trkpt>
      <trkpt lat="46.31981" lon="-0.29586">
        <ele>99.6212</ele>
        <time>2011-01-09T14:23:58Z</time>
      </trkpt>
      <trkpt lat="46.31979" lon="-0.29587">
        <ele>99.5916</ele>
        <time>2011-01-09T14:23:59Z</time>
      </trkpt>
      <trkpt lat="46.31979" lon="-0.29588">
        <ele>99.5645</ele>
        <time>2011-01-09T14:24:00Z</time>
      </trkpt>
      <trkpt lat="46.31978" lon="-0.29589">
        <ele>99.5392</ele>
        <time>2011-01-09T14:24:01Z</time>
      </trkpt>
      <trkpt lat="46.31977" lon="-0.2959">
        <ele>99.5233</ele>
        <time>2011-01-09T14:24:02Z</time>
      </trkpt>
      <trkpt lat="46.31976" lon="-0.29591">
        <ele>99.5197</ele>
        <time>2011-01-09T14:24:03Z</time>
      </trkpt>
      <trkpt lat="46.31975" lon="-0.29592">
        <ele>99.5185</ele>
        <time>2011-01-09T14:24:04Z</time>
      </trkpt>
      <trkpt lat="46.31974" lon="-0.29593">
        <ele>99.5199</ele>
        <time>2011-01-09T14:24:05Z</time>
      </trkpt>
      <trkpt lat="46.31973" lon="-0.29594">
        <ele>99.5286</ele>
        <time>2011-01-09T14:24:06Z</time>
      </trkpt>
      <trkpt lat="46.31973" lon="-0.29594">
        <ele>99.5418</ele>
        <time>2011-01-09T14:24:07Z</time>
      </trkpt>
      <trkpt lat="46.31972" lon="-0.29595">
        <ele>99.5548</ele>
        <time>2011-01-09T14:24:08Z</time>
      </trkpt>
      <trkpt lat="46.31971" lon="-0.29595">
        <ele>99.5673</ele>
        <time>2011-01-09T14:24:09Z</time>
      </trkpt>
      <trkpt lat="46.3197" lon="-0.29596">
        <ele>99.5764</ele>
        <time>2011-01-09T14:24:10Z</time>
      </trkpt>
      <trkpt lat="46.31969" lon="-0.29597">
        <ele>99.5847</ele>
        <time>2011-01-09T14:24:11Z</time>
      </trkpt>
      <trkpt lat="46.31968" lon="-0.29598">
        <ele>99.5939</ele>
        <time>2011-01-09T14:24:12Z</time>
      </trkpt>
      <trkpt lat="46.31968" lon="-0.29599">
        <ele>99.5956</ele>
        <time>2011-01-09T14:24:13Z</time>
      </trkpt>
      <trkpt lat="46.31967" lon="-0.296">
        <ele>99.5974</ele>
        <time>2011-01-09T14:24:14Z</time>
      </trkpt>
      <trkpt lat="46.31966" lon="-0.29601">
        <ele>99.5963</ele>
        <time>2011-01-09T14:24:15Z</time>
      </trkpt>
      <trkpt lat="46.31965" lon="-0.29602">
        <ele>99.5966</ele>
        <time>2011-01-09T14:24:16Z</time>
      </trkpt>
      <trkpt lat="46.31965" lon="-0.29603">
        <ele>99.5966</ele>
        <time>2011-01-09T14:24:17Z</time>
      </trkpt>
      <trkpt lat="46.31964" lon="-0.29604">
        <ele>99.5974</ele>
        <time>2011-01-09T14:24:18Z</time>
      </trkpt>
      <trkpt lat="46.31963" lon="-0.29605">
        <ele>99.5984</ele>
        <time>2011-01-09T14:24:19Z</time>
      </trkpt>
      <trkpt lat="46.31961" lon="-0.29607">
        <ele>99.6012</ele>
        <time>2011-01-09T14:24:20Z</time>
      </trkpt>
      <trkpt lat="46.31961" lon="-0.29608">
        <ele>99.6049</ele>
        <time>2011-01-09T14:24:21Z</time>
      </trkpt>
      <trkpt lat="46.3196" lon="-0.2961">
        <ele>99.6097</ele>
        <time>2011-01-09T14:24:22Z</time>
      </trkpt>
      <trkpt lat="46.31958" lon="-0.29611">
        <ele>99.6178</ele>
        <time>2011-01-09T14:24:23Z</time>
      </trkpt>
      <trkpt lat="46.31957" lon="-0.29613">
        <ele>99.6268</ele>
        <time>2011-01-09T14:24:24Z</time>
      </trkpt>
      <trkpt lat="46.31957" lon="-0.29614">
        <ele>99.6315</ele>
        <time>2011-01-09T14:24:25Z</time>
      </trkpt>
      <trkpt lat="46.31956" lon="-0.29616">
        <ele>99.6363</ele>
        <time>2011-01-09T14:24:26Z</time>
      </trkpt>
      <trkpt lat="46.31955" lon="-0.29617">
        <ele>99.638</ele>
        <time>2011-01-09T14:24:27Z</time>
      </trkpt>
      <trkpt lat="46.31954" lon="-0.29619">
        <ele>99.6393</ele>
        <time>2011-01-09T14:24:28Z</time>
      </trkpt>
      <trkpt lat="46.31953" lon="-0.2962">
        <ele>99.6414</ele>
        <time>2011-01-09T14:24:29Z</time>
      </trkpt>
      <trkpt lat="46.31953" lon="-0.29622">
        <ele>99.6457</ele>
        <time>2011-01-09T14:24:30Z</time>
      </trkpt>
      <trkpt lat="46.31952" lon="-0.29623">
        <ele>99.6516</ele>
        <time>2011-01-09T14:24:31Z</time>
      </trkpt>
      <trkpt lat="46.31952" lon="-0.29623">
        <ele>99.6536</ele>
        <time>2011-01-09T14:24:32Z</time>
      </trkpt>
      <trkpt lat="46.31951" lon="-0.29623">
        <ele>99.6472</ele>
        <time>2011-01-09T14:24:33Z</time>
      </trkpt>
      <trkpt lat="46.31951" lon="-0.29624">
        <ele>99.6404</ele>
        <time>2011-01-09T14:24:34Z</time>
      </trkpt>
      <trkpt lat="46.3195" lon="-0.29625">
        <ele>99.6304</ele>
        <time>2011-01-09T14:24:35Z</time>
      </trkpt>
      <trkpt lat="46.3195" lon="-0.29626">
        <ele>99.6188</ele>
        <time>2011-01-09T14:24:36Z</time>
      </trkpt>
      <trkpt lat="46.31949" lon="-0.29628">
        <ele>99.6076</ele>
        <time>2011-01-09T14:24:37Z</time>
      </trkpt>
      <trkpt lat="46.31948" lon="-0.29629">
        <ele>99.5963</ele>
        <time>2011-01-09T14:24:38Z</time>
      </trkpt>
      <trkpt lat="46.31948" lon="-0.2963">
        <ele>99.5814</ele>
        <time>2011-01-09T14:24:39Z</time>
      </trkpt>
      <trkpt lat="46.31947" lon="-0.29632">
        <ele>99.5653</ele>
        <time>2011-01-09T14:24:40Z</time>
      </trkpt>
      <trkpt lat="46.31947" lon="-0.29633">
        <ele>99.5499</ele>
        <time>2011-01-09T14:24:41Z</time>
      </trkpt>
      <trkpt lat="46.31946" lon="-0.29635">
        <ele>99.5325</ele>
        <time>2011-01-09T14:24:42Z</time>
      </trkpt>
      <trkpt lat="46.31946" lon="-0.29637">
        <ele>99.5149</ele>
        <time>2011-01-09T14:24:43Z</time>
      </trkpt>
      <trkpt lat="46.31945" lon="-0.29638">
        <ele>99.494</ele>
        <time>2011-01-09T14:24:44Z</time>
      </trkpt>
      <trkpt lat="46.31944" lon="-0.29639">
        <ele>99.4734</ele>
        <time>2011-01-09T14:24:45Z</time>
      </trkpt>
      <trkpt lat="46.31944" lon="-0.29641">
        <ele>99.4531</ele>
        <time>2011-01-09T14:24:46Z</time>
      </trkpt>
      <trkpt lat="46.31943" lon="-0.29643">
        <ele>99.4328</ele>
        <time>2011-01-09T14:24:47Z</time>
      </trkpt>
      <trkpt lat="46.31943" lon="-0.29644">
        <ele>99.4119</ele>
        <time>2011-01-09T14:24:48Z</time>
      </trkpt>
      <trkpt lat="46.31942" lon="-0.29645">
        <ele>99.3908</ele>
        <time>2011-01-09T14:24:49Z</time>
      </trkpt>
      <trkpt lat="46.31942" lon="-0.29646">
        <ele>99.3693</ele>
        <time>2011-01-09T14:24:50Z</time>
      </trkpt>
      <trkpt lat="46.31941" lon="-0.29648">
        <ele>99.3483</ele>
        <time>2011-01-09T14:24:51Z</time>
      </trkpt>
      <trkpt lat="46.31941" lon="-0.29649">
        <ele>99.3307</ele>
        <time>2011-01-09T14:24:52Z</time>
      </trkpt>
      <trkpt lat="46.31941" lon="-0.29651">
        <ele>99.3177</ele>
        <time>2011-01-09T14:24:53Z</time>
      </trkpt>
      <trkpt lat="46.3194" lon="-0.29653">
        <ele>99.3061</ele>
        <time>2011-01-09T14:24:54Z</time>
      </trkpt>
      <trkpt lat="46.31939" lon="-0.29654">
        <ele>99.2941</ele>
        <time>2011-01-09T14:24:55Z</time>
      </trkpt>
      <trkpt lat="46.31939" lon="-0.29656">
        <ele>99.2818</ele>
        <time>2011-01-09T14:24:56Z</time>
      </trkpt>
      <trkpt lat="46.31938" lon="-0.29658">
        <ele>99.2717</ele>
        <time>2011-01-09T14:24:57Z</time>
      </trkpt>
      <trkpt lat="46.31938" lon="-0.29659">
        <ele>99.2614</ele>
        <time>2011-01-09T14:24:58Z</time>
      </trkpt>
      <trkpt lat="46.31938" lon="-0.29661">
        <ele>99.2441</ele>
        <time>2011-01-09T14:24:59Z</time>
      </trkpt>
      <trkpt lat="46.31937" lon="-0.29662">
        <ele>99.2298</ele>
        <time>2011-01-09T14:25:00Z</time>
      </trkpt>
      <trkpt lat="46.31937" lon="-0.29664">
        <ele>99.2159</ele>
        <time>2011-01-09T14:25:01Z</time>
      </trkpt>
      <trkpt lat="46.31937" lon="-0.29665">
        <ele>99.2021</ele>
        <time>2011-01-09T14:25:02Z</time>
      </trkpt>
      <trkpt lat="46.31936" lon="-0.29667">
        <ele>99.1888</ele>
        <time>2011-01-09T14:25:03Z</time>
      </trkpt>
      <trkpt lat="46.31936" lon="-0.29668">
        <ele>99.1757</ele>
        <time>2011-01-09T14:25:04Z</time>
      </trkpt>
      <trkpt lat="46.31936" lon="-0.2967">
        <ele>99.1634</ele>
        <time>2011-01-09T14:25:05Z</time>
      </trkpt>
      <trkpt lat="46.31936" lon="-0.29672">
        <ele>99.1503</ele>
        <time>2011-01-09T14:25:06Z</time>
      </trkpt>
      <trkpt lat="46.31936" lon="-0.29673">
        <ele>99.1371</ele>
        <time>2011-01-09T14:25:07Z</time>
      </trkpt>
      <trkpt lat="46.31936" lon="-0.29675">
        <ele>99.1252</ele>
        <time>2011-01-09T14:25:08Z</time>
      </trkpt>
      <trkpt lat="46.31936" lon="-0.29676">
        <ele>99.1114</ele>
        <time>2011-01-09T14:25:09Z</time>
      </trkpt>
      <trkpt lat="46.31936" lon="-0.29678">
        <ele>99.0997</ele>
        <time>2011-01-09T14:25:10Z</time>
      </trkpt>
      <trkpt lat="46.31936" lon="-0.2968">
        <ele>99.0882</ele>
        <time>2011-01-09T14:25:11Z</time>
      </trkpt>
      <trkpt lat="46.31937" lon="-0.29681">
        <ele>99.0793</ele>
        <time>2011-01-09T14:25:12Z</time>
      </trkpt>
      <trkpt lat="46.31937" lon="-0.29683">
        <ele>99.0699</ele>
        <time>2011-01-09T14:25:13Z</time>
      </trkpt>
      <trkpt lat="46.31938" lon="-0.29684">
        <ele>99.058</ele>
        <time>2011-01-09T14:25:14Z</time>
      </trkpt>
      <trkpt lat="46.31938" lon="-0.29686">
        <ele>99.0416</ele>
        <time>2011-01-09T14:25:15Z</time>
      </trkpt>
      <trkpt lat="46.31939" lon="-0.29687">
        <ele>99.0236</ele>
        <time>2011-01-09T14:25:16Z</time>
      </trkpt>
      <trkpt lat="46.3194" lon="-0.29689">
        <ele>99.0032</ele>
        <time>2011-01-09T14:25:17Z</time>
      </trkpt>
      <trkpt lat="46.31941" lon="-0.2969">
        <ele>98.983</ele>
        <time>2011-01-09T14:25:18Z</time>
      </trkpt>
      <trkpt lat="46.31941" lon="-0.29692">
        <ele>98.9632</ele>
        <time>2011-01-09T14:25:19Z</time>
      </trkpt>
      <trkpt lat="46.31942" lon="-0.29693">
        <ele>98.9432</ele>
        <time>2011-01-09T14:25:20Z</time>
      </trkpt>
      <trkpt lat="46.31943" lon="-0.29695">
        <ele>98.9221</ele>
        <time>2011-01-09T14:25:21Z</time>
      </trkpt>
      <trkpt lat="46.31944" lon="-0.29696">
        <ele>98.901</ele>
        <time>2011-01-09T14:25:22Z</time>
      </trkpt>
      <trkpt lat="46.31944" lon="-0.29698">
        <ele>98.8808</ele>
        <time>2011-01-09T14:25:23Z</time>
      </trkpt>
      <trkpt lat="46.31945" lon="-0.29699">
        <ele>98.8607</ele>
        <time>2011-01-09T14:25:24Z</time>
      </trkpt>
      <trkpt lat="46.31945" lon="-0.29701">
        <ele>98.842</ele>
        <time>2011-01-09T14:25:25Z</time>
      </trkpt>
      <trkpt lat="46.31945" lon="-0.29702">
        <ele>98.8253</ele>
        <time>2011-01-09T14:25:26Z</time>
      </trkpt>
      <trkpt lat="46.31946" lon="-0.29703">
        <ele>98.8109</ele>
        <time>2011-01-09T14:25:27Z</time>
      </trkpt>
      <trkpt lat="46.31946" lon="-0.29705">
        <ele>98.7975</ele>
        <time>2011-01-09T14:25:28Z</time>
      </trkpt>
      <trkpt lat="46.31947" lon="-0.29706">
        <ele>98.7835</ele>
        <time>2011-01-09T14:25:29Z</time>
      </trkpt>
      <trkpt lat="46.31947" lon="-0.29708">
        <ele>98.7705</ele>
        <time>2011-01-09T14:25:30Z</time>
      </trkpt>
      <trkpt lat="46.31948" lon="-0.2971">
        <ele>98.7588</ele>
        <time>2011-01-09T14:25:31Z</time>
      </trkpt>
      <trkpt lat="46.31948" lon="-0.29712">
        <ele>98.7472</ele>
        <time>2011-01-09T14:25:32Z</time>
      </trkpt>
      <trkpt lat="46.31949" lon="-0.29714">
        <ele>98.7372</ele>
        <time>2011-01-09T14:25:33Z</time>
      </trkpt>
      <trkpt lat="46.31949" lon="-0.29716">
        <ele>98.7278</ele>
        <time>2011-01-09T14:25:34Z</time>
      </trkpt>
      <trkpt lat="46.31949" lon="-0.29718">
        <ele>98.7194</ele>
        <time>2011-01-09T14:25:35Z</time>
      </trkpt>
      <trkpt lat="46.3195" lon="-0.29719">
        <ele>98.7114</ele>
        <time>2011-01-09T14:25:36Z</time>
      </trkpt>
      <trkpt lat="46.3195" lon="-0.29721">
        <ele>98.7035</ele>
        <time>2011-01-09T14:25:37Z</time>
      </trkpt>
      <trkpt lat="46.31951" lon="-0.29722">
        <ele>98.6962</ele>
        <time>2011-01-09T14:25:38Z</time>
      </trkpt>
      <trkpt lat="46.31952" lon="-0.29724">
        <ele>98.69</ele>
        <time>2011-01-09T14:25:39Z</time>
      </trkpt>
      <trkpt lat="46.31952" lon="-0.29725">
        <ele>98.685</ele>
        <time>2011-01-09T14:25:40Z</time>
      </trkpt>
      <trkpt lat="46.31952" lon="-0.29727">
        <ele>98.6804</ele>
        <time>2011-01-09T14:25:41Z</time>
      </trkpt>
      <trkpt lat="46.31952" lon="-0.29728">
        <ele>98.6759</ele>
        <time>2011-01-09T14:25:42Z</time>
      </trkpt>
      <trkpt lat="46.31952" lon="-0.29729">
        <ele>98.6718</ele>
        <time>2011-01-09T14:25:43Z</time>
      </trkpt>
      <trkpt lat="46.31952" lon="-0.2973">
        <ele>98.6679</ele>
        <time>2011-01-09T14:25:44Z</time>
      </trkpt>
      <trkpt lat="46.31952" lon="-0.2973">
        <ele>98.6629</ele>
        <time>2011-01-09T14:25:45Z</time>
      </trkpt>
      <trkpt lat="46.31952" lon="-0.29731">
        <ele>98.6506</ele>
        <time>2011-01-09T14:25:48Z</time>
      </trkpt>
      <trkpt lat="46.31953" lon="-0.29732">
        <ele>98.6467</ele>
        <time>2011-01-09T14:25:49Z</time>
      </trkpt>
      <trkpt lat="46.31954" lon="-0.29733">
        <ele>98.643</ele>
        <time>2011-01-09T14:25:50Z</time>
      </trkpt>
      <trkpt lat="46.31954" lon="-0.29735">
        <ele>98.6393</ele>
        <time>2011-01-09T14:25:51Z</time>
      </trkpt>
      <trkpt lat="46.31955" lon="-0.29736">
        <ele>98.6356</ele>
        <time>2011-01-09T14:25:52Z</time>
      </trkpt>
      <trkpt lat="46.31955" lon="-0.29737">
        <ele>98.6309</ele>
        <time>2011-01-09T14:25:53Z</time>
      </trkpt>
      <trkpt lat="46.31956" lon="-0.29738">
        <ele>98.626</ele>
        <time>2011-01-09T14:25:54Z</time>
      </trkpt>
      <trkpt lat="46.31957" lon="-0.29739">
        <ele>98.6217</ele>
        <time>2011-01-09T14:25:55Z</time>
      </trkpt>
      <trkpt lat="46.31958" lon="-0.2974">
        <ele>98.6172</ele>
        <time>2011-01-09T14:25:56Z</time>
      </trkpt>
      <trkpt lat="46.31958" lon="-0.29741">
        <ele>98.6128</ele>
        <time>2011-01-09T14:25:57Z</time>
      </trkpt>
      <trkpt lat="46.31959" lon="-0.29743">
        <ele>98.6082</ele>
        <time>2011-01-09T14:25:58Z</time>
      </trkpt>
      <trkpt lat="46.3196" lon="-0.29744">
        <ele>98.6027</ele>
        <time>2011-01-09T14:25:59Z</time>
      </trkpt>
      <trkpt lat="46.3196" lon="-0.29746">
        <ele>98.5951</ele>
        <time>2011-01-09T14:26:00Z</time>
      </trkpt>
      <trkpt lat="46.3196" lon="-0.29747">
        <ele>98.5864</ele>
        <time>2011-01-09T14:26:01Z</time>
      </trkpt>
      <trkpt lat="46.31961" lon="-0.29749">
        <ele>98.5765</ele>
        <time>2011-01-09T14:26:02Z</time>
      </trkpt>
      <trkpt lat="46.31961" lon="-0.2975">
        <ele>98.5657</ele>
        <time>2011-01-09T14:26:03Z</time>
      </trkpt>
      <trkpt lat="46.31961" lon="-0.29752">
        <ele>98.5489</ele>
        <time>2011-01-09T14:26:04Z</time>
      </trkpt>
      <trkpt lat="46.31962" lon="-0.29753">
        <ele>98.5287</ele>
        <time>2011-01-09T14:26:05Z</time>
      </trkpt>
      <trkpt lat="46.31962" lon="-0.29754">
        <ele>98.5095</ele>
        <time>2011-01-09T14:26:06Z</time>
      </trkpt>
      <trkpt lat="46.31963" lon="-0.29756">
        <ele>98.4908</ele>
        <time>2011-01-09T14:26:07Z</time>
      </trkpt>
      <trkpt lat="46.31963" lon="-0.29757">
        <ele>98.4739</ele>
        <time>2011-01-09T14:26:08Z</time>
      </trkpt>
      <trkpt lat="46.31964" lon="-0.29759">
        <ele>98.4599</ele>
        <time>2011-01-09T14:26:09Z</time>
      </trkpt>
      <trkpt lat="46.31964" lon="-0.2976">
        <ele>98.4468</ele>
        <time>2011-01-09T14:26:10Z</time>
      </trkpt>
      <trkpt lat="46.31964" lon="-0.29762">
        <ele>98.4323</ele>
        <time>2011-01-09T14:26:11Z</time>
      </trkpt>
      <trkpt lat="46.31964" lon="-0.29763">
        <ele>98.4185</ele>
        <time>2011-01-09T14:26:12Z</time>
      </trkpt>
      <trkpt lat="46.31965" lon="-0.29764">
        <ele>98.4051</ele>
        <time>2011-01-09T14:26:13Z</time>
      </trkpt>
      <trkpt lat="46.31965" lon="-0.29765">
        <ele>98.392</ele>
        <time>2011-01-09T14:26:14Z</time>
      </trkpt>
      <trkpt lat="46.31966" lon="-0.29766">
        <ele>98.3792</ele>
        <time>2011-01-09T14:26:15Z</time>
      </trkpt>
      <trkpt lat="46.31967" lon="-0.29766">
        <ele>98.368</ele>
        <time>2011-01-09T14:26:16Z</time>
      </trkpt>
      <trkpt lat="46.31968" lon="-0.29766">
        <ele>98.3487</ele>
        <time>2011-01-09T14:26:17Z</time>
      </trkpt>
      <trkpt lat="46.31968" lon="-0.29766">
        <ele>98.3319</ele>
        <time>2011-01-09T14:26:18Z</time>
      </trkpt>
      <trkpt lat="46.31968" lon="-0.29767">
        <ele>98.3044</ele>
        <time>2011-01-09T14:26:20Z</time>
      </trkpt>
      <trkpt lat="46.31969" lon="-0.29768">
        <ele>98.2777</ele>
        <time>2011-01-09T14:26:21Z</time>
      </trkpt>
      <trkpt lat="46.31969" lon="-0.29769">
        <ele>98.2447</ele>
        <time>2011-01-09T14:26:22Z</time>
      </trkpt>
      <trkpt lat="46.31969" lon="-0.2977">
        <ele>98.2137</ele>
        <time>2011-01-09T14:26:23Z</time>
      </trkpt>
      <trkpt lat="46.3197" lon="-0.29771">
        <ele>98.1857</ele>
        <time>2011-01-09T14:26:24Z</time>
      </trkpt>
      <trkpt lat="46.3197" lon="-0.29772">
        <ele>98.1581</ele>
        <time>2011-01-09T14:26:25Z</time>
      </trkpt>
      <trkpt lat="46.3197" lon="-0.29773">
        <ele>98.1307</ele>
        <time>2011-01-09T14:26:26Z</time>
      </trkpt>
      <trkpt lat="46.3197" lon="-0.29774">
        <ele>98.1012</ele>
        <time>2011-01-09T14:26:27Z</time>
      </trkpt>
      <trkpt lat="46.31971" lon="-0.29775">
        <ele>98.071</ele>
        <time>2011-01-09T14:26:28Z</time>
      </trkpt>
      <trkpt lat="46.31971" lon="-0.29776">
        <ele>98.0401</ele>
        <time>2011-01-09T14:26:29Z</time>
      </trkpt>
      <trkpt lat="46.31972" lon="-0.29778">
        <ele>98.0092</ele>
        <time>2011-01-09T14:26:30Z</time>
      </trkpt>
      <trkpt lat="46.31973" lon="-0.29779">
        <ele>97.9788</ele>
        <time>2011-01-09T14:26:31Z</time>
      </trkpt>
      <trkpt lat="46.31973" lon="-0.29781">
        <ele>97.9481</ele>
        <time>2011-01-09T14:26:32Z</time>
      </trkpt>
      <trkpt lat="46.31974" lon="-0.29782">
        <ele>97.9171</ele>
        <time>2011-01-09T14:26:33Z</time>
      </trkpt>
      <trkpt lat="46.31974" lon="-0.29784">
        <ele>97.8862</ele>
        <time>2011-01-09T14:26:34Z</time>
      </trkpt>
      <trkpt lat="46.31975" lon="-0.29786">
        <ele>97.8582</ele>
        <time>2011-01-09T14:26:35Z</time>
      </trkpt>
      <trkpt lat="46.31975" lon="-0.29787">
        <ele>97.8318</ele>
        <time>2011-01-09T14:26:36Z</time>
      </trkpt>
      <trkpt lat="46.31976" lon="-0.29788">
        <ele>97.8058</ele>
        <time>2011-01-09T14:26:37Z</time>
      </trkpt>
      <trkpt lat="46.31976" lon="-0.2979">
        <ele>97.7791</ele>
        <time>2011-01-09T14:26:38Z</time>
      </trkpt>
      <trkpt lat="46.31977" lon="-0.29791">
        <ele>97.7537</ele>
        <time>2011-01-09T14:26:39Z</time>
      </trkpt>
      <trkpt lat="46.31977" lon="-0.29792">
        <ele>97.7302</ele>
        <time>2011-01-09T14:26:40Z</time>
      </trkpt>
      <trkpt lat="46.31977" lon="-0.29794">
        <ele>97.7083</ele>
        <time>2011-01-09T14:26:41Z</time>
      </trkpt>
      <trkpt lat="46.31978" lon="-0.29795">
        <ele>97.6897</ele>
        <time>2011-01-09T14:26:42Z</time>
      </trkpt>
      <trkpt lat="46.31979" lon="-0.29796">
        <ele>97.672</ele>
        <time>2011-01-09T14:26:43Z</time>
      </trkpt>
      <trkpt lat="46.31979" lon="-0.29798">
        <ele>97.6545</ele>
        <time>2011-01-09T14:26:44Z</time>
      </trkpt>
      <trkpt lat="46.31979" lon="-0.298">
        <ele>97.6373</ele>
        <time>2011-01-09T14:26:45Z</time>
      </trkpt>
      <trkpt lat="46.3198" lon="-0.29801">
        <ele>97.6209</ele>
        <time>2011-01-09T14:26:46Z</time>
      </trkpt>
      <trkpt lat="46.31981" lon="-0.29802">
        <ele>97.607</ele>
        <time>2011-01-09T14:26:47Z</time>
      </trkpt>
      <trkpt lat="46.31981" lon="-0.29803">
        <ele>97.5961</ele>
        <time>2011-01-09T14:26:48Z</time>
      </trkpt>
      <trkpt lat="46.31982" lon="-0.29804">
        <ele>97.5854</ele>
        <time>2011-01-09T14:26:49Z</time>
      </trkpt>
      <trkpt lat="46.31982" lon="-0.29805">
        <ele>97.5715</ele>
        <time>2011-01-09T14:26:50Z</time>
      </trkpt>
      <trkpt lat="46.31983" lon="-0.29806">
        <ele>97.5581</ele>
        <time>2011-01-09T14:26:51Z</time>
      </trkpt>
      <trkpt lat="46.31984" lon="-0.29807">
        <ele>97.5467</ele>
        <time>2011-01-09T14:26:52Z</time>
      </trkpt>
      <trkpt lat="46.31984" lon="-0.29808">
        <ele>97.5381</ele>
        <time>2011-01-09T14:26:53Z</time>
      </trkpt>
      <trkpt lat="46.31985" lon="-0.2981">
        <ele>97.5304</ele>
        <time>2011-01-09T14:26:54Z</time>
      </trkpt>
      <trkpt lat="46.31986" lon="-0.29811">
        <ele>97.5242</ele>
        <time>2011-01-09T14:26:55Z</time>
      </trkpt>
      <trkpt lat="46.31986" lon="-0.29812">
        <ele>97.5175</ele>
        <time>2011-01-09T14:26:56Z</time>
      </trkpt>
      <trkpt lat="46.31986" lon="-0.29813">
        <ele>97.5113</ele>
        <time>2011-01-09T14:26:57Z</time>
      </trkpt>
      <trkpt lat="46.31987" lon="-0.29814">
        <ele>97.5055</ele>
        <time>2011-01-09T14:26:58Z</time>
      </trkpt>
      <trkpt lat="46.31987" lon="-0.29816">
        <ele>97.5017</ele>
        <time>2011-01-09T14:26:59Z</time>
      </trkpt>
      <trkpt lat="46.31987" lon="-0.29817">
        <ele>97.501</ele>
        <time>2011-01-09T14:27:00Z</time>
      </trkpt>
      <trkpt lat="46.31988" lon="-0.29819">
        <ele>97.5034</ele>
        <time>2011-01-09T14:27:01Z</time>
      </trkpt>
      <trkpt lat="46.31988" lon="-0.29821">
        <ele>97.5133</ele>
        <time>2011-01-09T14:27:02Z</time>
      </trkpt>
      <trkpt lat="46.31989" lon="-0.29822">
        <ele>97.5289</ele>
        <time>2011-01-09T14:27:03Z</time>
      </trkpt>
      <trkpt lat="46.31989" lon="-0.29824">
        <ele>97.5484</ele>
        <time>2011-01-09T14:27:04Z</time>
      </trkpt>
      <trkpt lat="46.3199" lon="-0.29825">
        <ele>97.5693</ele>
        <time>2011-01-09T14:27:05Z</time>
      </trkpt>
      <trkpt lat="46.3199" lon="-0.29825">
        <ele>97.5892</ele>
        <time>2011-01-09T14:27:06Z</time>
      </trkpt>
      <trkpt lat="46.31991" lon="-0.29825">
        <ele>97.6066</ele>
        <time>2011-01-09T14:27:07Z</time>
      </trkpt>
      <trkpt lat="46.31992" lon="-0.29826">
        <ele>97.6216</ele>
        <time>2011-01-09T14:27:08Z</time>
      </trkpt>
      <trkpt lat="46.31992" lon="-0.29826">
        <ele>97.6359</ele>
        <time>2011-01-09T14:27:09Z</time>
      </trkpt>
      <trkpt lat="46.31993" lon="-0.29828">
        <ele>97.6456</ele>
        <time>2011-01-09T14:27:10Z</time>
      </trkpt>
      <trkpt lat="46.31994" lon="-0.29828">
        <ele>97.6528</ele>
        <time>2011-01-09T14:27:11Z</time>
      </trkpt>
      <trkpt lat="46.31994" lon="-0.29829">
        <ele>97.6576</ele>
        <time>2011-01-09T14:27:12Z</time>
      </trkpt>
      <trkpt lat="46.31995" lon="-0.2983">
        <ele>97.6622</ele>
        <time>2011-01-09T14:27:13Z</time>
      </trkpt>
      <trkpt lat="46.31995" lon="-0.29831">
        <ele>97.6582</ele>
        <time>2011-01-09T14:27:14Z</time>
      </trkpt>
      <trkpt lat="46.31996" lon="-0.29832">
        <ele>97.6496</ele>
        <time>2011-01-09T14:27:15Z</time>
      </trkpt>
      <trkpt lat="46.31996" lon="-0.29833">
        <ele>97.6433</ele>
        <time>2011-01-09T14:27:16Z</time>
      </trkpt>
      <trkpt lat="46.31997" lon="-0.29834">
        <ele>97.6409</ele>
        <time>2011-01-09T14:27:17Z</time>
      </trkpt>
      <trkpt lat="46.31997" lon="-0.29835">
        <ele>97.6383</ele>
        <time>2011-01-09T14:27:18Z</time>
      </trkpt>
      <trkpt lat="46.31997" lon="-0.29836">
        <ele>97.6349</ele>
        <time>2011-01-09T14:27:19Z</time>
      </trkpt>
      <trkpt lat="46.31997" lon="-0.29837">
        <ele>97.631</ele>
        <time>2011-01-09T14:27:20Z</time>
      </trkpt>
      <trkpt lat="46.31998" lon="-0.29839">
        <ele>97.6281</ele>
        <time>2011-01-09T14:27:21Z</time>
      </trkpt>
      <trkpt lat="46.31998" lon="-0.2984">
        <ele>97.6279</ele>
        <time>2011-01-09T14:27:22Z</time>
      </trkpt>
      <trkpt lat="46.31998" lon="-0.29841">
        <ele>97.6232</ele>
        <time>2011-01-09T14:27:23Z</time>
      </trkpt>
      <trkpt lat="46.31998" lon="-0.29843">
        <ele>97.6129</ele>
        <time>2011-01-09T14:27:24Z</time>
      </trkpt>
      <trkpt lat="46.31999" lon="-0.29844">
        <ele>97.6011</ele>
        <time>2011-01-09T14:27:25Z</time>
      </trkpt>
      <trkpt lat="46.31999" lon="-0.29846">
        <ele>97.584</ele>
        <time>2011-01-09T14:27:26Z</time>
      </trkpt>
      <trkpt lat="46.32" lon="-0.29848">
        <ele>97.5673</ele>
        <time>2011-01-09T14:27:27Z</time>
      </trkpt>
      <trkpt lat="46.32001" lon="-0.29849">
        <ele>97.547</ele>
        <time>2011-01-09T14:27:28Z</time>
      </trkpt>
      <trkpt lat="46.32002" lon="-0.29851">
        <ele>97.5262</ele>
        <time>2011-01-09T14:27:29Z</time>
      </trkpt>
      <trkpt lat="46.32002" lon="-0.29853">
        <ele>97.5064</ele>
        <time>2011-01-09T14:27:30Z</time>
      </trkpt>
      <trkpt lat="46.32002" lon="-0.29855">
        <ele>97.4903</ele>
        <time>2011-01-09T14:27:31Z</time>
      </trkpt>
      <trkpt lat="46.32002" lon="-0.29857">
        <ele>97.4776</ele>
        <time>2011-01-09T14:27:32Z</time>
      </trkpt>
      <trkpt lat="46.32003" lon="-0.29858">
        <ele>97.4719</ele>
        <time>2011-01-09T14:27:33Z</time>
      </trkpt>
      <trkpt lat="46.32003" lon="-0.29859">
        <ele>97.4722</ele>
        <time>2011-01-09T14:27:34Z</time>
      </trkpt>
      <trkpt lat="46.32003" lon="-0.29861">
        <ele>97.4776</ele>
        <time>2011-01-09T14:27:35Z</time>
      </trkpt>
      <trkpt lat="46.32004" lon="-0.29862">
        <ele>97.483</ele>
        <time>2011-01-09T14:27:36Z</time>
      </trkpt>
      <trkpt lat="46.32005" lon="-0.29864">
        <ele>97.4881</ele>
        <time>2011-01-09T14:27:37Z</time>
      </trkpt>
      <trkpt lat="46.32005" lon="-0.29865">
        <ele>97.4943</ele>
        <time>2011-01-09T14:27:38Z</time>
      </trkpt>
      <trkpt lat="46.32005" lon="-0.29867">
        <ele>97.4987</ele>
        <time>2011-01-09T14:27:39Z</time>
      </trkpt>
      <trkpt lat="46.32006" lon="-0.29868">
        <ele>97.5015</ele>
        <time>2011-01-09T14:27:40Z</time>
      </trkpt>
      <trkpt lat="46.32006" lon="-0.2987">
        <ele>97.5038</ele>
        <time>2011-01-09T14:27:41Z</time>
      </trkpt>
      <trkpt lat="46.32007" lon="-0.29871">
        <ele>97.5062</ele>
        <time>2011-01-09T14:27:42Z</time>
      </trkpt>
      <trkpt lat="46.32007" lon="-0.29872">
        <ele>97.5078</ele>
        <time>2011-01-09T14:27:43Z</time>
      </trkpt>
      <trkpt lat="46.32007" lon="-0.29874">
        <ele>97.51</ele>
        <time>2011-01-09T14:27:44Z</time>
      </trkpt>
      <trkpt lat="46.32008" lon="-0.29875">
        <ele>97.5123</ele>
        <time>2011-01-09T14:27:45Z</time>
      </trkpt>
      <trkpt lat="46.32008" lon="-0.29877">
        <ele>97.5151</ele>
        <time>2011-01-09T14:27:46Z</time>
      </trkpt>
      <trkpt lat="46.32009" lon="-0.29878">
        <ele>97.5163</ele>
        <time>2011-01-09T14:27:47Z</time>
      </trkpt>
      <trkpt lat="46.3201" lon="-0.2988">
        <ele>97.5159</ele>
        <time>2011-01-09T14:27:48Z</time>
      </trkpt>
      <trkpt lat="46.32011" lon="-0.29882">
        <ele>97.5158</ele>
        <time>2011-01-09T14:27:49Z</time>
      </trkpt>
      <trkpt lat="46.32011" lon="-0.29884">
        <ele>97.5158</ele>
        <time>2011-01-09T14:27:50Z</time>
      </trkpt>
      <trkpt lat="46.32012" lon="-0.29886">
        <ele>97.5149</ele>
        <time>2011-01-09T14:27:51Z</time>
      </trkpt>
      <trkpt lat="46.32012" lon="-0.29887">
        <ele>97.5138</ele>
        <time>2011-01-09T14:27:52Z</time>
      </trkpt>
      <trkpt lat="46.32013" lon="-0.29889">
        <ele>97.5136</ele>
        <time>2011-01-09T14:27:53Z</time>
      </trkpt>
      <trkpt lat="46.32013" lon="-0.2989">
        <ele>97.5125</ele>
        <time>2011-01-09T14:27:54Z</time>
      </trkpt>
      <trkpt lat="46.32014" lon="-0.29891">
        <ele>97.5097</ele>
        <time>2011-01-09T14:27:55Z</time>
      </trkpt>
      <trkpt lat="46.32015" lon="-0.29893">
        <ele>97.5065</ele>
        <time>2011-01-09T14:27:56Z</time>
      </trkpt>
      <trkpt lat="46.32016" lon="-0.29894">
        <ele>97.5031</ele>
        <time>2011-01-09T14:27:57Z</time>
      </trkpt>
      <trkpt lat="46.32017" lon="-0.29896">
        <ele>97.4982</ele>
        <time>2011-01-09T14:27:58Z</time>
      </trkpt>
      <trkpt lat="46.32018" lon="-0.29897">
        <ele>97.494</ele>
        <time>2011-01-09T14:27:59Z</time>
      </trkpt>
      <trkpt lat="46.32018" lon="-0.29899">
        <ele>97.4899</ele>
        <time>2011-01-09T14:28:00Z</time>
      </trkpt>
      <trkpt lat="46.32018" lon="-0.299">
        <ele>97.4867</ele>
        <time>2011-01-09T14:28:01Z</time>
      </trkpt>
      <trkpt lat="46.32019" lon="-0.29901">
        <ele>97.4837</ele>
        <time>2011-01-09T14:28:02Z</time>
      </trkpt>
      <trkpt lat="46.32019" lon="-0.29902">
        <ele>97.4818</ele>
        <time>2011-01-09T14:28:03Z</time>
      </trkpt>
      <trkpt lat="46.32018" lon="-0.29902">
        <ele>97.4524</ele>
        <time>2011-01-09T14:28:16Z</time>
      </trkpt>
      <trkpt lat="46.32018" lon="-0.29903">
        <ele>97.4297</ele>
        <time>2011-01-09T14:28:17Z</time>
      </trkpt>
      <trkpt lat="46.32018" lon="-0.29905">
        <ele>97.4068</ele>
        <time>2011-01-09T14:28:18Z</time>
      </trkpt>
      <trkpt lat="46.32019" lon="-0.29906">
        <ele>97.3847</ele>
        <time>2011-01-09T14:28:19Z</time>
      </trkpt>
      <trkpt lat="46.32019" lon="-0.29908">
        <ele>97.3626</ele>
        <time>2011-01-09T14:28:20Z</time>
      </trkpt>
      <trkpt lat="46.32019" lon="-0.29909">
        <ele>97.3409</ele>
        <time>2011-01-09T14:28:21Z</time>
      </trkpt>
      <trkpt lat="46.32019" lon="-0.2991">
        <ele>97.319</ele>
        <time>2011-01-09T14:28:22Z</time>
      </trkpt>
      <trkpt lat="46.3202" lon="-0.29912">
        <ele>97.2969</ele>
        <time>2011-01-09T14:28:23Z</time>
      </trkpt>
      <trkpt lat="46.32021" lon="-0.29913">
        <ele>97.276</ele>
        <time>2011-01-09T14:28:24Z</time>
      </trkpt>
      <trkpt lat="46.32022" lon="-0.29914">
        <ele>97.2589</ele>
        <time>2011-01-09T14:28:25Z</time>
      </trkpt>
      <trkpt lat="46.32023" lon="-0.29915">
        <ele>97.2452</ele>
        <time>2011-01-09T14:28:26Z</time>
      </trkpt>
      <trkpt lat="46.32024" lon="-0.29916">
        <ele>97.2278</ele>
        <time>2011-01-09T14:28:27Z</time>
      </trkpt>
      <trkpt lat="46.32024" lon="-0.29918">
        <ele>97.2114</ele>
        <time>2011-01-09T14:28:28Z</time>
      </trkpt>
      <trkpt lat="46.32025" lon="-0.29919">
        <ele>97.1944</ele>
        <time>2011-01-09T14:28:29Z</time>
      </trkpt>
      <trkpt lat="46.32026" lon="-0.2992">
        <ele>97.177</ele>
        <time>2011-01-09T14:28:30Z</time>
      </trkpt>
      <trkpt lat="46.32027" lon="-0.29922">
        <ele>97.1603</ele>
        <time>2011-01-09T14:28:31Z</time>
      </trkpt>
      <trkpt lat="46.32027" lon="-0.29923">
        <ele>97.1432</ele>
        <time>2011-01-09T14:28:32Z</time>
      </trkpt>
      <trkpt lat="46.32028" lon="-0.29925">
        <ele>97.1279</ele>
        <time>2011-01-09T14:28:33Z</time>
      </trkpt>
      <trkpt lat="46.32028" lon="-0.29926">
        <ele>97.1098</ele>
        <time>2011-01-09T14:28:34Z</time>
      </trkpt>
      <trkpt lat="46.32029" lon="-0.29928">
        <ele>97.0917</ele>
        <time>2011-01-09T14:28:35Z</time>
      </trkpt>
      <trkpt lat="46.3203" lon="-0.29929">
        <ele>97.0682</ele>
        <time>2011-01-09T14:28:36Z</time>
      </trkpt>
      <trkpt lat="46.32031" lon="-0.2993">
        <ele>97.0444</ele>
        <time>2011-01-09T14:28:37Z</time>
      </trkpt>
      <trkpt lat="46.32032" lon="-0.29931">
        <ele>97.0222</ele>
        <time>2011-01-09T14:28:38Z</time>
      </trkpt>
      <trkpt lat="46.32032" lon="-0.29932">
        <ele>97.0079</ele>
        <time>2011-01-09T14:28:39Z</time>
      </trkpt>
      <trkpt lat="46.32033" lon="-0.29933">
        <ele>96.9938</ele>
        <time>2011-01-09T14:28:40Z</time>
      </trkpt>
      <trkpt lat="46.32034" lon="-0.29933">
        <ele>96.9819</ele>
        <time>2011-01-09T14:28:41Z</time>
      </trkpt>
      <trkpt lat="46.32035" lon="-0.29934">
        <ele>96.9681</ele>
        <time>2011-01-09T14:28:42Z</time>
      </trkpt>
      <trkpt lat="46.32036" lon="-0.29934">
        <ele>96.9528</ele>
        <time>2011-01-09T14:28:43Z</time>
      </trkpt>
      <trkpt lat="46.32037" lon="-0.29934">
        <ele>96.934</ele>
        <time>2011-01-09T14:28:44Z</time>
      </trkpt>
      <trkpt lat="46.32037" lon="-0.29934">
        <ele>96.9144</ele>
        <time>2011-01-09T14:28:45Z</time>
      </trkpt>
      <trkpt lat="46.32039" lon="-0.29933">
        <ele>96.895</ele>
        <time>2011-01-09T14:28:46Z</time>
      </trkpt>
      <trkpt lat="46.32039" lon="-0.29933">
        <ele>96.8744</ele>
        <time>2011-01-09T14:28:47Z</time>
      </trkpt>
      <trkpt lat="46.3204" lon="-0.29932">
        <ele>96.8528</ele>
        <time>2011-01-09T14:28:48Z</time>
      </trkpt>
      <trkpt lat="46.32042" lon="-0.29931">
        <ele>96.8292</ele>
        <time>2011-01-09T14:28:49Z</time>
      </trkpt>
      <trkpt lat="46.32043" lon="-0.2993">
        <ele>96.8056</ele>
        <time>2011-01-09T14:28:50Z</time>
      </trkpt>
      <trkpt lat="46.32044" lon="-0.29929">
        <ele>96.7788</ele>
        <time>2011-01-09T14:28:51Z</time>
      </trkpt>
      <trkpt lat="46.32045" lon="-0.29927">
        <ele>96.7456</ele>
        <time>2011-01-09T14:28:52Z</time>
      </trkpt>
      <trkpt lat="46.32047" lon="-0.29926">
        <ele>96.709</ele>
        <time>2011-01-09T14:28:53Z</time>
      </trkpt>
      <trkpt lat="46.32048" lon="-0.29924">
        <ele>96.671</ele>
        <time>2011-01-09T14:28:54Z</time>
      </trkpt>
      <trkpt lat="46.3205" lon="-0.29923">
        <ele>96.6313</ele>
        <time>2011-01-09T14:28:55Z</time>
      </trkpt>
      <trkpt lat="46.32051" lon="-0.29922">
        <ele>96.591</ele>
        <time>2011-01-09T14:28:56Z</time>
      </trkpt>
      <trkpt lat="46.32052" lon="-0.29921">
        <ele>96.5496</ele>
        <time>2011-01-09T14:28:57Z</time>
      </trkpt>
    </trkseg>
  </trk>
</gpx>